<?xml version='1.0' encoding='UTF-8'?><gpx version="1.1" creator="JPX - https://github.com/jenetics/jpx" xmlns="http://www.topografix.com/GPX/1/1"><trk><trkseg><trkpt lat="43.1843526" lon="12.1460531"><ele>258.0</ele><time>2026-05-03T06:37:54.674Z</time></trkpt><trkpt lat="43.1842039" lon="12.1459194"><ele>258.0</ele><time>2026-05-03T06:37:58.679Z</time></trkpt><trkpt lat="43.1841447" lon="12.1458833"><ele>258.0</ele><time>2026-05-03T06:37:59.778Z</time></trkpt><trkpt lat="43.1842098" lon="12.1458904"><ele>258.0</ele><time>2026-05-03T06:42:25.782Z</time></trkpt><trkpt lat="43.1842181" lon="12.1458042"><ele>258.0</ele><time>2026-05-03T06:42:53.8Z</time></trkpt><trkpt lat="43.1842249" lon="12.1457169"><ele>258.0</ele><time>2026-05-03T06:42:56.801Z</time></trkpt><trkpt lat="43.1842353" lon="12.1456182"><ele>257.6666666666667</ele><time>2026-05-03T06:42:59.8Z</time></trkpt><trkpt lat="43.1842419" lon="12.1455183"><ele>257.3333333333333</ele><time>2026-05-03T06:43:02.804Z</time></trkpt><trkpt lat="43.1842513" lon="12.1454065"><ele>257.0</ele><time>2026-05-03T06:43:05.805Z</time></trkpt><trkpt lat="43.1842583" lon="12.1452996"><ele>256.66666666666663</ele><time>2026-05-03T06:43:08.791Z</time></trkpt><trkpt lat="43.1842664" lon="12.1451873"><ele>256.3333333333333</ele><time>2026-05-03T06:43:11.781Z</time></trkpt><trkpt lat="43.1842853" lon="12.1450835"><ele>256.0</ele><time>2026-05-03T06:43:14.788Z</time></trkpt><trkpt lat="43.184306" lon="12.1449783"><ele>255.99999999999997</ele><time>2026-05-03T06:43:17.805Z</time></trkpt><trkpt lat="43.1843397" lon="12.144881"><ele>256.0</ele><time>2026-05-03T06:43:20.783Z</time></trkpt><trkpt lat="43.1843856" lon="12.1447859"><ele>256.0</ele><time>2026-05-03T06:43:23.804Z</time></trkpt><trkpt lat="43.1844392" lon="12.144683"><ele>256.0</ele><time>2026-05-03T06:43:26.792Z</time></trkpt><trkpt lat="43.1844778" lon="12.1445866"><ele>255.99999999999997</ele><time>2026-05-03T06:43:29.786Z</time></trkpt><trkpt lat="43.1845238" lon="12.1444851"><ele>256.0</ele><time>2026-05-03T06:43:32.792Z</time></trkpt><trkpt lat="43.1845619" lon="12.1443851"><ele>255.99999999999997</ele><time>2026-05-03T06:43:35.8Z</time></trkpt><trkpt lat="43.1846023" lon="12.1442907"><ele>256.0</ele><time>2026-05-03T06:43:38.8Z</time></trkpt><trkpt lat="43.1846372" lon="12.1441927"><ele>256.0</ele><time>2026-05-03T06:43:41.79Z</time></trkpt><trkpt lat="43.184654" lon="12.1440784"><ele>256.0</ele><time>2026-05-03T06:43:44.791Z</time></trkpt><trkpt lat="43.1846743" lon="12.1439608"><ele>255.99999999999997</ele><time>2026-05-03T06:43:47.802Z</time></trkpt><trkpt lat="43.1846835" lon="12.1438485"><ele>256.0</ele><time>2026-05-03T06:43:50.794Z</time></trkpt><trkpt lat="43.1846964" lon="12.1437377"><ele>255.99999999999997</ele><time>2026-05-03T06:43:53.788Z</time></trkpt><trkpt lat="43.1847131" lon="12.143626"><ele>256.0</ele><time>2026-05-03T06:43:56.804Z</time></trkpt><trkpt lat="43.1847264" lon="12.1435093"><ele>256.0</ele><time>2026-05-03T06:43:59.785Z</time></trkpt><trkpt lat="43.1847545" lon="12.143391"><ele>256.0</ele><time>2026-05-03T06:44:02.797Z</time></trkpt><trkpt lat="43.184779" lon="12.1432673"><ele>255.99999999999997</ele><time>2026-05-03T06:44:05.782Z</time></trkpt><trkpt lat="43.1847895" lon="12.1431779"><ele>256.0</ele><time>2026-05-03T06:44:07.786Z</time></trkpt><trkpt lat="43.1847854" lon="12.1430894"><ele>255.99999999999997</ele><time>2026-05-03T06:44:09.791Z</time></trkpt><trkpt lat="43.1847759" lon="12.1430021"><ele>256.0</ele><time>2026-05-03T06:44:11.775Z</time></trkpt><trkpt lat="43.1847428" lon="12.1428829"><ele>256.0</ele><time>2026-05-03T06:44:14.774Z</time></trkpt><trkpt lat="43.1847105" lon="12.1427637"><ele>256.0</ele><time>2026-05-03T06:44:17.782Z</time></trkpt><trkpt lat="43.1847043" lon="12.1426738"><ele>255.99999999999997</ele><time>2026-05-03T06:44:19.896Z</time></trkpt><trkpt lat="43.1847165" lon="12.1425559"><ele>256.0</ele><time>2026-05-03T06:44:22.773Z</time></trkpt><trkpt lat="43.1847358" lon="12.1424421"><ele>255.83333333333331</ele><time>2026-05-03T06:44:25.876Z</time></trkpt><trkpt lat="43.1847477" lon="12.1423261"><ele>255.66666666666666</ele><time>2026-05-03T06:44:28.776Z</time></trkpt><trkpt lat="43.1847647" lon="12.1422387"><ele>255.5</ele><time>2026-05-03T06:44:30.78Z</time></trkpt><trkpt lat="43.1847703" lon="12.142117"><ele>255.33333333333331</ele><time>2026-05-03T06:44:33.772Z</time></trkpt><trkpt lat="43.1847739" lon="12.1419959"><ele>255.16666666666666</ele><time>2026-05-03T06:44:36.777Z</time></trkpt><trkpt lat="43.184784" lon="12.1418905"><ele>255.0</ele><time>2026-05-03T06:44:39.771Z</time></trkpt><trkpt lat="43.1848187" lon="12.1417926"><ele>256.0</ele><time>2026-05-03T06:44:42.776Z</time></trkpt><trkpt lat="43.1849014" lon="12.1417419"><ele>257.0</ele><time>2026-05-03T06:44:45.779Z</time></trkpt><trkpt lat="43.184989" lon="12.1417403"><ele>258.0</ele><time>2026-05-03T06:44:48.868Z</time></trkpt><trkpt lat="43.1850751" lon="12.1417525"><ele>259.0</ele><time>2026-05-03T06:44:51.782Z</time></trkpt><trkpt lat="43.1851252" lon="12.1416667"><ele>260.0</ele><time>2026-05-03T06:44:55.772Z</time></trkpt><trkpt lat="43.1851387" lon="12.1415644"><ele>261.0</ele><time>2026-05-03T06:44:58.784Z</time></trkpt><trkpt lat="43.1851462" lon="12.1414377"><ele>261.42857142857144</ele><time>2026-05-03T06:45:01.786Z</time></trkpt><trkpt lat="43.1851491" lon="12.1413073"><ele>261.85714285714283</ele><time>2026-05-03T06:45:04.789Z</time></trkpt><trkpt lat="43.1851527" lon="12.1412192"><ele>262.2857142857143</ele><time>2026-05-03T06:45:06.887Z</time></trkpt><trkpt lat="43.1851595" lon="12.1411299"><ele>262.7142857142857</ele><time>2026-05-03T06:45:08.799Z</time></trkpt><trkpt lat="43.1851612" lon="12.1410365"><ele>263.14285714285717</ele><time>2026-05-03T06:45:10.798Z</time></trkpt><trkpt lat="43.185157" lon="12.1409467"><ele>263.57142857142856</ele><time>2026-05-03T06:45:12.796Z</time></trkpt><trkpt lat="43.1851554" lon="12.1408382"><ele>264.0</ele><time>2026-05-03T06:45:14.786Z</time></trkpt><trkpt lat="43.1851568" lon="12.1407346"><ele>265.3333333333333</ele><time>2026-05-03T06:45:16.784Z</time></trkpt><trkpt lat="43.1851532" lon="12.1406382"><ele>266.6666666666667</ele><time>2026-05-03T06:45:18.791Z</time></trkpt><trkpt lat="43.1851407" lon="12.1405512"><ele>268.0</ele><time>2026-05-03T06:45:20.802Z</time></trkpt><trkpt lat="43.1851064" lon="12.1404322"><ele>269.33333333333337</ele><time>2026-05-03T06:45:23.793Z</time></trkpt><trkpt lat="43.1850783" lon="12.1403308"><ele>270.6666666666667</ele><time>2026-05-03T06:45:25.791Z</time></trkpt><trkpt lat="43.1850589" lon="12.1402313"><ele>272.0</ele><time>2026-05-03T06:45:27.801Z</time></trkpt><trkpt lat="43.1850292" lon="12.1401091"><ele>272.0</ele><time>2026-05-03T06:45:30.802Z</time></trkpt><trkpt lat="43.1849856" lon="12.1400228"><ele>272.0</ele><time>2026-05-03T06:45:32.792Z</time></trkpt><trkpt lat="43.1849312" lon="12.139943"><ele>272.0</ele><time>2026-05-03T06:45:34.776Z</time></trkpt><trkpt lat="43.1848746" lon="12.1398809"><ele>272.0</ele><time>2026-05-03T06:45:36.777Z</time></trkpt><trkpt lat="43.1848238" lon="12.1398218"><ele>272.0</ele><time>2026-05-03T06:45:38.789Z</time></trkpt><trkpt lat="43.1847525" lon="12.1397502"><ele>272.0</ele><time>2026-05-03T06:45:41.8Z</time></trkpt><trkpt lat="43.1846773" lon="12.1397575"><ele>270.99999999999994</ele><time>2026-05-03T06:45:43.796Z</time></trkpt><trkpt lat="43.1846055" lon="12.1397777"><ele>270.0</ele><time>2026-05-03T06:45:45.788Z</time></trkpt><trkpt lat="43.184541" lon="12.1398007"><ele>269.0</ele><time>2026-05-03T06:45:47.792Z</time></trkpt><trkpt lat="43.1844784" lon="12.1398197"><ele>268.0</ele><time>2026-05-03T06:45:49.796Z</time></trkpt><trkpt lat="43.1844033" lon="12.139791"><ele>267.0</ele><time>2026-05-03T06:45:51.791Z</time></trkpt><trkpt lat="43.1843522" lon="12.1397343"><ele>265.99999999999994</ele><time>2026-05-03T06:45:53.803Z</time></trkpt><trkpt lat="43.1843143" lon="12.1396622"><ele>265.0</ele><time>2026-05-03T06:45:55.806Z</time></trkpt><trkpt lat="43.1842733" lon="12.1395855"><ele>265.0</ele><time>2026-05-03T06:45:57.784Z</time></trkpt><trkpt lat="43.1842105" lon="12.1395355"><ele>265.0</ele><time>2026-05-03T06:45:59.794Z</time></trkpt><trkpt lat="43.1841399" lon="12.1394885"><ele>265.0</ele><time>2026-05-03T06:46:01.794Z</time></trkpt><trkpt lat="43.1840699" lon="12.139429"><ele>265.0</ele><time>2026-05-03T06:46:03.881Z</time></trkpt><trkpt lat="43.1839974" lon="12.1393712"><ele>265.0</ele><time>2026-05-03T06:46:05.783Z</time></trkpt><trkpt lat="43.1839274" lon="12.1392932"><ele>265.0</ele><time>2026-05-03T06:46:07.794Z</time></trkpt><trkpt lat="43.1838556" lon="12.1392313"><ele>264.5</ele><time>2026-05-03T06:46:09.787Z</time></trkpt><trkpt lat="43.1837905" lon="12.1391794"><ele>264.0</ele><time>2026-05-03T06:46:11.792Z</time></trkpt><trkpt lat="43.1837267" lon="12.1391321"><ele>263.5</ele><time>2026-05-03T06:46:13.79Z</time></trkpt><trkpt lat="43.1836676" lon="12.1390794"><ele>263.0</ele><time>2026-05-03T06:46:15.787Z</time></trkpt><trkpt lat="43.1836137" lon="12.1390192"><ele>262.5</ele><time>2026-05-03T06:46:17.793Z</time></trkpt><trkpt lat="43.1835271" lon="12.1389984"><ele>262.0</ele><time>2026-05-03T06:46:20.791Z</time></trkpt><trkpt lat="43.1834849" lon="12.1389117"><ele>262.0</ele><time>2026-05-03T06:46:23.801Z</time></trkpt><trkpt lat="43.1834697" lon="12.1388265"><ele>262.0</ele><time>2026-05-03T06:46:25.793Z</time></trkpt><trkpt lat="43.1834449" lon="12.1387428"><ele>262.0</ele><time>2026-05-03T06:46:27.796Z</time></trkpt><trkpt lat="43.1834256" lon="12.1386538"><ele>262.0</ele><time>2026-05-03T06:46:29.793Z</time></trkpt><trkpt lat="43.1834266" lon="12.1385591"><ele>262.0</ele><time>2026-05-03T06:46:31.799Z</time></trkpt><trkpt lat="43.1833881" lon="12.1384762"><ele>262.0</ele><time>2026-05-03T06:46:33.804Z</time></trkpt><trkpt lat="43.1833427" lon="12.1384078"><ele>262.0</ele><time>2026-05-03T06:46:35.792Z</time></trkpt><trkpt lat="43.1832758" lon="12.1383128"><ele>262.0</ele><time>2026-05-03T06:46:38.801Z</time></trkpt><trkpt lat="43.1832292" lon="12.1382384"><ele>262.0</ele><time>2026-05-03T06:46:40.784Z</time></trkpt><trkpt lat="43.1831842" lon="12.1381648"><ele>262.0</ele><time>2026-05-03T06:46:42.786Z</time></trkpt><trkpt lat="43.1831358" lon="12.1380881"><ele>262.0</ele><time>2026-05-03T06:46:44.79Z</time></trkpt><trkpt lat="43.1830947" lon="12.1380072"><ele>262.0</ele><time>2026-05-03T06:46:46.795Z</time></trkpt><trkpt lat="43.1830554" lon="12.137926"><ele>262.0</ele><time>2026-05-03T06:46:48.801Z</time></trkpt><trkpt lat="43.1830162" lon="12.1378382"><ele>262.0</ele><time>2026-05-03T06:46:50.798Z</time></trkpt><trkpt lat="43.1829874" lon="12.1377464"><ele>261.16666666666663</ele><time>2026-05-03T06:46:52.789Z</time></trkpt><trkpt lat="43.1829677" lon="12.1376454"><ele>260.3333333333333</ele><time>2026-05-03T06:46:54.799Z</time></trkpt><trkpt lat="43.1829598" lon="12.137547"><ele>259.5</ele><time>2026-05-03T06:46:56.787Z</time></trkpt><trkpt lat="43.1829659" lon="12.1374333"><ele>258.6666666666667</ele><time>2026-05-03T06:46:58.776Z</time></trkpt><trkpt lat="43.1829808" lon="12.1373228"><ele>257.83333333333337</ele><time>2026-05-03T06:47:00.798Z</time></trkpt><trkpt lat="43.1830045" lon="12.1372193"><ele>257.0</ele><time>2026-05-03T06:47:02.794Z</time></trkpt><trkpt lat="43.1830279" lon="12.1371188"><ele>257.0</ele><time>2026-05-03T06:47:04.79Z</time></trkpt><trkpt lat="43.1830665" lon="12.137031"><ele>257.0</ele><time>2026-05-03T06:47:06.801Z</time></trkpt><trkpt lat="43.1831045" lon="12.1369459"><ele>257.0</ele><time>2026-05-03T06:47:08.783Z</time></trkpt><trkpt lat="43.1831396" lon="12.1368715"><ele>257.0</ele><time>2026-05-03T06:47:10.79Z</time></trkpt><trkpt lat="43.1831988" lon="12.136795"><ele>257.0</ele><time>2026-05-03T06:47:12.794Z</time></trkpt><trkpt lat="43.1832544" lon="12.1367334"><ele>257.0</ele><time>2026-05-03T06:47:14.789Z</time></trkpt><trkpt lat="43.1833094" lon="12.1366688"><ele>257.0</ele><time>2026-05-03T06:47:16.792Z</time></trkpt><trkpt lat="43.183362" lon="12.1366078"><ele>257.0</ele><time>2026-05-03T06:47:18.794Z</time></trkpt><trkpt lat="43.1833651" lon="12.1365199"><ele>257.0</ele><time>2026-05-03T06:47:20.795Z</time></trkpt><trkpt lat="43.1834019" lon="12.1364347"><ele>257.0</ele><time>2026-05-03T06:47:23.798Z</time></trkpt><trkpt lat="43.1834686" lon="12.1363627"><ele>257.0</ele><time>2026-05-03T06:47:26.775Z</time></trkpt><trkpt lat="43.1835451" lon="12.1362586"><ele>257.0</ele><time>2026-05-03T06:47:29.786Z</time></trkpt><trkpt lat="43.1835954" lon="12.1361953"><ele>257.0</ele><time>2026-05-03T06:47:32.773Z</time></trkpt><trkpt lat="43.1836761" lon="12.1361222"><ele>257.0</ele><time>2026-05-03T06:47:35.782Z</time></trkpt><trkpt lat="43.1837276" lon="12.1360617"><ele>257.0</ele><time>2026-05-03T06:47:37.774Z</time></trkpt><trkpt lat="43.1837915" lon="12.1360027"><ele>257.0</ele><time>2026-05-03T06:47:39.776Z</time></trkpt><trkpt lat="43.1838741" lon="12.1359425"><ele>257.0</ele><time>2026-05-03T06:47:42.787Z</time></trkpt><trkpt lat="43.1839619" lon="12.1359033"><ele>257.0</ele><time>2026-05-03T06:47:45.779Z</time></trkpt><trkpt lat="43.1840524" lon="12.1358951"><ele>257.0</ele><time>2026-05-03T06:47:48.776Z</time></trkpt><trkpt lat="43.1841193" lon="12.1358858"><ele>256.83333333333337</ele><time>2026-05-03T06:47:50.773Z</time></trkpt><trkpt lat="43.184187" lon="12.1358711"><ele>256.6666666666667</ele><time>2026-05-03T06:47:52.782Z</time></trkpt><trkpt lat="43.1842557" lon="12.1358507"><ele>256.5</ele><time>2026-05-03T06:47:54.783Z</time></trkpt><trkpt lat="43.1843441" lon="12.1358231"><ele>256.3333333333333</ele><time>2026-05-03T06:47:56.774Z</time></trkpt><trkpt lat="43.184419" lon="12.135769"><ele>256.16666666666663</ele><time>2026-05-03T06:47:58.777Z</time></trkpt><trkpt lat="43.1844988" lon="12.1357094"><ele>256.0</ele><time>2026-05-03T06:48:00.774Z</time></trkpt><trkpt lat="43.1845625" lon="12.1356431"><ele>255.99999999999997</ele><time>2026-05-03T06:48:02.78Z</time></trkpt><trkpt lat="43.1846263" lon="12.1355661"><ele>256.0</ele><time>2026-05-03T06:48:04.777Z</time></trkpt><trkpt lat="43.1846928" lon="12.1354946"><ele>256.0</ele><time>2026-05-03T06:48:06.78Z</time></trkpt><trkpt lat="43.1847561" lon="12.1354305"><ele>256.0</ele><time>2026-05-03T06:48:09.766Z</time></trkpt><trkpt lat="43.1848402" lon="12.135374"><ele>255.99999999999997</ele><time>2026-05-03T06:48:13.785Z</time></trkpt><trkpt lat="43.1849152" lon="12.1352821"><ele>256.0</ele><time>2026-05-03T06:48:15.784Z</time></trkpt><trkpt lat="43.1849897" lon="12.1351848"><ele>256.40000000000003</ele><time>2026-05-03T06:48:17.805Z</time></trkpt><trkpt lat="43.1850547" lon="12.1350866"><ele>256.8</ele><time>2026-05-03T06:48:19.801Z</time></trkpt><trkpt lat="43.1851216" lon="12.1349925"><ele>257.20000000000005</ele><time>2026-05-03T06:48:21.8Z</time></trkpt><trkpt lat="43.1851872" lon="12.1348964"><ele>257.6</ele><time>2026-05-03T06:48:23.801Z</time></trkpt><trkpt lat="43.1852422" lon="12.1347892"><ele>258.0</ele><time>2026-05-03T06:48:25.802Z</time></trkpt><trkpt lat="43.1852916" lon="12.1346791"><ele>258.0</ele><time>2026-05-03T06:48:27.806Z</time></trkpt><trkpt lat="43.1853368" lon="12.1345662"><ele>258.0</ele><time>2026-05-03T06:48:29.771Z</time></trkpt><trkpt lat="43.1853643" lon="12.1344631"><ele>258.0</ele><time>2026-05-03T06:48:31.772Z</time></trkpt><trkpt lat="43.1853636" lon="12.1343434"><ele>258.0</ele><time>2026-05-03T06:48:33.773Z</time></trkpt><trkpt lat="43.1853539" lon="12.1342176"><ele>258.0</ele><time>2026-05-03T06:48:35.822Z</time></trkpt><trkpt lat="43.1853484" lon="12.134098"><ele>258.0</ele><time>2026-05-03T06:48:37.777Z</time></trkpt><trkpt lat="43.1853409" lon="12.1339822"><ele>257.57142857142856</ele><time>2026-05-03T06:48:39.771Z</time></trkpt><trkpt lat="43.1853417" lon="12.1338735"><ele>257.1428571428571</ele><time>2026-05-03T06:48:41.882Z</time></trkpt><trkpt lat="43.1853516" lon="12.1337682"><ele>256.7142857142857</ele><time>2026-05-03T06:48:43.798Z</time></trkpt><trkpt lat="43.1853746" lon="12.1336728"><ele>256.2857142857143</ele><time>2026-05-03T06:48:45.801Z</time></trkpt><trkpt lat="43.1854253" lon="12.1336007"><ele>255.8571428571429</ele><time>2026-05-03T06:48:47.793Z</time></trkpt><trkpt lat="43.1854816" lon="12.1335482"><ele>255.42857142857144</ele><time>2026-05-03T06:48:49.787Z</time></trkpt><trkpt lat="43.185521" lon="12.1334785"><ele>255.0</ele><time>2026-05-03T06:48:51.795Z</time></trkpt><trkpt lat="43.1855541" lon="12.1333851"><ele>255.0</ele><time>2026-05-03T06:48:53.805Z</time></trkpt><trkpt lat="43.1855878" lon="12.1332842"><ele>255.0</ele><time>2026-05-03T06:48:55.799Z</time></trkpt><trkpt lat="43.1856358" lon="12.1331789"><ele>255.0</ele><time>2026-05-03T06:48:57.774Z</time></trkpt><trkpt lat="43.1856995" lon="12.1331401"><ele>255.0</ele><time>2026-05-03T06:48:59.791Z</time></trkpt><trkpt lat="43.1857609" lon="12.1331857"><ele>255.0</ele><time>2026-05-03T06:49:01.792Z</time></trkpt><trkpt lat="43.1858217" lon="12.1332325"><ele>255.0</ele><time>2026-05-03T06:49:03.788Z</time></trkpt><trkpt lat="43.1858832" lon="12.1332813"><ele>255.33333333333334</ele><time>2026-05-03T06:49:05.791Z</time></trkpt><trkpt lat="43.1859661" lon="12.1333304"><ele>255.66666666666669</ele><time>2026-05-03T06:49:08.803Z</time></trkpt><trkpt lat="43.1860511" lon="12.1333847"><ele>256.0</ele><time>2026-05-03T06:49:11.797Z</time></trkpt><trkpt lat="43.1861162" lon="12.1333881"><ele>256.33333333333337</ele><time>2026-05-03T06:49:13.798Z</time></trkpt><trkpt lat="43.1861673" lon="12.1333225"><ele>256.6666666666667</ele><time>2026-05-03T06:49:15.802Z</time></trkpt><trkpt lat="43.1861882" lon="12.1332283"><ele>257.0</ele><time>2026-05-03T06:49:17.8Z</time></trkpt><trkpt lat="43.186211" lon="12.1331081"><ele>257.0</ele><time>2026-05-03T06:49:20.797Z</time></trkpt><trkpt lat="43.186226" lon="12.132987"><ele>257.0</ele><time>2026-05-03T06:49:23.784Z</time></trkpt><trkpt lat="43.1862452" lon="12.132902"><ele>257.0</ele><time>2026-05-03T06:49:25.8Z</time></trkpt><trkpt lat="43.1862569" lon="12.1328107"><ele>257.0</ele><time>2026-05-03T06:49:27.777Z</time></trkpt><trkpt lat="43.1862688" lon="12.1327205"><ele>257.0</ele><time>2026-05-03T06:49:29.788Z</time></trkpt><trkpt lat="43.1862885" lon="12.1326274"><ele>257.0</ele><time>2026-05-03T06:49:31.802Z</time></trkpt><trkpt lat="43.1863059" lon="12.1325397"><ele>257.0</ele><time>2026-05-03T06:49:33.793Z</time></trkpt><trkpt lat="43.1863395" lon="12.1324016"><ele>256.6666666666667</ele><time>2026-05-03T06:49:36.794Z</time></trkpt><trkpt lat="43.1863579" lon="12.132306"><ele>256.33333333333337</ele><time>2026-05-03T06:49:38.795Z</time></trkpt><trkpt lat="43.1863651" lon="12.1322004"><ele>256.0</ele><time>2026-05-03T06:49:40.904Z</time></trkpt><trkpt lat="43.1863591" lon="12.1320988"><ele>255.66666666666669</ele><time>2026-05-03T06:49:42.803Z</time></trkpt><trkpt lat="43.1863508" lon="12.1319909"><ele>255.33333333333334</ele><time>2026-05-03T06:49:44.794Z</time></trkpt><trkpt lat="43.1863374" lon="12.1318815"><ele>255.0</ele><time>2026-05-03T06:49:46.789Z</time></trkpt><trkpt lat="43.1863232" lon="12.1317823"><ele>255.0</ele><time>2026-05-03T06:49:48.78Z</time></trkpt><trkpt lat="43.1863183" lon="12.1316832"><ele>255.00000000000003</ele><time>2026-05-03T06:49:50.788Z</time></trkpt><trkpt lat="43.1863168" lon="12.1315772"><ele>255.0</ele><time>2026-05-03T06:49:52.785Z</time></trkpt><trkpt lat="43.1863319" lon="12.1314773"><ele>255.0</ele><time>2026-05-03T06:49:54.802Z</time></trkpt><trkpt lat="43.1863606" lon="12.1313891"><ele>255.00000000000003</ele><time>2026-05-03T06:49:56.794Z</time></trkpt><trkpt lat="43.1863991" lon="12.1313091"><ele>255.0</ele><time>2026-05-03T06:49:58.794Z</time></trkpt><trkpt lat="43.1864392" lon="12.1312275"><ele>255.0</ele><time>2026-05-03T06:50:00.775Z</time></trkpt><trkpt lat="43.1864754" lon="12.1311507"><ele>255.16666666666666</ele><time>2026-05-03T06:50:02.799Z</time></trkpt><trkpt lat="43.1865251" lon="12.1310773"><ele>255.33333333333331</ele><time>2026-05-03T06:50:04.806Z</time></trkpt><trkpt lat="43.1865945" lon="12.1310087"><ele>255.5</ele><time>2026-05-03T06:50:06.8Z</time></trkpt><trkpt lat="43.1866642" lon="12.1309463"><ele>255.66666666666666</ele><time>2026-05-03T06:50:08.787Z</time></trkpt><trkpt lat="43.1867379" lon="12.130901"><ele>255.83333333333331</ele><time>2026-05-03T06:50:10.788Z</time></trkpt><trkpt lat="43.1868144" lon="12.1308681"><ele>256.0</ele><time>2026-05-03T06:50:12.784Z</time></trkpt><trkpt lat="43.1868919" lon="12.1308562"><ele>255.99999999999997</ele><time>2026-05-03T06:50:14.768Z</time></trkpt><trkpt lat="43.1869692" lon="12.1308216"><ele>256.0</ele><time>2026-05-03T06:50:16.79Z</time></trkpt><trkpt lat="43.1870549" lon="12.1307851"><ele>256.0</ele><time>2026-05-03T06:50:18.788Z</time></trkpt><trkpt lat="43.1871377" lon="12.1307492"><ele>256.0</ele><time>2026-05-03T06:50:20.8Z</time></trkpt><trkpt lat="43.1872179" lon="12.1307065"><ele>255.99999999999997</ele><time>2026-05-03T06:50:22.8Z</time></trkpt><trkpt lat="43.1873011" lon="12.130667"><ele>256.0</ele><time>2026-05-03T06:50:24.786Z</time></trkpt><trkpt lat="43.1873865" lon="12.1306324"><ele>255.66666666666666</ele><time>2026-05-03T06:50:26.777Z</time></trkpt><trkpt lat="43.1874741" lon="12.130608"><ele>255.33333333333331</ele><time>2026-05-03T06:50:28.799Z</time></trkpt><trkpt lat="43.1875606" lon="12.1305877"><ele>255.0</ele><time>2026-05-03T06:50:30.784Z</time></trkpt><trkpt lat="43.1876445" lon="12.1305733"><ele>254.66666666666669</ele><time>2026-05-03T06:50:32.784Z</time></trkpt><trkpt lat="43.1877247" lon="12.1305602"><ele>254.33333333333334</ele><time>2026-05-03T06:50:34.774Z</time></trkpt><trkpt lat="43.1878077" lon="12.1305513"><ele>254.0</ele><time>2026-05-03T06:50:36.792Z</time></trkpt><trkpt lat="43.1878902" lon="12.1305154"><ele>254.00000000000003</ele><time>2026-05-03T06:50:38.799Z</time></trkpt><trkpt lat="43.1879759" lon="12.1304783"><ele>254.0</ele><time>2026-05-03T06:50:40.785Z</time></trkpt><trkpt lat="43.1880551" lon="12.1304431"><ele>254.0</ele><time>2026-05-03T06:50:42.786Z</time></trkpt><trkpt lat="43.1881338" lon="12.1304041"><ele>254.0</ele><time>2026-05-03T06:50:44.789Z</time></trkpt><trkpt lat="43.188214" lon="12.1303739"><ele>254.00000000000003</ele><time>2026-05-03T06:50:46.803Z</time></trkpt><trkpt lat="43.188295" lon="12.1303434"><ele>254.0</ele><time>2026-05-03T06:50:48.784Z</time></trkpt><trkpt lat="43.1884277" lon="12.130298"><ele>254.00000000000003</ele><time>2026-05-03T06:50:51.785Z</time></trkpt><trkpt lat="43.1885124" lon="12.1302629"><ele>254.0</ele><time>2026-05-03T06:50:53.8Z</time></trkpt><trkpt lat="43.1885943" lon="12.130217"><ele>254.0</ele><time>2026-05-03T06:50:55.866Z</time></trkpt><trkpt lat="43.1886689" lon="12.1301581"><ele>254.0</ele><time>2026-05-03T06:50:57.8Z</time></trkpt><trkpt lat="43.1887392" lon="12.1301005"><ele>254.00000000000003</ele><time>2026-05-03T06:50:59.78Z</time></trkpt><trkpt lat="43.1888101" lon="12.130043"><ele>254.0</ele><time>2026-05-03T06:51:01.794Z</time></trkpt><trkpt lat="43.188877" lon="12.1299711"><ele>253.83333333333334</ele><time>2026-05-03T06:51:03.765Z</time></trkpt><trkpt lat="43.1889377" lon="12.1298847"><ele>253.66666666666669</ele><time>2026-05-03T06:51:05.786Z</time></trkpt><trkpt lat="43.1889855" lon="12.1297889"><ele>253.5</ele><time>2026-05-03T06:51:07.798Z</time></trkpt><trkpt lat="43.1890263" lon="12.1296989"><ele>253.33333333333331</ele><time>2026-05-03T06:51:09.794Z</time></trkpt><trkpt lat="43.1890702" lon="12.1296164"><ele>253.16666666666666</ele><time>2026-05-03T06:51:11.794Z</time></trkpt><trkpt lat="43.189128" lon="12.1295684"><ele>253.0</ele><time>2026-05-03T06:51:13.793Z</time></trkpt><trkpt lat="43.1891913" lon="12.1295748"><ele>253.28571428571433</ele><time>2026-05-03T06:51:15.79Z</time></trkpt><trkpt lat="43.1892506" lon="12.1296092"><ele>253.57142857142858</ele><time>2026-05-03T06:51:17.903Z</time></trkpt><trkpt lat="43.1893058" lon="12.1296681"><ele>253.8571428571429</ele><time>2026-05-03T06:51:19.786Z</time></trkpt><trkpt lat="43.189357" lon="12.1297449"><ele>254.14285714285717</ele><time>2026-05-03T06:51:21.787Z</time></trkpt><trkpt lat="43.1893926" lon="12.1298334"><ele>254.42857142857144</ele><time>2026-05-03T06:51:23.788Z</time></trkpt><trkpt lat="43.1894405" lon="12.1299142"><ele>254.71428571428572</ele><time>2026-05-03T06:51:25.781Z</time></trkpt><trkpt lat="43.1894975" lon="12.1299799"><ele>255.0</ele><time>2026-05-03T06:51:27.798Z</time></trkpt><trkpt lat="43.1895557" lon="12.1300368"><ele>255.2857142857143</ele><time>2026-05-03T06:51:29.796Z</time></trkpt><trkpt lat="43.189605" lon="12.130099"><ele>255.5714285714286</ele><time>2026-05-03T06:51:31.788Z</time></trkpt><trkpt lat="43.1896641" lon="12.130152"><ele>255.85714285714286</ele><time>2026-05-03T06:51:33.775Z</time></trkpt><trkpt lat="43.1897225" lon="12.1302085"><ele>256.14285714285717</ele><time>2026-05-03T06:51:35.771Z</time></trkpt><trkpt lat="43.1897786" lon="12.130269"><ele>256.42857142857144</ele><time>2026-05-03T06:51:37.784Z</time></trkpt><trkpt lat="43.1898262" lon="12.1303339"><ele>256.7142857142857</ele><time>2026-05-03T06:51:39.774Z</time></trkpt><trkpt lat="43.1898701" lon="12.130403"><ele>257.0</ele><time>2026-05-03T06:51:41.774Z</time></trkpt><trkpt lat="43.1899231" lon="12.1304704"><ele>257.0</ele><time>2026-05-03T06:51:43.78Z</time></trkpt><trkpt lat="43.1899771" lon="12.1305345"><ele>257.0</ele><time>2026-05-03T06:51:45.771Z</time></trkpt><trkpt lat="43.1900294" lon="12.1306046"><ele>257.0</ele><time>2026-05-03T06:51:47.772Z</time></trkpt><trkpt lat="43.1900829" lon="12.1306725"><ele>257.0</ele><time>2026-05-03T06:51:49.776Z</time></trkpt><trkpt lat="43.1901406" lon="12.1307368"><ele>257.0</ele><time>2026-05-03T06:51:51.778Z</time></trkpt><trkpt lat="43.1902128" lon="12.1307708"><ele>257.0</ele><time>2026-05-03T06:51:53.783Z</time></trkpt><trkpt lat="43.1902835" lon="12.1307494"><ele>257.0</ele><time>2026-05-03T06:51:55.774Z</time></trkpt><trkpt lat="43.190379" lon="12.1306553"><ele>257.0</ele><time>2026-05-03T06:51:58.794Z</time></trkpt><trkpt lat="43.1904323" lon="12.1305783"><ele>257.0</ele><time>2026-05-03T06:52:00.793Z</time></trkpt><trkpt lat="43.1904783" lon="12.1304825"><ele>257.0</ele><time>2026-05-03T06:52:02.789Z</time></trkpt><trkpt lat="43.1905265" lon="12.1303853"><ele>257.0</ele><time>2026-05-03T06:52:04.775Z</time></trkpt><trkpt lat="43.1905792" lon="12.1302898"><ele>257.0</ele><time>2026-05-03T06:52:06.774Z</time></trkpt><trkpt lat="43.1906231" lon="12.1301943"><ele>257.0</ele><time>2026-05-03T06:52:08.786Z</time></trkpt><trkpt lat="43.1906655" lon="12.1300979"><ele>257.1666666666667</ele><time>2026-05-03T06:52:10.788Z</time></trkpt><trkpt lat="43.1907066" lon="12.1299969"><ele>257.33333333333337</ele><time>2026-05-03T06:52:12.777Z</time></trkpt><trkpt lat="43.190744" lon="12.129905"><ele>257.5</ele><time>2026-05-03T06:52:14.796Z</time></trkpt><trkpt lat="43.1907775" lon="12.1298056"><ele>257.6666666666667</ele><time>2026-05-03T06:52:16.79Z</time></trkpt><trkpt lat="43.1908151" lon="12.1297047"><ele>257.8333333333333</ele><time>2026-05-03T06:52:18.784Z</time></trkpt><trkpt lat="43.1908529" lon="12.1296087"><ele>258.0</ele><time>2026-05-03T06:52:20.776Z</time></trkpt><trkpt lat="43.1908897" lon="12.1295151"><ele>258.0</ele><time>2026-05-03T06:52:22.804Z</time></trkpt><trkpt lat="43.1909272" lon="12.1294167"><ele>258.0</ele><time>2026-05-03T06:52:24.798Z</time></trkpt><trkpt lat="43.1909595" lon="12.1293171"><ele>258.0</ele><time>2026-05-03T06:52:26.79Z</time></trkpt><trkpt lat="43.1909944" lon="12.1292229"><ele>258.0</ele><time>2026-05-03T06:52:28.795Z</time></trkpt><trkpt lat="43.1910276" lon="12.1291241"><ele>258.0</ele><time>2026-05-03T06:52:30.8Z</time></trkpt><trkpt lat="43.191058" lon="12.1290203"><ele>258.0</ele><time>2026-05-03T06:52:32.781Z</time></trkpt><trkpt lat="43.1910827" lon="12.1289187"><ele>258.0</ele><time>2026-05-03T06:52:34.791Z</time></trkpt><trkpt lat="43.1911072" lon="12.1288069"><ele>258.0</ele><time>2026-05-03T06:52:36.903Z</time></trkpt><trkpt lat="43.1911224" lon="12.1286974"><ele>258.0</ele><time>2026-05-03T06:52:38.775Z</time></trkpt><trkpt lat="43.1911251" lon="12.1285845"><ele>258.0</ele><time>2026-05-03T06:52:40.783Z</time></trkpt><trkpt lat="43.1911374" lon="12.1284686"><ele>258.0</ele><time>2026-05-03T06:52:42.877Z</time></trkpt><trkpt lat="43.1911504" lon="12.1283523"><ele>258.0</ele><time>2026-05-03T06:52:44.779Z</time></trkpt><trkpt lat="43.1911632" lon="12.128232"><ele>257.8333333333333</ele><time>2026-05-03T06:52:46.772Z</time></trkpt><trkpt lat="43.1911723" lon="12.1281106"><ele>257.6666666666667</ele><time>2026-05-03T06:52:48.855Z</time></trkpt><trkpt lat="43.1911869" lon="12.1279945"><ele>257.5</ele><time>2026-05-03T06:52:50.778Z</time></trkpt><trkpt lat="43.1912" lon="12.1278754"><ele>257.33333333333337</ele><time>2026-05-03T06:52:52.768Z</time></trkpt><trkpt lat="43.1912167" lon="12.1277553"><ele>257.1666666666667</ele><time>2026-05-03T06:52:54.776Z</time></trkpt><trkpt lat="43.1912326" lon="12.1276364"><ele>257.0</ele><time>2026-05-03T06:52:56.778Z</time></trkpt><trkpt lat="43.1912499" lon="12.1275161"><ele>257.0</ele><time>2026-05-03T06:52:58.777Z</time></trkpt><trkpt lat="43.1912664" lon="12.1273994"><ele>257.0</ele><time>2026-05-03T06:53:00.852Z</time></trkpt><trkpt lat="43.1912811" lon="12.1272808"><ele>257.0</ele><time>2026-05-03T06:53:02.782Z</time></trkpt><trkpt lat="43.1912984" lon="12.1271635"><ele>257.0</ele><time>2026-05-03T06:53:04.788Z</time></trkpt><trkpt lat="43.1913167" lon="12.1270421"><ele>257.0</ele><time>2026-05-03T06:53:06.86Z</time></trkpt><trkpt lat="43.1913356" lon="12.1269194"><ele>257.0</ele><time>2026-05-03T06:53:08.796Z</time></trkpt><trkpt lat="43.191357" lon="12.1267961"><ele>257.2</ele><time>2026-05-03T06:53:10.806Z</time></trkpt><trkpt lat="43.1913761" lon="12.1266728"><ele>257.4</ele><time>2026-05-03T06:53:12.778Z</time></trkpt><trkpt lat="43.1913969" lon="12.1265501"><ele>257.6</ele><time>2026-05-03T06:53:14.796Z</time></trkpt><trkpt lat="43.1914119" lon="12.1264266"><ele>257.8</ele><time>2026-05-03T06:53:16.799Z</time></trkpt><trkpt lat="43.1914295" lon="12.126308"><ele>258.0</ele><time>2026-05-03T06:53:18.791Z</time></trkpt><trkpt lat="43.1914433" lon="12.1261881"><ele>258.0</ele><time>2026-05-03T06:53:20.798Z</time></trkpt><trkpt lat="43.1914563" lon="12.1260706"><ele>258.0</ele><time>2026-05-03T06:53:22.796Z</time></trkpt><trkpt lat="43.1914742" lon="12.125952"><ele>258.0</ele><time>2026-05-03T06:53:24.869Z</time></trkpt><trkpt lat="43.1914904" lon="12.1258342"><ele>258.0</ele><time>2026-05-03T06:53:26.791Z</time></trkpt><trkpt lat="43.1915064" lon="12.1257111"><ele>258.0</ele><time>2026-05-03T06:53:28.796Z</time></trkpt><trkpt lat="43.1915241" lon="12.1255865"><ele>258.0</ele><time>2026-05-03T06:53:30.788Z</time></trkpt><trkpt lat="43.1915509" lon="12.125464"><ele>258.2</ele><time>2026-05-03T06:53:32.777Z</time></trkpt><trkpt lat="43.1915855" lon="12.1253446"><ele>258.4</ele><time>2026-05-03T06:53:34.798Z</time></trkpt><trkpt lat="43.1916171" lon="12.1252262"><ele>258.59999999999997</ele><time>2026-05-03T06:53:36.79Z</time></trkpt><trkpt lat="43.1916343" lon="12.1251028"><ele>258.8</ele><time>2026-05-03T06:53:38.788Z</time></trkpt><trkpt lat="43.1916383" lon="12.1249792"><ele>259.0</ele><time>2026-05-03T06:53:40.792Z</time></trkpt><trkpt lat="43.1916439" lon="12.1248574"><ele>259.0</ele><time>2026-05-03T06:53:42.9Z</time></trkpt><trkpt lat="43.1916508" lon="12.124732"><ele>259.0</ele><time>2026-05-03T06:53:44.79Z</time></trkpt><trkpt lat="43.1916586" lon="12.1246052"><ele>259.0</ele><time>2026-05-03T06:53:46.8Z</time></trkpt><trkpt lat="43.1916718" lon="12.1244853"><ele>259.0</ele><time>2026-05-03T06:53:48.789Z</time></trkpt><trkpt lat="43.1916956" lon="12.1243655"><ele>259.0</ele><time>2026-05-03T06:53:50.793Z</time></trkpt><trkpt lat="43.1917166" lon="12.1242393"><ele>259.0</ele><time>2026-05-03T06:53:52.8Z</time></trkpt><trkpt lat="43.1917354" lon="12.1241122"><ele>259.0</ele><time>2026-05-03T06:53:54.805Z</time></trkpt><trkpt lat="43.1917526" lon="12.1239856"><ele>259.0</ele><time>2026-05-03T06:53:56.797Z</time></trkpt><trkpt lat="43.1917716" lon="12.1238564"><ele>259.0</ele><time>2026-05-03T06:53:58.801Z</time></trkpt><trkpt lat="43.1917895" lon="12.1237259"><ele>259.0</ele><time>2026-05-03T06:54:00.789Z</time></trkpt><trkpt lat="43.1918064" lon="12.1235951"><ele>259.0</ele><time>2026-05-03T06:54:02.798Z</time></trkpt><trkpt lat="43.191821" lon="12.1234691"><ele>259.0</ele><time>2026-05-03T06:54:04.786Z</time></trkpt><trkpt lat="43.1918329" lon="12.1233432"><ele>259.0</ele><time>2026-05-03T06:54:06.779Z</time></trkpt><trkpt lat="43.1918538" lon="12.1232217"><ele>259.0</ele><time>2026-05-03T06:54:08.797Z</time></trkpt><trkpt lat="43.1918742" lon="12.1230941"><ele>259.0</ele><time>2026-05-03T06:54:10.79Z</time></trkpt><trkpt lat="43.191891" lon="12.1229649"><ele>259.0</ele><time>2026-05-03T06:54:12.793Z</time></trkpt><trkpt lat="43.1918915" lon="12.1228384"><ele>259.0</ele><time>2026-05-03T06:54:14.788Z</time></trkpt><trkpt lat="43.1919304" lon="12.1227086"><ele>259.0</ele><time>2026-05-03T06:54:16.798Z</time></trkpt><trkpt lat="43.1919546" lon="12.1225009"><ele>259.0</ele><time>2026-05-03T06:54:19.792Z</time></trkpt><trkpt lat="43.1919774" lon="12.1223599"><ele>258.59999999999997</ele><time>2026-05-03T06:54:21.789Z</time></trkpt><trkpt lat="43.1919933" lon="12.1222271"><ele>258.2</ele><time>2026-05-03T06:54:23.789Z</time></trkpt><trkpt lat="43.1920136" lon="12.1220955"><ele>257.79999999999995</ele><time>2026-05-03T06:54:25.793Z</time></trkpt><trkpt lat="43.1920302" lon="12.1219682"><ele>257.4</ele><time>2026-05-03T06:54:27.783Z</time></trkpt><trkpt lat="43.1920529" lon="12.1218419"><ele>257.0</ele><time>2026-05-03T06:54:29.784Z</time></trkpt><trkpt lat="43.1920634" lon="12.1217259"><ele>257.0</ele><time>2026-05-03T06:54:31.785Z</time></trkpt><trkpt lat="43.1920812" lon="12.1216038"><ele>257.0</ele><time>2026-05-03T06:54:33.784Z</time></trkpt><trkpt lat="43.1921083" lon="12.121472"><ele>257.0</ele><time>2026-05-03T06:54:35.777Z</time></trkpt><trkpt lat="43.192124" lon="12.1213482"><ele>257.0</ele><time>2026-05-03T06:54:37.802Z</time></trkpt><trkpt lat="43.192139" lon="12.1212244"><ele>257.0</ele><time>2026-05-03T06:54:39.801Z</time></trkpt><trkpt lat="43.1921559" lon="12.1210922"><ele>257.0</ele><time>2026-05-03T06:54:41.897Z</time></trkpt><trkpt lat="43.1921667" lon="12.1209685"><ele>257.0</ele><time>2026-05-03T06:54:43.786Z</time></trkpt><trkpt lat="43.1921822" lon="12.1208459"><ele>257.0</ele><time>2026-05-03T06:54:45.805Z</time></trkpt><trkpt lat="43.1921948" lon="12.1207207"><ele>257.0</ele><time>2026-05-03T06:54:47.782Z</time></trkpt><trkpt lat="43.1922043" lon="12.1205894"><ele>257.0</ele><time>2026-05-03T06:54:49.808Z</time></trkpt><trkpt lat="43.1922225" lon="12.1204572"><ele>257.4</ele><time>2026-05-03T06:54:51.801Z</time></trkpt><trkpt lat="43.1922446" lon="12.1203325"><ele>257.79999999999995</ele><time>2026-05-03T06:54:53.792Z</time></trkpt><trkpt lat="43.1922632" lon="12.1202123"><ele>258.2</ele><time>2026-05-03T06:54:55.788Z</time></trkpt><trkpt lat="43.1922789" lon="12.1200888"><ele>258.59999999999997</ele><time>2026-05-03T06:54:57.798Z</time></trkpt><trkpt lat="43.1922927" lon="12.119967"><ele>259.0</ele><time>2026-05-03T06:54:59.775Z</time></trkpt><trkpt lat="43.1923215" lon="12.1198345"><ele>259.8</ele><time>2026-05-03T06:55:01.8Z</time></trkpt><trkpt lat="43.1923425" lon="12.1197144"><ele>260.59999999999997</ele><time>2026-05-03T06:55:03.809Z</time></trkpt><trkpt lat="43.1923566" lon="12.1195932"><ele>261.4</ele><time>2026-05-03T06:55:05.883Z</time></trkpt><trkpt lat="43.1923778" lon="12.1194727"><ele>262.2</ele><time>2026-05-03T06:55:07.785Z</time></trkpt><trkpt lat="43.1923967" lon="12.1193406"><ele>263.0</ele><time>2026-05-03T06:55:09.802Z</time></trkpt><trkpt lat="43.1924131" lon="12.1192238"><ele>263.0</ele><time>2026-05-03T06:55:11.787Z</time></trkpt><trkpt lat="43.192423" lon="12.1190998"><ele>263.0</ele><time>2026-05-03T06:55:13.787Z</time></trkpt><trkpt lat="43.1924362" lon="12.1189682"><ele>263.0</ele><time>2026-05-03T06:55:15.801Z</time></trkpt><trkpt lat="43.1924569" lon="12.1188391"><ele>263.0</ele><time>2026-05-03T06:55:17.796Z</time></trkpt><trkpt lat="43.1924771" lon="12.1187126"><ele>263.0</ele><time>2026-05-03T06:55:19.787Z</time></trkpt><trkpt lat="43.192499" lon="12.1185896"><ele>262.8</ele><time>2026-05-03T06:55:21.787Z</time></trkpt><trkpt lat="43.192511" lon="12.1184607"><ele>262.6</ele><time>2026-05-03T06:55:23.805Z</time></trkpt><trkpt lat="43.1925344" lon="12.1183301"><ele>262.4</ele><time>2026-05-03T06:55:25.787Z</time></trkpt><trkpt lat="43.1925405" lon="12.1182114"><ele>262.2</ele><time>2026-05-03T06:55:27.787Z</time></trkpt><trkpt lat="43.1925679" lon="12.1180975"><ele>262.0</ele><time>2026-05-03T06:55:29.801Z</time></trkpt><trkpt lat="43.1925715" lon="12.1179687"><ele>262.0</ele><time>2026-05-03T06:55:31.797Z</time></trkpt><trkpt lat="43.192579" lon="12.1178396"><ele>262.0</ele><time>2026-05-03T06:55:33.793Z</time></trkpt><trkpt lat="43.1925948" lon="12.117711"><ele>262.0</ele><time>2026-05-03T06:55:35.792Z</time></trkpt><trkpt lat="43.1926119" lon="12.1175876"><ele>262.0</ele><time>2026-05-03T06:55:37.797Z</time></trkpt><trkpt lat="43.1926376" lon="12.1174722"><ele>262.0</ele><time>2026-05-03T06:55:39.773Z</time></trkpt><trkpt lat="43.1926621" lon="12.1173529"><ele>262.0</ele><time>2026-05-03T06:55:41.801Z</time></trkpt><trkpt lat="43.1926943" lon="12.1172386"><ele>262.0</ele><time>2026-05-03T06:55:43.791Z</time></trkpt><trkpt lat="43.1926897" lon="12.1171378"><ele>262.0</ele><time>2026-05-03T06:55:45.791Z</time></trkpt><trkpt lat="43.192686" lon="12.1170291"><ele>262.0</ele><time>2026-05-03T06:55:47.809Z</time></trkpt><trkpt lat="43.1926903" lon="12.116888"><ele>262.0</ele><time>2026-05-03T06:55:49.793Z</time></trkpt><trkpt lat="43.1927011" lon="12.1167385"><ele>262.0</ele><time>2026-05-03T06:55:51.774Z</time></trkpt><trkpt lat="43.192708" lon="12.1165948"><ele>262.0</ele><time>2026-05-03T06:55:53.78Z</time></trkpt><trkpt lat="43.1927179" lon="12.1164502"><ele>262.0</ele><time>2026-05-03T06:55:55.789Z</time></trkpt><trkpt lat="43.1927166" lon="12.1163203"><ele>262.0</ele><time>2026-05-03T06:55:57.797Z</time></trkpt><trkpt lat="43.1927203" lon="12.1161838"><ele>262.0</ele><time>2026-05-03T06:55:59.798Z</time></trkpt><trkpt lat="43.192732" lon="12.1160543"><ele>261.6</ele><time>2026-05-03T06:56:01.802Z</time></trkpt><trkpt lat="43.1927391" lon="12.115923"><ele>261.2</ele><time>2026-05-03T06:56:03.798Z</time></trkpt><trkpt lat="43.1927437" lon="12.1158033"><ele>260.8</ele><time>2026-05-03T06:56:05.806Z</time></trkpt><trkpt lat="43.1927424" lon="12.1156727"><ele>260.4</ele><time>2026-05-03T06:56:07.793Z</time></trkpt><trkpt lat="43.1927321" lon="12.1155405"><ele>260.0</ele><time>2026-05-03T06:56:09.795Z</time></trkpt><trkpt lat="43.1927414" lon="12.1154249"><ele>260.0</ele><time>2026-05-03T06:56:11.797Z</time></trkpt><trkpt lat="43.1927524" lon="12.115292"><ele>260.0</ele><time>2026-05-03T06:56:13.801Z</time></trkpt><trkpt lat="43.1927588" lon="12.1151575"><ele>260.0</ele><time>2026-05-03T06:56:15.793Z</time></trkpt><trkpt lat="43.1927628" lon="12.1150183"><ele>260.0</ele><time>2026-05-03T06:56:17.795Z</time></trkpt><trkpt lat="43.1927734" lon="12.1148878"><ele>260.0</ele><time>2026-05-03T06:56:19.79Z</time></trkpt><trkpt lat="43.1927829" lon="12.1147627"><ele>259.8</ele><time>2026-05-03T06:56:21.804Z</time></trkpt><trkpt lat="43.1927982" lon="12.1146243"><ele>259.6</ele><time>2026-05-03T06:56:23.795Z</time></trkpt><trkpt lat="43.1928176" lon="12.1144856"><ele>259.4</ele><time>2026-05-03T06:56:25.795Z</time></trkpt><trkpt lat="43.1928326" lon="12.1143492"><ele>259.2</ele><time>2026-05-03T06:56:27.79Z</time></trkpt><trkpt lat="43.1928464" lon="12.1142156"><ele>259.0</ele><time>2026-05-03T06:56:29.799Z</time></trkpt><trkpt lat="43.1928553" lon="12.1140769"><ele>258.8</ele><time>2026-05-03T06:56:31.795Z</time></trkpt><trkpt lat="43.1928694" lon="12.1139455"><ele>258.59999999999997</ele><time>2026-05-03T06:56:33.772Z</time></trkpt><trkpt lat="43.1928821" lon="12.1138234"><ele>258.4</ele><time>2026-05-03T06:56:35.807Z</time></trkpt><trkpt lat="43.19289" lon="12.1136818"><ele>258.2</ele><time>2026-05-03T06:56:37.806Z</time></trkpt><trkpt lat="43.1928839" lon="12.1135519"><ele>258.0</ele><time>2026-05-03T06:56:39.784Z</time></trkpt><trkpt lat="43.1928705" lon="12.1134172"><ele>258.0</ele><time>2026-05-03T06:56:41.792Z</time></trkpt><trkpt lat="43.1928577" lon="12.1132866"><ele>258.0</ele><time>2026-05-03T06:56:43.774Z</time></trkpt><trkpt lat="43.1928228" lon="12.1130914"><ele>258.0</ele><time>2026-05-03T06:56:46.792Z</time></trkpt><trkpt lat="43.1927991" lon="12.1129576"><ele>258.0</ele><time>2026-05-03T06:56:48.792Z</time></trkpt><trkpt lat="43.1927672" lon="12.112834"><ele>258.0</ele><time>2026-05-03T06:56:50.787Z</time></trkpt><trkpt lat="43.1927345" lon="12.1127094"><ele>258.0</ele><time>2026-05-03T06:56:52.799Z</time></trkpt><trkpt lat="43.1926959" lon="12.1125911"><ele>258.0</ele><time>2026-05-03T06:56:54.772Z</time></trkpt><trkpt lat="43.1926752" lon="12.1124692"><ele>258.0</ele><time>2026-05-03T06:56:56.898Z</time></trkpt><trkpt lat="43.1926476" lon="12.1123461"><ele>258.0</ele><time>2026-05-03T06:56:58.789Z</time></trkpt><trkpt lat="43.1926263" lon="12.1122164"><ele>258.0</ele><time>2026-05-03T06:57:00.794Z</time></trkpt><trkpt lat="43.1925974" lon="12.1120929"><ele>258.0</ele><time>2026-05-03T06:57:02.895Z</time></trkpt><trkpt lat="43.1925876" lon="12.111973"><ele>258.0</ele><time>2026-05-03T06:57:04.789Z</time></trkpt><trkpt lat="43.1925665" lon="12.1118413"><ele>258.0</ele><time>2026-05-03T06:57:06.781Z</time></trkpt><trkpt lat="43.1925438" lon="12.1117067"><ele>258.0</ele><time>2026-05-03T06:57:08.792Z</time></trkpt><trkpt lat="43.1925258" lon="12.1115801"><ele>258.0</ele><time>2026-05-03T06:57:10.792Z</time></trkpt><trkpt lat="43.1924944" lon="12.1114533"><ele>258.0</ele><time>2026-05-03T06:57:12.772Z</time></trkpt><trkpt lat="43.1924681" lon="12.1113367"><ele>258.0</ele><time>2026-05-03T06:57:14.801Z</time></trkpt><trkpt lat="43.1924301" lon="12.1112233"><ele>258.0</ele><time>2026-05-03T06:57:16.787Z</time></trkpt><trkpt lat="43.1923823" lon="12.1111251"><ele>258.0</ele><time>2026-05-03T06:57:18.787Z</time></trkpt><trkpt lat="43.1923286" lon="12.1110089"><ele>258.0</ele><time>2026-05-03T06:57:20.801Z</time></trkpt><trkpt lat="43.1922802" lon="12.1109021"><ele>258.2</ele><time>2026-05-03T06:57:22.793Z</time></trkpt><trkpt lat="43.1922329" lon="12.1107848"><ele>258.4</ele><time>2026-05-03T06:57:24.797Z</time></trkpt><trkpt lat="43.192205" lon="12.1106572"><ele>258.59999999999997</ele><time>2026-05-03T06:57:26.778Z</time></trkpt><trkpt lat="43.1922043" lon="12.1105342"><ele>258.8</ele><time>2026-05-03T06:57:28.774Z</time></trkpt><trkpt lat="43.1922156" lon="12.1104086"><ele>259.0</ele><time>2026-05-03T06:57:30.788Z</time></trkpt><trkpt lat="43.1922341" lon="12.1102861"><ele>259.0</ele><time>2026-05-03T06:57:32.773Z</time></trkpt><trkpt lat="43.1922613" lon="12.1101712"><ele>259.0</ele><time>2026-05-03T06:57:34.771Z</time></trkpt><trkpt lat="43.1922831" lon="12.1100568"><ele>259.0</ele><time>2026-05-03T06:57:36.773Z</time></trkpt><trkpt lat="43.1923106" lon="12.1099479"><ele>259.0</ele><time>2026-05-03T06:57:38.773Z</time></trkpt><trkpt lat="43.1923434" lon="12.1098355"><ele>259.0</ele><time>2026-05-03T06:57:40.773Z</time></trkpt><trkpt lat="43.1923897" lon="12.1097298"><ele>259.0</ele><time>2026-05-03T06:57:42.772Z</time></trkpt><trkpt lat="43.1924498" lon="12.1096383"><ele>258.59999999999997</ele><time>2026-05-03T06:57:44.773Z</time></trkpt><trkpt lat="43.1925051" lon="12.1095369"><ele>258.2</ele><time>2026-05-03T06:57:46.776Z</time></trkpt><trkpt lat="43.1925601" lon="12.1094394"><ele>257.79999999999995</ele><time>2026-05-03T06:57:48.87Z</time></trkpt><trkpt lat="43.1926192" lon="12.1093387"><ele>257.4</ele><time>2026-05-03T06:57:50.783Z</time></trkpt><trkpt lat="43.1926794" lon="12.1092399"><ele>257.0</ele><time>2026-05-03T06:57:52.786Z</time></trkpt><trkpt lat="43.1927349" lon="12.10915"><ele>257.2</ele><time>2026-05-03T06:57:54.881Z</time></trkpt><trkpt lat="43.1927942" lon="12.1090507"><ele>257.4</ele><time>2026-05-03T06:57:56.792Z</time></trkpt><trkpt lat="43.192845" lon="12.1089507"><ele>257.6</ele><time>2026-05-03T06:57:58.785Z</time></trkpt><trkpt lat="43.1929012" lon="12.1088503"><ele>257.8</ele><time>2026-05-03T06:58:00.808Z</time></trkpt><trkpt lat="43.1929601" lon="12.108747"><ele>258.0</ele><time>2026-05-03T06:58:02.803Z</time></trkpt><trkpt lat="43.1930202" lon="12.1086496"><ele>258.0</ele><time>2026-05-03T06:58:04.79Z</time></trkpt><trkpt lat="43.1930785" lon="12.1085477"><ele>258.0</ele><time>2026-05-03T06:58:06.807Z</time></trkpt><trkpt lat="43.1931335" lon="12.1084572"><ele>258.0</ele><time>2026-05-03T06:58:08.796Z</time></trkpt><trkpt lat="43.193192" lon="12.1083681"><ele>258.0</ele><time>2026-05-03T06:58:10.795Z</time></trkpt><trkpt lat="43.1932504" lon="12.1082721"><ele>258.0</ele><time>2026-05-03T06:58:12.888Z</time></trkpt><trkpt lat="43.1933111" lon="12.10818"><ele>258.0</ele><time>2026-05-03T06:58:14.778Z</time></trkpt><trkpt lat="43.1933646" lon="12.1080956"><ele>258.0</ele><time>2026-05-03T06:58:16.798Z</time></trkpt><trkpt lat="43.1934337" lon="12.1080304"><ele>258.0</ele><time>2026-05-03T06:58:18.793Z</time></trkpt><trkpt lat="43.1935182" lon="12.1080172"><ele>258.0</ele><time>2026-05-03T06:58:20.796Z</time></trkpt><trkpt lat="43.1936028" lon="12.1080585"><ele>258.0</ele><time>2026-05-03T06:58:22.793Z</time></trkpt><trkpt lat="43.1936902" lon="12.108108"><ele>258.0</ele><time>2026-05-03T06:58:24.799Z</time></trkpt><trkpt lat="43.1937681" lon="12.1081551"><ele>258.0</ele><time>2026-05-03T06:58:26.802Z</time></trkpt><trkpt lat="43.1938534" lon="12.1081726"><ele>258.0</ele><time>2026-05-03T06:58:28.784Z</time></trkpt><trkpt lat="43.1939226" lon="12.1081159"><ele>258.0</ele><time>2026-05-03T06:58:30.795Z</time></trkpt><trkpt lat="43.1939651" lon="12.1079964"><ele>258.0</ele><time>2026-05-03T06:58:32.793Z</time></trkpt><trkpt lat="43.1939843" lon="12.1078611"><ele>258.0</ele><time>2026-05-03T06:58:34.786Z</time></trkpt><trkpt lat="43.1939956" lon="12.1077249"><ele>258.0</ele><time>2026-05-03T06:58:36.792Z</time></trkpt><trkpt lat="43.1940158" lon="12.1075931"><ele>258.4</ele><time>2026-05-03T06:58:38.801Z</time></trkpt><trkpt lat="43.1940358" lon="12.1074624"><ele>258.8</ele><time>2026-05-03T06:58:40.788Z</time></trkpt><trkpt lat="43.1940536" lon="12.1073267"><ele>259.2</ele><time>2026-05-03T06:58:42.792Z</time></trkpt><trkpt lat="43.1940679" lon="12.1072048"><ele>259.6</ele><time>2026-05-03T06:58:44.79Z</time></trkpt><trkpt lat="43.1940846" lon="12.1070752"><ele>260.0</ele><time>2026-05-03T06:58:46.799Z</time></trkpt><trkpt lat="43.1941076" lon="12.1069427"><ele>260.0</ele><time>2026-05-03T06:58:48.797Z</time></trkpt><trkpt lat="43.1941281" lon="12.1068173"><ele>260.0</ele><time>2026-05-03T06:58:50.798Z</time></trkpt><trkpt lat="43.1941457" lon="12.1066904"><ele>260.0</ele><time>2026-05-03T06:58:52.791Z</time></trkpt><trkpt lat="43.1941812" lon="12.1065645"><ele>260.0</ele><time>2026-05-03T06:58:54.789Z</time></trkpt><trkpt lat="43.1941845" lon="12.1064386"><ele>260.0</ele><time>2026-05-03T06:58:56.789Z</time></trkpt><trkpt lat="43.1941901" lon="12.1063069"><ele>259.8</ele><time>2026-05-03T06:58:58.877Z</time></trkpt><trkpt lat="43.1941976" lon="12.1061754"><ele>259.6</ele><time>2026-05-03T06:59:00.793Z</time></trkpt><trkpt lat="43.1942039" lon="12.106058"><ele>259.4</ele><time>2026-05-03T06:59:02.793Z</time></trkpt><trkpt lat="43.1942332" lon="12.1059289"><ele>259.2</ele><time>2026-05-03T06:59:04.788Z</time></trkpt><trkpt lat="43.1942454" lon="12.1058015"><ele>259.0</ele><time>2026-05-03T06:59:06.788Z</time></trkpt><trkpt lat="43.1942597" lon="12.105676"><ele>258.8</ele><time>2026-05-03T06:59:08.803Z</time></trkpt><trkpt lat="43.1942737" lon="12.1055335"><ele>258.59999999999997</ele><time>2026-05-03T06:59:10.789Z</time></trkpt><trkpt lat="43.1942954" lon="12.1053945"><ele>258.4</ele><time>2026-05-03T06:59:12.794Z</time></trkpt><trkpt lat="43.1943124" lon="12.105271"><ele>258.2</ele><time>2026-05-03T06:59:14.793Z</time></trkpt><trkpt lat="43.1943278" lon="12.1051432"><ele>258.0</ele><time>2026-05-03T06:59:16.787Z</time></trkpt><trkpt lat="43.1943458" lon="12.1050126"><ele>258.2</ele><time>2026-05-03T06:59:18.8Z</time></trkpt><trkpt lat="43.1943596" lon="12.1048922"><ele>258.4</ele><time>2026-05-03T06:59:20.781Z</time></trkpt><trkpt lat="43.1943703" lon="12.1047684"><ele>258.59999999999997</ele><time>2026-05-03T06:59:22.789Z</time></trkpt><trkpt lat="43.1943962" lon="12.1046326"><ele>258.8</ele><time>2026-05-03T06:59:24.798Z</time></trkpt><trkpt lat="43.1944484" lon="12.1045081"><ele>259.0</ele><time>2026-05-03T06:59:26.788Z</time></trkpt><trkpt lat="43.194485" lon="12.104364"><ele>259.0</ele><time>2026-05-03T06:59:28.799Z</time></trkpt><trkpt lat="43.1944979" lon="12.1042135"><ele>259.0</ele><time>2026-05-03T06:59:30.801Z</time></trkpt><trkpt lat="43.1944987" lon="12.1039928"><ele>259.0</ele><time>2026-05-03T06:59:33.778Z</time></trkpt><trkpt lat="43.1945382" lon="12.1038519"><ele>259.0</ele><time>2026-05-03T06:59:35.778Z</time></trkpt><trkpt lat="43.1945622" lon="12.1037141"><ele>258.8</ele><time>2026-05-03T06:59:37.87Z</time></trkpt><trkpt lat="43.1945792" lon="12.1035732"><ele>258.59999999999997</ele><time>2026-05-03T06:59:39.798Z</time></trkpt><trkpt lat="43.1945638" lon="12.1034428"><ele>258.4</ele><time>2026-05-03T06:59:41.783Z</time></trkpt><trkpt lat="43.1945789" lon="12.1033173"><ele>258.2</ele><time>2026-05-03T06:59:43.777Z</time></trkpt><trkpt lat="43.1945847" lon="12.103192"><ele>258.0</ele><time>2026-05-03T06:59:45.79Z</time></trkpt><trkpt lat="43.1945902" lon="12.1030646"><ele>258.0</ele><time>2026-05-03T06:59:47.788Z</time></trkpt><trkpt lat="43.1946084" lon="12.1029465"><ele>258.0</ele><time>2026-05-03T06:59:49.784Z</time></trkpt><trkpt lat="43.1946256" lon="12.1028322"><ele>258.0</ele><time>2026-05-03T06:59:51.786Z</time></trkpt><trkpt lat="43.1946543" lon="12.1027011"><ele>258.0</ele><time>2026-05-03T06:59:53.807Z</time></trkpt><trkpt lat="43.1946756" lon="12.1025708"><ele>258.0</ele><time>2026-05-03T06:59:55.789Z</time></trkpt><trkpt lat="43.1946915" lon="12.1024451"><ele>258.0</ele><time>2026-05-03T06:59:57.792Z</time></trkpt><trkpt lat="43.1947327" lon="12.1023143"><ele>258.0</ele><time>2026-05-03T06:59:59.8Z</time></trkpt><trkpt lat="43.1947873" lon="12.1021886"><ele>258.0</ele><time>2026-05-03T07:00:01.791Z</time></trkpt><trkpt lat="43.194819" lon="12.1020505"><ele>258.0</ele><time>2026-05-03T07:00:03.788Z</time></trkpt><trkpt lat="43.1948358" lon="12.1019164"><ele>258.0</ele><time>2026-05-03T07:00:05.799Z</time></trkpt><trkpt lat="43.1948495" lon="12.1017784"><ele>258.2</ele><time>2026-05-03T07:00:07.792Z</time></trkpt><trkpt lat="43.1948709" lon="12.1016477"><ele>258.4</ele><time>2026-05-03T07:00:09.794Z</time></trkpt><trkpt lat="43.1948805" lon="12.1015242"><ele>258.59999999999997</ele><time>2026-05-03T07:00:11.798Z</time></trkpt><trkpt lat="43.1949004" lon="12.1013982"><ele>258.8</ele><time>2026-05-03T07:00:13.789Z</time></trkpt><trkpt lat="43.1949159" lon="12.1012792"><ele>259.0</ele><time>2026-05-03T07:00:15.801Z</time></trkpt><trkpt lat="43.1949346" lon="12.101145"><ele>259.0</ele><time>2026-05-03T07:00:17.789Z</time></trkpt><trkpt lat="43.1949478" lon="12.1010099"><ele>259.0</ele><time>2026-05-03T07:00:19.794Z</time></trkpt><trkpt lat="43.1949702" lon="12.1008758"><ele>259.0</ele><time>2026-05-03T07:00:21.791Z</time></trkpt><trkpt lat="43.1949824" lon="12.1007555"><ele>259.0</ele><time>2026-05-03T07:00:23.786Z</time></trkpt><trkpt lat="43.1949947" lon="12.1006285"><ele>259.0</ele><time>2026-05-03T07:00:25.794Z</time></trkpt><trkpt lat="43.1950158" lon="12.1005018"><ele>259.2</ele><time>2026-05-03T07:00:27.788Z</time></trkpt><trkpt lat="43.1950281" lon="12.1003691"><ele>259.4</ele><time>2026-05-03T07:00:29.79Z</time></trkpt><trkpt lat="43.1950234" lon="12.1002263"><ele>259.6</ele><time>2026-05-03T07:00:31.798Z</time></trkpt><trkpt lat="43.1950474" lon="12.1001062"><ele>259.8</ele><time>2026-05-03T07:00:33.788Z</time></trkpt><trkpt lat="43.1950693" lon="12.0999687"><ele>260.0</ele><time>2026-05-03T07:00:35.789Z</time></trkpt><trkpt lat="43.1950815" lon="12.0998365"><ele>259.5</ele><time>2026-05-03T07:00:37.797Z</time></trkpt><trkpt lat="43.195104" lon="12.0997028"><ele>259.0</ele><time>2026-05-03T07:00:39.786Z</time></trkpt><trkpt lat="43.1951323" lon="12.0995706"><ele>258.5</ele><time>2026-05-03T07:00:41.802Z</time></trkpt><trkpt lat="43.1951653" lon="12.0993655"><ele>258.0</ele><time>2026-05-03T07:00:44.79Z</time></trkpt><trkpt lat="43.1951903" lon="12.0992383"><ele>258.0</ele><time>2026-05-03T07:00:46.789Z</time></trkpt><trkpt lat="43.1952101" lon="12.0991137"><ele>258.0</ele><time>2026-05-03T07:00:48.792Z</time></trkpt><trkpt lat="43.1952256" lon="12.098986"><ele>258.0</ele><time>2026-05-03T07:00:50.788Z</time></trkpt><trkpt lat="43.1952289" lon="12.0988572"><ele>258.0</ele><time>2026-05-03T07:00:52.8Z</time></trkpt><trkpt lat="43.1952463" lon="12.0987326"><ele>258.0</ele><time>2026-05-03T07:00:54.782Z</time></trkpt><trkpt lat="43.1952573" lon="12.0986042"><ele>258.0</ele><time>2026-05-03T07:00:56.778Z</time></trkpt><trkpt lat="43.1952894" lon="12.0984782"><ele>258.0</ele><time>2026-05-03T07:00:58.787Z</time></trkpt><trkpt lat="43.1953216" lon="12.0983587"><ele>258.0</ele><time>2026-05-03T07:01:00.775Z</time></trkpt><trkpt lat="43.1953316" lon="12.0982319"><ele>258.0</ele><time>2026-05-03T07:01:02.793Z</time></trkpt><trkpt lat="43.1953498" lon="12.0981087"><ele>258.0</ele><time>2026-05-03T07:01:04.8Z</time></trkpt><trkpt lat="43.1953662" lon="12.0979741"><ele>258.0</ele><time>2026-05-03T07:01:06.899Z</time></trkpt><trkpt lat="43.1953799" lon="12.0978397"><ele>258.0</ele><time>2026-05-03T07:01:08.782Z</time></trkpt><trkpt lat="43.1954058" lon="12.0977129"><ele>258.0</ele><time>2026-05-03T07:01:10.788Z</time></trkpt><trkpt lat="43.1954201" lon="12.0975816"><ele>258.0</ele><time>2026-05-03T07:01:12.785Z</time></trkpt><trkpt lat="43.1954373" lon="12.097458"><ele>258.0</ele><time>2026-05-03T07:01:14.79Z</time></trkpt><trkpt lat="43.1954494" lon="12.0973331"><ele>258.0</ele><time>2026-05-03T07:01:16.8Z</time></trkpt><trkpt lat="43.1954613" lon="12.0972045"><ele>258.0</ele><time>2026-05-03T07:01:18.792Z</time></trkpt><trkpt lat="43.1954671" lon="12.0970903"><ele>258.0</ele><time>2026-05-03T07:01:20.786Z</time></trkpt><trkpt lat="43.195493" lon="12.0969684"><ele>258.0</ele><time>2026-05-03T07:01:22.792Z</time></trkpt><trkpt lat="43.1955258" lon="12.0968419"><ele>258.0</ele><time>2026-05-03T07:01:24.894Z</time></trkpt><trkpt lat="43.1955376" lon="12.0967206"><ele>258.0</ele><time>2026-05-03T07:01:26.8Z</time></trkpt><trkpt lat="43.1955517" lon="12.0965957"><ele>258.0</ele><time>2026-05-03T07:01:28.779Z</time></trkpt><trkpt lat="43.1955616" lon="12.0964718"><ele>258.0</ele><time>2026-05-03T07:01:30.784Z</time></trkpt><trkpt lat="43.1955842" lon="12.0963508"><ele>258.0</ele><time>2026-05-03T07:01:32.787Z</time></trkpt><trkpt lat="43.1956114" lon="12.0962209"><ele>258.0</ele><time>2026-05-03T07:01:34.797Z</time></trkpt><trkpt lat="43.1956309" lon="12.0960969"><ele>258.2</ele><time>2026-05-03T07:01:36.785Z</time></trkpt><trkpt lat="43.1956559" lon="12.095969"><ele>258.4</ele><time>2026-05-03T07:01:38.798Z</time></trkpt><trkpt lat="43.1956665" lon="12.0958447"><ele>258.59999999999997</ele><time>2026-05-03T07:01:40.793Z</time></trkpt><trkpt lat="43.1956807" lon="12.0957163"><ele>258.8</ele><time>2026-05-03T07:01:42.787Z</time></trkpt><trkpt lat="43.1956918" lon="12.0955967"><ele>259.0</ele><time>2026-05-03T07:01:44.802Z</time></trkpt><trkpt lat="43.1957068" lon="12.0954722"><ele>259.2</ele><time>2026-05-03T07:01:46.773Z</time></trkpt><trkpt lat="43.1957279" lon="12.0953475"><ele>259.4</ele><time>2026-05-03T07:01:48.778Z</time></trkpt><trkpt lat="43.1957468" lon="12.0952195"><ele>259.6</ele><time>2026-05-03T07:01:50.793Z</time></trkpt><trkpt lat="43.1957722" lon="12.0950937"><ele>259.8</ele><time>2026-05-03T07:01:52.777Z</time></trkpt><trkpt lat="43.1957909" lon="12.0949757"><ele>260.0</ele><time>2026-05-03T07:01:54.781Z</time></trkpt><trkpt lat="43.1958087" lon="12.0948508"><ele>260.0</ele><time>2026-05-03T07:01:56.784Z</time></trkpt><trkpt lat="43.1958247" lon="12.0947321"><ele>260.0</ele><time>2026-05-03T07:01:58.777Z</time></trkpt><trkpt lat="43.1958507" lon="12.0946117"><ele>260.0</ele><time>2026-05-03T07:02:00.862Z</time></trkpt><trkpt lat="43.1958638" lon="12.0944939"><ele>260.0</ele><time>2026-05-03T07:02:02.773Z</time></trkpt><trkpt lat="43.195879" lon="12.0943639"><ele>260.0</ele><time>2026-05-03T07:02:04.776Z</time></trkpt><trkpt lat="43.1958853" lon="12.0942298"><ele>260.0</ele><time>2026-05-03T07:02:06.866Z</time></trkpt><trkpt lat="43.1959014" lon="12.0940996"><ele>260.0</ele><time>2026-05-03T07:02:08.773Z</time></trkpt><trkpt lat="43.1959203" lon="12.0939705"><ele>260.0</ele><time>2026-05-03T07:02:10.772Z</time></trkpt><trkpt lat="43.1959355" lon="12.0938537"><ele>260.0</ele><time>2026-05-03T07:02:12.862Z</time></trkpt><trkpt lat="43.1959527" lon="12.0937307"><ele>260.0</ele><time>2026-05-03T07:02:14.777Z</time></trkpt><trkpt lat="43.1959636" lon="12.0936235"><ele>260.0</ele><time>2026-05-03T07:02:16.77Z</time></trkpt><trkpt lat="43.1959868" lon="12.0935012"><ele>259.8</ele><time>2026-05-03T07:02:18.771Z</time></trkpt><trkpt lat="43.196005" lon="12.0933868"><ele>259.6</ele><time>2026-05-03T07:02:20.771Z</time></trkpt><trkpt lat="43.1960284" lon="12.0932541"><ele>259.4</ele><time>2026-05-03T07:02:22.77Z</time></trkpt><trkpt lat="43.1960491" lon="12.0931315"><ele>259.2</ele><time>2026-05-03T07:02:24.862Z</time></trkpt><trkpt lat="43.1960559" lon="12.0930076"><ele>259.0</ele><time>2026-05-03T07:02:26.781Z</time></trkpt><trkpt lat="43.1960702" lon="12.0928822"><ele>259.0</ele><time>2026-05-03T07:02:28.781Z</time></trkpt><trkpt lat="43.1960888" lon="12.0927546"><ele>259.0</ele><time>2026-05-03T07:02:30.868Z</time></trkpt><trkpt lat="43.1961043" lon="12.0926249"><ele>259.0</ele><time>2026-05-03T07:02:32.78Z</time></trkpt><trkpt lat="43.196114" lon="12.0925165"><ele>259.0</ele><time>2026-05-03T07:02:34.773Z</time></trkpt><trkpt lat="43.1961011" lon="12.0923856"><ele>259.0</ele><time>2026-05-03T07:02:36.772Z</time></trkpt><trkpt lat="43.1961147" lon="12.0922621"><ele>259.0</ele><time>2026-05-03T07:02:38.776Z</time></trkpt><trkpt lat="43.1961262" lon="12.0921416"><ele>259.0</ele><time>2026-05-03T07:02:40.777Z</time></trkpt><trkpt lat="43.1961377" lon="12.0920327"><ele>259.0</ele><time>2026-05-03T07:02:42.779Z</time></trkpt><trkpt lat="43.196159" lon="12.0919322"><ele>259.0</ele><time>2026-05-03T07:02:44.78Z</time></trkpt><trkpt lat="43.1961639" lon="12.0918059"><ele>259.0</ele><time>2026-05-03T07:02:46.77Z</time></trkpt><trkpt lat="43.196184" lon="12.0916754"><ele>259.0</ele><time>2026-05-03T07:02:48.776Z</time></trkpt><trkpt lat="43.196206" lon="12.0915611"><ele>259.0</ele><time>2026-05-03T07:02:50.775Z</time></trkpt><trkpt lat="43.1962285" lon="12.0914442"><ele>259.0</ele><time>2026-05-03T07:02:52.781Z</time></trkpt><trkpt lat="43.1962538" lon="12.0913284"><ele>259.0</ele><time>2026-05-03T07:02:54.778Z</time></trkpt><trkpt lat="43.196266" lon="12.0912074"><ele>259.0</ele><time>2026-05-03T07:02:56.776Z</time></trkpt><trkpt lat="43.196282" lon="12.0910828"><ele>259.0</ele><time>2026-05-03T07:02:58.883Z</time></trkpt><trkpt lat="43.1962956" lon="12.0909628"><ele>259.0</ele><time>2026-05-03T07:03:00.79Z</time></trkpt><trkpt lat="43.1963114" lon="12.0908476"><ele>259.16666666666663</ele><time>2026-05-03T07:03:02.773Z</time></trkpt><trkpt lat="43.1963237" lon="12.0907293"><ele>259.3333333333333</ele><time>2026-05-03T07:03:04.783Z</time></trkpt><trkpt lat="43.1963272" lon="12.090614"><ele>259.5</ele><time>2026-05-03T07:03:06.797Z</time></trkpt><trkpt lat="43.1963277" lon="12.0904875"><ele>259.6666666666667</ele><time>2026-05-03T07:03:08.809Z</time></trkpt><trkpt lat="43.1963268" lon="12.0903868"><ele>259.83333333333337</ele><time>2026-05-03T07:03:10.786Z</time></trkpt><trkpt lat="43.1963386" lon="12.0902869"><ele>260.0</ele><time>2026-05-03T07:03:12.783Z</time></trkpt><trkpt lat="43.1963526" lon="12.0901769"><ele>260.0</ele><time>2026-05-03T07:03:14.785Z</time></trkpt><trkpt lat="43.1963707" lon="12.0900715"><ele>260.0</ele><time>2026-05-03T07:03:16.87Z</time></trkpt><trkpt lat="43.1963861" lon="12.0899659"><ele>260.0</ele><time>2026-05-03T07:03:18.802Z</time></trkpt><trkpt lat="43.1964133" lon="12.0898337"><ele>260.0</ele><time>2026-05-03T07:03:20.796Z</time></trkpt><trkpt lat="43.1964412" lon="12.089682"><ele>260.0</ele><time>2026-05-03T07:03:22.787Z</time></trkpt><trkpt lat="43.1964667" lon="12.0895309"><ele>260.0</ele><time>2026-05-03T07:03:24.789Z</time></trkpt><trkpt lat="43.1964775" lon="12.0893848"><ele>260.0</ele><time>2026-05-03T07:03:26.79Z</time></trkpt><trkpt lat="43.1965034" lon="12.0892418"><ele>260.0</ele><time>2026-05-03T07:03:28.792Z</time></trkpt><trkpt lat="43.1965237" lon="12.0891037"><ele>260.0</ele><time>2026-05-03T07:03:30.79Z</time></trkpt><trkpt lat="43.1965429" lon="12.0889542"><ele>260.0</ele><time>2026-05-03T07:03:32.793Z</time></trkpt><trkpt lat="43.1965688" lon="12.0888134"><ele>260.0</ele><time>2026-05-03T07:03:34.776Z</time></trkpt><trkpt lat="43.1965906" lon="12.0886738"><ele>260.0</ele><time>2026-05-03T07:03:36.797Z</time></trkpt><trkpt lat="43.1966147" lon="12.0885434"><ele>260.0</ele><time>2026-05-03T07:03:38.785Z</time></trkpt><trkpt lat="43.1966363" lon="12.0884102"><ele>260.0</ele><time>2026-05-03T07:03:40.886Z</time></trkpt><trkpt lat="43.1966602" lon="12.0882791"><ele>260.0</ele><time>2026-05-03T07:03:42.794Z</time></trkpt><trkpt lat="43.1966954" lon="12.0881387"><ele>259.8</ele><time>2026-05-03T07:03:44.792Z</time></trkpt><trkpt lat="43.1967147" lon="12.0880161"><ele>259.6</ele><time>2026-05-03T07:03:46.786Z</time></trkpt><trkpt lat="43.1967251" lon="12.0878846"><ele>259.4</ele><time>2026-05-03T07:03:48.801Z</time></trkpt><trkpt lat="43.1967487" lon="12.0877642"><ele>259.2</ele><time>2026-05-03T07:03:50.795Z</time></trkpt><trkpt lat="43.1967521" lon="12.0876432"><ele>259.0</ele><time>2026-05-03T07:03:52.881Z</time></trkpt><trkpt lat="43.1967639" lon="12.0875301"><ele>259.0</ele><time>2026-05-03T07:03:54.778Z</time></trkpt><trkpt lat="43.1967754" lon="12.0873991"><ele>259.0</ele><time>2026-05-03T07:03:56.785Z</time></trkpt><trkpt lat="43.1967958" lon="12.087267"><ele>259.0</ele><time>2026-05-03T07:03:58.785Z</time></trkpt><trkpt lat="43.1968095" lon="12.0871357"><ele>259.0</ele><time>2026-05-03T07:04:00.801Z</time></trkpt><trkpt lat="43.1968152" lon="12.086993"><ele>259.0</ele><time>2026-05-03T07:04:02.794Z</time></trkpt><trkpt lat="43.196837" lon="12.0868776"><ele>259.0</ele><time>2026-05-03T07:04:04.876Z</time></trkpt><trkpt lat="43.1968615" lon="12.0867557"><ele>259.0</ele><time>2026-05-03T07:04:06.798Z</time></trkpt><trkpt lat="43.1968668" lon="12.0866422"><ele>259.0</ele><time>2026-05-03T07:04:08.784Z</time></trkpt><trkpt lat="43.1968837" lon="12.0865192"><ele>259.0</ele><time>2026-05-03T07:04:10.792Z</time></trkpt><trkpt lat="43.1968814" lon="12.0864"><ele>259.0</ele><time>2026-05-03T07:04:12.786Z</time></trkpt><trkpt lat="43.1968976" lon="12.0862709"><ele>259.0</ele><time>2026-05-03T07:04:14.79Z</time></trkpt><trkpt lat="43.1969036" lon="12.0861295"><ele>259.0</ele><time>2026-05-03T07:04:16.806Z</time></trkpt><trkpt lat="43.1969195" lon="12.0859983"><ele>259.0</ele><time>2026-05-03T07:04:18.798Z</time></trkpt><trkpt lat="43.1969215" lon="12.0858531"><ele>259.0</ele><time>2026-05-03T07:04:20.8Z</time></trkpt><trkpt lat="43.1969374" lon="12.0857281"><ele>259.0</ele><time>2026-05-03T07:04:22.806Z</time></trkpt><trkpt lat="43.1969583" lon="12.0855827"><ele>259.0</ele><time>2026-05-03T07:04:24.793Z</time></trkpt><trkpt lat="43.1969751" lon="12.0854383"><ele>258.8</ele><time>2026-05-03T07:04:26.793Z</time></trkpt><trkpt lat="43.1969796" lon="12.0853037"><ele>258.59999999999997</ele><time>2026-05-03T07:04:28.792Z</time></trkpt><trkpt lat="43.1969952" lon="12.0851591"><ele>258.4</ele><time>2026-05-03T07:04:30.797Z</time></trkpt><trkpt lat="43.1970047" lon="12.0850232"><ele>258.2</ele><time>2026-05-03T07:04:32.796Z</time></trkpt><trkpt lat="43.1970146" lon="12.0848873"><ele>258.0</ele><time>2026-05-03T07:04:34.794Z</time></trkpt><trkpt lat="43.1970316" lon="12.0847477"><ele>258.2</ele><time>2026-05-03T07:04:36.791Z</time></trkpt><trkpt lat="43.1970414" lon="12.0846158"><ele>258.4</ele><time>2026-05-03T07:04:38.789Z</time></trkpt><trkpt lat="43.1970436" lon="12.0844818"><ele>258.59999999999997</ele><time>2026-05-03T07:04:40.792Z</time></trkpt><trkpt lat="43.1970477" lon="12.0843449"><ele>258.8</ele><time>2026-05-03T07:04:42.794Z</time></trkpt><trkpt lat="43.1970602" lon="12.0842084"><ele>259.0</ele><time>2026-05-03T07:04:44.792Z</time></trkpt><trkpt lat="43.1970624" lon="12.0840785"><ele>259.0</ele><time>2026-05-03T07:04:46.798Z</time></trkpt><trkpt lat="43.1970594" lon="12.0839465"><ele>259.0</ele><time>2026-05-03T07:04:48.782Z</time></trkpt><trkpt lat="43.1970653" lon="12.08381"><ele>259.0</ele><time>2026-05-03T07:04:50.772Z</time></trkpt><trkpt lat="43.1970493" lon="12.0836195"><ele>259.0</ele><time>2026-05-03T07:04:53.794Z</time></trkpt><trkpt lat="43.1970397" lon="12.0834961"><ele>259.0</ele><time>2026-05-03T07:04:55.793Z</time></trkpt><trkpt lat="43.1970249" lon="12.0833528"><ele>259.0</ele><time>2026-05-03T07:04:57.899Z</time></trkpt><trkpt lat="43.197023" lon="12.0832327"><ele>259.0</ele><time>2026-05-03T07:04:59.789Z</time></trkpt><trkpt lat="43.1970089" lon="12.0831029"><ele>259.0</ele><time>2026-05-03T07:05:01.797Z</time></trkpt><trkpt lat="43.1970011" lon="12.0829685"><ele>259.0</ele><time>2026-05-03T07:05:03.785Z</time></trkpt><trkpt lat="43.1969942" lon="12.0828403"><ele>259.0</ele><time>2026-05-03T07:05:05.786Z</time></trkpt><trkpt lat="43.196984" lon="12.0827097"><ele>259.0</ele><time>2026-05-03T07:05:07.786Z</time></trkpt><trkpt lat="43.1969806" lon="12.0825826"><ele>259.0</ele><time>2026-05-03T07:05:09.781Z</time></trkpt><trkpt lat="43.1969726" lon="12.0824505"><ele>259.0</ele><time>2026-05-03T07:05:11.784Z</time></trkpt><trkpt lat="43.1969608" lon="12.0823129"><ele>259.0</ele><time>2026-05-03T07:05:13.797Z</time></trkpt><trkpt lat="43.1969435" lon="12.0821828"><ele>259.0</ele><time>2026-05-03T07:05:15.785Z</time></trkpt><trkpt lat="43.1969191" lon="12.0820596"><ele>259.2</ele><time>2026-05-03T07:05:17.789Z</time></trkpt><trkpt lat="43.1968918" lon="12.0819334"><ele>259.4</ele><time>2026-05-03T07:05:19.791Z</time></trkpt><trkpt lat="43.1968686" lon="12.0818138"><ele>259.6</ele><time>2026-05-03T07:05:21.786Z</time></trkpt><trkpt lat="43.1968374" lon="12.081685"><ele>259.8</ele><time>2026-05-03T07:05:23.774Z</time></trkpt><trkpt lat="43.196816" lon="12.0815543"><ele>260.0</ele><time>2026-05-03T07:05:25.796Z</time></trkpt><trkpt lat="43.1968059" lon="12.0814254"><ele>260.0</ele><time>2026-05-03T07:05:27.789Z</time></trkpt><trkpt lat="43.1967864" lon="12.0813016"><ele>260.0</ele><time>2026-05-03T07:05:29.793Z</time></trkpt><trkpt lat="43.1967694" lon="12.0811783"><ele>260.0</ele><time>2026-05-03T07:05:31.79Z</time></trkpt><trkpt lat="43.1967535" lon="12.081056"><ele>260.0</ele><time>2026-05-03T07:05:33.876Z</time></trkpt><trkpt lat="43.1967359" lon="12.080933"><ele>260.0</ele><time>2026-05-03T07:05:35.787Z</time></trkpt><trkpt lat="43.1967132" lon="12.0807998"><ele>260.2</ele><time>2026-05-03T07:05:37.793Z</time></trkpt><trkpt lat="43.1967084" lon="12.0806809"><ele>260.4</ele><time>2026-05-03T07:05:39.894Z</time></trkpt><trkpt lat="43.1966812" lon="12.0805529"><ele>260.6</ele><time>2026-05-03T07:05:41.792Z</time></trkpt><trkpt lat="43.1966813" lon="12.0804384"><ele>260.8</ele><time>2026-05-03T07:05:43.792Z</time></trkpt><trkpt lat="43.1966556" lon="12.0803083"><ele>261.0</ele><time>2026-05-03T07:05:45.781Z</time></trkpt><trkpt lat="43.1966379" lon="12.0801932"><ele>261.0</ele><time>2026-05-03T07:05:47.798Z</time></trkpt><trkpt lat="43.1966254" lon="12.0800793"><ele>261.0</ele><time>2026-05-03T07:05:49.801Z</time></trkpt><trkpt lat="43.1965865" lon="12.0799685"><ele>261.0</ele><time>2026-05-03T07:05:51.78Z</time></trkpt><trkpt lat="43.1965397" lon="12.0798241"><ele>261.0</ele><time>2026-05-03T07:05:53.797Z</time></trkpt><trkpt lat="43.1965073" lon="12.079707"><ele>261.0</ele><time>2026-05-03T07:05:55.787Z</time></trkpt><trkpt lat="43.1964853" lon="12.079605"><ele>260.6666666666667</ele><time>2026-05-03T07:05:57.789Z</time></trkpt><trkpt lat="43.196455" lon="12.0794871"><ele>260.3333333333333</ele><time>2026-05-03T07:05:59.793Z</time></trkpt><trkpt lat="43.1964492" lon="12.0793707"><ele>260.0</ele><time>2026-05-03T07:06:01.794Z</time></trkpt><trkpt lat="43.1964271" lon="12.0792532"><ele>259.66666666666663</ele><time>2026-05-03T07:06:03.782Z</time></trkpt><trkpt lat="43.1964035" lon="12.0791514"><ele>259.3333333333333</ele><time>2026-05-03T07:06:05.783Z</time></trkpt><trkpt lat="43.196403" lon="12.0790525"><ele>259.0</ele><time>2026-05-03T07:06:07.785Z</time></trkpt><trkpt lat="43.1963697" lon="12.0789239"><ele>258.8333333333333</ele><time>2026-05-03T07:06:09.785Z</time></trkpt><trkpt lat="43.1963567" lon="12.0788077"><ele>258.66666666666663</ele><time>2026-05-03T07:06:11.805Z</time></trkpt><trkpt lat="43.1963372" lon="12.07868"><ele>258.5</ele><time>2026-05-03T07:06:13.785Z</time></trkpt><trkpt lat="43.1963201" lon="12.0785666"><ele>258.3333333333333</ele><time>2026-05-03T07:06:15.786Z</time></trkpt><trkpt lat="43.1962969" lon="12.0784491"><ele>258.1666666666667</ele><time>2026-05-03T07:06:17.787Z</time></trkpt><trkpt lat="43.196278" lon="12.0783389"><ele>258.0</ele><time>2026-05-03T07:06:19.782Z</time></trkpt><trkpt lat="43.1962673" lon="12.0782484"><ele>258.5</ele><time>2026-05-03T07:06:21.779Z</time></trkpt><trkpt lat="43.1962581" lon="12.0781366"><ele>259.0</ele><time>2026-05-03T07:06:23.77Z</time></trkpt><trkpt lat="43.1962475" lon="12.0780465"><ele>259.5</ele><time>2026-05-03T07:06:25.775Z</time></trkpt><trkpt lat="43.1961906" lon="12.0779558"><ele>260.0</ele><time>2026-05-03T07:06:27.777Z</time></trkpt><trkpt lat="43.1961112" lon="12.0778934"><ele>260.5</ele><time>2026-05-03T07:06:29.775Z</time></trkpt><trkpt lat="43.1960493" lon="12.0778518"><ele>261.0</ele><time>2026-05-03T07:06:31.777Z</time></trkpt><trkpt lat="43.1959795" lon="12.0778324"><ele>261.0</ele><time>2026-05-03T07:06:33.794Z</time></trkpt><trkpt lat="43.1958956" lon="12.0778212"><ele>261.0</ele><time>2026-05-03T07:06:35.777Z</time></trkpt><trkpt lat="43.195832" lon="12.0777655"><ele>261.0</ele><time>2026-05-03T07:06:37.772Z</time></trkpt><trkpt lat="43.1958042" lon="12.0776839"><ele>261.0</ele><time>2026-05-03T07:06:39.78Z</time></trkpt><trkpt lat="43.1958229" lon="12.0775875"><ele>261.0</ele><time>2026-05-03T07:06:41.776Z</time></trkpt><trkpt lat="43.1958487" lon="12.0774866"><ele>261.0</ele><time>2026-05-03T07:06:43.78Z</time></trkpt><trkpt lat="43.1958833" lon="12.0773814"><ele>261.3333333333333</ele><time>2026-05-03T07:06:45.781Z</time></trkpt><trkpt lat="43.1959135" lon="12.0772509"><ele>261.6666666666667</ele><time>2026-05-03T07:06:47.774Z</time></trkpt><trkpt lat="43.1959515" lon="12.0771404"><ele>262.0</ele><time>2026-05-03T07:06:49.778Z</time></trkpt><trkpt lat="43.1959719" lon="12.0770238"><ele>262.33333333333337</ele><time>2026-05-03T07:06:51.772Z</time></trkpt><trkpt lat="43.1959806" lon="12.0769201"><ele>262.6666666666667</ele><time>2026-05-03T07:06:53.789Z</time></trkpt><trkpt lat="43.1959759" lon="12.0768155"><ele>263.0</ele><time>2026-05-03T07:06:55.786Z</time></trkpt><trkpt lat="43.1959689" lon="12.0767142"><ele>262.6</ele><time>2026-05-03T07:06:57.785Z</time></trkpt><trkpt lat="43.195959" lon="12.0765962"><ele>262.20000000000005</ele><time>2026-05-03T07:06:59.798Z</time></trkpt><trkpt lat="43.1959395" lon="12.0764622"><ele>261.8</ele><time>2026-05-03T07:07:01.788Z</time></trkpt><trkpt lat="43.195931" lon="12.0763355"><ele>261.40000000000003</ele><time>2026-05-03T07:07:03.801Z</time></trkpt><trkpt lat="43.1959162" lon="12.0762103"><ele>261.0</ele><time>2026-05-03T07:07:05.791Z</time></trkpt><trkpt lat="43.1958877" lon="12.0760729"><ele>261.0</ele><time>2026-05-03T07:07:07.801Z</time></trkpt><trkpt lat="43.1958712" lon="12.0759531"><ele>261.0</ele><time>2026-05-03T07:07:09.798Z</time></trkpt><trkpt lat="43.1958692" lon="12.0758193"><ele>261.0</ele><time>2026-05-03T07:07:11.783Z</time></trkpt><trkpt lat="43.1958675" lon="12.0757044"><ele>261.0</ele><time>2026-05-03T07:07:13.781Z</time></trkpt><trkpt lat="43.1958431" lon="12.0755896"><ele>261.0</ele><time>2026-05-03T07:07:15.79Z</time></trkpt><trkpt lat="43.1958006" lon="12.0754719"><ele>261.0</ele><time>2026-05-03T07:07:17.783Z</time></trkpt><trkpt lat="43.195773" lon="12.0753582"><ele>261.0</ele><time>2026-05-03T07:07:19.789Z</time></trkpt><trkpt lat="43.1957494" lon="12.0752397"><ele>261.0</ele><time>2026-05-03T07:07:21.797Z</time></trkpt><trkpt lat="43.1957152" lon="12.0751198"><ele>261.0</ele><time>2026-05-03T07:07:23.79Z</time></trkpt><trkpt lat="43.1956946" lon="12.0749982"><ele>261.0</ele><time>2026-05-03T07:07:25.792Z</time></trkpt><trkpt lat="43.1956704" lon="12.0748772"><ele>260.8</ele><time>2026-05-03T07:07:27.805Z</time></trkpt><trkpt lat="43.1956481" lon="12.0747575"><ele>260.6</ele><time>2026-05-03T07:07:29.786Z</time></trkpt><trkpt lat="43.1956105" lon="12.0746275"><ele>260.4</ele><time>2026-05-03T07:07:31.794Z</time></trkpt><trkpt lat="43.1955884" lon="12.0744966"><ele>260.2</ele><time>2026-05-03T07:07:33.789Z</time></trkpt><trkpt lat="43.1955667" lon="12.0743784"><ele>260.0</ele><time>2026-05-03T07:07:35.784Z</time></trkpt><trkpt lat="43.1955585" lon="12.0742613"><ele>260.0</ele><time>2026-05-03T07:07:37.792Z</time></trkpt><trkpt lat="43.1955478" lon="12.0741513"><ele>260.0</ele><time>2026-05-03T07:07:39.781Z</time></trkpt><trkpt lat="43.195524" lon="12.0740259"><ele>260.0</ele><time>2026-05-03T07:07:41.786Z</time></trkpt><trkpt lat="43.1955122" lon="12.0739103"><ele>260.0</ele><time>2026-05-03T07:07:43.784Z</time></trkpt><trkpt lat="43.1954943" lon="12.0737966"><ele>260.0</ele><time>2026-05-03T07:07:45.776Z</time></trkpt><trkpt lat="43.1954706" lon="12.0736821"><ele>260.0</ele><time>2026-05-03T07:07:47.792Z</time></trkpt><trkpt lat="43.1954487" lon="12.0735629"><ele>260.2</ele><time>2026-05-03T07:07:49.794Z</time></trkpt><trkpt lat="43.1954218" lon="12.0734433"><ele>260.4</ele><time>2026-05-03T07:07:51.77Z</time></trkpt><trkpt lat="43.1953953" lon="12.0733206"><ele>260.6</ele><time>2026-05-03T07:07:53.77Z</time></trkpt><trkpt lat="43.1953701" lon="12.0731974"><ele>260.8</ele><time>2026-05-03T07:07:55.771Z</time></trkpt><trkpt lat="43.1953369" lon="12.0730732"><ele>261.0</ele><time>2026-05-03T07:07:57.778Z</time></trkpt><trkpt lat="43.1953056" lon="12.0729462"><ele>261.0</ele><time>2026-05-03T07:07:59.775Z</time></trkpt><trkpt lat="43.1952826" lon="12.072826"><ele>261.0</ele><time>2026-05-03T07:08:01.78Z</time></trkpt><trkpt lat="43.1952614" lon="12.0726976"><ele>261.0</ele><time>2026-05-03T07:08:03.77Z</time></trkpt><trkpt lat="43.1952361" lon="12.0725623"><ele>261.0</ele><time>2026-05-03T07:08:05.781Z</time></trkpt><trkpt lat="43.1952192" lon="12.0724241"><ele>261.0</ele><time>2026-05-03T07:08:07.787Z</time></trkpt><trkpt lat="43.195199" lon="12.0722993"><ele>261.0</ele><time>2026-05-03T07:08:09.774Z</time></trkpt><trkpt lat="43.1951733" lon="12.0721775"><ele>261.0</ele><time>2026-05-03T07:08:11.777Z</time></trkpt><trkpt lat="43.1951544" lon="12.0720537"><ele>261.0</ele><time>2026-05-03T07:08:13.777Z</time></trkpt><trkpt lat="43.1951373" lon="12.0719152"><ele>261.0</ele><time>2026-05-03T07:08:15.783Z</time></trkpt><trkpt lat="43.1951193" lon="12.0717908"><ele>261.0</ele><time>2026-05-03T07:08:17.784Z</time></trkpt><trkpt lat="43.195093" lon="12.0716684"><ele>261.3333333333333</ele><time>2026-05-03T07:08:19.775Z</time></trkpt><trkpt lat="43.195069" lon="12.0715497"><ele>261.6666666666667</ele><time>2026-05-03T07:08:21.794Z</time></trkpt><trkpt lat="43.1950471" lon="12.071435"><ele>262.0</ele><time>2026-05-03T07:08:23.785Z</time></trkpt><trkpt lat="43.195028" lon="12.0713159"><ele>262.33333333333337</ele><time>2026-05-03T07:08:25.791Z</time></trkpt><trkpt lat="43.1950106" lon="12.0712018"><ele>262.6666666666667</ele><time>2026-05-03T07:08:27.771Z</time></trkpt><trkpt lat="43.1949885" lon="12.0710918"><ele>263.0</ele><time>2026-05-03T07:08:29.767Z</time></trkpt><trkpt lat="43.1949607" lon="12.0709917"><ele>263.0</ele><time>2026-05-03T07:08:31.764Z</time></trkpt><trkpt lat="43.1949929" lon="12.0708799"><ele>263.0</ele><time>2026-05-03T07:08:34.782Z</time></trkpt><trkpt lat="43.195045" lon="12.0708223"><ele>263.0</ele><time>2026-05-03T07:08:36.901Z</time></trkpt><trkpt lat="43.1951145" lon="12.0707785"><ele>263.0</ele><time>2026-05-03T07:08:38.762Z</time></trkpt><trkpt lat="43.1951887" lon="12.0707502"><ele>263.0</ele><time>2026-05-03T07:08:40.788Z</time></trkpt><trkpt lat="43.1952746" lon="12.0707207"><ele>263.0</ele><time>2026-05-03T07:08:42.769Z</time></trkpt><trkpt lat="43.1953623" lon="12.0706821"><ele>263.0</ele><time>2026-05-03T07:08:44.785Z</time></trkpt><trkpt lat="43.1954452" lon="12.070637"><ele>263.0</ele><time>2026-05-03T07:08:46.783Z</time></trkpt><trkpt lat="43.1955235" lon="12.0705847"><ele>263.0</ele><time>2026-05-03T07:08:48.788Z</time></trkpt><trkpt lat="43.1955905" lon="12.0705276"><ele>263.0</ele><time>2026-05-03T07:08:50.805Z</time></trkpt><trkpt lat="43.1956609" lon="12.0704993"><ele>263.0</ele><time>2026-05-03T07:08:52.789Z</time></trkpt><trkpt lat="43.1957461" lon="12.0704653"><ele>263.0</ele><time>2026-05-03T07:08:54.893Z</time></trkpt><trkpt lat="43.1958185" lon="12.0704355"><ele>263.1666666666667</ele><time>2026-05-03T07:08:56.788Z</time></trkpt><trkpt lat="43.1958968" lon="12.0703904"><ele>263.33333333333337</ele><time>2026-05-03T07:08:58.773Z</time></trkpt><trkpt lat="43.1959798" lon="12.0703555"><ele>263.5</ele><time>2026-05-03T07:09:00.786Z</time></trkpt><trkpt lat="43.1960527" lon="12.0703209"><ele>263.6666666666667</ele><time>2026-05-03T07:09:02.784Z</time></trkpt><trkpt lat="43.1961273" lon="12.0702621"><ele>263.8333333333333</ele><time>2026-05-03T07:09:04.771Z</time></trkpt><trkpt lat="43.1962093" lon="12.0702154"><ele>264.0</ele><time>2026-05-03T07:09:06.761Z</time></trkpt><trkpt lat="43.1963693" lon="12.0701274"><ele>264.0</ele><time>2026-05-03T07:09:10.782Z</time></trkpt><trkpt lat="43.1964452" lon="12.0700875"><ele>264.0</ele><time>2026-05-03T07:09:12.769Z</time></trkpt><trkpt lat="43.1965251" lon="12.0700606"><ele>264.0</ele><time>2026-05-03T07:09:14.781Z</time></trkpt><trkpt lat="43.1965975" lon="12.0700289"><ele>264.0</ele><time>2026-05-03T07:09:16.785Z</time></trkpt><trkpt lat="43.1966587" lon="12.0699962"><ele>264.0</ele><time>2026-05-03T07:09:18.878Z</time></trkpt><trkpt lat="43.1967415" lon="12.0699562"><ele>264.0</ele><time>2026-05-03T07:09:21.785Z</time></trkpt><trkpt lat="43.1968057" lon="12.0699313"><ele>263.7142857142857</ele><time>2026-05-03T07:09:23.773Z</time></trkpt><trkpt lat="43.1968646" lon="12.0698956"><ele>263.42857142857144</ele><time>2026-05-03T07:09:25.797Z</time></trkpt><trkpt lat="43.1969473" lon="12.0698442"><ele>263.14285714285717</ele><time>2026-05-03T07:09:28.786Z</time></trkpt><trkpt lat="43.197016" lon="12.0698316"><ele>262.8571428571429</ele><time>2026-05-03T07:09:31.771Z</time></trkpt><trkpt lat="43.1970845" lon="12.0698231"><ele>262.5714285714286</ele><time>2026-05-03T07:09:43.782Z</time></trkpt><trkpt lat="43.1970531" lon="12.069743"><ele>262.2857142857143</ele><time>2026-05-03T07:09:49.782Z</time></trkpt><trkpt lat="43.1970496" lon="12.0696534"><ele>262.0</ele><time>2026-05-03T07:09:53.786Z</time></trkpt><trkpt lat="43.1969714" lon="12.069636"><ele>262.0</ele><time>2026-05-03T07:09:57.783Z</time></trkpt><trkpt lat="43.1968961" lon="12.0696822"><ele>262.0</ele><time>2026-05-03T07:10:00.786Z</time></trkpt><trkpt lat="43.1968126" lon="12.0697187"><ele>262.0</ele><time>2026-05-03T07:10:03.781Z</time></trkpt><trkpt lat="43.1967475" lon="12.0697485"><ele>262.0</ele><time>2026-05-03T07:10:05.808Z</time></trkpt><trkpt lat="43.1966761" lon="12.069789"><ele>262.0</ele><time>2026-05-03T07:10:07.783Z</time></trkpt><trkpt lat="43.1966091" lon="12.0698171"><ele>262.0</ele><time>2026-05-03T07:10:09.774Z</time></trkpt><trkpt lat="43.1965476" lon="12.0698407"><ele>262.0</ele><time>2026-05-03T07:10:11.794Z</time></trkpt><trkpt lat="43.1964849" lon="12.0698639"><ele>262.0</ele><time>2026-05-03T07:10:13.781Z</time></trkpt><trkpt lat="43.1964176" lon="12.0699039"><ele>262.0</ele><time>2026-05-03T07:10:15.79Z</time></trkpt><trkpt lat="43.1963517" lon="12.0699448"><ele>262.0</ele><time>2026-05-03T07:10:17.761Z</time></trkpt><trkpt lat="43.1962919" lon="12.0699909"><ele>262.0</ele><time>2026-05-03T07:10:19.784Z</time></trkpt><trkpt lat="43.1962301" lon="12.0700448"><ele>262.0</ele><time>2026-05-03T07:10:21.789Z</time></trkpt><trkpt lat="43.1961687" lon="12.0700841"><ele>262.0</ele><time>2026-05-03T07:10:23.784Z</time></trkpt><trkpt lat="43.1960774" lon="12.0701144"><ele>262.16666666666663</ele><time>2026-05-03T07:10:26.793Z</time></trkpt><trkpt lat="43.1959892" lon="12.0701288"><ele>262.3333333333333</ele><time>2026-05-03T07:10:28.785Z</time></trkpt><trkpt lat="43.1959101" lon="12.0701646"><ele>262.5</ele><time>2026-05-03T07:10:30.783Z</time></trkpt><trkpt lat="43.1958437" lon="12.0702109"><ele>262.6666666666667</ele><time>2026-05-03T07:10:32.783Z</time></trkpt><trkpt lat="43.1957658" lon="12.0702561"><ele>262.83333333333337</ele><time>2026-05-03T07:10:34.781Z</time></trkpt><trkpt lat="43.1956758" lon="12.0703005"><ele>263.0</ele><time>2026-05-03T07:10:36.785Z</time></trkpt><trkpt lat="43.1955897" lon="12.070347"><ele>263.0</ele><time>2026-05-03T07:10:38.786Z</time></trkpt><trkpt lat="43.1955049" lon="12.0703904"><ele>263.0</ele><time>2026-05-03T07:10:40.786Z</time></trkpt><trkpt lat="43.1954373" lon="12.0704352"><ele>263.0</ele><time>2026-05-03T07:10:42.785Z</time></trkpt><trkpt lat="43.1953683" lon="12.0704621"><ele>263.0</ele><time>2026-05-03T07:10:44.776Z</time></trkpt><trkpt lat="43.1953007" lon="12.0704931"><ele>263.0</ele><time>2026-05-03T07:10:46.778Z</time></trkpt><trkpt lat="43.195229" lon="12.0705179"><ele>263.0</ele><time>2026-05-03T07:10:48.771Z</time></trkpt><trkpt lat="43.1951564" lon="12.0705635"><ele>263.0</ele><time>2026-05-03T07:10:50.773Z</time></trkpt><trkpt lat="43.1950884" lon="12.0706178"><ele>263.0</ele><time>2026-05-03T07:10:52.783Z</time></trkpt><trkpt lat="43.1950209" lon="12.0706569"><ele>263.0</ele><time>2026-05-03T07:10:54.763Z</time></trkpt><trkpt lat="43.1949636" lon="12.0706183"><ele>263.0</ele><time>2026-05-03T07:10:56.775Z</time></trkpt><trkpt lat="43.1949259" lon="12.0705211"><ele>263.0</ele><time>2026-05-03T07:10:58.777Z</time></trkpt><trkpt lat="43.1949028" lon="12.0703899"><ele>263.0</ele><time>2026-05-03T07:11:00.774Z</time></trkpt><trkpt lat="43.1948728" lon="12.0702554"><ele>263.0</ele><time>2026-05-03T07:11:02.777Z</time></trkpt><trkpt lat="43.1948524" lon="12.0701458"><ele>263.0</ele><time>2026-05-03T07:11:04.781Z</time></trkpt><trkpt lat="43.1948375" lon="12.0700303"><ele>263.0</ele><time>2026-05-03T07:11:06.783Z</time></trkpt><trkpt lat="43.1948141" lon="12.0699158"><ele>263.0</ele><time>2026-05-03T07:11:08.786Z</time></trkpt><trkpt lat="43.1947929" lon="12.0698041"><ele>263.0</ele><time>2026-05-03T07:11:10.774Z</time></trkpt><trkpt lat="43.1947682" lon="12.0696956"><ele>263.0</ele><time>2026-05-03T07:11:12.767Z</time></trkpt><trkpt lat="43.1947401" lon="12.0695857"><ele>262.6666666666667</ele><time>2026-05-03T07:11:14.773Z</time></trkpt><trkpt lat="43.1947266" lon="12.0694763"><ele>262.33333333333337</ele><time>2026-05-03T07:11:16.768Z</time></trkpt><trkpt lat="43.1947242" lon="12.0693408"><ele>262.0</ele><time>2026-05-03T07:11:18.786Z</time></trkpt><trkpt lat="43.1947089" lon="12.069209"><ele>261.6666666666667</ele><time>2026-05-03T07:11:20.774Z</time></trkpt><trkpt lat="43.194698" lon="12.0691094"><ele>261.3333333333333</ele><time>2026-05-03T07:11:22.769Z</time></trkpt><trkpt lat="43.1946845" lon="12.0690005"><ele>261.0</ele><time>2026-05-03T07:11:24.774Z</time></trkpt><trkpt lat="43.194673" lon="12.068887"><ele>260.8</ele><time>2026-05-03T07:11:26.773Z</time></trkpt><trkpt lat="43.1946534" lon="12.0687785"><ele>260.6</ele><time>2026-05-03T07:11:28.881Z</time></trkpt><trkpt lat="43.1946277" lon="12.0686695"><ele>260.4</ele><time>2026-05-03T07:11:30.775Z</time></trkpt><trkpt lat="43.1946129" lon="12.0685413"><ele>260.2</ele><time>2026-05-03T07:11:32.776Z</time></trkpt><trkpt lat="43.1945766" lon="12.0684215"><ele>260.0</ele><time>2026-05-03T07:11:34.776Z</time></trkpt><trkpt lat="43.1945716" lon="12.06829"><ele>260.2</ele><time>2026-05-03T07:11:36.773Z</time></trkpt><trkpt lat="43.1945461" lon="12.0681685"><ele>260.4</ele><time>2026-05-03T07:11:38.786Z</time></trkpt><trkpt lat="43.194524" lon="12.0680606"><ele>260.6</ele><time>2026-05-03T07:11:40.775Z</time></trkpt><trkpt lat="43.194502" lon="12.0679457"><ele>260.8</ele><time>2026-05-03T07:11:42.762Z</time></trkpt><trkpt lat="43.1944896" lon="12.0678138"><ele>261.0</ele><time>2026-05-03T07:11:46.79Z</time></trkpt><trkpt lat="43.1944643" lon="12.0676734"><ele>261.0</ele><time>2026-05-03T07:11:48.784Z</time></trkpt><trkpt lat="43.1944384" lon="12.0675477"><ele>261.0</ele><time>2026-05-03T07:11:50.79Z</time></trkpt><trkpt lat="43.1944105" lon="12.0674212"><ele>261.0</ele><time>2026-05-03T07:11:52.793Z</time></trkpt><trkpt lat="43.1943633" lon="12.0673021"><ele>261.0</ele><time>2026-05-03T07:11:53.786Z</time></trkpt><trkpt lat="43.1943376" lon="12.0671823"><ele>261.0</ele><time>2026-05-03T07:11:55.775Z</time></trkpt><trkpt lat="43.1943111" lon="12.0670686"><ele>261.0</ele><time>2026-05-03T07:11:57.882Z</time></trkpt><trkpt lat="43.1942947" lon="12.0669399"><ele>261.0</ele><time>2026-05-03T07:11:59.788Z</time></trkpt><trkpt lat="43.1942635" lon="12.066821"><ele>261.0</ele><time>2026-05-03T07:12:01.773Z</time></trkpt><trkpt lat="43.1942436" lon="12.0667133"><ele>261.0</ele><time>2026-05-03T07:12:03.782Z</time></trkpt><trkpt lat="43.1942148" lon="12.0665911"><ele>261.0</ele><time>2026-05-03T07:12:05.783Z</time></trkpt><trkpt lat="43.1941966" lon="12.0664648"><ele>260.8</ele><time>2026-05-03T07:12:07.781Z</time></trkpt><trkpt lat="43.1941742" lon="12.0663383"><ele>260.6</ele><time>2026-05-03T07:12:09.904Z</time></trkpt><trkpt lat="43.1941571" lon="12.0662035"><ele>260.4</ele><time>2026-05-03T07:12:11.792Z</time></trkpt><trkpt lat="43.1941348" lon="12.0660839"><ele>260.2</ele><time>2026-05-03T07:12:13.791Z</time></trkpt><trkpt lat="43.194104" lon="12.0659689"><ele>260.0</ele><time>2026-05-03T07:12:15.784Z</time></trkpt><trkpt lat="43.1941036" lon="12.065852"><ele>260.0</ele><time>2026-05-03T07:12:17.786Z</time></trkpt><trkpt lat="43.1940866" lon="12.0657338"><ele>260.0</ele><time>2026-05-03T07:12:19.789Z</time></trkpt><trkpt lat="43.1940669" lon="12.065623"><ele>260.0</ele><time>2026-05-03T07:12:21.872Z</time></trkpt><trkpt lat="43.1940352" lon="12.0655085"><ele>260.0</ele><time>2026-05-03T07:12:23.774Z</time></trkpt><trkpt lat="43.1940193" lon="12.0653852"><ele>260.0</ele><time>2026-05-03T07:12:25.799Z</time></trkpt><trkpt lat="43.1939932" lon="12.0652761"><ele>260.0</ele><time>2026-05-03T07:12:27.792Z</time></trkpt><trkpt lat="43.1939741" lon="12.0651658"><ele>260.0</ele><time>2026-05-03T07:12:29.788Z</time></trkpt><trkpt lat="43.1939601" lon="12.0650583"><ele>260.0</ele><time>2026-05-03T07:12:31.794Z</time></trkpt><trkpt lat="43.1939381" lon="12.0649327"><ele>260.0</ele><time>2026-05-03T07:12:33.775Z</time></trkpt><trkpt lat="43.1939112" lon="12.0648185"><ele>260.0</ele><time>2026-05-03T07:12:35.792Z</time></trkpt><trkpt lat="43.1938874" lon="12.0647047"><ele>260.0</ele><time>2026-05-03T07:12:37.792Z</time></trkpt><trkpt lat="43.1938485" lon="12.0645717"><ele>260.0</ele><time>2026-05-03T07:12:39.809Z</time></trkpt><trkpt lat="43.1938177" lon="12.0644521"><ele>260.0</ele><time>2026-05-03T07:12:41.789Z</time></trkpt><trkpt lat="43.1938101" lon="12.0643212"><ele>260.0</ele><time>2026-05-03T07:12:43.793Z</time></trkpt><trkpt lat="43.1937718" lon="12.0641947"><ele>260.0</ele><time>2026-05-03T07:12:45.782Z</time></trkpt><trkpt lat="43.1937376" lon="12.0640705"><ele>260.0</ele><time>2026-05-03T07:12:47.79Z</time></trkpt><trkpt lat="43.1937238" lon="12.0639374"><ele>260.0</ele><time>2026-05-03T07:12:49.794Z</time></trkpt><trkpt lat="43.1937042" lon="12.0638178"><ele>260.0</ele><time>2026-05-03T07:12:51.788Z</time></trkpt><trkpt lat="43.19369" lon="12.0636866"><ele>260.0</ele><time>2026-05-03T07:12:53.796Z</time></trkpt><trkpt lat="43.1936761" lon="12.0635503"><ele>260.0</ele><time>2026-05-03T07:12:55.782Z</time></trkpt><trkpt lat="43.1936436" lon="12.0634283"><ele>260.0</ele><time>2026-05-03T07:12:57.788Z</time></trkpt><trkpt lat="43.193633" lon="12.0632893"><ele>260.0</ele><time>2026-05-03T07:12:59.792Z</time></trkpt><trkpt lat="43.1936033" lon="12.0631678"><ele>260.0</ele><time>2026-05-03T07:13:01.793Z</time></trkpt><trkpt lat="43.1935646" lon="12.0630439"><ele>260.0</ele><time>2026-05-03T07:13:03.802Z</time></trkpt><trkpt lat="43.193534" lon="12.0629347"><ele>260.0</ele><time>2026-05-03T07:13:05.794Z</time></trkpt><trkpt lat="43.1935011" lon="12.0627826"><ele>260.0</ele><time>2026-05-03T07:13:08.768Z</time></trkpt><trkpt lat="43.1934948" lon="12.0626563"><ele>260.0</ele><time>2026-05-03T07:13:10.785Z</time></trkpt><trkpt lat="43.1934737" lon="12.0625203"><ele>260.0</ele><time>2026-05-03T07:13:12.793Z</time></trkpt><trkpt lat="43.1934583" lon="12.0623892"><ele>260.0</ele><time>2026-05-03T07:13:14.769Z</time></trkpt><trkpt lat="43.1934524" lon="12.0622676"><ele>260.0</ele><time>2026-05-03T07:13:16.79Z</time></trkpt><trkpt lat="43.1934349" lon="12.0621539"><ele>260.0</ele><time>2026-05-03T07:13:18.796Z</time></trkpt><trkpt lat="43.1934139" lon="12.0620385"><ele>260.2</ele><time>2026-05-03T07:13:20.795Z</time></trkpt><trkpt lat="43.1933925" lon="12.0619167"><ele>260.4</ele><time>2026-05-03T07:13:22.803Z</time></trkpt><trkpt lat="43.1933625" lon="12.061806"><ele>260.6</ele><time>2026-05-03T07:13:24.78Z</time></trkpt><trkpt lat="43.1933284" lon="12.0616878"><ele>260.8</ele><time>2026-05-03T07:13:26.795Z</time></trkpt><trkpt lat="43.1933119" lon="12.0615585"><ele>261.0</ele><time>2026-05-03T07:13:28.765Z</time></trkpt><trkpt lat="43.193274" lon="12.0614544"><ele>261.0</ele><time>2026-05-03T07:13:30.786Z</time></trkpt><trkpt lat="43.1932481" lon="12.0613263"><ele>261.0</ele><time>2026-05-03T07:13:32.786Z</time></trkpt><trkpt lat="43.1932303" lon="12.0612151"><ele>261.0</ele><time>2026-05-03T07:13:34.789Z</time></trkpt><trkpt lat="43.1932117" lon="12.0610977"><ele>261.0</ele><time>2026-05-03T07:13:36.784Z</time></trkpt><trkpt lat="43.1931934" lon="12.0609936"><ele>261.0</ele><time>2026-05-03T07:13:38.783Z</time></trkpt><trkpt lat="43.193177" lon="12.0608693"><ele>261.0</ele><time>2026-05-03T07:13:40.783Z</time></trkpt><trkpt lat="43.193161" lon="12.0607415"><ele>260.8</ele><time>2026-05-03T07:13:42.773Z</time></trkpt><trkpt lat="43.1931449" lon="12.060614"><ele>260.6</ele><time>2026-05-03T07:13:44.788Z</time></trkpt><trkpt lat="43.1931231" lon="12.0605012"><ele>260.4</ele><time>2026-05-03T07:13:46.794Z</time></trkpt><trkpt lat="43.1930873" lon="12.0603707"><ele>260.2</ele><time>2026-05-03T07:13:48.785Z</time></trkpt><trkpt lat="43.1930767" lon="12.0602372"><ele>260.0</ele><time>2026-05-03T07:13:50.781Z</time></trkpt><trkpt lat="43.1930494" lon="12.0601175"><ele>260.0</ele><time>2026-05-03T07:13:52.788Z</time></trkpt><trkpt lat="43.1930238" lon="12.059993"><ele>260.0</ele><time>2026-05-03T07:13:54.791Z</time></trkpt><trkpt lat="43.1930121" lon="12.05986"><ele>260.0</ele><time>2026-05-03T07:13:56.777Z</time></trkpt><trkpt lat="43.1929847" lon="12.059737"><ele>260.0</ele><time>2026-05-03T07:13:58.795Z</time></trkpt><trkpt lat="43.1929843" lon="12.0595968"><ele>260.0</ele><time>2026-05-03T07:14:00.79Z</time></trkpt><trkpt lat="43.1929598" lon="12.059481"><ele>260.0</ele><time>2026-05-03T07:14:02.768Z</time></trkpt><trkpt lat="43.1929291" lon="12.0593534"><ele>260.0</ele><time>2026-05-03T07:14:04.769Z</time></trkpt><trkpt lat="43.1929158" lon="12.0592324"><ele>260.0</ele><time>2026-05-03T07:14:06.77Z</time></trkpt><trkpt lat="43.1928888" lon="12.0591171"><ele>260.0</ele><time>2026-05-03T07:14:08.776Z</time></trkpt><trkpt lat="43.1928625" lon="12.0589881"><ele>260.0</ele><time>2026-05-03T07:14:10.776Z</time></trkpt><trkpt lat="43.1928263" lon="12.0588595"><ele>260.0</ele><time>2026-05-03T07:14:12.772Z</time></trkpt><trkpt lat="43.1927969" lon="12.0587453"><ele>260.0</ele><time>2026-05-03T07:14:14.771Z</time></trkpt><trkpt lat="43.1927873" lon="12.058608"><ele>260.0</ele><time>2026-05-03T07:14:16.77Z</time></trkpt><trkpt lat="43.1927637" lon="12.0584791"><ele>260.0</ele><time>2026-05-03T07:14:18.774Z</time></trkpt><trkpt lat="43.1927345" lon="12.0583512"><ele>260.0</ele><time>2026-05-03T07:14:20.868Z</time></trkpt><trkpt lat="43.1927063" lon="12.0582243"><ele>259.8</ele><time>2026-05-03T07:14:22.774Z</time></trkpt><trkpt lat="43.1926849" lon="12.0581004"><ele>259.6</ele><time>2026-05-03T07:14:24.773Z</time></trkpt><trkpt lat="43.1926615" lon="12.0579737"><ele>259.4</ele><time>2026-05-03T07:14:26.771Z</time></trkpt><trkpt lat="43.1926353" lon="12.0578518"><ele>259.2</ele><time>2026-05-03T07:14:28.771Z</time></trkpt><trkpt lat="43.1926125" lon="12.0577153"><ele>259.0</ele><time>2026-05-03T07:14:30.769Z</time></trkpt><trkpt lat="43.192588" lon="12.0575801"><ele>259.0</ele><time>2026-05-03T07:14:32.884Z</time></trkpt><trkpt lat="43.1925634" lon="12.0574449"><ele>259.0</ele><time>2026-05-03T07:14:34.782Z</time></trkpt><trkpt lat="43.1925345" lon="12.0573195"><ele>259.0</ele><time>2026-05-03T07:14:36.791Z</time></trkpt><trkpt lat="43.1925134" lon="12.0571969"><ele>259.0</ele><time>2026-05-03T07:14:38.787Z</time></trkpt><trkpt lat="43.1924902" lon="12.0570749"><ele>259.0</ele><time>2026-05-03T07:14:40.782Z</time></trkpt><trkpt lat="43.1924723" lon="12.056948"><ele>259.0</ele><time>2026-05-03T07:14:42.782Z</time></trkpt><trkpt lat="43.1924602" lon="12.0568222"><ele>259.0</ele><time>2026-05-03T07:14:44.787Z</time></trkpt><trkpt lat="43.1924394" lon="12.0566973"><ele>259.0</ele><time>2026-05-03T07:14:46.8Z</time></trkpt><trkpt lat="43.1924233" lon="12.0565778"><ele>259.0</ele><time>2026-05-03T07:14:48.8Z</time></trkpt><trkpt lat="43.1924053" lon="12.0564544"><ele>259.0</ele><time>2026-05-03T07:14:50.781Z</time></trkpt><trkpt lat="43.1923745" lon="12.0563251"><ele>259.2</ele><time>2026-05-03T07:14:52.804Z</time></trkpt><trkpt lat="43.1923465" lon="12.0562133"><ele>259.4</ele><time>2026-05-03T07:14:54.789Z</time></trkpt><trkpt lat="43.1923239" lon="12.0560844"><ele>259.6</ele><time>2026-05-03T07:14:56.9Z</time></trkpt><trkpt lat="43.1923042" lon="12.0559612"><ele>259.8</ele><time>2026-05-03T07:14:58.791Z</time></trkpt><trkpt lat="43.1922836" lon="12.0558281"><ele>260.0</ele><time>2026-05-03T07:15:00.801Z</time></trkpt><trkpt lat="43.19226" lon="12.0557063"><ele>259.5</ele><time>2026-05-03T07:15:02.784Z</time></trkpt><trkpt lat="43.1922272" lon="12.0555912"><ele>259.0</ele><time>2026-05-03T07:15:04.784Z</time></trkpt><trkpt lat="43.1921985" lon="12.0554686"><ele>258.5</ele><time>2026-05-03T07:15:06.773Z</time></trkpt><trkpt lat="43.1921771" lon="12.0553739"><ele>258.0</ele><time>2026-05-03T07:15:08.785Z</time></trkpt><trkpt lat="43.1921536" lon="12.0552588"><ele>257.5</ele><time>2026-05-03T07:15:10.785Z</time></trkpt><trkpt lat="43.1921207" lon="12.0551304"><ele>257.0</ele><time>2026-05-03T07:15:12.769Z</time></trkpt><trkpt lat="43.1920891" lon="12.0550065"><ele>257.4</ele><time>2026-05-03T07:15:14.781Z</time></trkpt><trkpt lat="43.192052" lon="12.0548862"><ele>257.79999999999995</ele><time>2026-05-03T07:15:16.782Z</time></trkpt><trkpt lat="43.1920148" lon="12.0547683"><ele>258.2</ele><time>2026-05-03T07:15:18.792Z</time></trkpt><trkpt lat="43.1919796" lon="12.0546502"><ele>258.59999999999997</ele><time>2026-05-03T07:15:20.782Z</time></trkpt><trkpt lat="43.1919401" lon="12.0545308"><ele>259.0</ele><time>2026-05-03T07:15:22.792Z</time></trkpt><trkpt lat="43.1919007" lon="12.0544136"><ele>259.0</ele><time>2026-05-03T07:15:24.787Z</time></trkpt><trkpt lat="43.1918696" lon="12.054297"><ele>259.0</ele><time>2026-05-03T07:15:26.798Z</time></trkpt><trkpt lat="43.1918414" lon="12.0541839"><ele>259.0</ele><time>2026-05-03T07:15:28.79Z</time></trkpt><trkpt lat="43.1918099" lon="12.054066"><ele>259.0</ele><time>2026-05-03T07:15:30.784Z</time></trkpt><trkpt lat="43.1917708" lon="12.0539561"><ele>259.0</ele><time>2026-05-03T07:15:32.788Z</time></trkpt><trkpt lat="43.1917227" lon="12.0538477"><ele>259.4</ele><time>2026-05-03T07:15:34.782Z</time></trkpt><trkpt lat="43.1916777" lon="12.0537352"><ele>259.79999999999995</ele><time>2026-05-03T07:15:36.782Z</time></trkpt><trkpt lat="43.1916368" lon="12.0536201"><ele>260.20000000000005</ele><time>2026-05-03T07:15:38.784Z</time></trkpt><trkpt lat="43.1915972" lon="12.0535033"><ele>260.6</ele><time>2026-05-03T07:15:40.785Z</time></trkpt><trkpt lat="43.1915622" lon="12.0533857"><ele>261.0</ele><time>2026-05-03T07:15:42.771Z</time></trkpt><trkpt lat="43.1915223" lon="12.053268"><ele>260.6</ele><time>2026-05-03T07:15:44.773Z</time></trkpt><trkpt lat="43.1914877" lon="12.0531475"><ele>260.20000000000005</ele><time>2026-05-03T07:15:46.784Z</time></trkpt><trkpt lat="43.1914495" lon="12.0530301"><ele>259.79999999999995</ele><time>2026-05-03T07:15:48.772Z</time></trkpt><trkpt lat="43.1914171" lon="12.0529132"><ele>259.4</ele><time>2026-05-03T07:15:50.771Z</time></trkpt><trkpt lat="43.1913806" lon="12.0527952"><ele>259.0</ele><time>2026-05-03T07:15:52.769Z</time></trkpt><trkpt lat="43.1913334" lon="12.0526814"><ele>259.0</ele><time>2026-05-03T07:15:54.783Z</time></trkpt><trkpt lat="43.1912916" lon="12.0525612"><ele>259.0</ele><time>2026-05-03T07:15:56.784Z</time></trkpt><trkpt lat="43.191248" lon="12.0524432"><ele>259.0</ele><time>2026-05-03T07:15:58.783Z</time></trkpt><trkpt lat="43.1912049" lon="12.0523278"><ele>259.0</ele><time>2026-05-03T07:16:00.786Z</time></trkpt><trkpt lat="43.1911605" lon="12.0522202"><ele>259.0</ele><time>2026-05-03T07:16:02.783Z</time></trkpt><trkpt lat="43.1911091" lon="12.0521238"><ele>259.8</ele><time>2026-05-03T07:16:04.783Z</time></trkpt><trkpt lat="43.1910451" lon="12.0520386"><ele>260.59999999999997</ele><time>2026-05-03T07:16:06.782Z</time></trkpt><trkpt lat="43.1909672" lon="12.0519603"><ele>261.4</ele><time>2026-05-03T07:16:08.804Z</time></trkpt><trkpt lat="43.1908878" lon="12.0518866"><ele>262.2</ele><time>2026-05-03T07:16:10.771Z</time></trkpt><trkpt lat="43.1908072" lon="12.0518387"><ele>263.0</ele><time>2026-05-03T07:16:12.781Z</time></trkpt><trkpt lat="43.1907146" lon="12.0518474"><ele>262.6666666666667</ele><time>2026-05-03T07:16:14.782Z</time></trkpt><trkpt lat="43.1906192" lon="12.0518801"><ele>262.33333333333337</ele><time>2026-05-03T07:16:16.785Z</time></trkpt><trkpt lat="43.1905306" lon="12.0518673"><ele>262.0</ele><time>2026-05-03T07:16:18.791Z</time></trkpt><trkpt lat="43.190467" lon="12.0517758"><ele>261.6666666666667</ele><time>2026-05-03T07:16:20.782Z</time></trkpt><trkpt lat="43.1904016" lon="12.0516968"><ele>261.3333333333333</ele><time>2026-05-03T07:16:22.783Z</time></trkpt><trkpt lat="43.1903341" lon="12.0516339"><ele>261.0</ele><time>2026-05-03T07:16:24.783Z</time></trkpt><trkpt lat="43.1902665" lon="12.0515652"><ele>261.6666666666667</ele><time>2026-05-03T07:16:26.786Z</time></trkpt><trkpt lat="43.1902006" lon="12.0514961"><ele>262.3333333333333</ele><time>2026-05-03T07:16:28.785Z</time></trkpt><trkpt lat="43.1901389" lon="12.0514206"><ele>263.0</ele><time>2026-05-03T07:16:30.782Z</time></trkpt><trkpt lat="43.1900706" lon="12.0513366"><ele>263.66666666666663</ele><time>2026-05-03T07:16:32.905Z</time></trkpt><trkpt lat="43.1899888" lon="12.0512631"><ele>264.3333333333333</ele><time>2026-05-03T07:16:34.781Z</time></trkpt><trkpt lat="43.1899454" lon="12.0511801"><ele>265.0</ele><time>2026-05-03T07:16:36.778Z</time></trkpt><trkpt lat="43.1898942" lon="12.0510953"><ele>264.2</ele><time>2026-05-03T07:16:38.769Z</time></trkpt><trkpt lat="43.1898353" lon="12.0510028"><ele>263.4</ele><time>2026-05-03T07:16:40.785Z</time></trkpt><trkpt lat="43.189777" lon="12.0509036"><ele>262.6</ele><time>2026-05-03T07:16:42.773Z</time></trkpt><trkpt lat="43.1897086" lon="12.0508043"><ele>261.8</ele><time>2026-05-03T07:16:44.768Z</time></trkpt><trkpt lat="43.1896572" lon="12.0507123"><ele>261.0</ele><time>2026-05-03T07:16:46.767Z</time></trkpt><trkpt lat="43.1896039" lon="12.0506201"><ele>261.0</ele><time>2026-05-03T07:16:48.77Z</time></trkpt><trkpt lat="43.1895339" lon="12.0505162"><ele>261.0</ele><time>2026-05-03T07:16:50.878Z</time></trkpt><trkpt lat="43.1894772" lon="12.0504123"><ele>261.0</ele><time>2026-05-03T07:16:52.774Z</time></trkpt><trkpt lat="43.1894197" lon="12.0503164"><ele>261.0</ele><time>2026-05-03T07:16:54.772Z</time></trkpt><trkpt lat="43.1893878" lon="12.0502084"><ele>261.0</ele><time>2026-05-03T07:16:56.876Z</time></trkpt><trkpt lat="43.1893412" lon="12.0501011"><ele>261.0</ele><time>2026-05-03T07:16:58.777Z</time></trkpt><trkpt lat="43.1892973" lon="12.0499971"><ele>261.0</ele><time>2026-05-03T07:17:00.777Z</time></trkpt><trkpt lat="43.1892622" lon="12.0498947"><ele>261.0</ele><time>2026-05-03T07:17:02.872Z</time></trkpt><trkpt lat="43.1892314" lon="12.0497808"><ele>261.0</ele><time>2026-05-03T07:17:04.786Z</time></trkpt><trkpt lat="43.1891967" lon="12.0496422"><ele>261.0</ele><time>2026-05-03T07:17:06.782Z</time></trkpt><trkpt lat="43.1891836" lon="12.0495323"><ele>261.0</ele><time>2026-05-03T07:17:08.864Z</time></trkpt><trkpt lat="43.1891603" lon="12.0494084"><ele>261.6666666666667</ele><time>2026-05-03T07:17:10.778Z</time></trkpt><trkpt lat="43.1891299" lon="12.0492866"><ele>262.3333333333333</ele><time>2026-05-03T07:17:12.805Z</time></trkpt><trkpt lat="43.1890899" lon="12.0491796"><ele>263.0</ele><time>2026-05-03T07:17:14.786Z</time></trkpt><trkpt lat="43.1890487" lon="12.0490694"><ele>263.66666666666663</ele><time>2026-05-03T07:17:16.79Z</time></trkpt><trkpt lat="43.1890152" lon="12.0489802"><ele>264.3333333333333</ele><time>2026-05-03T07:17:18.787Z</time></trkpt><trkpt lat="43.1889805" lon="12.0488947"><ele>265.0</ele><time>2026-05-03T07:17:20.791Z</time></trkpt><trkpt lat="43.1889662" lon="12.0487753"><ele>265.0</ele><time>2026-05-03T07:17:22.77Z</time></trkpt><trkpt lat="43.1889651" lon="12.0486508"><ele>265.0</ele><time>2026-05-03T07:17:24.786Z</time></trkpt><trkpt lat="43.1889691" lon="12.048527"><ele>265.0</ele><time>2026-05-03T07:17:26.781Z</time></trkpt><trkpt lat="43.188966" lon="12.0484185"><ele>265.0</ele><time>2026-05-03T07:17:28.782Z</time></trkpt><trkpt lat="43.1890495" lon="12.0483867"><ele>265.0</ele><time>2026-05-03T07:17:31.773Z</time></trkpt><trkpt lat="43.1891227" lon="12.0483603"><ele>265.0</ele><time>2026-05-03T07:17:33.784Z</time></trkpt><trkpt lat="43.1891819" lon="12.0482791"><ele>265.16666666666663</ele><time>2026-05-03T07:17:35.786Z</time></trkpt><trkpt lat="43.1891863" lon="12.0481696"><ele>265.3333333333333</ele><time>2026-05-03T07:17:37.787Z</time></trkpt><trkpt lat="43.1891718" lon="12.0480463"><ele>265.5</ele><time>2026-05-03T07:17:39.783Z</time></trkpt><trkpt lat="43.1891144" lon="12.0479465"><ele>265.6666666666667</ele><time>2026-05-03T07:17:41.789Z</time></trkpt><trkpt lat="43.1890528" lon="12.0478688"><ele>265.83333333333337</ele><time>2026-05-03T07:17:43.768Z</time></trkpt><trkpt lat="43.1890071" lon="12.0477866"><ele>266.0</ele><time>2026-05-03T07:17:45.773Z</time></trkpt><trkpt lat="43.1889672" lon="12.0476996"><ele>265.57142857142856</ele><time>2026-05-03T07:17:47.783Z</time></trkpt><trkpt lat="43.1889342" lon="12.0476143"><ele>265.1428571428571</ele><time>2026-05-03T07:17:49.785Z</time></trkpt><trkpt lat="43.1888951" lon="12.047534"><ele>264.7142857142857</ele><time>2026-05-03T07:17:51.782Z</time></trkpt><trkpt lat="43.188844" lon="12.0474485"><ele>264.2857142857143</ele><time>2026-05-03T07:17:53.781Z</time></trkpt><trkpt lat="43.1887883" lon="12.0473828"><ele>263.85714285714283</ele><time>2026-05-03T07:17:55.785Z</time></trkpt><trkpt lat="43.1887369" lon="12.0473149"><ele>263.42857142857144</ele><time>2026-05-03T07:17:57.784Z</time></trkpt><trkpt lat="43.1886932" lon="12.0472259"><ele>263.0</ele><time>2026-05-03T07:17:59.784Z</time></trkpt><trkpt lat="43.1886795" lon="12.0471199"><ele>263.0</ele><time>2026-05-03T07:18:01.9Z</time></trkpt><trkpt lat="43.1886502" lon="12.0470028"><ele>263.0</ele><time>2026-05-03T07:18:03.783Z</time></trkpt><trkpt lat="43.188627" lon="12.0468887"><ele>263.0</ele><time>2026-05-03T07:18:05.789Z</time></trkpt><trkpt lat="43.1886018" lon="12.046766"><ele>263.0</ele><time>2026-05-03T07:18:07.78Z</time></trkpt><trkpt lat="43.1885637" lon="12.0466438"><ele>263.0</ele><time>2026-05-03T07:18:09.791Z</time></trkpt><trkpt lat="43.1885421" lon="12.0465277"><ele>263.0</ele><time>2026-05-03T07:18:11.787Z</time></trkpt><trkpt lat="43.1885262" lon="12.0464155"><ele>263.0</ele><time>2026-05-03T07:18:13.78Z</time></trkpt><trkpt lat="43.1885137" lon="12.0463006"><ele>263.0</ele><time>2026-05-03T07:18:15.782Z</time></trkpt><trkpt lat="43.1884963" lon="12.0461814"><ele>263.0</ele><time>2026-05-03T07:18:17.783Z</time></trkpt><trkpt lat="43.1884832" lon="12.0460487"><ele>263.0</ele><time>2026-05-03T07:18:19.782Z</time></trkpt><trkpt lat="43.1884611" lon="12.0459293"><ele>263.0</ele><time>2026-05-03T07:18:21.797Z</time></trkpt><trkpt lat="43.1884398" lon="12.0457969"><ele>262.5</ele><time>2026-05-03T07:18:23.787Z</time></trkpt><trkpt lat="43.1884127" lon="12.0456756"><ele>262.0</ele><time>2026-05-03T07:18:25.785Z</time></trkpt><trkpt lat="43.1883807" lon="12.0455585"><ele>261.5</ele><time>2026-05-03T07:18:27.772Z</time></trkpt><trkpt lat="43.1883493" lon="12.0454493"><ele>261.0</ele><time>2026-05-03T07:18:29.769Z</time></trkpt><trkpt lat="43.1883204" lon="12.0453426"><ele>260.5</ele><time>2026-05-03T07:18:31.772Z</time></trkpt><trkpt lat="43.1882942" lon="12.0452323"><ele>260.0</ele><time>2026-05-03T07:18:33.772Z</time></trkpt><trkpt lat="43.1882599" lon="12.0451335"><ele>260.0</ele><time>2026-05-03T07:18:35.773Z</time></trkpt><trkpt lat="43.1882316" lon="12.0450306"><ele>260.0</ele><time>2026-05-03T07:18:37.767Z</time></trkpt><trkpt lat="43.1882042" lon="12.0449215"><ele>260.0</ele><time>2026-05-03T07:18:39.781Z</time></trkpt><trkpt lat="43.1881785" lon="12.0448012"><ele>260.0</ele><time>2026-05-03T07:18:41.783Z</time></trkpt><trkpt lat="43.1881484" lon="12.0446742"><ele>260.0</ele><time>2026-05-03T07:18:43.78Z</time></trkpt><trkpt lat="43.188105" lon="12.0445495"><ele>260.0</ele><time>2026-05-03T07:18:45.761Z</time></trkpt><trkpt lat="43.1880997" lon="12.0444335"><ele>260.0</ele><time>2026-05-03T07:18:47.77Z</time></trkpt><trkpt lat="43.1880688" lon="12.0443305"><ele>260.0</ele><time>2026-05-03T07:18:49.768Z</time></trkpt><trkpt lat="43.1880246" lon="12.0442216"><ele>260.0</ele><time>2026-05-03T07:18:51.767Z</time></trkpt><trkpt lat="43.1879903" lon="12.0441039"><ele>260.0</ele><time>2026-05-03T07:18:53.769Z</time></trkpt><trkpt lat="43.1879574" lon="12.0439849"><ele>260.0</ele><time>2026-05-03T07:18:55.768Z</time></trkpt><trkpt lat="43.1879263" lon="12.0438677"><ele>260.0</ele><time>2026-05-03T07:18:57.771Z</time></trkpt><trkpt lat="43.1878976" lon="12.0437454"><ele>260.0</ele><time>2026-05-03T07:18:59.781Z</time></trkpt><trkpt lat="43.1878707" lon="12.043622"><ele>260.0</ele><time>2026-05-03T07:19:01.78Z</time></trkpt><trkpt lat="43.1878506" lon="12.0435038"><ele>260.0</ele><time>2026-05-03T07:19:03.771Z</time></trkpt><trkpt lat="43.1878245" lon="12.0434044"><ele>260.0</ele><time>2026-05-03T07:19:05.771Z</time></trkpt><trkpt lat="43.1877893" lon="12.0432835"><ele>260.0</ele><time>2026-05-03T07:19:07.784Z</time></trkpt><trkpt lat="43.1877546" lon="12.0431641"><ele>260.0</ele><time>2026-05-03T07:19:09.771Z</time></trkpt><trkpt lat="43.1877356" lon="12.0430384"><ele>260.0</ele><time>2026-05-03T07:19:12.79Z</time></trkpt><trkpt lat="43.1877153" lon="12.0428989"><ele>260.0</ele><time>2026-05-03T07:19:14.781Z</time></trkpt><trkpt lat="43.187675" lon="12.0427746"><ele>260.0</ele><time>2026-05-03T07:19:16.788Z</time></trkpt><trkpt lat="43.1876119" lon="12.0426175"><ele>260.0</ele><time>2026-05-03T07:19:18.795Z</time></trkpt><trkpt lat="43.1875689" lon="12.0425085"><ele>260.0</ele><time>2026-05-03T07:19:20.783Z</time></trkpt><trkpt lat="43.1875263" lon="12.0423982"><ele>260.0</ele><time>2026-05-03T07:19:22.781Z</time></trkpt><trkpt lat="43.1875033" lon="12.0422786"><ele>260.0</ele><time>2026-05-03T07:19:24.787Z</time></trkpt><trkpt lat="43.1874804" lon="12.0421657"><ele>260.0</ele><time>2026-05-03T07:19:26.781Z</time></trkpt><trkpt lat="43.1874501" lon="12.0420622"><ele>260.0</ele><time>2026-05-03T07:19:28.781Z</time></trkpt><trkpt lat="43.1874155" lon="12.0419536"><ele>260.0</ele><time>2026-05-03T07:19:30.769Z</time></trkpt><trkpt lat="43.1873796" lon="12.0418427"><ele>260.0</ele><time>2026-05-03T07:19:32.77Z</time></trkpt><trkpt lat="43.1873337" lon="12.041736"><ele>260.0</ele><time>2026-05-03T07:19:34.797Z</time></trkpt><trkpt lat="43.187292" lon="12.0415609"><ele>260.0</ele><time>2026-05-03T07:19:37.779Z</time></trkpt><trkpt lat="43.1872653" lon="12.0414421"><ele>260.0</ele><time>2026-05-03T07:19:39.797Z</time></trkpt><trkpt lat="43.1872397" lon="12.0413243"><ele>260.0</ele><time>2026-05-03T07:19:41.783Z</time></trkpt><trkpt lat="43.1872169" lon="12.0412044"><ele>260.0</ele><time>2026-05-03T07:19:43.789Z</time></trkpt><trkpt lat="43.1871757" lon="12.0410895"><ele>260.0</ele><time>2026-05-03T07:19:45.784Z</time></trkpt><trkpt lat="43.1871279" lon="12.0409765"><ele>260.0</ele><time>2026-05-03T07:19:47.773Z</time></trkpt><trkpt lat="43.1870985" lon="12.0408658"><ele>260.0</ele><time>2026-05-03T07:19:49.77Z</time></trkpt><trkpt lat="43.1870591" lon="12.0407498"><ele>260.0</ele><time>2026-05-03T07:19:51.802Z</time></trkpt><trkpt lat="43.187021" lon="12.0406424"><ele>260.1666666666667</ele><time>2026-05-03T07:19:53.782Z</time></trkpt><trkpt lat="43.1869867" lon="12.0405194"><ele>260.33333333333337</ele><time>2026-05-03T07:19:55.782Z</time></trkpt><trkpt lat="43.1869635" lon="12.0403952"><ele>260.5</ele><time>2026-05-03T07:19:57.77Z</time></trkpt><trkpt lat="43.1869553" lon="12.0402876"><ele>260.6666666666667</ele><time>2026-05-03T07:19:59.894Z</time></trkpt><trkpt lat="43.1869374" lon="12.0401791"><ele>260.8333333333333</ele><time>2026-05-03T07:20:01.76Z</time></trkpt><trkpt lat="43.1869246" lon="12.0400649"><ele>261.0</ele><time>2026-05-03T07:20:03.782Z</time></trkpt><trkpt lat="43.1869023" lon="12.0399538"><ele>261.3333333333333</ele><time>2026-05-03T07:20:05.872Z</time></trkpt><trkpt lat="43.1868684" lon="12.0398426"><ele>261.6666666666667</ele><time>2026-05-03T07:20:07.78Z</time></trkpt><trkpt lat="43.1868367" lon="12.0397252"><ele>262.0</ele><time>2026-05-03T07:20:09.769Z</time></trkpt><trkpt lat="43.1868061" lon="12.0396164"><ele>262.33333333333337</ele><time>2026-05-03T07:20:11.772Z</time></trkpt><trkpt lat="43.1867748" lon="12.0395111"><ele>262.6666666666667</ele><time>2026-05-03T07:20:13.781Z</time></trkpt><trkpt lat="43.1867405" lon="12.0394097"><ele>263.0</ele><time>2026-05-03T07:20:15.773Z</time></trkpt><trkpt lat="43.1867061" lon="12.0392973"><ele>263.0</ele><time>2026-05-03T07:20:17.781Z</time></trkpt><trkpt lat="43.1866765" lon="12.0391823"><ele>263.0</ele><time>2026-05-03T07:20:19.77Z</time></trkpt><trkpt lat="43.186645" lon="12.0390617"><ele>263.0</ele><time>2026-05-03T07:20:21.787Z</time></trkpt><trkpt lat="43.1866089" lon="12.0389428"><ele>263.0</ele><time>2026-05-03T07:20:23.77Z</time></trkpt><trkpt lat="43.1865798" lon="12.0388253"><ele>263.0</ele><time>2026-05-03T07:20:25.784Z</time></trkpt><trkpt lat="43.1865525" lon="12.0387092"><ele>262.83333333333337</ele><time>2026-05-03T07:20:27.77Z</time></trkpt><trkpt lat="43.1865203" lon="12.038596"><ele>262.6666666666667</ele><time>2026-05-03T07:20:29.768Z</time></trkpt><trkpt lat="43.1864893" lon="12.0384885"><ele>262.5</ele><time>2026-05-03T07:20:31.768Z</time></trkpt><trkpt lat="43.1864574" lon="12.0383725"><ele>262.3333333333333</ele><time>2026-05-03T07:20:33.769Z</time></trkpt><trkpt lat="43.1864256" lon="12.0382517"><ele>262.16666666666663</ele><time>2026-05-03T07:20:35.777Z</time></trkpt><trkpt lat="43.1863998" lon="12.0381327"><ele>262.0</ele><time>2026-05-03T07:20:37.773Z</time></trkpt><trkpt lat="43.1863737" lon="12.0380194"><ele>262.0</ele><time>2026-05-03T07:20:39.77Z</time></trkpt><trkpt lat="43.1863444" lon="12.0379047"><ele>262.0</ele><time>2026-05-03T07:20:41.768Z</time></trkpt><trkpt lat="43.1863206" lon="12.0377907"><ele>262.0</ele><time>2026-05-03T07:20:43.771Z</time></trkpt><trkpt lat="43.1863016" lon="12.0376772"><ele>262.0</ele><time>2026-05-03T07:20:45.774Z</time></trkpt><trkpt lat="43.186278" lon="12.0375618"><ele>262.0</ele><time>2026-05-03T07:20:47.771Z</time></trkpt><trkpt lat="43.1862603" lon="12.0374505"><ele>262.0</ele><time>2026-05-03T07:20:49.768Z</time></trkpt><trkpt lat="43.1862393" lon="12.0373335"><ele>261.5</ele><time>2026-05-03T07:20:51.771Z</time></trkpt><trkpt lat="43.1862166" lon="12.0372176"><ele>261.0</ele><time>2026-05-03T07:20:53.775Z</time></trkpt><trkpt lat="43.1862005" lon="12.0371048"><ele>260.5</ele><time>2026-05-03T07:20:55.768Z</time></trkpt><trkpt lat="43.1861855" lon="12.0369955"><ele>260.0</ele><time>2026-05-03T07:20:57.769Z</time></trkpt><trkpt lat="43.1861707" lon="12.0368814"><ele>259.5</ele><time>2026-05-03T07:20:59.772Z</time></trkpt><trkpt lat="43.1861519" lon="12.0367655"><ele>259.0</ele><time>2026-05-03T07:21:01.773Z</time></trkpt><trkpt lat="43.18613" lon="12.0366494"><ele>259.2</ele><time>2026-05-03T07:21:03.769Z</time></trkpt><trkpt lat="43.186116" lon="12.0365415"><ele>259.4</ele><time>2026-05-03T07:21:05.77Z</time></trkpt><trkpt lat="43.186115" lon="12.0364429"><ele>259.6</ele><time>2026-05-03T07:21:07.767Z</time></trkpt><trkpt lat="43.1861312" lon="12.0363331"><ele>259.8</ele><time>2026-05-03T07:21:10.767Z</time></trkpt><trkpt lat="43.1861926" lon="12.0362814"><ele>260.0</ele><time>2026-05-03T07:21:13.777Z</time></trkpt><trkpt lat="43.1864142" lon="12.0361604"><ele>260.0</ele><time>2026-05-03T07:21:20.769Z</time></trkpt><trkpt lat="43.1864875" lon="12.0361208"><ele>260.0</ele><time>2026-05-03T07:21:22.772Z</time></trkpt><trkpt lat="43.1865546" lon="12.0360807"><ele>260.0</ele><time>2026-05-03T07:21:24.771Z</time></trkpt><trkpt lat="43.1866205" lon="12.0360274"><ele>260.0</ele><time>2026-05-03T07:21:26.769Z</time></trkpt><trkpt lat="43.1866817" lon="12.0359524"><ele>260.0</ele><time>2026-05-03T07:21:28.767Z</time></trkpt><trkpt lat="43.1867265" lon="12.0358556"><ele>260.0</ele><time>2026-05-03T07:21:30.765Z</time></trkpt><trkpt lat="43.1867487" lon="12.0357543"><ele>260.5</ele><time>2026-05-03T07:21:32.771Z</time></trkpt><trkpt lat="43.1867596" lon="12.0356437"><ele>261.0</ele><time>2026-05-03T07:21:34.761Z</time></trkpt><trkpt lat="43.1867773" lon="12.0355505"><ele>261.5</ele><time>2026-05-03T07:21:36.772Z</time></trkpt><trkpt lat="43.186846" lon="12.0354867"><ele>262.0</ele><time>2026-05-03T07:21:39.766Z</time></trkpt><trkpt lat="43.1869129" lon="12.0354939"><ele>262.5</ele><time>2026-05-03T07:21:41.765Z</time></trkpt><trkpt lat="43.1869884" lon="12.0355406"><ele>263.0</ele><time>2026-05-03T07:21:43.879Z</time></trkpt><trkpt lat="43.187067" lon="12.0355735"><ele>263.0</ele><time>2026-05-03T07:21:45.764Z</time></trkpt><trkpt lat="43.1871265" lon="12.0355433"><ele>263.0</ele><time>2026-05-03T07:21:47.777Z</time></trkpt><trkpt lat="43.1871762" lon="12.0354616"><ele>263.0</ele><time>2026-05-03T07:21:49.857Z</time></trkpt><trkpt lat="43.1872383" lon="12.0353794"><ele>263.0</ele><time>2026-05-03T07:21:51.781Z</time></trkpt><trkpt lat="43.1872985" lon="12.0353057"><ele>263.0</ele><time>2026-05-03T07:21:53.783Z</time></trkpt><trkpt lat="43.187357" lon="12.0352272"><ele>263.0</ele><time>2026-05-03T07:21:55.868Z</time></trkpt><trkpt lat="43.1874196" lon="12.0351435"><ele>263.0</ele><time>2026-05-03T07:21:57.782Z</time></trkpt><trkpt lat="43.187477" lon="12.0350572"><ele>263.0</ele><time>2026-05-03T07:21:59.78Z</time></trkpt><trkpt lat="43.1875284" lon="12.0349652"><ele>263.0</ele><time>2026-05-03T07:22:01.785Z</time></trkpt><trkpt lat="43.1875732" lon="12.0348692"><ele>263.0</ele><time>2026-05-03T07:22:03.789Z</time></trkpt><trkpt lat="43.1876107" lon="12.0347674"><ele>263.0</ele><time>2026-05-03T07:22:05.769Z</time></trkpt><trkpt lat="43.1876428" lon="12.0346586"><ele>263.0</ele><time>2026-05-03T07:22:07.782Z</time></trkpt><trkpt lat="43.1876737" lon="12.0345512"><ele>263.0</ele><time>2026-05-03T07:22:09.794Z</time></trkpt><trkpt lat="43.1877026" lon="12.0344331"><ele>263.0</ele><time>2026-05-03T07:22:11.781Z</time></trkpt><trkpt lat="43.1877452" lon="12.0343075"><ele>263.0</ele><time>2026-05-03T07:22:13.781Z</time></trkpt><trkpt lat="43.1877805" lon="12.0341956"><ele>263.0</ele><time>2026-05-03T07:22:15.782Z</time></trkpt><trkpt lat="43.1878164" lon="12.0341004"><ele>263.0</ele><time>2026-05-03T07:22:17.772Z</time></trkpt><trkpt lat="43.1878569" lon="12.0340115"><ele>263.0</ele><time>2026-05-03T07:22:19.783Z</time></trkpt><trkpt lat="43.1878963" lon="12.0339041"><ele>263.0</ele><time>2026-05-03T07:22:21.789Z</time></trkpt><trkpt lat="43.1879341" lon="12.0337984"><ele>263.0</ele><time>2026-05-03T07:22:23.783Z</time></trkpt><trkpt lat="43.1879738" lon="12.033698"><ele>263.0</ele><time>2026-05-03T07:22:25.78Z</time></trkpt><trkpt lat="43.1880162" lon="12.0335985"><ele>263.0</ele><time>2026-05-03T07:22:27.781Z</time></trkpt><trkpt lat="43.1880591" lon="12.033504"><ele>263.0</ele><time>2026-05-03T07:22:29.786Z</time></trkpt><trkpt lat="43.1880984" lon="12.0334113"><ele>263.0</ele><time>2026-05-03T07:22:31.784Z</time></trkpt><trkpt lat="43.1881427" lon="12.0333199"><ele>263.0</ele><time>2026-05-03T07:22:33.781Z</time></trkpt><trkpt lat="43.1881897" lon="12.0332306"><ele>263.0</ele><time>2026-05-03T07:22:35.793Z</time></trkpt><trkpt lat="43.1882323" lon="12.0331387"><ele>263.0</ele><time>2026-05-03T07:22:37.784Z</time></trkpt><trkpt lat="43.1882759" lon="12.0330515"><ele>263.0</ele><time>2026-05-03T07:22:39.78Z</time></trkpt><trkpt lat="43.1883258" lon="12.0329641"><ele>263.0</ele><time>2026-05-03T07:22:41.795Z</time></trkpt><trkpt lat="43.1883696" lon="12.0328645"><ele>263.0</ele><time>2026-05-03T07:22:43.769Z</time></trkpt><trkpt lat="43.1884202" lon="12.032768"><ele>263.0</ele><time>2026-05-03T07:22:45.783Z</time></trkpt><trkpt lat="43.1884698" lon="12.0326761"><ele>263.0</ele><time>2026-05-03T07:22:47.781Z</time></trkpt><trkpt lat="43.1885217" lon="12.0325824"><ele>263.0</ele><time>2026-05-03T07:22:49.786Z</time></trkpt><trkpt lat="43.1885736" lon="12.0324865"><ele>263.0</ele><time>2026-05-03T07:22:51.785Z</time></trkpt><trkpt lat="43.1886309" lon="12.0323968"><ele>263.0</ele><time>2026-05-03T07:22:53.783Z</time></trkpt><trkpt lat="43.1886806" lon="12.032309"><ele>263.0</ele><time>2026-05-03T07:22:55.782Z</time></trkpt><trkpt lat="43.1887334" lon="12.0322168"><ele>263.0</ele><time>2026-05-03T07:22:57.783Z</time></trkpt><trkpt lat="43.1887879" lon="12.0321248"><ele>263.0</ele><time>2026-05-03T07:22:59.784Z</time></trkpt><trkpt lat="43.1888427" lon="12.0320313"><ele>263.0</ele><time>2026-05-03T07:23:01.781Z</time></trkpt><trkpt lat="43.1888896" lon="12.0319341"><ele>263.0</ele><time>2026-05-03T07:23:03.782Z</time></trkpt><trkpt lat="43.1889515" lon="12.0318489"><ele>263.0</ele><time>2026-05-03T07:23:05.783Z</time></trkpt><trkpt lat="43.1890125" lon="12.0317608"><ele>263.0</ele><time>2026-05-03T07:23:07.783Z</time></trkpt><trkpt lat="43.1890738" lon="12.0316786"><ele>263.1666666666667</ele><time>2026-05-03T07:23:09.781Z</time></trkpt><trkpt lat="43.1891287" lon="12.0315938"><ele>263.33333333333337</ele><time>2026-05-03T07:23:11.789Z</time></trkpt><trkpt lat="43.1891839" lon="12.0315036"><ele>263.5</ele><time>2026-05-03T07:23:13.78Z</time></trkpt><trkpt lat="43.1892438" lon="12.0314142"><ele>263.6666666666667</ele><time>2026-05-03T07:23:15.785Z</time></trkpt><trkpt lat="43.1893059" lon="12.0313214"><ele>263.8333333333333</ele><time>2026-05-03T07:23:17.785Z</time></trkpt><trkpt lat="43.1893678" lon="12.0312285"><ele>264.0</ele><time>2026-05-03T07:23:19.787Z</time></trkpt><trkpt lat="43.1894304" lon="12.0311377"><ele>264.0</ele><time>2026-05-03T07:23:21.783Z</time></trkpt><trkpt lat="43.1894862" lon="12.0310532"><ele>264.0</ele><time>2026-05-03T07:23:23.771Z</time></trkpt><trkpt lat="43.1895428" lon="12.0309576"><ele>264.0</ele><time>2026-05-03T07:23:25.782Z</time></trkpt><trkpt lat="43.189601" lon="12.0308719"><ele>264.0</ele><time>2026-05-03T07:23:27.785Z</time></trkpt><trkpt lat="43.1896573" lon="12.0307848"><ele>264.0</ele><time>2026-05-03T07:23:29.783Z</time></trkpt><trkpt lat="43.1897132" lon="12.0306938"><ele>264.0</ele><time>2026-05-03T07:23:31.78Z</time></trkpt><trkpt lat="43.1897725" lon="12.0306004"><ele>264.0</ele><time>2026-05-03T07:23:33.785Z</time></trkpt><trkpt lat="43.1898312" lon="12.0305099"><ele>264.0</ele><time>2026-05-03T07:23:35.786Z</time></trkpt><trkpt lat="43.1898911" lon="12.0304174"><ele>264.0</ele><time>2026-05-03T07:23:37.781Z</time></trkpt><trkpt lat="43.1899509" lon="12.0303261"><ele>264.0</ele><time>2026-05-03T07:23:39.787Z</time></trkpt><trkpt lat="43.1900012" lon="12.03023"><ele>264.0</ele><time>2026-05-03T07:23:41.796Z</time></trkpt><trkpt lat="43.1900539" lon="12.0301357"><ele>264.0</ele><time>2026-05-03T07:23:43.78Z</time></trkpt><trkpt lat="43.1901231" lon="12.0300473"><ele>263.59999999999997</ele><time>2026-05-03T07:23:45.768Z</time></trkpt><trkpt lat="43.190182" lon="12.0299499"><ele>263.2</ele><time>2026-05-03T07:23:47.778Z</time></trkpt><trkpt lat="43.1902357" lon="12.0298474"><ele>262.79999999999995</ele><time>2026-05-03T07:23:49.783Z</time></trkpt><trkpt lat="43.1902955" lon="12.0297505"><ele>262.4</ele><time>2026-05-03T07:23:51.784Z</time></trkpt><trkpt lat="43.1903624" lon="12.0296546"><ele>262.0</ele><time>2026-05-03T07:23:53.795Z</time></trkpt><trkpt lat="43.190438" lon="12.0295865"><ele>262.0</ele><time>2026-05-03T07:23:55.782Z</time></trkpt><trkpt lat="43.1905273" lon="12.0295499"><ele>262.0</ele><time>2026-05-03T07:23:57.793Z</time></trkpt><trkpt lat="43.1906108" lon="12.0294971"><ele>262.0</ele><time>2026-05-03T07:23:59.784Z</time></trkpt><trkpt lat="43.1906866" lon="12.029461"><ele>262.0</ele><time>2026-05-03T07:24:01.784Z</time></trkpt><trkpt lat="43.1907721" lon="12.0294266"><ele>262.0</ele><time>2026-05-03T07:24:03.79Z</time></trkpt><trkpt lat="43.1908526" lon="12.0293923"><ele>262.0</ele><time>2026-05-03T07:24:05.776Z</time></trkpt><trkpt lat="43.1909355" lon="12.029354"><ele>262.4</ele><time>2026-05-03T07:24:07.771Z</time></trkpt><trkpt lat="43.1910172" lon="12.0293187"><ele>262.79999999999995</ele><time>2026-05-03T07:24:09.782Z</time></trkpt><trkpt lat="43.1910967" lon="12.0292765"><ele>263.2</ele><time>2026-05-03T07:24:11.792Z</time></trkpt><trkpt lat="43.1911772" lon="12.0292051"><ele>263.59999999999997</ele><time>2026-05-03T07:24:13.782Z</time></trkpt><trkpt lat="43.1912518" lon="12.0291222"><ele>264.0</ele><time>2026-05-03T07:24:15.767Z</time></trkpt><trkpt lat="43.1913091" lon="12.0290326"><ele>264.0</ele><time>2026-05-03T07:24:17.783Z</time></trkpt><trkpt lat="43.1913564" lon="12.0289237"><ele>264.0</ele><time>2026-05-03T07:24:19.786Z</time></trkpt><trkpt lat="43.1913914" lon="12.028819"><ele>264.0</ele><time>2026-05-03T07:24:21.791Z</time></trkpt><trkpt lat="43.1914199" lon="12.0287029"><ele>264.0</ele><time>2026-05-03T07:24:23.761Z</time></trkpt><trkpt lat="43.191434" lon="12.0285774"><ele>264.0</ele><time>2026-05-03T07:24:25.787Z</time></trkpt><trkpt lat="43.1914439" lon="12.0284448"><ele>264.0</ele><time>2026-05-03T07:24:27.781Z</time></trkpt><trkpt lat="43.1914488" lon="12.0283154"><ele>264.0</ele><time>2026-05-03T07:24:29.786Z</time></trkpt><trkpt lat="43.1914456" lon="12.0281894"><ele>264.0</ele><time>2026-05-03T07:24:31.782Z</time></trkpt><trkpt lat="43.1914385" lon="12.0280682"><ele>264.0</ele><time>2026-05-03T07:24:33.766Z</time></trkpt><trkpt lat="43.1914508" lon="12.0279507"><ele>264.0</ele><time>2026-05-03T07:24:35.782Z</time></trkpt><trkpt lat="43.1915118" lon="12.0278608"><ele>264.0</ele><time>2026-05-03T07:24:37.783Z</time></trkpt><trkpt lat="43.1915787" lon="12.0277872"><ele>264.0</ele><time>2026-05-03T07:24:39.78Z</time></trkpt><trkpt lat="43.1916402" lon="12.0276924"><ele>264.0</ele><time>2026-05-03T07:24:41.787Z</time></trkpt><trkpt lat="43.1917032" lon="12.0275806"><ele>264.0</ele><time>2026-05-03T07:24:43.782Z</time></trkpt><trkpt lat="43.1917529" lon="12.0274688"><ele>264.0</ele><time>2026-05-03T07:24:45.781Z</time></trkpt><trkpt lat="43.1917986" lon="12.0273542"><ele>263.4</ele><time>2026-05-03T07:24:47.786Z</time></trkpt><trkpt lat="43.1918457" lon="12.0272424"><ele>262.79999999999995</ele><time>2026-05-03T07:24:49.784Z</time></trkpt><trkpt lat="43.1918903" lon="12.027127"><ele>262.20000000000005</ele><time>2026-05-03T07:24:51.782Z</time></trkpt><trkpt lat="43.1919289" lon="12.0270107"><ele>261.6</ele><time>2026-05-03T07:24:53.781Z</time></trkpt><trkpt lat="43.1919646" lon="12.0268921"><ele>261.0</ele><time>2026-05-03T07:24:55.79Z</time></trkpt><trkpt lat="43.1920061" lon="12.026783"><ele>261.0</ele><time>2026-05-03T07:24:57.783Z</time></trkpt><trkpt lat="43.1920419" lon="12.02667"><ele>261.0</ele><time>2026-05-03T07:24:59.788Z</time></trkpt><trkpt lat="43.1920938" lon="12.026562"><ele>261.0</ele><time>2026-05-03T07:25:01.77Z</time></trkpt><trkpt lat="43.192136" lon="12.02646"><ele>261.0</ele><time>2026-05-03T07:25:03.782Z</time></trkpt><trkpt lat="43.1921932" lon="12.0263582"><ele>261.0</ele><time>2026-05-03T07:25:05.784Z</time></trkpt><trkpt lat="43.1922437" lon="12.0262726"><ele>261.0</ele><time>2026-05-03T07:25:07.782Z</time></trkpt><trkpt lat="43.192302" lon="12.0261852"><ele>261.5</ele><time>2026-05-03T07:25:09.782Z</time></trkpt><trkpt lat="43.1923501" lon="12.0260891"><ele>262.0</ele><time>2026-05-03T07:25:11.782Z</time></trkpt><trkpt lat="43.1924029" lon="12.0259938"><ele>262.5</ele><time>2026-05-03T07:25:13.78Z</time></trkpt><trkpt lat="43.19244" lon="12.0258909"><ele>263.0</ele><time>2026-05-03T07:25:15.776Z</time></trkpt><trkpt lat="43.192473" lon="12.0257819"><ele>263.5</ele><time>2026-05-03T07:25:17.78Z</time></trkpt><trkpt lat="43.1925119" lon="12.0256763"><ele>264.0</ele><time>2026-05-03T07:25:19.784Z</time></trkpt><trkpt lat="43.1925506" lon="12.02556"><ele>264.0</ele><time>2026-05-03T07:25:21.786Z</time></trkpt><trkpt lat="43.1925889" lon="12.0254555"><ele>264.0</ele><time>2026-05-03T07:25:23.793Z</time></trkpt><trkpt lat="43.1926359" lon="12.0253539"><ele>264.0</ele><time>2026-05-03T07:25:25.779Z</time></trkpt><trkpt lat="43.1926824" lon="12.0252513"><ele>264.0</ele><time>2026-05-03T07:25:27.781Z</time></trkpt><trkpt lat="43.1927298" lon="12.0251403"><ele>264.0</ele><time>2026-05-03T07:25:29.784Z</time></trkpt><trkpt lat="43.1927692" lon="12.0250304"><ele>264.0</ele><time>2026-05-03T07:25:31.781Z</time></trkpt><trkpt lat="43.1928113" lon="12.0249213"><ele>263.6666666666667</ele><time>2026-05-03T07:25:33.781Z</time></trkpt><trkpt lat="43.1928498" lon="12.0248133"><ele>263.3333333333333</ele><time>2026-05-03T07:25:35.778Z</time></trkpt><trkpt lat="43.1928758" lon="12.0247131"><ele>263.0</ele><time>2026-05-03T07:25:37.78Z</time></trkpt><trkpt lat="43.1929145" lon="12.0246102"><ele>262.66666666666663</ele><time>2026-05-03T07:25:39.783Z</time></trkpt><trkpt lat="43.1929421" lon="12.0245272"><ele>262.3333333333333</ele><time>2026-05-03T07:25:41.795Z</time></trkpt><trkpt lat="43.193031" lon="12.0245497"><ele>262.0</ele><time>2026-05-03T07:25:45.78Z</time></trkpt><trkpt lat="43.1930848" lon="12.0246036"><ele>262.0</ele><time>2026-05-03T07:25:47.781Z</time></trkpt><trkpt lat="43.1931412" lon="12.0246713"><ele>262.0</ele><time>2026-05-03T07:25:49.782Z</time></trkpt><trkpt lat="43.1931931" lon="12.0247399"><ele>262.0</ele><time>2026-05-03T07:25:51.77Z</time></trkpt><trkpt lat="43.1932444" lon="12.0248154"><ele>262.0</ele><time>2026-05-03T07:25:53.769Z</time></trkpt><trkpt lat="43.193291" lon="12.0248961"><ele>262.0</ele><time>2026-05-03T07:25:55.769Z</time></trkpt><trkpt lat="43.1933369" lon="12.0249753"><ele>262.0</ele><time>2026-05-03T07:25:57.771Z</time></trkpt><trkpt lat="43.1933816" lon="12.0250633"><ele>262.0</ele><time>2026-05-03T07:25:59.766Z</time></trkpt><trkpt lat="43.1934269" lon="12.0251455"><ele>262.14285714285717</ele><time>2026-05-03T07:26:01.782Z</time></trkpt><trkpt lat="43.1934701" lon="12.0252245"><ele>262.28571428571433</ele><time>2026-05-03T07:26:03.767Z</time></trkpt><trkpt lat="43.1935166" lon="12.025301"><ele>262.42857142857144</ele><time>2026-05-03T07:26:05.77Z</time></trkpt><trkpt lat="43.1935665" lon="12.0253713"><ele>262.57142857142856</ele><time>2026-05-03T07:26:07.77Z</time></trkpt><trkpt lat="43.1936103" lon="12.0254559"><ele>262.71428571428567</ele><time>2026-05-03T07:26:09.771Z</time></trkpt><trkpt lat="43.193657" lon="12.0255334"><ele>262.85714285714283</ele><time>2026-05-03T07:26:11.771Z</time></trkpt><trkpt lat="43.1937024" lon="12.0256113"><ele>263.0</ele><time>2026-05-03T07:26:13.776Z</time></trkpt><trkpt lat="43.1937462" lon="12.0256896"><ele>263.0</ele><time>2026-05-03T07:26:15.772Z</time></trkpt><trkpt lat="43.1937988" lon="12.0257621"><ele>263.0</ele><time>2026-05-03T07:26:17.776Z</time></trkpt><trkpt lat="43.1938517" lon="12.0258444"><ele>263.0</ele><time>2026-05-03T07:26:19.772Z</time></trkpt><trkpt lat="43.1939059" lon="12.0259285"><ele>263.0</ele><time>2026-05-03T07:26:21.774Z</time></trkpt><trkpt lat="43.1939582" lon="12.0260141"><ele>263.0</ele><time>2026-05-03T07:26:23.771Z</time></trkpt><trkpt lat="43.1940117" lon="12.0260972"><ele>263.0</ele><time>2026-05-03T07:26:25.781Z</time></trkpt><trkpt lat="43.1940667" lon="12.0261756"><ele>263.33333333333337</ele><time>2026-05-03T07:26:27.773Z</time></trkpt><trkpt lat="43.1941147" lon="12.0262615"><ele>263.6666666666667</ele><time>2026-05-03T07:26:29.783Z</time></trkpt><trkpt lat="43.1941659" lon="12.0263472"><ele>264.0</ele><time>2026-05-03T07:26:31.794Z</time></trkpt><trkpt lat="43.1942167" lon="12.0264311"><ele>264.3333333333333</ele><time>2026-05-03T07:26:33.787Z</time></trkpt><trkpt lat="43.1942715" lon="12.0265133"><ele>264.66666666666663</ele><time>2026-05-03T07:26:35.889Z</time></trkpt><trkpt lat="43.1943282" lon="12.0265982"><ele>265.0</ele><time>2026-05-03T07:26:37.769Z</time></trkpt><trkpt lat="43.1943853" lon="12.0266783"><ele>265.16666666666663</ele><time>2026-05-03T07:26:39.792Z</time></trkpt><trkpt lat="43.1944362" lon="12.0267655"><ele>265.3333333333333</ele><time>2026-05-03T07:26:41.778Z</time></trkpt><trkpt lat="43.1944897" lon="12.0268532"><ele>265.5</ele><time>2026-05-03T07:26:43.768Z</time></trkpt><trkpt lat="43.1945429" lon="12.0269419"><ele>265.6666666666667</ele><time>2026-05-03T07:26:45.769Z</time></trkpt><trkpt lat="43.1946021" lon="12.0270286"><ele>265.83333333333337</ele><time>2026-05-03T07:26:47.78Z</time></trkpt><trkpt lat="43.1946603" lon="12.0271167"><ele>266.0</ele><time>2026-05-03T07:26:49.771Z</time></trkpt><trkpt lat="43.194717" lon="12.0272031"><ele>266.0</ele><time>2026-05-03T07:26:51.774Z</time></trkpt><trkpt lat="43.1947722" lon="12.0272898"><ele>266.0</ele><time>2026-05-03T07:26:53.782Z</time></trkpt><trkpt lat="43.1948292" lon="12.027367"><ele>266.0</ele><time>2026-05-03T07:26:55.782Z</time></trkpt><trkpt lat="43.194884" lon="12.0274507"><ele>266.0</ele><time>2026-05-03T07:26:57.785Z</time></trkpt><trkpt lat="43.1949362" lon="12.0275361"><ele>266.0</ele><time>2026-05-03T07:26:59.787Z</time></trkpt><trkpt lat="43.1949874" lon="12.0276233"><ele>266.0</ele><time>2026-05-03T07:27:01.782Z</time></trkpt><trkpt lat="43.1950456" lon="12.0277065"><ele>266.33333333333337</ele><time>2026-05-03T07:27:03.785Z</time></trkpt><trkpt lat="43.1951043" lon="12.0277881"><ele>266.6666666666667</ele><time>2026-05-03T07:27:05.773Z</time></trkpt><trkpt lat="43.195167" lon="12.0278651"><ele>267.0</ele><time>2026-05-03T07:27:07.764Z</time></trkpt><trkpt lat="43.1952361" lon="12.0279267"><ele>267.3333333333333</ele><time>2026-05-03T07:27:09.769Z</time></trkpt><trkpt lat="43.1953011" lon="12.028002"><ele>267.66666666666663</ele><time>2026-05-03T07:27:11.767Z</time></trkpt><trkpt lat="43.1953629" lon="12.0280739"><ele>268.0</ele><time>2026-05-03T07:27:13.771Z</time></trkpt><trkpt lat="43.1954321" lon="12.0281349"><ele>268.0</ele><time>2026-05-03T07:27:15.767Z</time></trkpt><trkpt lat="43.1954936" lon="12.0282009"><ele>268.0</ele><time>2026-05-03T07:27:17.773Z</time></trkpt><trkpt lat="43.1955596" lon="12.0282743"><ele>268.0</ele><time>2026-05-03T07:27:19.771Z</time></trkpt><trkpt lat="43.1956219" lon="12.0283497"><ele>268.0</ele><time>2026-05-03T07:27:21.784Z</time></trkpt><trkpt lat="43.1956806" lon="12.0284279"><ele>268.0</ele><time>2026-05-03T07:27:23.768Z</time></trkpt><trkpt lat="43.1957496" lon="12.0284894"><ele>268.0</ele><time>2026-05-03T07:27:25.769Z</time></trkpt><trkpt lat="43.1958113" lon="12.0285601"><ele>268.16666666666663</ele><time>2026-05-03T07:27:27.768Z</time></trkpt><trkpt lat="43.1958699" lon="12.028637"><ele>268.3333333333333</ele><time>2026-05-03T07:27:29.766Z</time></trkpt><trkpt lat="43.1959269" lon="12.0287184"><ele>268.5</ele><time>2026-05-03T07:27:31.769Z</time></trkpt><trkpt lat="43.1959851" lon="12.0287948"><ele>268.6666666666667</ele><time>2026-05-03T07:27:33.77Z</time></trkpt><trkpt lat="43.1960391" lon="12.0288722"><ele>268.83333333333337</ele><time>2026-05-03T07:27:35.781Z</time></trkpt><trkpt lat="43.1960936" lon="12.0289533"><ele>269.0</ele><time>2026-05-03T07:27:37.773Z</time></trkpt><trkpt lat="43.1961483" lon="12.0290379"><ele>269.0</ele><time>2026-05-03T07:27:39.776Z</time></trkpt><trkpt lat="43.196202" lon="12.0291215"><ele>269.0</ele><time>2026-05-03T07:27:41.77Z</time></trkpt><trkpt lat="43.1962585" lon="12.0292053"><ele>269.0</ele><time>2026-05-03T07:27:43.783Z</time></trkpt><trkpt lat="43.1963426" lon="12.0293381"><ele>269.0</ele><time>2026-05-03T07:27:46.787Z</time></trkpt><trkpt lat="43.1964005" lon="12.0294272"><ele>269.0</ele><time>2026-05-03T07:27:48.793Z</time></trkpt><trkpt lat="43.1964546" lon="12.0295173"><ele>269.33333333333337</ele><time>2026-05-03T07:27:50.867Z</time></trkpt><trkpt lat="43.1965157" lon="12.0296042"><ele>269.6666666666667</ele><time>2026-05-03T07:27:52.783Z</time></trkpt><trkpt lat="43.1965927" lon="12.0296578"><ele>270.0</ele><time>2026-05-03T07:27:54.781Z</time></trkpt><trkpt lat="43.1966812" lon="12.0296701"><ele>270.3333333333333</ele><time>2026-05-03T07:27:56.763Z</time></trkpt><trkpt lat="43.1967606" lon="12.0296157"><ele>270.66666666666663</ele><time>2026-05-03T07:27:58.787Z</time></trkpt><trkpt lat="43.1968341" lon="12.0295351"><ele>271.0</ele><time>2026-05-03T07:28:00.785Z</time></trkpt><trkpt lat="43.1969071" lon="12.0294676"><ele>271.0</ele><time>2026-05-03T07:28:02.882Z</time></trkpt><trkpt lat="43.1969833" lon="12.0294098"><ele>271.0</ele><time>2026-05-03T07:28:04.785Z</time></trkpt><trkpt lat="43.1970618" lon="12.0293697"><ele>271.0</ele><time>2026-05-03T07:28:06.782Z</time></trkpt><trkpt lat="43.1971425" lon="12.0293428"><ele>271.0</ele><time>2026-05-03T07:28:08.865Z</time></trkpt><trkpt lat="43.1972219" lon="12.0293272"><ele>271.0</ele><time>2026-05-03T07:28:10.794Z</time></trkpt><trkpt lat="43.1973018" lon="12.0293139"><ele>271.0</ele><time>2026-05-03T07:28:12.782Z</time></trkpt><trkpt lat="43.1973801" lon="12.0292914"><ele>271.0</ele><time>2026-05-03T07:28:14.781Z</time></trkpt><trkpt lat="43.1974507" lon="12.0292553"><ele>271.0</ele><time>2026-05-03T07:28:16.782Z</time></trkpt><trkpt lat="43.1975266" lon="12.0292359"><ele>271.0</ele><time>2026-05-03T07:28:18.783Z</time></trkpt><trkpt lat="43.1976008" lon="12.0292066"><ele>271.0</ele><time>2026-05-03T07:28:20.782Z</time></trkpt><trkpt lat="43.1976781" lon="12.0291645"><ele>271.0</ele><time>2026-05-03T07:28:22.781Z</time></trkpt><trkpt lat="43.1977609" lon="12.0291347"><ele>271.0</ele><time>2026-05-03T07:28:24.784Z</time></trkpt><trkpt lat="43.1978447" lon="12.0291357"><ele>271.3333333333333</ele><time>2026-05-03T07:28:26.88Z</time></trkpt><trkpt lat="43.1979226" lon="12.0291643"><ele>271.66666666666663</ele><time>2026-05-03T07:28:28.762Z</time></trkpt><trkpt lat="43.1979846" lon="12.0292332"><ele>272.0</ele><time>2026-05-03T07:28:30.772Z</time></trkpt><trkpt lat="43.1980594" lon="12.029317"><ele>272.3333333333333</ele><time>2026-05-03T07:28:32.776Z</time></trkpt><trkpt lat="43.198115" lon="12.0293923"><ele>272.6666666666667</ele><time>2026-05-03T07:28:34.781Z</time></trkpt><trkpt lat="43.1981738" lon="12.0294624"><ele>273.0</ele><time>2026-05-03T07:28:36.783Z</time></trkpt><trkpt lat="43.198246" lon="12.0295176"><ele>273.0</ele><time>2026-05-03T07:28:38.8Z</time></trkpt><trkpt lat="43.1983137" lon="12.0295747"><ele>273.0</ele><time>2026-05-03T07:28:40.781Z</time></trkpt><trkpt lat="43.1983808" lon="12.0296335"><ele>273.0</ele><time>2026-05-03T07:28:42.867Z</time></trkpt><trkpt lat="43.1984466" lon="12.029696"><ele>273.0</ele><time>2026-05-03T07:28:44.782Z</time></trkpt><trkpt lat="43.1985077" lon="12.0297588"><ele>273.0</ele><time>2026-05-03T07:28:46.786Z</time></trkpt><trkpt lat="43.198571" lon="12.0298129"><ele>273.0</ele><time>2026-05-03T07:28:48.768Z</time></trkpt><trkpt lat="43.1986378" lon="12.029867"><ele>273.0</ele><time>2026-05-03T07:28:50.773Z</time></trkpt><trkpt lat="43.1987054" lon="12.0299089"><ele>273.0</ele><time>2026-05-03T07:28:52.778Z</time></trkpt><trkpt lat="43.1987637" lon="12.0299595"><ele>273.0</ele><time>2026-05-03T07:28:54.785Z</time></trkpt><trkpt lat="43.1988237" lon="12.030013"><ele>273.0</ele><time>2026-05-03T07:28:56.773Z</time></trkpt><trkpt lat="43.1988859" lon="12.0300639"><ele>273.0</ele><time>2026-05-03T07:28:58.779Z</time></trkpt><trkpt lat="43.1989851" lon="12.0301333"><ele>273.0</ele><time>2026-05-03T07:29:01.77Z</time></trkpt><trkpt lat="43.1990548" lon="12.0301646"><ele>273.57142857142856</ele><time>2026-05-03T07:29:03.788Z</time></trkpt><trkpt lat="43.1991184" lon="12.030211"><ele>274.1428571428571</ele><time>2026-05-03T07:29:05.781Z</time></trkpt><trkpt lat="43.1991764" lon="12.030264"><ele>274.7142857142857</ele><time>2026-05-03T07:29:07.78Z</time></trkpt><trkpt lat="43.1992348" lon="12.0303175"><ele>275.2857142857143</ele><time>2026-05-03T07:29:09.781Z</time></trkpt><trkpt lat="43.1992966" lon="12.0303733"><ele>275.85714285714283</ele><time>2026-05-03T07:29:11.784Z</time></trkpt><trkpt lat="43.1993424" lon="12.0304389"><ele>276.42857142857144</ele><time>2026-05-03T07:29:13.783Z</time></trkpt><trkpt lat="43.1993971" lon="12.0305117"><ele>277.0</ele><time>2026-05-03T07:29:15.784Z</time></trkpt><trkpt lat="43.1994513" lon="12.0305781"><ele>277.0</ele><time>2026-05-03T07:29:17.78Z</time></trkpt><trkpt lat="43.1995027" lon="12.03065"><ele>277.0</ele><time>2026-05-03T07:29:19.782Z</time></trkpt><trkpt lat="43.1995533" lon="12.0307171"><ele>277.0</ele><time>2026-05-03T07:29:21.767Z</time></trkpt><trkpt lat="43.1995986" lon="12.0307869"><ele>277.0</ele><time>2026-05-03T07:29:23.783Z</time></trkpt><trkpt lat="43.19965" lon="12.0308481"><ele>277.0</ele><time>2026-05-03T07:29:25.783Z</time></trkpt><trkpt lat="43.1997094" lon="12.0308985"><ele>277.0</ele><time>2026-05-03T07:29:27.782Z</time></trkpt><trkpt lat="43.1997705" lon="12.0309488"><ele>277.0</ele><time>2026-05-03T07:29:29.783Z</time></trkpt><trkpt lat="43.1998358" lon="12.0309801"><ele>278.2857142857143</ele><time>2026-05-03T07:29:31.782Z</time></trkpt><trkpt lat="43.1999088" lon="12.0309902"><ele>279.57142857142856</ele><time>2026-05-03T07:29:33.78Z</time></trkpt><trkpt lat="43.1999795" lon="12.030994"><ele>280.85714285714283</ele><time>2026-05-03T07:29:35.785Z</time></trkpt><trkpt lat="43.200045" lon="12.0310069"><ele>282.1428571428571</ele><time>2026-05-03T07:29:37.783Z</time></trkpt><trkpt lat="43.2001096" lon="12.0310095"><ele>283.42857142857144</ele><time>2026-05-03T07:29:39.784Z</time></trkpt><trkpt lat="43.2001725" lon="12.0310251"><ele>284.71428571428567</ele><time>2026-05-03T07:29:41.782Z</time></trkpt><trkpt lat="43.20024" lon="12.0310363"><ele>286.0</ele><time>2026-05-03T07:29:43.783Z</time></trkpt><trkpt lat="43.2003075" lon="12.0310423"><ele>286.0</ele><time>2026-05-03T07:29:45.77Z</time></trkpt><trkpt lat="43.2003707" lon="12.0310506"><ele>286.0</ele><time>2026-05-03T07:29:47.77Z</time></trkpt><trkpt lat="43.2004616" lon="12.0310624"><ele>286.0</ele><time>2026-05-03T07:29:50.784Z</time></trkpt><trkpt lat="43.2005504" lon="12.031075"><ele>286.0</ele><time>2026-05-03T07:29:53.782Z</time></trkpt><trkpt lat="43.2006328" lon="12.0310798"><ele>286.0</ele><time>2026-05-03T07:29:56.785Z</time></trkpt><trkpt lat="43.2007195" lon="12.031093"><ele>286.0</ele><time>2026-05-03T07:29:59.78Z</time></trkpt><trkpt lat="43.2008019" lon="12.0311014"><ele>287.16666666666663</ele><time>2026-05-03T07:30:02.785Z</time></trkpt><trkpt lat="43.2008808" lon="12.0311184"><ele>288.3333333333333</ele><time>2026-05-03T07:30:05.772Z</time></trkpt><trkpt lat="43.2009587" lon="12.0311244"><ele>289.5</ele><time>2026-05-03T07:30:08.783Z</time></trkpt><trkpt lat="43.2010376" lon="12.0311095"><ele>290.6666666666667</ele><time>2026-05-03T07:30:11.782Z</time></trkpt><trkpt lat="43.2011112" lon="12.0310793"><ele>291.83333333333337</ele><time>2026-05-03T07:30:14.799Z</time></trkpt><trkpt lat="43.2011896" lon="12.0310835"><ele>293.0</ele><time>2026-05-03T07:30:17.78Z</time></trkpt><trkpt lat="43.2012595" lon="12.0311305"><ele>293.0</ele><time>2026-05-03T07:30:20.768Z</time></trkpt><trkpt lat="43.201309" lon="12.0311878"><ele>293.0</ele><time>2026-05-03T07:30:22.767Z</time></trkpt><trkpt lat="43.2013432" lon="12.0312931"><ele>293.0</ele><time>2026-05-03T07:30:25.781Z</time></trkpt><trkpt lat="43.201352" lon="12.0314061"><ele>293.0</ele><time>2026-05-03T07:30:28.778Z</time></trkpt><trkpt lat="43.2013872" lon="12.0315104"><ele>293.0</ele><time>2026-05-03T07:30:31.782Z</time></trkpt><trkpt lat="43.201465" lon="12.0315624"><ele>293.0</ele><time>2026-05-03T07:30:34.782Z</time></trkpt><trkpt lat="43.2015447" lon="12.0315838"><ele>294.33333333333337</ele><time>2026-05-03T07:30:37.782Z</time></trkpt><trkpt lat="43.2016296" lon="12.0316004"><ele>295.6666666666667</ele><time>2026-05-03T07:30:40.772Z</time></trkpt><trkpt lat="43.2017185" lon="12.0316184"><ele>297.0</ele><time>2026-05-03T07:30:43.784Z</time></trkpt><trkpt lat="43.201782" lon="12.0316178"><ele>298.3333333333333</ele><time>2026-05-03T07:30:45.77Z</time></trkpt><trkpt lat="43.2018755" lon="12.031629"><ele>299.66666666666663</ele><time>2026-05-03T07:30:48.772Z</time></trkpt><trkpt lat="43.2019659" lon="12.0316473"><ele>301.0</ele><time>2026-05-03T07:30:51.772Z</time></trkpt><trkpt lat="43.2020516" lon="12.0316765"><ele>302.0</ele><time>2026-05-03T07:30:54.788Z</time></trkpt><trkpt lat="43.2021452" lon="12.0316948"><ele>303.0</ele><time>2026-05-03T07:30:57.782Z</time></trkpt><trkpt lat="43.2022089" lon="12.0317016"><ele>304.0</ele><time>2026-05-03T07:30:59.778Z</time></trkpt><trkpt lat="43.2022716" lon="12.0317129"><ele>305.0</ele><time>2026-05-03T07:31:01.784Z</time></trkpt><trkpt lat="43.2023635" lon="12.0317342"><ele>306.0</ele><time>2026-05-03T07:31:04.778Z</time></trkpt><trkpt lat="43.2024455" lon="12.0317596"><ele>307.0</ele><time>2026-05-03T07:31:07.791Z</time></trkpt><trkpt lat="43.2025346" lon="12.0317815"><ele>308.16666666666663</ele><time>2026-05-03T07:31:10.766Z</time></trkpt><trkpt lat="43.202619" lon="12.0317905"><ele>309.3333333333333</ele><time>2026-05-03T07:31:13.78Z</time></trkpt><trkpt lat="43.2027053" lon="12.0318154"><ele>310.5</ele><time>2026-05-03T07:31:16.77Z</time></trkpt><trkpt lat="43.2027829" lon="12.0318339"><ele>311.6666666666667</ele><time>2026-05-03T07:31:19.777Z</time></trkpt><trkpt lat="43.202867" lon="12.0318676"><ele>312.83333333333337</ele><time>2026-05-03T07:31:22.767Z</time></trkpt><trkpt lat="43.2029453" lon="12.0318961"><ele>314.0</ele><time>2026-05-03T07:31:25.77Z</time></trkpt><trkpt lat="43.2030221" lon="12.031915"><ele>313.99999999999994</ele><time>2026-05-03T07:31:28.769Z</time></trkpt><trkpt lat="43.203104" lon="12.0319251"><ele>314.0</ele><time>2026-05-03T07:31:31.769Z</time></trkpt><trkpt lat="43.2031499" lon="12.0319975"><ele>314.0</ele><time>2026-05-03T07:31:35.77Z</time></trkpt><trkpt lat="43.2031033" lon="12.0320616"><ele>314.0</ele><time>2026-05-03T07:31:37.769Z</time></trkpt><trkpt lat="43.2030656" lon="12.0321393"><ele>314.0</ele><time>2026-05-03T07:31:39.766Z</time></trkpt><trkpt lat="43.2030248" lon="12.0322177"><ele>313.99999999999994</ele><time>2026-05-03T07:31:41.77Z</time></trkpt><trkpt lat="43.2029804" lon="12.0323012"><ele>314.0</ele><time>2026-05-03T07:31:43.775Z</time></trkpt><trkpt lat="43.2029388" lon="12.0323981"><ele>314.4</ele><time>2026-05-03T07:31:45.782Z</time></trkpt><trkpt lat="43.2028849" lon="12.0325267"><ele>314.79999999999995</ele><time>2026-05-03T07:31:47.791Z</time></trkpt><trkpt lat="43.2028429" lon="12.0326604"><ele>315.20000000000005</ele><time>2026-05-03T07:31:49.786Z</time></trkpt><trkpt lat="43.2027998" lon="12.0327933"><ele>315.6</ele><time>2026-05-03T07:31:51.871Z</time></trkpt><trkpt lat="43.2027596" lon="12.0329433"><ele>316.0</ele><time>2026-05-03T07:31:53.783Z</time></trkpt><trkpt lat="43.2027392" lon="12.0330855"><ele>316.0</ele><time>2026-05-03T07:31:55.786Z</time></trkpt><trkpt lat="43.2027456" lon="12.033233"><ele>316.0</ele><time>2026-05-03T07:31:57.878Z</time></trkpt><trkpt lat="43.2027601" lon="12.0333834"><ele>316.0</ele><time>2026-05-03T07:31:59.787Z</time></trkpt><trkpt lat="43.2027786" lon="12.0335373"><ele>316.0</ele><time>2026-05-03T07:32:01.783Z</time></trkpt><trkpt lat="43.2027911" lon="12.0336806"><ele>316.0</ele><time>2026-05-03T07:32:03.779Z</time></trkpt><trkpt lat="43.2028154" lon="12.0338233"><ele>315.40000000000003</ele><time>2026-05-03T07:32:05.797Z</time></trkpt><trkpt lat="43.202827" lon="12.0339626"><ele>314.8</ele><time>2026-05-03T07:32:07.791Z</time></trkpt><trkpt lat="43.2028328" lon="12.0340928"><ele>314.20000000000005</ele><time>2026-05-03T07:32:09.779Z</time></trkpt><trkpt lat="43.2028356" lon="12.0342176"><ele>313.6</ele><time>2026-05-03T07:32:11.781Z</time></trkpt><trkpt lat="43.2028163" lon="12.0343417"><ele>313.0</ele><time>2026-05-03T07:32:13.777Z</time></trkpt><trkpt lat="43.2027821" lon="12.03445"><ele>313.0</ele><time>2026-05-03T07:32:15.777Z</time></trkpt><trkpt lat="43.2027387" lon="12.0345475"><ele>313.0</ele><time>2026-05-03T07:32:17.784Z</time></trkpt><trkpt lat="43.2026971" lon="12.0346473"><ele>313.0</ele><time>2026-05-03T07:32:19.786Z</time></trkpt><trkpt lat="43.2026579" lon="12.0347527"><ele>313.0</ele><time>2026-05-03T07:32:21.784Z</time></trkpt><trkpt lat="43.202629" lon="12.0348694"><ele>313.0</ele><time>2026-05-03T07:32:23.784Z</time></trkpt><trkpt lat="43.2025971" lon="12.0349758"><ele>313.0</ele><time>2026-05-03T07:32:25.782Z</time></trkpt><trkpt lat="43.2025433" lon="12.0350656"><ele>312.5</ele><time>2026-05-03T07:32:27.785Z</time></trkpt><trkpt lat="43.2024919" lon="12.0351578"><ele>312.0</ele><time>2026-05-03T07:32:29.78Z</time></trkpt><trkpt lat="43.2024405" lon="12.0352439"><ele>311.5</ele><time>2026-05-03T07:32:31.78Z</time></trkpt><trkpt lat="43.202391" lon="12.0353272"><ele>311.0</ele><time>2026-05-03T07:32:33.782Z</time></trkpt><trkpt lat="43.2023373" lon="12.0354053"><ele>310.5</ele><time>2026-05-03T07:32:35.782Z</time></trkpt><trkpt lat="43.2022775" lon="12.0354811"><ele>310.0</ele><time>2026-05-03T07:32:37.782Z</time></trkpt><trkpt lat="43.2022174" lon="12.0355527"><ele>310.0</ele><time>2026-05-03T07:32:39.784Z</time></trkpt><trkpt lat="43.2021588" lon="12.0356275"><ele>310.0</ele><time>2026-05-03T07:32:41.78Z</time></trkpt><trkpt lat="43.2020988" lon="12.0357049"><ele>310.0</ele><time>2026-05-03T07:32:43.782Z</time></trkpt><trkpt lat="43.2020358" lon="12.0357844"><ele>310.0</ele><time>2026-05-03T07:32:45.781Z</time></trkpt><trkpt lat="43.2019782" lon="12.0358682"><ele>310.0</ele><time>2026-05-03T07:32:47.781Z</time></trkpt><trkpt lat="43.20193" lon="12.0359542"><ele>310.0</ele><time>2026-05-03T07:32:49.781Z</time></trkpt><trkpt lat="43.2018869" lon="12.0360521"><ele>311.3333333333333</ele><time>2026-05-03T07:32:51.787Z</time></trkpt><trkpt lat="43.201854" lon="12.0361569"><ele>312.66666666666663</ele><time>2026-05-03T07:32:53.784Z</time></trkpt><trkpt lat="43.2018223" lon="12.0362653"><ele>314.0</ele><time>2026-05-03T07:32:55.78Z</time></trkpt><trkpt lat="43.2017958" lon="12.0363653"><ele>315.3333333333333</ele><time>2026-05-03T07:32:57.78Z</time></trkpt><trkpt lat="43.2017737" lon="12.0364547"><ele>316.6666666666667</ele><time>2026-05-03T07:32:59.785Z</time></trkpt><trkpt lat="43.2017499" lon="12.0365432"><ele>318.0</ele><time>2026-05-03T07:33:01.782Z</time></trkpt><trkpt lat="43.2017294" lon="12.0366336"><ele>319.1666666666667</ele><time>2026-05-03T07:33:03.783Z</time></trkpt><trkpt lat="43.2017225" lon="12.036729"><ele>320.3333333333333</ele><time>2026-05-03T07:33:05.793Z</time></trkpt><trkpt lat="43.201713" lon="12.036832"><ele>321.5</ele><time>2026-05-03T07:33:07.777Z</time></trkpt><trkpt lat="43.2017036" lon="12.0369371"><ele>322.66666666666663</ele><time>2026-05-03T07:33:09.78Z</time></trkpt><trkpt lat="43.201695" lon="12.0370402"><ele>323.8333333333333</ele><time>2026-05-03T07:33:11.783Z</time></trkpt><trkpt lat="43.2016875" lon="12.037147"><ele>325.0</ele><time>2026-05-03T07:33:13.775Z</time></trkpt><trkpt lat="43.2016752" lon="12.0372538"><ele>325.0</ele><time>2026-05-03T07:33:15.788Z</time></trkpt><trkpt lat="43.2016673" lon="12.0373603"><ele>325.0</ele><time>2026-05-03T07:33:17.786Z</time></trkpt><trkpt lat="43.2016535" lon="12.0374583"><ele>325.0</ele><time>2026-05-03T07:33:19.783Z</time></trkpt><trkpt lat="43.201629" lon="12.0375582"><ele>325.0</ele><time>2026-05-03T07:33:21.77Z</time></trkpt><trkpt lat="43.2015976" lon="12.0376551"><ele>325.0</ele><time>2026-05-03T07:33:23.782Z</time></trkpt><trkpt lat="43.2015593" lon="12.037743"><ele>325.0</ele><time>2026-05-03T07:33:25.781Z</time></trkpt><trkpt lat="43.2015133" lon="12.0378144"><ele>325.0</ele><time>2026-05-03T07:33:27.783Z</time></trkpt><trkpt lat="43.201457" lon="12.0378804"><ele>324.57142857142856</ele><time>2026-05-03T07:33:29.771Z</time></trkpt><trkpt lat="43.2014069" lon="12.0379457"><ele>324.14285714285717</ele><time>2026-05-03T07:33:31.768Z</time></trkpt><trkpt lat="43.2013602" lon="12.0380077"><ele>323.7142857142857</ele><time>2026-05-03T07:33:33.78Z</time></trkpt><trkpt lat="43.2013075" lon="12.0380624"><ele>323.2857142857143</ele><time>2026-05-03T07:33:35.781Z</time></trkpt><trkpt lat="43.2012544" lon="12.0381105"><ele>322.8571428571429</ele><time>2026-05-03T07:33:37.767Z</time></trkpt><trkpt lat="43.2011771" lon="12.0381789"><ele>322.42857142857144</ele><time>2026-05-03T07:33:40.77Z</time></trkpt><trkpt lat="43.2011236" lon="12.0382266"><ele>322.0</ele><time>2026-05-03T07:33:42.766Z</time></trkpt><trkpt lat="43.2010428" lon="12.0382918"><ele>323.85714285714283</ele><time>2026-05-03T07:33:45.773Z</time></trkpt><trkpt lat="43.2009868" lon="12.0383416"><ele>325.7142857142857</ele><time>2026-05-03T07:33:47.766Z</time></trkpt><trkpt lat="43.2009304" lon="12.0383871"><ele>327.57142857142856</ele><time>2026-05-03T07:33:49.767Z</time></trkpt><trkpt lat="43.2008485" lon="12.038452"><ele>329.42857142857144</ele><time>2026-05-03T07:33:52.763Z</time></trkpt><trkpt lat="43.2007717" lon="12.0385111"><ele>331.2857142857143</ele><time>2026-05-03T07:33:55.768Z</time></trkpt><trkpt lat="43.2007262" lon="12.0385776"><ele>333.1428571428571</ele><time>2026-05-03T07:33:57.77Z</time></trkpt><trkpt lat="43.2006987" lon="12.038658"><ele>335.0</ele><time>2026-05-03T07:33:59.771Z</time></trkpt><trkpt lat="43.2006914" lon="12.0387519"><ele>334.99999999999994</ele><time>2026-05-03T07:34:01.767Z</time></trkpt><trkpt lat="43.2006981" lon="12.0388448"><ele>335.0</ele><time>2026-05-03T07:34:03.768Z</time></trkpt><trkpt lat="43.2007202" lon="12.0389284"><ele>335.0</ele><time>2026-05-03T07:34:05.769Z</time></trkpt><trkpt lat="43.2007476" lon="12.0390082"><ele>335.0</ele><time>2026-05-03T07:34:07.769Z</time></trkpt><trkpt lat="43.2007835" lon="12.0390809"><ele>335.0</ele><time>2026-05-03T07:34:09.774Z</time></trkpt><trkpt lat="43.2008418" lon="12.039181"><ele>334.99999999999994</ele><time>2026-05-03T07:34:12.886Z</time></trkpt><trkpt lat="43.2008882" lon="12.0392425"><ele>335.0</ele><time>2026-05-03T07:34:14.777Z</time></trkpt><trkpt lat="43.2009574" lon="12.0393266"><ele>336.5</ele><time>2026-05-03T07:34:17.781Z</time></trkpt><trkpt lat="43.2010223" lon="12.0394146"><ele>338.0</ele><time>2026-05-03T07:34:20.779Z</time></trkpt><trkpt lat="43.2010828" lon="12.0395107"><ele>339.5</ele><time>2026-05-03T07:34:23.77Z</time></trkpt><trkpt lat="43.20114" lon="12.0396044"><ele>341.0</ele><time>2026-05-03T07:34:26.77Z</time></trkpt><trkpt lat="43.2011761" lon="12.0396804"><ele>342.5</ele><time>2026-05-03T07:34:28.805Z</time></trkpt><trkpt lat="43.2012116" lon="12.0397578"><ele>344.0</ele><time>2026-05-03T07:34:30.781Z</time></trkpt><trkpt lat="43.2012478" lon="12.0398317"><ele>344.00000000000006</ele><time>2026-05-03T07:34:32.785Z</time></trkpt><trkpt lat="43.2012992" lon="12.0399249"><ele>344.0</ele><time>2026-05-03T07:34:35.799Z</time></trkpt><trkpt lat="43.2013354" lon="12.0399961"><ele>344.0</ele><time>2026-05-03T07:34:37.784Z</time></trkpt><trkpt lat="43.2013751" lon="12.040067"><ele>344.0</ele><time>2026-05-03T07:34:39.783Z</time></trkpt><trkpt lat="43.2014115" lon="12.0401386"><ele>344.0</ele><time>2026-05-03T07:34:41.789Z</time></trkpt><trkpt lat="43.2014768" lon="12.0402324"><ele>344.00000000000006</ele><time>2026-05-03T07:34:44.786Z</time></trkpt><trkpt lat="43.2015236" lon="12.0403044"><ele>344.0</ele><time>2026-05-03T07:34:46.78Z</time></trkpt><trkpt lat="43.2015673" lon="12.0403847"><ele>346.0</ele><time>2026-05-03T07:34:48.78Z</time></trkpt><trkpt lat="43.2016018" lon="12.0404669"><ele>348.0</ele><time>2026-05-03T07:34:50.764Z</time></trkpt><trkpt lat="43.2016355" lon="12.040583"><ele>350.0</ele><time>2026-05-03T07:34:53.779Z</time></trkpt><trkpt lat="43.2016752" lon="12.0406982"><ele>352.0</ele><time>2026-05-03T07:34:56.781Z</time></trkpt><trkpt lat="43.2017025" lon="12.0407892"><ele>354.0</ele><time>2026-05-03T07:34:58.778Z</time></trkpt><trkpt lat="43.2017369" lon="12.0408772"><ele>356.0</ele><time>2026-05-03T07:35:00.877Z</time></trkpt><trkpt lat="43.2017572" lon="12.0410028"><ele>355.99999999999994</ele><time>2026-05-03T07:35:03.781Z</time></trkpt><trkpt lat="43.2017671" lon="12.0410945"><ele>356.0</ele><time>2026-05-03T07:35:05.782Z</time></trkpt><trkpt lat="43.2017531" lon="12.041193"><ele>356.0</ele><time>2026-05-03T07:35:07.785Z</time></trkpt><trkpt lat="43.2017184" lon="12.0412834"><ele>356.0</ele><time>2026-05-03T07:35:09.786Z</time></trkpt><trkpt lat="43.2016667" lon="12.0413625"><ele>356.0</ele><time>2026-05-03T07:35:11.789Z</time></trkpt><trkpt lat="43.2016074" lon="12.0414255"><ele>355.99999999999994</ele><time>2026-05-03T07:35:13.778Z</time></trkpt><trkpt lat="43.2015502" lon="12.0414822"><ele>356.0</ele><time>2026-05-03T07:35:15.786Z</time></trkpt><trkpt lat="43.2015008" lon="12.0415361"><ele>355.5</ele><time>2026-05-03T07:35:17.786Z</time></trkpt><trkpt lat="43.2014488" lon="12.0415884"><ele>355.0</ele><time>2026-05-03T07:35:19.782Z</time></trkpt><trkpt lat="43.2013962" lon="12.0416419"><ele>354.5</ele><time>2026-05-03T07:35:21.782Z</time></trkpt><trkpt lat="43.2013266" lon="12.0417233"><ele>354.0</ele><time>2026-05-03T07:35:24.781Z</time></trkpt><trkpt lat="43.2012794" lon="12.0418169"><ele>353.5</ele><time>2026-05-03T07:35:27.785Z</time></trkpt><trkpt lat="43.2013276" lon="12.0419121"><ele>353.0</ele><time>2026-05-03T07:35:30.782Z</time></trkpt><trkpt lat="43.2013923" lon="12.0419385"><ele>353.0</ele><time>2026-05-03T07:35:32.781Z</time></trkpt><trkpt lat="43.2014578" lon="12.041964"><ele>353.0</ele><time>2026-05-03T07:35:34.781Z</time></trkpt><trkpt lat="43.2015193" lon="12.0419982"><ele>353.0</ele><time>2026-05-03T07:35:36.787Z</time></trkpt><trkpt lat="43.2015789" lon="12.0420333"><ele>353.0</ele><time>2026-05-03T07:35:38.784Z</time></trkpt><trkpt lat="43.2016454" lon="12.0420635"><ele>353.0</ele><time>2026-05-03T07:35:40.877Z</time></trkpt><trkpt lat="43.2017183" lon="12.0420856"><ele>353.0</ele><time>2026-05-03T07:35:42.771Z</time></trkpt><trkpt lat="43.2017905" lon="12.0421168"><ele>353.0</ele><time>2026-05-03T07:35:44.78Z</time></trkpt><trkpt lat="43.2018611" lon="12.0421436"><ele>354.1428571428571</ele><time>2026-05-03T07:35:46.787Z</time></trkpt><trkpt lat="43.2019354" lon="12.0421358"><ele>355.28571428571433</ele><time>2026-05-03T07:35:48.782Z</time></trkpt><trkpt lat="43.202005" lon="12.0421111"><ele>356.42857142857144</ele><time>2026-05-03T07:35:50.78Z</time></trkpt><trkpt lat="43.2020677" lon="12.0420665"><ele>357.57142857142856</ele><time>2026-05-03T07:35:52.783Z</time></trkpt><trkpt lat="43.2021184" lon="12.0420111"><ele>358.71428571428567</ele><time>2026-05-03T07:35:54.78Z</time></trkpt><trkpt lat="43.202168" lon="12.0419573"><ele>359.8571428571429</ele><time>2026-05-03T07:35:56.784Z</time></trkpt><trkpt lat="43.2022496" lon="12.041902"><ele>361.0</ele><time>2026-05-03T07:35:59.783Z</time></trkpt><trkpt lat="43.2023086" lon="12.0418636"><ele>362.3333333333333</ele><time>2026-05-03T07:36:01.782Z</time></trkpt><trkpt lat="43.2023944" lon="12.0418191"><ele>363.66666666666663</ele><time>2026-05-03T07:36:04.781Z</time></trkpt><trkpt lat="43.2024781" lon="12.0417791"><ele>365.0</ele><time>2026-05-03T07:36:07.784Z</time></trkpt><trkpt lat="43.2025582" lon="12.0417387"><ele>366.3333333333333</ele><time>2026-05-03T07:36:10.784Z</time></trkpt><trkpt lat="43.2026386" lon="12.0417095"><ele>367.6666666666667</ele><time>2026-05-03T07:36:13.77Z</time></trkpt><trkpt lat="43.2027038" lon="12.0416502"><ele>369.0</ele><time>2026-05-03T07:36:16.766Z</time></trkpt><trkpt lat="43.2027611" lon="12.04161"><ele>370.6666666666667</ele><time>2026-05-03T07:36:18.774Z</time></trkpt><trkpt lat="43.2028386" lon="12.0415751"><ele>372.3333333333333</ele><time>2026-05-03T07:36:21.781Z</time></trkpt><trkpt lat="43.2029186" lon="12.0415782"><ele>374.0</ele><time>2026-05-03T07:36:24.769Z</time></trkpt><trkpt lat="43.2030019" lon="12.0415962"><ele>375.66666666666663</ele><time>2026-05-03T07:36:27.77Z</time></trkpt><trkpt lat="43.2030817" lon="12.0416079"><ele>377.3333333333333</ele><time>2026-05-03T07:36:30.766Z</time></trkpt><trkpt lat="43.2031599" lon="12.0416165"><ele>379.0</ele><time>2026-05-03T07:36:33.767Z</time></trkpt><trkpt lat="43.2032401" lon="12.0416203"><ele>381.5</ele><time>2026-05-03T07:36:36.769Z</time></trkpt><trkpt lat="43.2033252" lon="12.041614"><ele>384.0</ele><time>2026-05-03T07:36:39.782Z</time></trkpt><trkpt lat="43.2033904" lon="12.0416049"><ele>386.5</ele><time>2026-05-03T07:36:42.783Z</time></trkpt><trkpt lat="43.2034647" lon="12.0415593"><ele>389.0</ele><time>2026-05-03T07:36:45.787Z</time></trkpt><trkpt lat="43.2035188" lon="12.0415128"><ele>391.50000000000006</ele><time>2026-05-03T07:36:47.767Z</time></trkpt><trkpt lat="43.2035891" lon="12.0414492"><ele>394.0</ele><time>2026-05-03T07:36:50.766Z</time></trkpt><trkpt lat="43.2036585" lon="12.0413696"><ele>394.00000000000006</ele><time>2026-05-03T07:36:53.768Z</time></trkpt><trkpt lat="43.2037299" lon="12.0413019"><ele>394.0</ele><time>2026-05-03T07:36:56.764Z</time></trkpt><trkpt lat="43.2038" lon="12.0412403"><ele>394.0</ele><time>2026-05-03T07:36:59.792Z</time></trkpt><trkpt lat="43.2038526" lon="12.0411553"><ele>394.0</ele><time>2026-05-03T07:37:02.783Z</time></trkpt><trkpt lat="43.2039099" lon="12.0410694"><ele>394.00000000000006</ele><time>2026-05-03T07:37:05.777Z</time></trkpt><trkpt lat="43.2039792" lon="12.0409886"><ele>394.0</ele><time>2026-05-03T07:37:08.77Z</time></trkpt><trkpt lat="43.2040543" lon="12.0409382"><ele>394.50000000000006</ele><time>2026-05-03T07:37:11.769Z</time></trkpt><trkpt lat="43.2041255" lon="12.0408928"><ele>395.0</ele><time>2026-05-03T07:37:14.767Z</time></trkpt><trkpt lat="43.2042019" lon="12.0408437"><ele>395.5</ele><time>2026-05-03T07:37:17.773Z</time></trkpt><trkpt lat="43.2042761" lon="12.0408186"><ele>396.0</ele><time>2026-05-03T07:37:20.771Z</time></trkpt><trkpt lat="43.204329" lon="12.0407609"><ele>396.50000000000006</ele><time>2026-05-03T07:37:24.763Z</time></trkpt><trkpt lat="43.2043712" lon="12.0406716"><ele>397.0</ele><time>2026-05-03T07:37:28.778Z</time></trkpt><trkpt lat="43.2044014" lon="12.0405791"><ele>398.33333333333337</ele><time>2026-05-03T07:37:31.767Z</time></trkpt><trkpt lat="43.2044349" lon="12.0404984"><ele>399.6666666666667</ele><time>2026-05-03T07:37:34.874Z</time></trkpt><trkpt lat="43.2044846" lon="12.0404129"><ele>401.0</ele><time>2026-05-03T07:37:37.784Z</time></trkpt><trkpt lat="43.2045555" lon="12.0403526"><ele>402.33333333333337</ele><time>2026-05-03T07:37:38.771Z</time></trkpt><trkpt lat="43.204607" lon="12.0402648"><ele>403.6666666666667</ele><time>2026-05-03T07:37:41.771Z</time></trkpt><trkpt lat="43.2046739" lon="12.0401945"><ele>405.0</ele><time>2026-05-03T07:37:44.782Z</time></trkpt><trkpt lat="43.2047571" lon="12.0401431"><ele>405.1666666666667</ele><time>2026-05-03T07:37:47.783Z</time></trkpt><trkpt lat="43.2048442" lon="12.0401103"><ele>405.33333333333337</ele><time>2026-05-03T07:37:50.788Z</time></trkpt><trkpt lat="43.2049045" lon="12.0400851"><ele>405.5</ele><time>2026-05-03T07:37:52.765Z</time></trkpt><trkpt lat="43.2049889" lon="12.0400386"><ele>405.6666666666667</ele><time>2026-05-03T07:37:55.769Z</time></trkpt><trkpt lat="43.2050506" lon="12.0400139"><ele>405.83333333333337</ele><time>2026-05-03T07:37:57.784Z</time></trkpt><trkpt lat="43.2051308" lon="12.0399848"><ele>406.0</ele><time>2026-05-03T07:38:00.78Z</time></trkpt><trkpt lat="43.2052132" lon="12.0399515"><ele>408.00000000000006</ele><time>2026-05-03T07:38:03.791Z</time></trkpt><trkpt lat="43.2052936" lon="12.0399182"><ele>410.0</ele><time>2026-05-03T07:38:06.772Z</time></trkpt><trkpt lat="43.2053992" lon="12.0398702"><ele>412.0</ele><time>2026-05-03T07:38:10.782Z</time></trkpt><trkpt lat="43.2054654" lon="12.0398258"><ele>414.0</ele><time>2026-05-03T07:38:13.782Z</time></trkpt><trkpt lat="43.2055248" lon="12.0397808"><ele>416.00000000000006</ele><time>2026-05-03T07:38:16.784Z</time></trkpt><trkpt lat="43.2055949" lon="12.0397578"><ele>418.0</ele><time>2026-05-03T07:38:19.781Z</time></trkpt><trkpt lat="43.2056641" lon="12.0397309"><ele>418.50000000000006</ele><time>2026-05-03T07:38:22.786Z</time></trkpt><trkpt lat="43.2057375" lon="12.0396838"><ele>419.0</ele><time>2026-05-03T07:38:25.782Z</time></trkpt><trkpt lat="43.2057995" lon="12.0396326"><ele>419.5</ele><time>2026-05-03T07:38:28.764Z</time></trkpt><trkpt lat="43.2058804" lon="12.0395788"><ele>420.0</ele><time>2026-05-03T07:38:31.78Z</time></trkpt><trkpt lat="43.2059372" lon="12.039539"><ele>420.50000000000006</ele><time>2026-05-03T07:38:33.782Z</time></trkpt><trkpt lat="43.2060132" lon="12.0394816"><ele>421.0</ele><time>2026-05-03T07:38:36.784Z</time></trkpt><trkpt lat="43.2060867" lon="12.0394197"><ele>421.00000000000006</ele><time>2026-05-03T07:38:39.786Z</time></trkpt><trkpt lat="43.2061308" lon="12.0393575"><ele>421.0</ele><time>2026-05-03T07:38:41.783Z</time></trkpt><trkpt lat="43.2061666" lon="12.0392451"><ele>421.0</ele><time>2026-05-03T07:38:44.782Z</time></trkpt><trkpt lat="43.2061414" lon="12.0391329"><ele>421.0</ele><time>2026-05-03T07:38:47.781Z</time></trkpt><trkpt lat="43.2061153" lon="12.0390248"><ele>421.00000000000006</ele><time>2026-05-03T07:38:50.787Z</time></trkpt><trkpt lat="43.2060953" lon="12.0389207"><ele>421.0</ele><time>2026-05-03T07:38:53.781Z</time></trkpt><trkpt lat="43.2060944" lon="12.0388285"><ele>423.0</ele><time>2026-05-03T07:38:56.782Z</time></trkpt><trkpt lat="43.206099" lon="12.0387243"><ele>425.0</ele><time>2026-05-03T07:38:59.785Z</time></trkpt><trkpt lat="43.2060806" lon="12.0385597"><ele>427.0</ele><time>2026-05-03T07:39:03.781Z</time></trkpt><trkpt lat="43.2060717" lon="12.0384335"><ele>429.0</ele><time>2026-05-03T07:39:06.788Z</time></trkpt><trkpt lat="43.2060651" lon="12.0383007"><ele>431.0</ele><time>2026-05-03T07:39:09.782Z</time></trkpt><trkpt lat="43.2060637" lon="12.0381726"><ele>431.2857142857143</ele><time>2026-05-03T07:39:12.782Z</time></trkpt><trkpt lat="43.2060745" lon="12.0380849"><ele>431.57142857142856</ele><time>2026-05-03T07:39:14.785Z</time></trkpt><trkpt lat="43.2060827" lon="12.0379903"><ele>431.85714285714283</ele><time>2026-05-03T07:39:16.784Z</time></trkpt><trkpt lat="43.2060942" lon="12.0378889"><ele>432.1428571428571</ele><time>2026-05-03T07:39:18.784Z</time></trkpt><trkpt lat="43.2061225" lon="12.0377915"><ele>432.42857142857144</ele><time>2026-05-03T07:39:20.782Z</time></trkpt><trkpt lat="43.2061648" lon="12.037712"><ele>432.71428571428567</ele><time>2026-05-03T07:39:22.788Z</time></trkpt><trkpt lat="43.2062108" lon="12.0376526"><ele>433.0</ele><time>2026-05-03T07:39:24.78Z</time></trkpt><trkpt lat="43.2062841" lon="12.0375927"><ele>433.00000000000006</ele><time>2026-05-03T07:39:27.786Z</time></trkpt><trkpt lat="43.2063562" lon="12.0375275"><ele>433.0</ele><time>2026-05-03T07:39:30.781Z</time></trkpt><trkpt lat="43.2064359" lon="12.0374947"><ele>433.0</ele><time>2026-05-03T07:39:33.781Z</time></trkpt><trkpt lat="43.2065302" lon="12.0375018"><ele>433.0</ele><time>2026-05-03T07:39:36.782Z</time></trkpt><trkpt lat="43.2065994" lon="12.0374896"><ele>433.00000000000006</ele><time>2026-05-03T07:39:38.781Z</time></trkpt><trkpt lat="43.2066851" lon="12.037453"><ele>433.0</ele><time>2026-05-03T07:39:41.78Z</time></trkpt><trkpt lat="43.2067475" lon="12.037368"><ele>433.83333333333337</ele><time>2026-05-03T07:39:44.769Z</time></trkpt><trkpt lat="43.2067738" lon="12.0372873"><ele>434.6666666666667</ele><time>2026-05-03T07:39:46.767Z</time></trkpt><trkpt lat="43.2067966" lon="12.037176"><ele>435.5</ele><time>2026-05-03T07:39:49.77Z</time></trkpt><trkpt lat="43.2068135" lon="12.0370595"><ele>436.33333333333337</ele><time>2026-05-03T07:39:52.88Z</time></trkpt><trkpt lat="43.2068134" lon="12.0369491"><ele>437.1666666666667</ele><time>2026-05-03T07:39:55.781Z</time></trkpt><trkpt lat="43.2068397" lon="12.0368315"><ele>438.0</ele><time>2026-05-03T07:39:58.78Z</time></trkpt><trkpt lat="43.206879" lon="12.0367473"><ele>438.0</ele><time>2026-05-03T07:40:01.782Z</time></trkpt><trkpt lat="43.2069318" lon="12.0366794"><ele>438.0</ele><time>2026-05-03T07:40:03.78Z</time></trkpt><trkpt lat="43.2070104" lon="12.0366867"><ele>438.0</ele><time>2026-05-03T07:40:06.78Z</time></trkpt><trkpt lat="43.2070896" lon="12.0367194"><ele>438.0</ele><time>2026-05-03T07:40:09.782Z</time></trkpt><trkpt lat="43.2071737" lon="12.0367388"><ele>438.0</ele><time>2026-05-03T07:40:12.788Z</time></trkpt><trkpt lat="43.207245" lon="12.0366785"><ele>438.0</ele><time>2026-05-03T07:40:15.782Z</time></trkpt><trkpt lat="43.2072953" lon="12.0365705"><ele>438.8333333333333</ele><time>2026-05-03T07:40:18.787Z</time></trkpt><trkpt lat="43.207298" lon="12.0364792"><ele>439.66666666666663</ele><time>2026-05-03T07:40:21.776Z</time></trkpt><trkpt lat="43.2073133" lon="12.0363846"><ele>440.5</ele><time>2026-05-03T07:40:24.773Z</time></trkpt><trkpt lat="43.2073283" lon="12.0362713"><ele>441.3333333333333</ele><time>2026-05-03T07:40:27.763Z</time></trkpt><trkpt lat="43.2073502" lon="12.0361575"><ele>442.16666666666663</ele><time>2026-05-03T07:40:30.771Z</time></trkpt><trkpt lat="43.2073628" lon="12.0360503"><ele>443.0</ele><time>2026-05-03T07:40:33.883Z</time></trkpt><trkpt lat="43.2073752" lon="12.0359442"><ele>443.59999999999997</ele><time>2026-05-03T07:40:36.766Z</time></trkpt><trkpt lat="43.2074282" lon="12.0358328"><ele>444.19999999999993</ele><time>2026-05-03T07:40:39.781Z</time></trkpt><trkpt lat="43.2075121" lon="12.0357822"><ele>444.8</ele><time>2026-05-03T07:40:41.762Z</time></trkpt><trkpt lat="43.2076083" lon="12.0358171"><ele>445.4</ele><time>2026-05-03T07:40:43.787Z</time></trkpt><trkpt lat="43.2076919" lon="12.0358369"><ele>446.0</ele><time>2026-05-03T07:40:45.775Z</time></trkpt><trkpt lat="43.2077798" lon="12.0358092"><ele>445.8333333333333</ele><time>2026-05-03T07:40:47.78Z</time></trkpt><trkpt lat="43.2078627" lon="12.0357705"><ele>445.66666666666663</ele><time>2026-05-03T07:40:49.767Z</time></trkpt><trkpt lat="43.2079351" lon="12.0357382"><ele>445.5</ele><time>2026-05-03T07:40:51.765Z</time></trkpt><trkpt lat="43.2080074" lon="12.0357081"><ele>445.33333333333337</ele><time>2026-05-03T07:40:53.786Z</time></trkpt><trkpt lat="43.2080857" lon="12.0356902"><ele>445.1666666666667</ele><time>2026-05-03T07:40:55.763Z</time></trkpt><trkpt lat="43.2081796" lon="12.0356485"><ele>445.0</ele><time>2026-05-03T07:40:57.879Z</time></trkpt><trkpt lat="43.2082804" lon="12.03557"><ele>445.00000000000006</ele><time>2026-05-03T07:40:59.763Z</time></trkpt><trkpt lat="43.2083309" lon="12.035501"><ele>445.0</ele><time>2026-05-03T07:41:00.78Z</time></trkpt><trkpt lat="43.2083784" lon="12.0354177"><ele>445.0</ele><time>2026-05-03T07:41:01.765Z</time></trkpt><trkpt lat="43.2084166" lon="12.0353277"><ele>445.0</ele><time>2026-05-03T07:41:02.778Z</time></trkpt><trkpt lat="43.2084483" lon="12.0352281"><ele>445.00000000000006</ele><time>2026-05-03T07:41:03.779Z</time></trkpt><trkpt lat="43.2084777" lon="12.0351268"><ele>445.0</ele><time>2026-05-03T07:41:04.77Z</time></trkpt><trkpt lat="43.2085005" lon="12.0350131"><ele>445.1666666666667</ele><time>2026-05-03T07:41:05.774Z</time></trkpt><trkpt lat="43.2085222" lon="12.0349107"><ele>445.33333333333337</ele><time>2026-05-03T07:41:06.764Z</time></trkpt><trkpt lat="43.2085458" lon="12.0348046"><ele>445.5</ele><time>2026-05-03T07:41:07.765Z</time></trkpt><trkpt lat="43.2085636" lon="12.0346983"><ele>445.66666666666663</ele><time>2026-05-03T07:41:08.767Z</time></trkpt><trkpt lat="43.2085798" lon="12.0345834"><ele>445.8333333333333</ele><time>2026-05-03T07:41:09.766Z</time></trkpt><trkpt lat="43.2085904" lon="12.0344823"><ele>446.0</ele><time>2026-05-03T07:41:10.767Z</time></trkpt><trkpt lat="43.2085933" lon="12.0343788"><ele>446.0</ele><time>2026-05-03T07:41:11.764Z</time></trkpt><trkpt lat="43.2085925" lon="12.0342793"><ele>446.0</ele><time>2026-05-03T07:41:12.763Z</time></trkpt><trkpt lat="43.2085872" lon="12.0341824"><ele>446.0</ele><time>2026-05-03T07:41:13.763Z</time></trkpt><trkpt lat="43.2085832" lon="12.0340198"><ele>446.0</ele><time>2026-05-03T07:41:15.767Z</time></trkpt><trkpt lat="43.2085795" lon="12.0338864"><ele>446.0</ele><time>2026-05-03T07:41:17.773Z</time></trkpt><trkpt lat="43.2085802" lon="12.0337588"><ele>445.49999999999994</ele><time>2026-05-03T07:41:19.766Z</time></trkpt><trkpt lat="43.2085505" lon="12.0336517"><ele>445.0</ele><time>2026-05-03T07:41:21.765Z</time></trkpt><trkpt lat="43.2085343" lon="12.033544"><ele>444.5</ele><time>2026-05-03T07:41:23.766Z</time></trkpt><trkpt lat="43.2085279" lon="12.0334317"><ele>444.0</ele><time>2026-05-03T07:41:25.767Z</time></trkpt><trkpt lat="43.2085234" lon="12.033323"><ele>443.49999999999994</ele><time>2026-05-03T07:41:27.762Z</time></trkpt><trkpt lat="43.2085264" lon="12.0332191"><ele>443.0</ele><time>2026-05-03T07:41:29.766Z</time></trkpt><trkpt lat="43.2085403" lon="12.0331253"><ele>441.3333333333333</ele><time>2026-05-03T07:41:31.771Z</time></trkpt><trkpt lat="43.2085734" lon="12.0330437"><ele>439.66666666666663</ele><time>2026-05-03T07:41:33.765Z</time></trkpt><trkpt lat="43.2086104" lon="12.0329564"><ele>438.0</ele><time>2026-05-03T07:41:36.769Z</time></trkpt><trkpt lat="43.2086438" lon="12.0328529"><ele>436.33333333333337</ele><time>2026-05-03T07:47:05.78Z</time></trkpt><trkpt lat="43.2087066" lon="12.032786"><ele>434.6666666666667</ele><time>2026-05-03T07:47:08.779Z</time></trkpt><trkpt lat="43.2087691" lon="12.0327103"><ele>433.0</ele><time>2026-05-03T07:47:11.783Z</time></trkpt><trkpt lat="43.2088421" lon="12.0326541"><ele>433.00000000000006</ele><time>2026-05-03T07:47:14.776Z</time></trkpt><trkpt lat="43.2089104" lon="12.0326334"><ele>433.0</ele><time>2026-05-03T07:47:17.783Z</time></trkpt><trkpt lat="43.2089743" lon="12.0326502"><ele>433.0</ele><time>2026-05-03T07:47:20.781Z</time></trkpt><trkpt lat="43.2090483" lon="12.0326952"><ele>433.0</ele><time>2026-05-03T07:47:23.782Z</time></trkpt><trkpt lat="43.2091191" lon="12.0327696"><ele>433.00000000000006</ele><time>2026-05-03T07:47:26.78Z</time></trkpt><trkpt lat="43.2091965" lon="12.032835"><ele>433.0</ele><time>2026-05-03T07:47:29.781Z</time></trkpt><trkpt lat="43.2092755" lon="12.0328933"><ele>436.00000000000006</ele><time>2026-05-03T07:47:32.779Z</time></trkpt><trkpt lat="43.2093639" lon="12.0329283"><ele>439.0</ele><time>2026-05-03T07:47:35.78Z</time></trkpt><trkpt lat="43.2094508" lon="12.0329512"><ele>442.0</ele><time>2026-05-03T07:47:38.763Z</time></trkpt><trkpt lat="43.2095321" lon="12.0329687"><ele>445.0</ele><time>2026-05-03T07:47:41.781Z</time></trkpt><trkpt lat="43.2096109" lon="12.0330156"><ele>448.00000000000006</ele><time>2026-05-03T07:47:44.779Z</time></trkpt><trkpt lat="43.2096826" lon="12.0330767"><ele>451.0</ele><time>2026-05-03T07:47:47.782Z</time></trkpt><trkpt lat="43.2097844" lon="12.0331057"><ele>452.33333333333337</ele><time>2026-05-03T07:47:50.767Z</time></trkpt><trkpt lat="43.2098651" lon="12.0331399"><ele>453.6666666666667</ele><time>2026-05-03T07:47:53.774Z</time></trkpt><trkpt lat="43.2099451" lon="12.0331943"><ele>455.0</ele><time>2026-05-03T07:47:56.782Z</time></trkpt><trkpt lat="43.2100033" lon="12.0332642"><ele>456.33333333333337</ele><time>2026-05-03T07:47:59.766Z</time></trkpt><trkpt lat="43.2100762" lon="12.0333231"><ele>457.6666666666667</ele><time>2026-05-03T07:48:03.768Z</time></trkpt><trkpt lat="43.2101458" lon="12.0333757"><ele>459.0</ele><time>2026-05-03T07:48:06.887Z</time></trkpt><trkpt lat="43.2102114" lon="12.0334437"><ele>459.0</ele><time>2026-05-03T07:48:09.763Z</time></trkpt><trkpt lat="43.2102749" lon="12.0335255"><ele>459.0</ele><time>2026-05-03T07:48:12.765Z</time></trkpt><trkpt lat="43.2103441" lon="12.0336064"><ele>459.0</ele><time>2026-05-03T07:48:15.761Z</time></trkpt><trkpt lat="43.2104004" lon="12.0336532"><ele>459.0</ele><time>2026-05-03T07:48:17.763Z</time></trkpt><trkpt lat="43.2104777" lon="12.0337207"><ele>459.0</ele><time>2026-05-03T07:48:20.761Z</time></trkpt><trkpt lat="43.210545" lon="12.0337909"><ele>459.0</ele><time>2026-05-03T07:48:23.754Z</time></trkpt><trkpt lat="43.2106238" lon="12.0338597"><ele>460.1666666666667</ele><time>2026-05-03T07:48:26.765Z</time></trkpt><trkpt lat="43.2107008" lon="12.0339236"><ele>461.33333333333337</ele><time>2026-05-03T07:48:29.768Z</time></trkpt><trkpt lat="43.2107512" lon="12.0339784"><ele>462.5</ele><time>2026-05-03T07:48:31.769Z</time></trkpt><trkpt lat="43.2108186" lon="12.0340538"><ele>463.6666666666667</ele><time>2026-05-03T07:48:34.779Z</time></trkpt><trkpt lat="43.2108853" lon="12.0341194"><ele>464.83333333333337</ele><time>2026-05-03T07:48:37.782Z</time></trkpt><trkpt lat="43.210961" lon="12.0341852"><ele>466.0</ele><time>2026-05-03T07:48:40.774Z</time></trkpt><trkpt lat="43.211035" lon="12.0342491"><ele>466.00000000000006</ele><time>2026-05-03T07:48:43.777Z</time></trkpt><trkpt lat="43.2111061" lon="12.0342842"><ele>466.0</ele><time>2026-05-03T07:48:46.794Z</time></trkpt><trkpt lat="43.2111772" lon="12.0343139"><ele>466.0</ele><time>2026-05-03T07:48:49.785Z</time></trkpt><trkpt lat="43.2112472" lon="12.0343578"><ele>466.0</ele><time>2026-05-03T07:48:52.781Z</time></trkpt><trkpt lat="43.2113198" lon="12.0344347"><ele>466.00000000000006</ele><time>2026-05-03T07:48:55.777Z</time></trkpt><trkpt lat="43.2113849" lon="12.034505"><ele>466.0</ele><time>2026-05-03T07:48:58.772Z</time></trkpt><trkpt lat="43.2114636" lon="12.0345757"><ele>467.6666666666667</ele><time>2026-05-03T07:49:01.783Z</time></trkpt><trkpt lat="43.2115448" lon="12.034616"><ele>469.33333333333337</ele><time>2026-05-03T07:49:04.782Z</time></trkpt><trkpt lat="43.2116269" lon="12.0345956"><ele>471.0</ele><time>2026-05-03T07:49:06.781Z</time></trkpt><trkpt lat="43.2116931" lon="12.0345565"><ele>472.66666666666663</ele><time>2026-05-03T07:49:08.794Z</time></trkpt><trkpt lat="43.2117713" lon="12.03449"><ele>474.3333333333333</ele><time>2026-05-03T07:49:10.783Z</time></trkpt><trkpt lat="43.2118688" lon="12.034421"><ele>476.0</ele><time>2026-05-03T07:49:12.789Z</time></trkpt><trkpt lat="43.2119787" lon="12.034435"><ele>475.99999999999994</ele><time>2026-05-03T07:49:14.782Z</time></trkpt><trkpt lat="43.2120625" lon="12.0344886"><ele>476.0</ele><time>2026-05-03T07:49:16.782Z</time></trkpt><trkpt lat="43.2121292" lon="12.0345445"><ele>476.0</ele><time>2026-05-03T07:49:18.781Z</time></trkpt><trkpt lat="43.2121837" lon="12.0346189"><ele>476.0</ele><time>2026-05-03T07:49:20.777Z</time></trkpt><trkpt lat="43.2122303" lon="12.0347193"><ele>475.99999999999994</ele><time>2026-05-03T07:49:23.77Z</time></trkpt><trkpt lat="43.2122663" lon="12.0347909"><ele>476.0</ele><time>2026-05-03T07:49:25.78Z</time></trkpt><trkpt lat="43.2123128" lon="12.0348687"><ele>476.16666666666663</ele><time>2026-05-03T07:49:27.777Z</time></trkpt><trkpt lat="43.2123515" lon="12.0349598"><ele>476.3333333333333</ele><time>2026-05-03T07:49:29.778Z</time></trkpt><trkpt lat="43.2123983" lon="12.03505"><ele>476.5</ele><time>2026-05-03T07:49:31.78Z</time></trkpt><trkpt lat="43.2124536" lon="12.0351184"><ele>476.66666666666663</ele><time>2026-05-03T07:49:33.78Z</time></trkpt><trkpt lat="43.2125326" lon="12.0351736"><ele>476.8333333333333</ele><time>2026-05-03T07:49:35.778Z</time></trkpt><trkpt lat="43.2126206" lon="12.0352212"><ele>477.0</ele><time>2026-05-03T07:49:37.781Z</time></trkpt><trkpt lat="43.2127073" lon="12.035269"><ele>476.0</ele><time>2026-05-03T07:49:39.78Z</time></trkpt><trkpt lat="43.2127916" lon="12.0353441"><ele>475.00000000000006</ele><time>2026-05-03T07:49:41.867Z</time></trkpt><trkpt lat="43.2128843" lon="12.0354091"><ele>474.00000000000006</ele><time>2026-05-03T07:49:43.779Z</time></trkpt><trkpt lat="43.2129627" lon="12.035494"><ele>473.0</ele><time>2026-05-03T07:49:45.787Z</time></trkpt><trkpt lat="43.2130325" lon="12.0355566"><ele>472.0</ele><time>2026-05-03T07:49:47.778Z</time></trkpt><trkpt lat="43.2130996" lon="12.0356175"><ele>471.00000000000006</ele><time>2026-05-03T07:49:49.783Z</time></trkpt><trkpt lat="43.2131703" lon="12.0356534"><ele>470.0</ele><time>2026-05-03T07:49:51.78Z</time></trkpt><trkpt lat="43.2132417" lon="12.0357025"><ele>469.0</ele><time>2026-05-03T07:49:53.766Z</time></trkpt><trkpt lat="43.2133183" lon="12.0357536"><ele>468.0</ele><time>2026-05-03T07:49:55.768Z</time></trkpt><trkpt lat="43.2133837" lon="12.0358227"><ele>467.00000000000006</ele><time>2026-05-03T07:49:57.784Z</time></trkpt><trkpt lat="43.2134432" lon="12.0358743"><ele>466.0</ele><time>2026-05-03T07:49:59.766Z</time></trkpt><trkpt lat="43.2135235" lon="12.0358998"><ele>466.0</ele><time>2026-05-03T07:50:01.881Z</time></trkpt><trkpt lat="43.2135925" lon="12.0359089"><ele>466.0</ele><time>2026-05-03T07:50:03.781Z</time></trkpt><trkpt lat="43.2136771" lon="12.0358742"><ele>466.0</ele><time>2026-05-03T07:50:05.764Z</time></trkpt><trkpt lat="43.2137885" lon="12.0357991"><ele>466.0</ele><time>2026-05-03T07:50:07.779Z</time></trkpt><trkpt lat="43.2138931" lon="12.0357211"><ele>466.0</ele><time>2026-05-03T07:50:09.783Z</time></trkpt><trkpt lat="43.2139918" lon="12.0356348"><ele>466.00000000000006</ele><time>2026-05-03T07:50:11.77Z</time></trkpt><trkpt lat="43.2140439" lon="12.0355783"><ele>466.0</ele><time>2026-05-03T07:50:12.783Z</time></trkpt><trkpt lat="43.2140939" lon="12.0355138"><ele>466.0</ele><time>2026-05-03T07:50:13.788Z</time></trkpt><trkpt lat="43.2141538" lon="12.0354517"><ele>466.0</ele><time>2026-05-03T07:50:14.782Z</time></trkpt><trkpt lat="43.2142163" lon="12.0353887"><ele>466.00000000000006</ele><time>2026-05-03T07:50:15.78Z</time></trkpt><trkpt lat="43.2142887" lon="12.0352816"><ele>466.0</ele><time>2026-05-03T07:50:16.785Z</time></trkpt><trkpt lat="43.2143347" lon="12.0351836"><ele>466.0</ele><time>2026-05-03T07:50:17.778Z</time></trkpt><trkpt lat="43.2144069" lon="12.03509"><ele>466.0</ele><time>2026-05-03T07:50:18.78Z</time></trkpt><trkpt lat="43.214463" lon="12.0350237"><ele>466.0</ele><time>2026-05-03T07:50:19.784Z</time></trkpt><trkpt lat="43.2145279" lon="12.0349714"><ele>466.0</ele><time>2026-05-03T07:50:20.779Z</time></trkpt><trkpt lat="43.2146234" lon="12.0350274"><ele>466.0</ele><time>2026-05-03T07:50:22.78Z</time></trkpt><trkpt lat="43.2146279" lon="12.0351878"><ele>466.0</ele><time>2026-05-03T07:50:24.779Z</time></trkpt><trkpt lat="43.2146263" lon="12.0353036"><ele>466.0</ele><time>2026-05-03T07:50:25.781Z</time></trkpt><trkpt lat="43.214664" lon="12.0354906"><ele>466.0</ele><time>2026-05-03T07:50:27.781Z</time></trkpt><trkpt lat="43.2146849" lon="12.0356006"><ele>466.0</ele><time>2026-05-03T07:50:28.782Z</time></trkpt><trkpt lat="43.2147188" lon="12.0357143"><ele>466.0</ele><time>2026-05-03T07:50:29.781Z</time></trkpt><trkpt lat="43.214756" lon="12.0358208"><ele>464.6</ele><time>2026-05-03T07:50:30.883Z</time></trkpt><trkpt lat="43.2148043" lon="12.035936"><ele>463.20000000000005</ele><time>2026-05-03T07:50:31.784Z</time></trkpt><trkpt lat="43.2148584" lon="12.0360464"><ele>461.79999999999995</ele><time>2026-05-03T07:50:32.782Z</time></trkpt><trkpt lat="43.214921" lon="12.0361521"><ele>460.4</ele><time>2026-05-03T07:50:33.781Z</time></trkpt><trkpt lat="43.21498" lon="12.0362707"><ele>459.0</ele><time>2026-05-03T07:50:34.786Z</time></trkpt><trkpt lat="43.2150183" lon="12.0364065"><ele>459.0</ele><time>2026-05-03T07:50:35.78Z</time></trkpt><trkpt lat="43.2150699" lon="12.0365176"><ele>459.0</ele><time>2026-05-03T07:50:36.78Z</time></trkpt><trkpt lat="43.2151144" lon="12.0366383"><ele>459.0</ele><time>2026-05-03T07:50:37.78Z</time></trkpt><trkpt lat="43.215159" lon="12.0367465"><ele>459.0</ele><time>2026-05-03T07:50:38.781Z</time></trkpt><trkpt lat="43.2152008" lon="12.0368328"><ele>459.0</ele><time>2026-05-03T07:50:39.782Z</time></trkpt><trkpt lat="43.2152287" lon="12.036918"><ele>459.0</ele><time>2026-05-03T07:50:40.785Z</time></trkpt><trkpt lat="43.2152809" lon="12.0370624"><ele>457.0</ele><time>2026-05-03T07:50:42.784Z</time></trkpt><trkpt lat="43.2153106" lon="12.0371661"><ele>455.0</ele><time>2026-05-03T07:50:44.782Z</time></trkpt><trkpt lat="43.2153361" lon="12.0372626"><ele>453.0</ele><time>2026-05-03T07:50:46.78Z</time></trkpt><trkpt lat="43.2153901" lon="12.0373578"><ele>451.0</ele><time>2026-05-03T07:50:48.781Z</time></trkpt><trkpt lat="43.2155069" lon="12.0374417"><ele>449.0</ele><time>2026-05-03T07:50:50.764Z</time></trkpt><trkpt lat="43.215564" lon="12.0374951"><ele>447.0</ele><time>2026-05-03T07:50:51.767Z</time></trkpt><trkpt lat="43.2156334" lon="12.037532"><ele>446.8333333333333</ele><time>2026-05-03T07:50:52.764Z</time></trkpt><trkpt lat="43.2157024" lon="12.0375703"><ele>446.66666666666663</ele><time>2026-05-03T07:50:53.772Z</time></trkpt><trkpt lat="43.2157837" lon="12.0375934"><ele>446.5</ele><time>2026-05-03T07:50:54.782Z</time></trkpt><trkpt lat="43.2158546" lon="12.0376039"><ele>446.3333333333333</ele><time>2026-05-03T07:50:55.783Z</time></trkpt><trkpt lat="43.2159238" lon="12.0376071"><ele>446.16666666666663</ele><time>2026-05-03T07:50:56.785Z</time></trkpt><trkpt lat="43.2160286" lon="12.0376119"><ele>446.0</ele><time>2026-05-03T07:50:58.781Z</time></trkpt><trkpt lat="43.2161139" lon="12.0376224"><ele>445.99999999999994</ele><time>2026-05-03T07:51:00.782Z</time></trkpt><trkpt lat="43.2161942" lon="12.0376473"><ele>446.0</ele><time>2026-05-03T07:51:02.78Z</time></trkpt><trkpt lat="43.2162753" lon="12.0376571"><ele>446.0</ele><time>2026-05-03T07:51:04.769Z</time></trkpt><trkpt lat="43.2163479" lon="12.0376706"><ele>446.0</ele><time>2026-05-03T07:51:06.773Z</time></trkpt><trkpt lat="43.2164163" lon="12.0376684"><ele>445.99999999999994</ele><time>2026-05-03T07:51:08.782Z</time></trkpt><trkpt lat="43.2164865" lon="12.037659"><ele>446.0</ele><time>2026-05-03T07:51:10.78Z</time></trkpt><trkpt lat="43.2165606" lon="12.0376449"><ele>445.66666666666663</ele><time>2026-05-03T07:51:12.782Z</time></trkpt><trkpt lat="43.2166328" lon="12.0376176"><ele>445.3333333333333</ele><time>2026-05-03T07:51:14.779Z</time></trkpt><trkpt lat="43.2166982" lon="12.0375622"><ele>445.0</ele><time>2026-05-03T07:51:16.781Z</time></trkpt><trkpt lat="43.2167546" lon="12.0375002"><ele>444.66666666666663</ele><time>2026-05-03T07:51:18.78Z</time></trkpt><trkpt lat="43.2167961" lon="12.037422"><ele>444.3333333333333</ele><time>2026-05-03T07:51:20.785Z</time></trkpt><trkpt lat="43.2168427" lon="12.0372985"><ele>444.0</ele><time>2026-05-03T07:51:22.776Z</time></trkpt><trkpt lat="43.2169107" lon="12.0371887"><ele>446.0</ele><time>2026-05-03T07:51:24.781Z</time></trkpt><trkpt lat="43.2169761" lon="12.0370559"><ele>448.0</ele><time>2026-05-03T07:51:26.785Z</time></trkpt><trkpt lat="43.2170546" lon="12.0369132"><ele>450.0</ele><time>2026-05-03T07:51:28.778Z</time></trkpt><trkpt lat="43.2171042" lon="12.0367656"><ele>452.0</ele><time>2026-05-03T07:51:30.785Z</time></trkpt><trkpt lat="43.2171259" lon="12.0366061"><ele>452.0</ele><time>2026-05-03T07:51:32.766Z</time></trkpt><trkpt lat="43.2171345" lon="12.0365124"><ele>452.0</ele><time>2026-05-03T07:51:33.784Z</time></trkpt><trkpt lat="43.2171351" lon="12.0364231"><ele>452.0</ele><time>2026-05-03T07:51:34.777Z</time></trkpt><trkpt lat="43.21714" lon="12.0363336"><ele>452.0</ele><time>2026-05-03T07:51:35.781Z</time></trkpt><trkpt lat="43.2171336" lon="12.0362386"><ele>452.0</ele><time>2026-05-03T07:51:36.783Z</time></trkpt><trkpt lat="43.2171432" lon="12.0361514"><ele>452.0</ele><time>2026-05-03T07:51:37.783Z</time></trkpt><trkpt lat="43.2171493" lon="12.0360609"><ele>452.0</ele><time>2026-05-03T07:51:38.77Z</time></trkpt><trkpt lat="43.217171" lon="12.0359749"><ele>451.99999999999994</ele><time>2026-05-03T07:51:39.78Z</time></trkpt><trkpt lat="43.2171964" lon="12.0358908"><ele>452.0</ele><time>2026-05-03T07:51:40.873Z</time></trkpt><trkpt lat="43.2172246" lon="12.0358103"><ele>452.0</ele><time>2026-05-03T07:51:41.778Z</time></trkpt><trkpt lat="43.2172676" lon="12.0356932"><ele>452.0</ele><time>2026-05-03T07:51:43.78Z</time></trkpt><trkpt lat="43.2172184" lon="12.0355898"><ele>451.99999999999994</ele><time>2026-05-03T07:51:45.777Z</time></trkpt><trkpt lat="43.2171813" lon="12.0354655"><ele>452.0</ele><time>2026-05-03T07:51:47.779Z</time></trkpt><trkpt lat="43.2172391" lon="12.0353966"><ele>449.8333333333333</ele><time>2026-05-03T07:51:49.782Z</time></trkpt><trkpt lat="43.217313" lon="12.0353899"><ele>447.66666666666663</ele><time>2026-05-03T07:51:51.781Z</time></trkpt><trkpt lat="43.2173932" lon="12.0353901"><ele>445.5</ele><time>2026-05-03T07:51:53.767Z</time></trkpt><trkpt lat="43.2174672" lon="12.0353867"><ele>443.33333333333337</ele><time>2026-05-03T07:51:55.783Z</time></trkpt><trkpt lat="43.2175313" lon="12.0353836"><ele>441.1666666666667</ele><time>2026-05-03T07:51:57.782Z</time></trkpt><trkpt lat="43.217625" lon="12.0353986"><ele>439.0</ele><time>2026-05-03T07:52:00.782Z</time></trkpt><trkpt lat="43.2177192" lon="12.0354053"><ele>438.50000000000006</ele><time>2026-05-03T07:52:03.761Z</time></trkpt><trkpt lat="43.2178157" lon="12.0354173"><ele>438.0</ele><time>2026-05-03T07:52:06.768Z</time></trkpt><trkpt lat="43.2179026" lon="12.035412"><ele>437.5</ele><time>2026-05-03T07:52:09.775Z</time></trkpt><trkpt lat="43.2179888" lon="12.0354096"><ele>437.0</ele><time>2026-05-03T07:52:12.771Z</time></trkpt><trkpt lat="43.2180641" lon="12.0353934"><ele>436.50000000000006</ele><time>2026-05-03T07:52:15.78Z</time></trkpt><trkpt lat="43.2181409" lon="12.0354086"><ele>436.0</ele><time>2026-05-03T07:52:18.776Z</time></trkpt><trkpt lat="43.2182064" lon="12.0354478"><ele>439.6666666666667</ele><time>2026-05-03T07:52:21.782Z</time></trkpt><trkpt lat="43.2182593" lon="12.0353857"><ele>443.33333333333337</ele><time>2026-05-03T07:52:24.784Z</time></trkpt><trkpt lat="43.2182571" lon="12.0352727"><ele>447.0</ele><time>2026-05-03T07:52:27.78Z</time></trkpt><trkpt lat="43.2182385" lon="12.0351645"><ele>450.66666666666663</ele><time>2026-05-03T07:52:30.779Z</time></trkpt><trkpt lat="43.2182255" lon="12.035049"><ele>454.3333333333333</ele><time>2026-05-03T07:52:33.779Z</time></trkpt><trkpt lat="43.2182109" lon="12.0349397"><ele>458.0</ele><time>2026-05-03T07:52:36.782Z</time></trkpt><trkpt lat="43.2181973" lon="12.0348277"><ele>458.8333333333333</ele><time>2026-05-03T07:52:39.778Z</time></trkpt><trkpt lat="43.2181864" lon="12.0347125"><ele>459.66666666666663</ele><time>2026-05-03T07:52:42.78Z</time></trkpt><trkpt lat="43.2181726" lon="12.0345967"><ele>460.5</ele><time>2026-05-03T07:52:45.778Z</time></trkpt><trkpt lat="43.2181449" lon="12.0344846"><ele>461.33333333333337</ele><time>2026-05-03T07:52:48.78Z</time></trkpt><trkpt lat="43.2181393" lon="12.0343721"><ele>462.1666666666667</ele><time>2026-05-03T07:52:51.777Z</time></trkpt><trkpt lat="43.2181853" lon="12.0343031"><ele>463.0</ele><time>2026-05-03T07:52:54.785Z</time></trkpt><trkpt lat="43.2182515" lon="12.0343449"><ele>463.00000000000006</ele><time>2026-05-03T07:52:57.78Z</time></trkpt><trkpt lat="43.218284" lon="12.0344483"><ele>463.0</ele><time>2026-05-03T07:53:00.778Z</time></trkpt><trkpt lat="43.2183128" lon="12.0345328"><ele>463.0</ele><time>2026-05-03T07:53:03.876Z</time></trkpt><trkpt lat="43.2183576" lon="12.0346089"><ele>463.0</ele><time>2026-05-03T07:53:08.78Z</time></trkpt><trkpt lat="43.218385" lon="12.0347158"><ele>463.00000000000006</ele><time>2026-05-03T07:53:12.763Z</time></trkpt><trkpt lat="43.2184255" lon="12.0348097"><ele>463.0</ele><time>2026-05-03T07:53:15.768Z</time></trkpt><trkpt lat="43.218531" lon="12.0349886"><ele>462.1666666666667</ele><time>2026-05-03T07:53:17.774Z</time></trkpt><trkpt lat="43.2185846" lon="12.035079"><ele>461.33333333333337</ele><time>2026-05-03T07:53:20.781Z</time></trkpt><trkpt lat="43.218643" lon="12.0351656"><ele>460.5</ele><time>2026-05-03T07:53:23.782Z</time></trkpt><trkpt lat="43.2187028" lon="12.0352481"><ele>459.66666666666663</ele><time>2026-05-03T07:53:26.88Z</time></trkpt><trkpt lat="43.2187534" lon="12.0353178"><ele>458.8333333333333</ele><time>2026-05-03T07:53:29.784Z</time></trkpt><trkpt lat="43.2188177" lon="12.0353631"><ele>458.0</ele><time>2026-05-03T07:53:32.777Z</time></trkpt><trkpt lat="43.2188879" lon="12.0353959"><ele>457.99999999999994</ele><time>2026-05-03T07:53:35.781Z</time></trkpt><trkpt lat="43.2189647" lon="12.0353924"><ele>458.0</ele><time>2026-05-03T07:53:38.861Z</time></trkpt><trkpt lat="43.2190222" lon="12.035336"><ele>458.0</ele><time>2026-05-03T07:53:41.781Z</time></trkpt><trkpt lat="43.2190667" lon="12.0352519"><ele>458.0</ele><time>2026-05-03T07:53:44.78Z</time></trkpt><trkpt lat="43.219119" lon="12.0351569"><ele>457.99999999999994</ele><time>2026-05-03T07:53:47.781Z</time></trkpt><trkpt lat="43.2191771" lon="12.0350649"><ele>458.0</ele><time>2026-05-03T07:53:50.78Z</time></trkpt><trkpt lat="43.2192426" lon="12.0349913"><ele>460.8333333333333</ele><time>2026-05-03T07:53:53.78Z</time></trkpt><trkpt lat="43.2193147" lon="12.0349458"><ele>463.66666666666663</ele><time>2026-05-03T07:53:56.777Z</time></trkpt><trkpt lat="43.2193895" lon="12.0349378"><ele>466.5</ele><time>2026-05-03T07:53:59.781Z</time></trkpt><trkpt lat="43.2194796" lon="12.0349356"><ele>469.33333333333337</ele><time>2026-05-03T07:54:02.78Z</time></trkpt><trkpt lat="43.219568" lon="12.0349447"><ele>472.1666666666667</ele><time>2026-05-03T07:54:05.782Z</time></trkpt><trkpt lat="43.2196341" lon="12.034954"><ele>475.0</ele><time>2026-05-03T07:54:07.778Z</time></trkpt><trkpt lat="43.2197016" lon="12.0349645"><ele>474.83333333333337</ele><time>2026-05-03T07:54:09.78Z</time></trkpt><trkpt lat="43.2197735" lon="12.034975"><ele>474.6666666666667</ele><time>2026-05-03T07:54:11.784Z</time></trkpt><trkpt lat="43.2198507" lon="12.0349879"><ele>474.5</ele><time>2026-05-03T07:54:13.778Z</time></trkpt><trkpt lat="43.2199253" lon="12.0350062"><ele>474.33333333333337</ele><time>2026-05-03T07:54:15.777Z</time></trkpt><trkpt lat="43.2199924" lon="12.0350362"><ele>474.1666666666667</ele><time>2026-05-03T07:54:17.784Z</time></trkpt><trkpt lat="43.220061" lon="12.0350712"><ele>474.0</ele><time>2026-05-03T07:54:19.778Z</time></trkpt><trkpt lat="43.2201384" lon="12.0351002"><ele>474.0</ele><time>2026-05-03T07:54:21.78Z</time></trkpt><trkpt lat="43.2202156" lon="12.0351348"><ele>474.0</ele><time>2026-05-03T07:54:23.775Z</time></trkpt><trkpt lat="43.2202977" lon="12.0351614"><ele>474.0</ele><time>2026-05-03T07:54:25.777Z</time></trkpt><trkpt lat="43.2203741" lon="12.035193"><ele>474.0</ele><time>2026-05-03T07:54:27.781Z</time></trkpt><trkpt lat="43.2204518" lon="12.0352172"><ele>474.0</ele><time>2026-05-03T07:54:29.785Z</time></trkpt><trkpt lat="43.2205316" lon="12.0352302"><ele>474.0</ele><time>2026-05-03T07:54:31.78Z</time></trkpt><trkpt lat="43.2206112" lon="12.0352475"><ele>475.1666666666667</ele><time>2026-05-03T07:54:33.788Z</time></trkpt><trkpt lat="43.2206808" lon="12.0352716"><ele>476.33333333333337</ele><time>2026-05-03T07:54:35.783Z</time></trkpt><trkpt lat="43.2207481" lon="12.0353105"><ele>477.5</ele><time>2026-05-03T07:54:37.78Z</time></trkpt><trkpt lat="43.2208139" lon="12.0353566"><ele>478.6666666666667</ele><time>2026-05-03T07:54:39.78Z</time></trkpt><trkpt lat="43.2208824" lon="12.0353965"><ele>479.83333333333337</ele><time>2026-05-03T07:54:41.789Z</time></trkpt><trkpt lat="43.2209562" lon="12.0354282"><ele>481.0</ele><time>2026-05-03T07:54:43.78Z</time></trkpt><trkpt lat="43.2210421" lon="12.035455"><ele>481.00000000000006</ele><time>2026-05-03T07:54:45.782Z</time></trkpt><trkpt lat="43.2211281" lon="12.0354892"><ele>481.0</ele><time>2026-05-03T07:54:47.78Z</time></trkpt><trkpt lat="43.2212109" lon="12.0355553"><ele>481.0</ele><time>2026-05-03T07:54:49.778Z</time></trkpt><trkpt lat="43.2212803" lon="12.0356468"><ele>481.0</ele><time>2026-05-03T07:54:51.783Z</time></trkpt><trkpt lat="43.2213381" lon="12.0357272"><ele>481.00000000000006</ele><time>2026-05-03T07:54:53.786Z</time></trkpt><trkpt lat="43.2214021" lon="12.0358041"><ele>481.0</ele><time>2026-05-03T07:54:55.781Z</time></trkpt><trkpt lat="43.2214792" lon="12.0358786"><ele>480.0</ele><time>2026-05-03T07:54:57.78Z</time></trkpt><trkpt lat="43.2215713" lon="12.0359068"><ele>479.0</ele><time>2026-05-03T07:54:59.786Z</time></trkpt><trkpt lat="43.2216628" lon="12.0359308"><ele>478.0</ele><time>2026-05-03T07:55:01.783Z</time></trkpt><trkpt lat="43.2217529" lon="12.035953"><ele>477.0</ele><time>2026-05-03T07:55:03.781Z</time></trkpt><trkpt lat="43.2218514" lon="12.0359683"><ele>476.0</ele><time>2026-05-03T07:55:05.793Z</time></trkpt><trkpt lat="43.221963" lon="12.0360149"><ele>475.99999999999994</ele><time>2026-05-03T07:55:07.783Z</time></trkpt><trkpt lat="43.2220833" lon="12.0360584"><ele>476.0</ele><time>2026-05-03T07:55:09.881Z</time></trkpt><trkpt lat="43.2221453" lon="12.0360782"><ele>476.0</ele><time>2026-05-03T07:55:10.786Z</time></trkpt><trkpt lat="43.2222052" lon="12.0361086"><ele>476.0</ele><time>2026-05-03T07:55:11.783Z</time></trkpt><trkpt lat="43.2222633" lon="12.0361455"><ele>475.99999999999994</ele><time>2026-05-03T07:55:12.78Z</time></trkpt><trkpt lat="43.2223277" lon="12.0361615"><ele>476.0</ele><time>2026-05-03T07:55:13.772Z</time></trkpt><trkpt lat="43.2223922" lon="12.0361925"><ele>475.20000000000005</ele><time>2026-05-03T07:55:14.781Z</time></trkpt><trkpt lat="43.2224539" lon="12.0362182"><ele>474.40000000000003</ele><time>2026-05-03T07:55:15.774Z</time></trkpt><trkpt lat="43.2225705" lon="12.0362333"><ele>473.6</ele><time>2026-05-03T07:55:17.78Z</time></trkpt><trkpt lat="43.2226307" lon="12.0362603"><ele>472.8</ele><time>2026-05-03T07:55:18.771Z</time></trkpt><trkpt lat="43.2227315" lon="12.036303"><ele>472.0</ele><time>2026-05-03T07:55:20.778Z</time></trkpt><trkpt lat="43.2228343" lon="12.0363403"><ele>472.0</ele><time>2026-05-03T07:55:22.781Z</time></trkpt><trkpt lat="43.2229296" lon="12.0363844"><ele>472.00000000000006</ele><time>2026-05-03T07:55:24.78Z</time></trkpt><trkpt lat="43.2230226" lon="12.0364219"><ele>472.00000000000006</ele><time>2026-05-03T07:55:26.779Z</time></trkpt><trkpt lat="43.22311" lon="12.0364656"><ele>472.0</ele><time>2026-05-03T07:55:28.782Z</time></trkpt><trkpt lat="43.2232148" lon="12.0364978"><ele>472.0</ele><time>2026-05-03T07:55:30.764Z</time></trkpt><trkpt lat="43.2233013" lon="12.0365371"><ele>472.20000000000005</ele><time>2026-05-03T07:55:32.774Z</time></trkpt><trkpt lat="43.2233631" lon="12.0365867"><ele>472.40000000000003</ele><time>2026-05-03T07:55:34.777Z</time></trkpt><trkpt lat="43.2234426" lon="12.0366665"><ele>472.59999999999997</ele><time>2026-05-03T07:55:36.777Z</time></trkpt><trkpt lat="43.2235334" lon="12.0367418"><ele>472.79999999999995</ele><time>2026-05-03T07:55:38.772Z</time></trkpt><trkpt lat="43.2236254" lon="12.0368155"><ele>473.0</ele><time>2026-05-03T07:55:40.778Z</time></trkpt><trkpt lat="43.2237211" lon="12.0368693"><ele>472.99999999999994</ele><time>2026-05-03T07:55:42.782Z</time></trkpt><trkpt lat="43.2237845" lon="12.0368707"><ele>473.0</ele><time>2026-05-03T07:55:43.787Z</time></trkpt><trkpt lat="43.2239068" lon="12.0368736"><ele>473.0</ele><time>2026-05-03T07:55:45.778Z</time></trkpt><trkpt lat="43.2239709" lon="12.0368747"><ele>473.0</ele><time>2026-05-03T07:55:46.779Z</time></trkpt><trkpt lat="43.2240419" lon="12.0368817"><ele>472.99999999999994</ele><time>2026-05-03T07:55:47.777Z</time></trkpt><trkpt lat="43.2241024" lon="12.0369162"><ele>473.0</ele><time>2026-05-03T07:55:48.78Z</time></trkpt><trkpt lat="43.2241595" lon="12.0369592"><ele>472.75</ele><time>2026-05-03T07:55:49.782Z</time></trkpt><trkpt lat="43.2243132" lon="12.0370772"><ele>472.5</ele><time>2026-05-03T07:55:52.774Z</time></trkpt><trkpt lat="43.2243751" lon="12.0370948"><ele>472.25</ele><time>2026-05-03T07:55:53.781Z</time></trkpt><trkpt lat="43.2244845" lon="12.0371292"><ele>472.0</ele><time>2026-05-03T07:55:55.78Z</time></trkpt><trkpt lat="43.2245996" lon="12.0371142"><ele>472.00000000000006</ele><time>2026-05-03T07:55:57.79Z</time></trkpt><trkpt lat="43.224666" lon="12.0370826"><ele>472.0</ele><time>2026-05-03T07:55:58.781Z</time></trkpt><trkpt lat="43.2247776" lon="12.0370172"><ele>472.0</ele><time>2026-05-03T07:56:00.777Z</time></trkpt><trkpt lat="43.2248345" lon="12.0369651"><ele>472.0</ele><time>2026-05-03T07:56:01.776Z</time></trkpt><trkpt lat="43.2248806" lon="12.0369033"><ele>472.00000000000006</ele><time>2026-05-03T07:56:02.774Z</time></trkpt><trkpt lat="43.2249321" lon="12.0368204"><ele>472.0</ele><time>2026-05-03T07:56:03.782Z</time></trkpt><trkpt lat="43.2249811" lon="12.0367458"><ele>471.00000000000006</ele><time>2026-05-03T07:56:04.781Z</time></trkpt><trkpt lat="43.2250373" lon="12.0366672"><ele>470.0</ele><time>2026-05-03T07:56:05.78Z</time></trkpt><trkpt lat="43.2250892" lon="12.0365877"><ele>469.0</ele><time>2026-05-03T07:56:06.789Z</time></trkpt><trkpt lat="43.2251401" lon="12.036523"><ele>468.0</ele><time>2026-05-03T07:56:07.785Z</time></trkpt><trkpt lat="43.2251975" lon="12.0364534"><ele>467.00000000000006</ele><time>2026-05-03T07:56:08.781Z</time></trkpt><trkpt lat="43.2252601" lon="12.0363851"><ele>466.0</ele><time>2026-05-03T07:56:09.78Z</time></trkpt><trkpt lat="43.2253575" lon="12.0362819"><ele>465.6666666666667</ele><time>2026-05-03T07:56:11.782Z</time></trkpt><trkpt lat="43.2254289" lon="12.0361892"><ele>465.33333333333337</ele><time>2026-05-03T07:56:13.773Z</time></trkpt><trkpt lat="43.2254626" lon="12.0360977"><ele>465.0</ele><time>2026-05-03T07:56:15.777Z</time></trkpt><trkpt lat="43.2254868" lon="12.0359666"><ele>464.66666666666663</ele><time>2026-05-03T07:56:18.78Z</time></trkpt><trkpt lat="43.2255084" lon="12.0358715"><ele>464.3333333333333</ele><time>2026-05-03T07:56:20.782Z</time></trkpt><trkpt lat="43.225534" lon="12.0357758"><ele>464.0</ele><time>2026-05-03T07:56:22.784Z</time></trkpt><trkpt lat="43.2255624" lon="12.0356853"><ele>462.99999999999994</ele><time>2026-05-03T07:56:24.783Z</time></trkpt><trkpt lat="43.225571" lon="12.0355731"><ele>462.0</ele><time>2026-05-03T07:56:26.78Z</time></trkpt><trkpt lat="43.2255794" lon="12.0354623"><ele>461.0</ele><time>2026-05-03T07:56:28.783Z</time></trkpt><trkpt lat="43.2256017" lon="12.0353598"><ele>460.0</ele><time>2026-05-03T07:56:30.771Z</time></trkpt><trkpt lat="43.2256283" lon="12.0352694"><ele>458.99999999999994</ele><time>2026-05-03T07:56:32.763Z</time></trkpt><trkpt lat="43.2256653" lon="12.0351862"><ele>458.0</ele><time>2026-05-03T07:56:34.78Z</time></trkpt><trkpt lat="43.2256937" lon="12.0350976"><ele>461.66666666666663</ele><time>2026-05-03T07:56:36.776Z</time></trkpt><trkpt lat="43.2257129" lon="12.0349662"><ele>465.3333333333333</ele><time>2026-05-03T07:56:39.781Z</time></trkpt><trkpt lat="43.2257113" lon="12.0348748"><ele>469.0</ele><time>2026-05-03T07:56:41.776Z</time></trkpt><trkpt lat="43.2256963" lon="12.0347821"><ele>472.66666666666663</ele><time>2026-05-03T07:56:43.876Z</time></trkpt><trkpt lat="43.2256869" lon="12.0346875"><ele>476.3333333333333</ele><time>2026-05-03T07:56:45.769Z</time></trkpt><trkpt lat="43.2256933" lon="12.0345989"><ele>480.0</ele><time>2026-05-03T07:56:47.768Z</time></trkpt><trkpt lat="43.225713" lon="12.0344764"><ele>480.0</ele><time>2026-05-03T07:56:50.783Z</time></trkpt><trkpt lat="43.2257482" lon="12.0343955"><ele>480.0</ele><time>2026-05-03T07:56:52.763Z</time></trkpt><trkpt lat="43.2257885" lon="12.0343269"><ele>480.0</ele><time>2026-05-03T07:56:54.753Z</time></trkpt><trkpt lat="43.2258673" lon="12.0342671"><ele>480.0</ele><time>2026-05-03T07:56:57.763Z</time></trkpt><trkpt lat="43.2259471" lon="12.0342243"><ele>480.0</ele><time>2026-05-03T07:57:00.761Z</time></trkpt><trkpt lat="43.2260192" lon="12.0341997"><ele>480.0</ele><time>2026-05-03T07:57:03.77Z</time></trkpt><trkpt lat="43.2260687" lon="12.034137"><ele>479.1666666666667</ele><time>2026-05-03T07:57:06.772Z</time></trkpt><trkpt lat="43.2261131" lon="12.0340718"><ele>478.33333333333337</ele><time>2026-05-03T07:57:09.784Z</time></trkpt><trkpt lat="43.2261702" lon="12.0340058"><ele>477.5</ele><time>2026-05-03T07:57:12.86Z</time></trkpt><trkpt lat="43.2262273" lon="12.0339375"><ele>476.6666666666667</ele><time>2026-05-03T07:57:15.776Z</time></trkpt><trkpt lat="43.2263096" lon="12.0338735"><ele>475.83333333333337</ele><time>2026-05-03T07:57:18.77Z</time></trkpt><trkpt lat="43.2263875" lon="12.0338501"><ele>475.0</ele><time>2026-05-03T07:57:20.779Z</time></trkpt><trkpt lat="43.2264512" lon="12.0338358"><ele>476.50000000000006</ele><time>2026-05-03T07:57:22.78Z</time></trkpt><trkpt lat="43.2265192" lon="12.0337711"><ele>478.0</ele><time>2026-05-03T07:57:25.782Z</time></trkpt><trkpt lat="43.2265822" lon="12.0336919"><ele>479.5</ele><time>2026-05-03T07:57:28.78Z</time></trkpt><trkpt lat="43.2266549" lon="12.0336242"><ele>481.0</ele><time>2026-05-03T07:57:31.783Z</time></trkpt><trkpt lat="43.2267226" lon="12.0335616"><ele>482.50000000000006</ele><time>2026-05-03T07:57:34.78Z</time></trkpt><trkpt lat="43.2268115" lon="12.0335178"><ele>484.0</ele><time>2026-05-03T07:57:37.786Z</time></trkpt><trkpt lat="43.2268929" lon="12.0335266"><ele>484.00000000000006</ele><time>2026-05-03T07:57:40.777Z</time></trkpt><trkpt lat="43.2269202" lon="12.0336274"><ele>484.0</ele><time>2026-05-03T07:57:43.78Z</time></trkpt><trkpt lat="43.226859" lon="12.0337261"><ele>484.0</ele><time>2026-05-03T07:57:46.781Z</time></trkpt><trkpt lat="43.2268025" lon="12.0337647"><ele>484.0</ele><time>2026-05-03T07:57:48.778Z</time></trkpt><trkpt lat="43.2267263" lon="12.0338201"><ele>484.00000000000006</ele><time>2026-05-03T07:57:51.778Z</time></trkpt><trkpt lat="43.2266711" lon="12.033894"><ele>484.0</ele><time>2026-05-03T07:57:54.778Z</time></trkpt><trkpt lat="43.2266455" lon="12.0339871"><ele>484.00000000000006</ele><time>2026-05-03T07:57:57.771Z</time></trkpt><trkpt lat="43.226684" lon="12.034079"><ele>484.0</ele><time>2026-05-03T07:58:00.874Z</time></trkpt><trkpt lat="43.2267721" lon="12.0340646"><ele>484.0</ele><time>2026-05-03T07:58:03.784Z</time></trkpt><trkpt lat="43.2268528" lon="12.0340094"><ele>484.0</ele><time>2026-05-03T07:58:06.779Z</time></trkpt><trkpt lat="43.2269354" lon="12.0339605"><ele>484.00000000000006</ele><time>2026-05-03T07:58:09.782Z</time></trkpt><trkpt lat="43.2270201" lon="12.03394"><ele>484.0</ele><time>2026-05-03T07:58:12.779Z</time></trkpt><trkpt lat="43.2270965" lon="12.0339479"><ele>484.0</ele><time>2026-05-03T07:58:15.783Z</time></trkpt><trkpt lat="43.2271684" lon="12.0339553"><ele>483.99999999999994</ele><time>2026-05-03T07:58:18.779Z</time></trkpt><trkpt lat="43.2272362" lon="12.0339578"><ele>484.0</ele><time>2026-05-03T07:58:20.78Z</time></trkpt><trkpt lat="43.2273082" lon="12.0339513"><ele>484.0</ele><time>2026-05-03T07:58:23.781Z</time></trkpt><trkpt lat="43.2273777" lon="12.0339552"><ele>483.99999999999994</ele><time>2026-05-03T07:58:27.764Z</time></trkpt><trkpt lat="43.2274477" lon="12.0339986"><ele>484.0</ele><time>2026-05-03T07:58:31.782Z</time></trkpt><trkpt lat="43.2275369" lon="12.0340132"><ele>484.0</ele><time>2026-05-03T07:58:34.78Z</time></trkpt><trkpt lat="43.2276076" lon="12.034009"><ele>484.85714285714283</ele><time>2026-05-03T07:58:36.881Z</time></trkpt><trkpt lat="43.2276737" lon="12.0340108"><ele>485.71428571428567</ele><time>2026-05-03T07:58:38.766Z</time></trkpt><trkpt lat="43.2277394" lon="12.0340252"><ele>486.57142857142856</ele><time>2026-05-03T07:58:40.782Z</time></trkpt><trkpt lat="43.2278034" lon="12.0340322"><ele>487.42857142857144</ele><time>2026-05-03T07:58:42.776Z</time></trkpt><trkpt lat="43.2278696" lon="12.0340386"><ele>488.2857142857143</ele><time>2026-05-03T07:58:44.781Z</time></trkpt><trkpt lat="43.2279318" lon="12.034057"><ele>489.1428571428571</ele><time>2026-05-03T07:58:46.783Z</time></trkpt><trkpt lat="43.2279956" lon="12.0340736"><ele>490.0</ele><time>2026-05-03T07:58:48.887Z</time></trkpt><trkpt lat="43.2280787" lon="12.0340878"><ele>491.6666666666667</ele><time>2026-05-03T07:58:51.78Z</time></trkpt><trkpt lat="43.2281687" lon="12.0340856"><ele>493.33333333333337</ele><time>2026-05-03T07:58:54.767Z</time></trkpt><trkpt lat="43.2282527" lon="12.0340861"><ele>495.0</ele><time>2026-05-03T07:58:57.781Z</time></trkpt><trkpt lat="43.2283393" lon="12.0341243"><ele>496.66666666666663</ele><time>2026-05-03T07:59:00.881Z</time></trkpt><trkpt lat="43.2284252" lon="12.0341384"><ele>498.3333333333333</ele><time>2026-05-03T07:59:02.781Z</time></trkpt><trkpt lat="43.228488" lon="12.0341509"><ele>500.0</ele><time>2026-05-03T07:59:04.781Z</time></trkpt><trkpt lat="43.2285748" lon="12.0341687"><ele>503.16666666666663</ele><time>2026-05-03T07:59:07.782Z</time></trkpt><trkpt lat="43.2286564" lon="12.0341873"><ele>506.3333333333333</ele><time>2026-05-03T07:59:10.781Z</time></trkpt><trkpt lat="43.2287413" lon="12.0341803"><ele>509.5</ele><time>2026-05-03T07:59:13.781Z</time></trkpt><trkpt lat="43.2288244" lon="12.0341826"><ele>512.6666666666666</ele><time>2026-05-03T07:59:16.783Z</time></trkpt><trkpt lat="43.2289028" lon="12.0341971"><ele>515.8333333333334</ele><time>2026-05-03T07:59:19.782Z</time></trkpt><trkpt lat="43.2289736" lon="12.0342441"><ele>519.0</ele><time>2026-05-03T07:59:22.781Z</time></trkpt><trkpt lat="43.2290599" lon="12.0342716"><ele>519.8333333333334</ele><time>2026-05-03T07:59:25.779Z</time></trkpt><trkpt lat="43.2291227" lon="12.0342783"><ele>520.6666666666666</ele><time>2026-05-03T07:59:27.782Z</time></trkpt><trkpt lat="43.2291908" lon="12.0342609"><ele>521.5</ele><time>2026-05-03T07:59:29.784Z</time></trkpt><trkpt lat="43.2292568" lon="12.0341734"><ele>522.3333333333333</ele><time>2026-05-03T07:59:32.781Z</time></trkpt><trkpt lat="43.2292734" lon="12.0340447"><ele>523.1666666666666</ele><time>2026-05-03T07:59:35.784Z</time></trkpt><trkpt lat="43.2292782" lon="12.0339169"><ele>524.0</ele><time>2026-05-03T07:59:38.781Z</time></trkpt><trkpt lat="43.229287" lon="12.0337923"><ele>524.0</ele><time>2026-05-03T07:59:41.782Z</time></trkpt><trkpt lat="43.2292955" lon="12.0336723"><ele>524.0</ele><time>2026-05-03T07:59:44.784Z</time></trkpt><trkpt lat="43.229301" lon="12.033549"><ele>524.0</ele><time>2026-05-03T07:59:47.784Z</time></trkpt><trkpt lat="43.2293056" lon="12.0334294"><ele>524.0</ele><time>2026-05-03T07:59:50.787Z</time></trkpt><trkpt lat="43.2293089" lon="12.0333078"><ele>524.0</ele><time>2026-05-03T07:59:53.782Z</time></trkpt><trkpt lat="43.2293072" lon="12.0332139"><ele>524.0</ele><time>2026-05-03T07:59:55.876Z</time></trkpt><trkpt lat="43.2293095" lon="12.0331265"><ele>524.0</ele><time>2026-05-03T07:59:57.785Z</time></trkpt><trkpt lat="43.2293757" lon="12.033134"><ele>524.0</ele><time>2026-05-03T08:00:02.781Z</time></trkpt><trkpt lat="43.2293807" lon="12.0332413"><ele>524.0</ele><time>2026-05-03T08:00:05.784Z</time></trkpt><trkpt lat="43.2294158" lon="12.0333595"><ele>524.0</ele><time>2026-05-03T08:00:08.782Z</time></trkpt><trkpt lat="43.2294654" lon="12.0334658"><ele>524.0</ele><time>2026-05-03T08:00:11.782Z</time></trkpt><trkpt lat="43.229508" lon="12.0335697"><ele>524.0</ele><time>2026-05-03T08:00:14.788Z</time></trkpt><trkpt lat="43.2295446" lon="12.0336877"><ele>524.0</ele><time>2026-05-03T08:00:17.781Z</time></trkpt><trkpt lat="43.2295764" lon="12.0338068"><ele>524.0</ele><time>2026-05-03T08:00:20.78Z</time></trkpt><trkpt lat="43.2296039" lon="12.0338873"><ele>524.0</ele><time>2026-05-03T08:00:22.779Z</time></trkpt><trkpt lat="43.2296449" lon="12.0339622"><ele>524.0</ele><time>2026-05-03T08:00:24.781Z</time></trkpt><trkpt lat="43.2296949" lon="12.0340398"><ele>524.0</ele><time>2026-05-03T08:00:26.781Z</time></trkpt><trkpt lat="43.2297375" lon="12.0341278"><ele>524.0</ele><time>2026-05-03T08:00:28.782Z</time></trkpt><trkpt lat="43.229767" lon="12.0342255"><ele>524.6666666666666</ele><time>2026-05-03T08:00:30.778Z</time></trkpt><trkpt lat="43.2297806" lon="12.0343173"><ele>525.3333333333333</ele><time>2026-05-03T08:00:32.78Z</time></trkpt><trkpt lat="43.2297949" lon="12.0344075"><ele>526.0</ele><time>2026-05-03T08:00:34.78Z</time></trkpt><trkpt lat="43.2298125" lon="12.0345314"><ele>526.6666666666666</ele><time>2026-05-03T08:00:37.781Z</time></trkpt><trkpt lat="43.2297625" lon="12.0346373"><ele>527.3333333333334</ele><time>2026-05-03T08:00:40.779Z</time></trkpt><trkpt lat="43.2297007" lon="12.0346876"><ele>528.0</ele><time>2026-05-03T08:00:42.784Z</time></trkpt><trkpt lat="43.229631" lon="12.0346889"><ele>528.0</ele><time>2026-05-03T08:00:44.782Z</time></trkpt><trkpt lat="43.2295596" lon="12.0346729"><ele>528.0</ele><time>2026-05-03T08:00:46.781Z</time></trkpt><trkpt lat="43.2294953" lon="12.034647"><ele>528.0</ele><time>2026-05-03T08:00:48.786Z</time></trkpt><trkpt lat="43.2294233" lon="12.0346341"><ele>528.0</ele><time>2026-05-03T08:00:50.784Z</time></trkpt><trkpt lat="43.2293563" lon="12.0346359"><ele>528.0</ele><time>2026-05-03T08:00:52.787Z</time></trkpt><trkpt lat="43.2292716" lon="12.034636"><ele>528.0</ele><time>2026-05-03T08:00:55.781Z</time></trkpt><trkpt lat="43.2291884" lon="12.0346468"><ele>528.0</ele><time>2026-05-03T08:00:58.778Z</time></trkpt><trkpt lat="43.2291051" lon="12.0346629"><ele>528.0</ele><time>2026-05-03T08:01:01.764Z</time></trkpt><trkpt lat="43.2290273" lon="12.0347028"><ele>528.0</ele><time>2026-05-03T08:01:04.811Z</time></trkpt><trkpt lat="43.2289569" lon="12.0347625"><ele>528.0</ele><time>2026-05-03T08:01:07.78Z</time></trkpt><trkpt lat="43.2288789" lon="12.0348068"><ele>528.0</ele><time>2026-05-03T08:01:10.764Z</time></trkpt><trkpt lat="43.2288078" lon="12.0348637"><ele>528.0</ele><time>2026-05-03T08:01:13.768Z</time></trkpt><trkpt lat="43.2287353" lon="12.0349265"><ele>528.0</ele><time>2026-05-03T08:01:16.884Z</time></trkpt><trkpt lat="43.2286727" lon="12.0349939"><ele>530.0</ele><time>2026-05-03T08:01:19.776Z</time></trkpt><trkpt lat="43.2286038" lon="12.035051"><ele>532.0</ele><time>2026-05-03T08:01:22.78Z</time></trkpt><trkpt lat="43.2285367" lon="12.0350993"><ele>534.0</ele><time>2026-05-03T08:01:25.779Z</time></trkpt><trkpt lat="43.2284709" lon="12.0351504"><ele>536.0</ele><time>2026-05-03T08:01:28.786Z</time></trkpt><trkpt lat="43.2284441" lon="12.035252"><ele>538.0</ele><time>2026-05-03T08:01:31.767Z</time></trkpt><trkpt lat="43.2284001" lon="12.0353503"><ele>540.0</ele><time>2026-05-03T08:01:34.769Z</time></trkpt><trkpt lat="43.228343" lon="12.0354273"><ele>540.0</ele><time>2026-05-03T08:01:37.763Z</time></trkpt><trkpt lat="43.2282811" lon="12.0355128"><ele>540.0</ele><time>2026-05-03T08:01:40.77Z</time></trkpt><trkpt lat="43.2282423" lon="12.0356248"><ele>540.0</ele><time>2026-05-03T08:01:43.765Z</time></trkpt><trkpt lat="43.2281883" lon="12.0357268"><ele>540.0</ele><time>2026-05-03T08:01:46.782Z</time></trkpt><trkpt lat="43.2281571" lon="12.0358055"><ele>540.0</ele><time>2026-05-03T08:01:48.78Z</time></trkpt><trkpt lat="43.2281195" lon="12.0358885"><ele>540.0</ele><time>2026-05-03T08:01:50.766Z</time></trkpt><trkpt lat="43.2280913" lon="12.0359888"><ele>538.2</ele><time>2026-05-03T08:01:52.78Z</time></trkpt><trkpt lat="43.2280766" lon="12.0360973"><ele>536.4</ele><time>2026-05-03T08:01:54.769Z</time></trkpt><trkpt lat="43.2280612" lon="12.0362134"><ele>534.6</ele><time>2026-05-03T08:01:56.882Z</time></trkpt><trkpt lat="43.2280419" lon="12.036334"><ele>532.8</ele><time>2026-05-03T08:01:58.781Z</time></trkpt><trkpt lat="43.2280332" lon="12.0364694"><ele>531.0</ele><time>2026-05-03T08:02:00.774Z</time></trkpt><trkpt lat="43.2280222" lon="12.0366107"><ele>530.8</ele><time>2026-05-03T08:02:02.76Z</time></trkpt><trkpt lat="43.2280203" lon="12.036754"><ele>530.6</ele><time>2026-05-03T08:02:04.763Z</time></trkpt><trkpt lat="43.2280157" lon="12.0369066"><ele>530.4</ele><time>2026-05-03T08:02:06.763Z</time></trkpt><trkpt lat="43.2280261" lon="12.0370657"><ele>530.2</ele><time>2026-05-03T08:02:08.762Z</time></trkpt><trkpt lat="43.2280482" lon="12.0372199"><ele>530.0</ele><time>2026-05-03T08:02:10.763Z</time></trkpt><trkpt lat="43.22809" lon="12.037379"><ele>529.0</ele><time>2026-05-03T08:02:12.772Z</time></trkpt><trkpt lat="43.2281404" lon="12.0375248"><ele>528.0</ele><time>2026-05-03T08:02:14.871Z</time></trkpt><trkpt lat="43.2281938" lon="12.0376545"><ele>527.0</ele><time>2026-05-03T08:02:16.767Z</time></trkpt><trkpt lat="43.2282476" lon="12.0378007"><ele>526.0</ele><time>2026-05-03T08:02:18.785Z</time></trkpt><trkpt lat="43.2283105" lon="12.0379472"><ele>528.8</ele><time>2026-05-03T08:02:20.776Z</time></trkpt><trkpt lat="43.228337" lon="12.0381033"><ele>531.6</ele><time>2026-05-03T08:02:22.785Z</time></trkpt><trkpt lat="43.2283451" lon="12.0381902"><ele>534.4</ele><time>2026-05-03T08:02:23.769Z</time></trkpt><trkpt lat="43.2283492" lon="12.0382853"><ele>537.2</ele><time>2026-05-03T08:02:24.782Z</time></trkpt><trkpt lat="43.2283496" lon="12.0384559"><ele>540.0</ele><time>2026-05-03T08:02:26.779Z</time></trkpt><trkpt lat="43.2283414" lon="12.0386171"><ele>540.0</ele><time>2026-05-03T08:02:28.778Z</time></trkpt><trkpt lat="43.2283331" lon="12.0387704"><ele>540.0</ele><time>2026-05-03T08:02:30.785Z</time></trkpt><trkpt lat="43.2283296" lon="12.0389169"><ele>540.0</ele><time>2026-05-03T08:02:32.774Z</time></trkpt><trkpt lat="43.2283108" lon="12.0390551"><ele>540.0</ele><time>2026-05-03T08:02:34.776Z</time></trkpt><trkpt lat="43.2283158" lon="12.0392023"><ele>540.0</ele><time>2026-05-03T08:02:36.78Z</time></trkpt><trkpt lat="43.2283363" lon="12.0393455"><ele>539.8</ele><time>2026-05-03T08:02:38.781Z</time></trkpt><trkpt lat="43.2283734" lon="12.0394796"><ele>539.6</ele><time>2026-05-03T08:02:40.776Z</time></trkpt><trkpt lat="43.2284262" lon="12.0395929"><ele>539.4</ele><time>2026-05-03T08:02:42.786Z</time></trkpt><trkpt lat="43.228478" lon="12.0397226"><ele>539.2</ele><time>2026-05-03T08:02:44.771Z</time></trkpt><trkpt lat="43.2285325" lon="12.0398575"><ele>539.0</ele><time>2026-05-03T08:02:46.789Z</time></trkpt><trkpt lat="43.2285737" lon="12.0399725"><ele>539.3333333333333</ele><time>2026-05-03T08:02:48.774Z</time></trkpt><trkpt lat="43.2286012" lon="12.040084"><ele>539.6666666666666</ele><time>2026-05-03T08:02:50.771Z</time></trkpt><trkpt lat="43.2286099" lon="12.040178"><ele>540.0</ele><time>2026-05-03T08:02:52.774Z</time></trkpt><trkpt lat="43.2286368" lon="12.0402659"><ele>540.3333333333334</ele><time>2026-05-03T08:02:54.775Z</time></trkpt><trkpt lat="43.228643" lon="12.0403693"><ele>540.6666666666667</ele><time>2026-05-03T08:02:56.781Z</time></trkpt><trkpt lat="43.2286523" lon="12.0404778"><ele>541.0</ele><time>2026-05-03T08:02:58.775Z</time></trkpt><trkpt lat="43.2286738" lon="12.0405982"><ele>541.0</ele><time>2026-05-03T08:03:00.779Z</time></trkpt><trkpt lat="43.2287192" lon="12.0407315"><ele>541.0</ele><time>2026-05-03T08:03:02.782Z</time></trkpt><trkpt lat="43.2287395" lon="12.0408435"><ele>541.0</ele><time>2026-05-03T08:03:04.781Z</time></trkpt><trkpt lat="43.2287728" lon="12.0409614"><ele>541.0</ele><time>2026-05-03T08:03:06.785Z</time></trkpt><trkpt lat="43.228801" lon="12.0410573"><ele>541.0</ele><time>2026-05-03T08:03:08.774Z</time></trkpt><trkpt lat="43.2288012" lon="12.0411697"><ele>541.0</ele><time>2026-05-03T08:03:10.781Z</time></trkpt><trkpt lat="43.228805" lon="12.0412679"><ele>541.0</ele><time>2026-05-03T08:03:12.778Z</time></trkpt><trkpt lat="43.2288022" lon="12.0413788"><ele>541.0</ele><time>2026-05-03T08:03:14.78Z</time></trkpt><trkpt lat="43.2287973" lon="12.0415026"><ele>541.0</ele><time>2026-05-03T08:03:16.775Z</time></trkpt><trkpt lat="43.228776" lon="12.0416265"><ele>541.0</ele><time>2026-05-03T08:03:18.877Z</time></trkpt><trkpt lat="43.2287613" lon="12.0417522"><ele>541.0</ele><time>2026-05-03T08:03:20.784Z</time></trkpt><trkpt lat="43.2287384" lon="12.0418598"><ele>541.0</ele><time>2026-05-03T08:03:22.784Z</time></trkpt><trkpt lat="43.2287022" lon="12.0419672"><ele>541.0</ele><time>2026-05-03T08:03:24.776Z</time></trkpt><trkpt lat="43.2286718" lon="12.0420955"><ele>541.0</ele><time>2026-05-03T08:03:26.778Z</time></trkpt><trkpt lat="43.2286828" lon="12.0422189"><ele>541.0</ele><time>2026-05-03T08:03:28.779Z</time></trkpt><trkpt lat="43.2286945" lon="12.0423232"><ele>541.0</ele><time>2026-05-03T08:03:30.784Z</time></trkpt><trkpt lat="43.2287108" lon="12.0424367"><ele>541.0</ele><time>2026-05-03T08:03:32.782Z</time></trkpt><trkpt lat="43.2287207" lon="12.0425499"><ele>541.0</ele><time>2026-05-03T08:03:34.78Z</time></trkpt><trkpt lat="43.2287757" lon="12.0427611"><ele>540.0</ele><time>2026-05-03T08:03:35.072Z</time></trkpt><trkpt lat="43.2287893" lon="12.0428734"><ele>539.0</ele><time>2026-05-03T08:03:37.065Z</time></trkpt><trkpt lat="43.2287835" lon="12.042985"><ele>538.0</ele><time>2026-05-03T08:03:39.067Z</time></trkpt><trkpt lat="43.2287979" lon="12.0430949"><ele>537.0</ele><time>2026-05-03T08:03:41.06Z</time></trkpt><trkpt lat="43.2288317" lon="12.0432092"><ele>536.0</ele><time>2026-05-03T08:03:43.065Z</time></trkpt><trkpt lat="43.2288726" lon="12.0433112"><ele>535.0</ele><time>2026-05-03T08:03:45.068Z</time></trkpt><trkpt lat="43.2289137" lon="12.043417"><ele>535.0</ele><time>2026-05-03T08:03:47.079Z</time></trkpt><trkpt lat="43.2289723" lon="12.0435118"><ele>535.0</ele><time>2026-05-03T08:03:49.06Z</time></trkpt><trkpt lat="43.2290219" lon="12.0436127"><ele>535.0</ele><time>2026-05-03T08:03:51.062Z</time></trkpt><trkpt lat="43.2290457" lon="12.0437287"><ele>535.0</ele><time>2026-05-03T08:03:53.062Z</time></trkpt><trkpt lat="43.229069" lon="12.0438405"><ele>535.0</ele><time>2026-05-03T08:03:55.067Z</time></trkpt><trkpt lat="43.2290908" lon="12.0439492"><ele>535.0</ele><time>2026-05-03T08:03:57.06Z</time></trkpt><trkpt lat="43.2291061" lon="12.0440618"><ele>536.0</ele><time>2026-05-03T08:03:59.069Z</time></trkpt><trkpt lat="43.2291263" lon="12.0441664"><ele>537.0</ele><time>2026-05-03T08:04:01.06Z</time></trkpt><trkpt lat="43.2291561" lon="12.0442591"><ele>538.0</ele><time>2026-05-03T08:04:03.073Z</time></trkpt><trkpt lat="43.2291925" lon="12.0443438"><ele>539.0</ele><time>2026-05-03T08:04:05.074Z</time></trkpt><trkpt lat="43.2292371" lon="12.0444216"><ele>540.0</ele><time>2026-05-03T08:04:07.083Z</time></trkpt><trkpt lat="43.2293054" lon="12.0444705"><ele>541.0</ele><time>2026-05-03T08:04:09.069Z</time></trkpt><trkpt lat="43.2293849" lon="12.0444881"><ele>541.0000000000001</ele><time>2026-05-03T08:04:11.083Z</time></trkpt><trkpt lat="43.2294558" lon="12.0445218"><ele>541.0</ele><time>2026-05-03T08:04:13.065Z</time></trkpt><trkpt lat="43.2295238" lon="12.0445614"><ele>541.0</ele><time>2026-05-03T08:04:15.083Z</time></trkpt><trkpt lat="43.2295848" lon="12.044598"><ele>541.0</ele><time>2026-05-03T08:04:17.068Z</time></trkpt><trkpt lat="43.2296598" lon="12.0446186"><ele>541.0</ele><time>2026-05-03T08:04:20.073Z</time></trkpt><trkpt lat="43.2297289" lon="12.0446281"><ele>541.0000000000001</ele><time>2026-05-03T08:04:22.088Z</time></trkpt><trkpt lat="43.229797" lon="12.0446244"><ele>541.0</ele><time>2026-05-03T08:04:24.066Z</time></trkpt><trkpt lat="43.2298753" lon="12.0446227"><ele>541.6666666666667</ele><time>2026-05-03T08:04:26.081Z</time></trkpt><trkpt lat="43.2299529" lon="12.0446268"><ele>542.3333333333334</ele><time>2026-05-03T08:04:29.07Z</time></trkpt><trkpt lat="43.2299994" lon="12.0447017"><ele>543.0</ele><time>2026-05-03T08:04:36.082Z</time></trkpt><trkpt lat="43.2300658" lon="12.0447531"><ele>543.6666666666666</ele><time>2026-05-03T08:04:39.071Z</time></trkpt><trkpt lat="43.2301513" lon="12.0448004"><ele>544.3333333333333</ele><time>2026-05-03T08:04:42.079Z</time></trkpt><trkpt lat="43.2302332" lon="12.0448657"><ele>545.0</ele><time>2026-05-03T08:04:45.083Z</time></trkpt><trkpt lat="43.2302921" lon="12.0449004"><ele>545.0</ele><time>2026-05-03T08:04:47.083Z</time></trkpt><trkpt lat="43.230373" lon="12.044948"><ele>545.0</ele><time>2026-05-03T08:04:50.084Z</time></trkpt><trkpt lat="43.2304501" lon="12.0449841"><ele>545.0</ele><time>2026-05-03T08:04:53.094Z</time></trkpt><trkpt lat="43.2305416" lon="12.0450125"><ele>545.0</ele><time>2026-05-03T08:04:56.082Z</time></trkpt><trkpt lat="43.2305976" lon="12.0450537"><ele>545.0</ele><time>2026-05-03T08:04:58.075Z</time></trkpt><trkpt lat="43.2306425" lon="12.0451144"><ele>545.0</ele><time>2026-05-03T08:05:00.08Z</time></trkpt><trkpt lat="43.2306916" lon="12.0451706"><ele>546.1666666666666</ele><time>2026-05-03T08:05:02.084Z</time></trkpt><trkpt lat="43.2307659" lon="12.0452504"><ele>547.3333333333333</ele><time>2026-05-03T08:05:05.082Z</time></trkpt><trkpt lat="43.2308197" lon="12.0452976"><ele>548.5</ele><time>2026-05-03T08:05:07.083Z</time></trkpt><trkpt lat="43.230881" lon="12.0453668"><ele>549.6666666666666</ele><time>2026-05-03T08:05:10.083Z</time></trkpt><trkpt lat="43.2309165" lon="12.045467"><ele>550.8333333333334</ele><time>2026-05-03T08:05:14.082Z</time></trkpt><trkpt lat="43.2309661" lon="12.0455793"><ele>552.0</ele><time>2026-05-03T08:05:17.083Z</time></trkpt><trkpt lat="43.231012" lon="12.0456519"><ele>552.0</ele><time>2026-05-03T08:05:19.083Z</time></trkpt><trkpt lat="43.2310652" lon="12.0457177"><ele>552.0</ele><time>2026-05-03T08:05:21.083Z</time></trkpt><trkpt lat="43.2311102" lon="12.0457787"><ele>552.0</ele><time>2026-05-03T08:05:23.081Z</time></trkpt><trkpt lat="43.2311595" lon="12.0458382"><ele>552.0</ele><time>2026-05-03T08:05:25.086Z</time></trkpt><trkpt lat="43.2311983" lon="12.0459122"><ele>552.0</ele><time>2026-05-03T08:05:27.084Z</time></trkpt><trkpt lat="43.231238" lon="12.0459845"><ele>552.0</ele><time>2026-05-03T08:05:29.08Z</time></trkpt><trkpt lat="43.2312768" lon="12.0460541"><ele>552.0</ele><time>2026-05-03T08:05:31.082Z</time></trkpt><trkpt lat="43.2313055" lon="12.0461365"><ele>552.2</ele><time>2026-05-03T08:05:34.082Z</time></trkpt><trkpt lat="43.2313459" lon="12.0462531"><ele>552.4000000000001</ele><time>2026-05-03T08:05:37.078Z</time></trkpt><trkpt lat="43.231382" lon="12.0463348"><ele>552.5999999999999</ele><time>2026-05-03T08:05:39.084Z</time></trkpt><trkpt lat="43.2314248" lon="12.0464361"><ele>552.8</ele><time>2026-05-03T08:05:41.09Z</time></trkpt><trkpt lat="43.2314868" lon="12.0465533"><ele>553.0</ele><time>2026-05-03T08:05:43.091Z</time></trkpt><trkpt lat="43.2315344" lon="12.0466876"><ele>553.0</ele><time>2026-05-03T08:05:45.081Z</time></trkpt><trkpt lat="43.231574" lon="12.0467597"><ele>553.0</ele><time>2026-05-03T08:05:46.079Z</time></trkpt><trkpt lat="43.2316447" lon="12.0468954"><ele>553.0</ele><time>2026-05-03T08:05:48.082Z</time></trkpt><trkpt lat="43.231696" lon="12.0470203"><ele>553.0</ele><time>2026-05-03T08:05:50.082Z</time></trkpt><trkpt lat="43.2317425" lon="12.0471583"><ele>553.0</ele><time>2026-05-03T08:05:52.078Z</time></trkpt><trkpt lat="43.2317825" lon="12.0473099"><ele>553.0</ele><time>2026-05-03T08:05:54.067Z</time></trkpt><trkpt lat="43.2318287" lon="12.0474505"><ele>553.0</ele><time>2026-05-03T08:05:56.083Z</time></trkpt><trkpt lat="43.2318706" lon="12.0475932"><ele>553.0</ele><time>2026-05-03T08:05:58.077Z</time></trkpt><trkpt lat="43.2319207" lon="12.0477098"><ele>553.0</ele><time>2026-05-03T08:06:02.387Z</time></trkpt><trkpt lat="43.2319702" lon="12.0478123"><ele>553.0</ele><time>2026-05-03T08:06:04.269Z</time></trkpt><trkpt lat="43.2320583" lon="12.0479024"><ele>554.1666666666667</ele><time>2026-05-03T08:06:06.268Z</time></trkpt><trkpt lat="43.2321077" lon="12.0479792"><ele>555.3333333333334</ele><time>2026-05-03T08:06:08.266Z</time></trkpt><trkpt lat="43.2321346" lon="12.0480908"><ele>556.5</ele><time>2026-05-03T08:06:10.289Z</time></trkpt><trkpt lat="43.232167" lon="12.0481899"><ele>557.6666666666666</ele><time>2026-05-03T08:06:12.278Z</time></trkpt><trkpt lat="43.2322048" lon="12.0482694"><ele>558.8333333333333</ele><time>2026-05-03T08:06:14.264Z</time></trkpt><trkpt lat="43.2322271" lon="12.0483565"><ele>560.0</ele><time>2026-05-03T08:06:16.275Z</time></trkpt><trkpt lat="43.2322756" lon="12.0484567"><ele>559.0</ele><time>2026-05-03T08:06:18.27Z</time></trkpt><trkpt lat="43.2323353" lon="12.0485289"><ele>558.0</ele><time>2026-05-03T08:06:20.272Z</time></trkpt><trkpt lat="43.2324099" lon="12.0485723"><ele>557.0</ele><time>2026-05-03T08:06:22.288Z</time></trkpt><trkpt lat="43.232485" lon="12.0486025"><ele>556.0</ele><time>2026-05-03T08:06:24.273Z</time></trkpt><trkpt lat="43.2325537" lon="12.0486286"><ele>555.0</ele><time>2026-05-03T08:06:26.276Z</time></trkpt><trkpt lat="43.2326278" lon="12.048655"><ele>554.0</ele><time>2026-05-03T08:06:28.27Z</time></trkpt><trkpt lat="43.2326963" lon="12.0486809"><ele>554.0</ele><time>2026-05-03T08:06:30.356Z</time></trkpt><trkpt lat="43.2327699" lon="12.0487024"><ele>554.0</ele><time>2026-05-03T08:06:32.274Z</time></trkpt><trkpt lat="43.2328456" lon="12.0487259"><ele>554.0</ele><time>2026-05-03T08:06:34.271Z</time></trkpt><trkpt lat="43.2329151" lon="12.0487296"><ele>554.0</ele><time>2026-05-03T08:06:36.378Z</time></trkpt><trkpt lat="43.2329855" lon="12.0487105"><ele>554.0</ele><time>2026-05-03T08:06:38.275Z</time></trkpt><trkpt lat="43.2330547" lon="12.0486955"><ele>554.0</ele><time>2026-05-03T08:06:40.269Z</time></trkpt><trkpt lat="43.2331204" lon="12.0486988"><ele>554.0</ele><time>2026-05-03T08:06:42.27Z</time></trkpt><trkpt lat="43.2331839" lon="12.0487109"><ele>555.6666666666666</ele><time>2026-05-03T08:06:44.26Z</time></trkpt><trkpt lat="43.2332698" lon="12.048694"><ele>557.3333333333333</ele><time>2026-05-03T08:06:47.27Z</time></trkpt><trkpt lat="43.2333511" lon="12.0486751"><ele>559.0</ele><time>2026-05-03T08:06:50.275Z</time></trkpt><trkpt lat="43.2334293" lon="12.048678"><ele>560.6666666666666</ele><time>2026-05-03T08:06:53.297Z</time></trkpt><trkpt lat="43.2335115" lon="12.0486934"><ele>562.3333333333334</ele><time>2026-05-03T08:06:56.286Z</time></trkpt><trkpt lat="43.2335894" lon="12.0486927"><ele>564.0</ele><time>2026-05-03T08:06:59.29Z</time></trkpt><trkpt lat="43.2336611" lon="12.0486349"><ele>564.0</ele><time>2026-05-03T08:07:02.286Z</time></trkpt><trkpt lat="43.233732" lon="12.0486155"><ele>564.0</ele><time>2026-05-03T08:07:05.287Z</time></trkpt><trkpt lat="43.2337954" lon="12.0485869"><ele>564.0</ele><time>2026-05-03T08:07:08.29Z</time></trkpt><trkpt lat="43.2338727" lon="12.0485765"><ele>564.0</ele><time>2026-05-03T08:07:11.293Z</time></trkpt><trkpt lat="43.2339469" lon="12.0486209"><ele>564.0</ele><time>2026-05-03T08:07:14.27Z</time></trkpt><trkpt lat="43.2340123" lon="12.0487013"><ele>564.0</ele><time>2026-05-03T08:07:17.288Z</time></trkpt><trkpt lat="43.234063" lon="12.04879"><ele>564.6666666666666</ele><time>2026-05-03T08:07:20.291Z</time></trkpt><trkpt lat="43.234125" lon="12.0488907"><ele>565.3333333333334</ele><time>2026-05-03T08:07:23.277Z</time></trkpt><trkpt lat="43.234164" lon="12.0489842"><ele>566.0</ele><time>2026-05-03T08:07:26.277Z</time></trkpt><trkpt lat="43.2342199" lon="12.0490655"><ele>566.6666666666667</ele><time>2026-05-03T08:07:29.27Z</time></trkpt><trkpt lat="43.2342799" lon="12.0491148"><ele>567.3333333333334</ele><time>2026-05-03T08:07:32.29Z</time></trkpt><trkpt lat="43.2343218" lon="12.0491909"><ele>568.0</ele><time>2026-05-03T08:07:35.291Z</time></trkpt><trkpt lat="43.2343499" lon="12.0492855"><ele>569.2857142857142</ele><time>2026-05-03T08:07:38.287Z</time></trkpt><trkpt lat="43.2343745" lon="12.0493781"><ele>570.5714285714286</ele><time>2026-05-03T08:07:41.289Z</time></trkpt><trkpt lat="43.2344313" lon="12.0494651"><ele>571.8571428571429</ele><time>2026-05-03T08:07:44.287Z</time></trkpt><trkpt lat="43.2344908" lon="12.0495513"><ele>573.1428571428571</ele><time>2026-05-03T08:07:47.29Z</time></trkpt><trkpt lat="43.2345066" lon="12.0496362"><ele>574.4285714285714</ele><time>2026-05-03T08:07:50.289Z</time></trkpt><trkpt lat="43.2345365" lon="12.049726"><ele>575.7142857142857</ele><time>2026-05-03T08:07:53.368Z</time></trkpt><trkpt lat="43.2345736" lon="12.049801"><ele>577.0</ele><time>2026-05-03T08:07:57.286Z</time></trkpt><trkpt lat="43.2346505" lon="12.0499002"><ele>577.4</ele><time>2026-05-03T08:08:00.293Z</time></trkpt><trkpt lat="43.2347243" lon="12.0499732"><ele>577.8000000000001</ele><time>2026-05-03T08:08:02.292Z</time></trkpt><trkpt lat="43.2347828" lon="12.0500673"><ele>578.2</ele><time>2026-05-03T08:08:04.286Z</time></trkpt><trkpt lat="43.234816" lon="12.0501666"><ele>578.6</ele><time>2026-05-03T08:08:06.287Z</time></trkpt><trkpt lat="43.2348536" lon="12.050301"><ele>579.0</ele><time>2026-05-03T08:08:08.289Z</time></trkpt><trkpt lat="43.2348885" lon="12.0504299"><ele>579.0</ele><time>2026-05-03T08:08:10.291Z</time></trkpt><trkpt lat="43.2349437" lon="12.0505375"><ele>579.0</ele><time>2026-05-03T08:08:12.294Z</time></trkpt><trkpt lat="43.2349869" lon="12.0506965"><ele>579.0</ele><time>2026-05-03T08:08:14.271Z</time></trkpt><trkpt lat="43.2350015" lon="12.0507863"><ele>579.0</ele><time>2026-05-03T08:08:15.292Z</time></trkpt><trkpt lat="43.2350134" lon="12.0508854"><ele>579.0</ele><time>2026-05-03T08:08:16.29Z</time></trkpt><trkpt lat="43.2350835" lon="12.0510375"><ele>579.8</ele><time>2026-05-03T08:08:17.288Z</time></trkpt><trkpt lat="43.2351175" lon="12.0511782"><ele>580.5999999999999</ele><time>2026-05-03T08:08:19.291Z</time></trkpt><trkpt lat="43.2351603" lon="12.0513408"><ele>581.4</ele><time>2026-05-03T08:08:21.285Z</time></trkpt><trkpt lat="43.2351997" lon="12.0515031"><ele>582.1999999999999</ele><time>2026-05-03T08:08:23.29Z</time></trkpt><trkpt lat="43.2352227" lon="12.0515904"><ele>583.0</ele><time>2026-05-03T08:08:24.292Z</time></trkpt><trkpt lat="43.2352612" lon="12.0516771"><ele>581.4285714285714</ele><time>2026-05-03T08:08:25.29Z</time></trkpt><trkpt lat="43.2353022" lon="12.0517568"><ele>579.8571428571429</ele><time>2026-05-03T08:08:26.289Z</time></trkpt><trkpt lat="43.2353439" lon="12.0518348"><ele>578.2857142857142</ele><time>2026-05-03T08:08:27.285Z</time></trkpt><trkpt lat="43.2353831" lon="12.0519187"><ele>576.7142857142858</ele><time>2026-05-03T08:08:28.29Z</time></trkpt><trkpt lat="43.2354231" lon="12.0520069"><ele>575.1428571428571</ele><time>2026-05-03T08:08:29.285Z</time></trkpt><trkpt lat="43.2354646" lon="12.0520918"><ele>573.5714285714286</ele><time>2026-05-03T08:08:30.296Z</time></trkpt><trkpt lat="43.2355032" lon="12.052179"><ele>572.0</ele><time>2026-05-03T08:08:31.284Z</time></trkpt><trkpt lat="43.2355463" lon="12.0522703"><ele>572.0</ele><time>2026-05-03T08:08:32.294Z</time></trkpt><trkpt lat="43.2355884" lon="12.0523503"><ele>572.0</ele><time>2026-05-03T08:08:33.282Z</time></trkpt><trkpt lat="43.2356193" lon="12.0524327"><ele>572.0</ele><time>2026-05-03T08:08:34.285Z</time></trkpt><trkpt lat="43.235679" lon="12.052577"><ele>572.0</ele><time>2026-05-03T08:08:36.29Z</time></trkpt><trkpt lat="43.2357602" lon="12.0526958"><ele>572.0</ele><time>2026-05-03T08:08:38.41Z</time></trkpt><trkpt lat="43.2358517" lon="12.0528064"><ele>570.8000000000001</ele><time>2026-05-03T08:08:40.288Z</time></trkpt><trkpt lat="43.2358973" lon="12.0528665"><ele>569.6</ele><time>2026-05-03T08:08:41.287Z</time></trkpt><trkpt lat="43.2359907" lon="12.0529692"><ele>568.4000000000001</ele><time>2026-05-03T08:08:43.29Z</time></trkpt><trkpt lat="43.2360649" lon="12.0530787"><ele>567.2</ele><time>2026-05-03T08:08:45.285Z</time></trkpt><trkpt lat="43.2361209" lon="12.053193"><ele>566.0</ele><time>2026-05-03T08:08:47.294Z</time></trkpt><trkpt lat="43.2361799" lon="12.0533087"><ele>565.3333333333333</ele><time>2026-05-03T08:08:49.28Z</time></trkpt><trkpt lat="43.2362297" lon="12.0534144"><ele>564.6666666666666</ele><time>2026-05-03T08:08:51.297Z</time></trkpt><trkpt lat="43.2362719" lon="12.0535044"><ele>564.0</ele><time>2026-05-03T08:08:53.269Z</time></trkpt><trkpt lat="43.2363069" lon="12.0535963"><ele>563.3333333333334</ele><time>2026-05-03T08:08:55.389Z</time></trkpt><trkpt lat="43.2363355" lon="12.0536993"><ele>562.6666666666667</ele><time>2026-05-03T08:08:58.282Z</time></trkpt><trkpt lat="43.2363677" lon="12.0538244"><ele>562.0</ele><time>2026-05-03T08:09:01.281Z</time></trkpt><trkpt lat="43.2363863" lon="12.053911"><ele>562.0</ele><time>2026-05-03T08:09:03.29Z</time></trkpt><trkpt lat="43.2363975" lon="12.0540335"><ele>562.0</ele><time>2026-05-03T08:09:06.292Z</time></trkpt><trkpt lat="43.2364186" lon="12.0541266"><ele>562.0</ele><time>2026-05-03T08:09:08.284Z</time></trkpt><trkpt lat="43.2364409" lon="12.0542271"><ele>562.0</ele><time>2026-05-03T08:09:10.292Z</time></trkpt><trkpt lat="43.2364644" lon="12.0543196"><ele>562.0</ele><time>2026-05-03T08:09:12.289Z</time></trkpt><trkpt lat="43.2365069" lon="12.0544109"><ele>562.0</ele><time>2026-05-03T08:09:14.282Z</time></trkpt><trkpt lat="43.2365278" lon="12.0545158"><ele>564.0</ele><time>2026-05-03T08:09:16.292Z</time></trkpt><trkpt lat="43.2365261" lon="12.0546235"><ele>566.0</ele><time>2026-05-03T08:09:18.289Z</time></trkpt><trkpt lat="43.2365315" lon="12.0547225"><ele>568.0</ele><time>2026-05-03T08:09:20.27Z</time></trkpt><trkpt lat="43.2365329" lon="12.0548331"><ele>570.0</ele><time>2026-05-03T08:09:22.292Z</time></trkpt><trkpt lat="43.2365286" lon="12.0549545"><ele>572.0</ele><time>2026-05-03T08:09:24.282Z</time></trkpt><trkpt lat="43.2365248" lon="12.0550779"><ele>574.0</ele><time>2026-05-03T08:09:26.279Z</time></trkpt><trkpt lat="43.2365212" lon="12.0551994"><ele>574.8333333333334</ele><time>2026-05-03T08:09:28.289Z</time></trkpt><trkpt lat="43.2365214" lon="12.0553239"><ele>575.6666666666667</ele><time>2026-05-03T08:09:30.285Z</time></trkpt><trkpt lat="43.2365321" lon="12.0554571"><ele>576.5</ele><time>2026-05-03T08:09:32.292Z</time></trkpt><trkpt lat="43.2365492" lon="12.0556019"><ele>577.3333333333334</ele><time>2026-05-03T08:09:34.286Z</time></trkpt><trkpt lat="43.2365723" lon="12.0556917"><ele>578.1666666666666</ele><time>2026-05-03T08:09:35.278Z</time></trkpt><trkpt lat="43.2365759" lon="12.0557878"><ele>579.0</ele><time>2026-05-03T08:09:36.285Z</time></trkpt><trkpt lat="43.2365944" lon="12.0558726"><ele>579.0</ele><time>2026-05-03T08:09:37.293Z</time></trkpt><trkpt lat="43.2366031" lon="12.0560491"><ele>579.0</ele><time>2026-05-03T08:09:39.288Z</time></trkpt><trkpt lat="43.2366202" lon="12.0561327"><ele>579.0</ele><time>2026-05-03T08:09:40.289Z</time></trkpt><trkpt lat="43.2366632" lon="12.0562611"><ele>579.0</ele><time>2026-05-03T08:09:42.393Z</time></trkpt><trkpt lat="43.2367097" lon="12.0563993"><ele>579.0</ele><time>2026-05-03T08:09:44.289Z</time></trkpt><trkpt lat="43.2367533" lon="12.0565598"><ele>577.0</ele><time>2026-05-03T08:09:46.289Z</time></trkpt><trkpt lat="43.2367706" lon="12.0566473"><ele>575.0</ele><time>2026-05-03T08:09:47.294Z</time></trkpt><trkpt lat="43.2368225" lon="12.056792"><ele>573.0</ele><time>2026-05-03T08:09:49.292Z</time></trkpt><trkpt lat="43.2368553" lon="12.0568733"><ele>571.0</ele><time>2026-05-03T08:09:50.268Z</time></trkpt><trkpt lat="43.2369129" lon="12.0570093"><ele>569.0</ele><time>2026-05-03T08:09:52.289Z</time></trkpt><trkpt lat="43.2369712" lon="12.0571358"><ele>569.0</ele><time>2026-05-03T08:09:54.278Z</time></trkpt><trkpt lat="43.2370513" lon="12.0572734"><ele>569.0</ele><time>2026-05-03T08:09:56.278Z</time></trkpt><trkpt lat="43.2371119" lon="12.0573397"><ele>569.0</ele><time>2026-05-03T08:09:57.293Z</time></trkpt><trkpt lat="43.2371628" lon="12.0574078"><ele>569.0</ele><time>2026-05-03T08:09:58.289Z</time></trkpt><trkpt lat="43.2372129" lon="12.0574782"><ele>569.0</ele><time>2026-05-03T08:09:59.288Z</time></trkpt><trkpt lat="43.2372533" lon="12.0575663"><ele>569.0</ele><time>2026-05-03T08:10:00.385Z</time></trkpt><trkpt lat="43.2372952" lon="12.0576563"><ele>568.3333333333333</ele><time>2026-05-03T08:10:01.29Z</time></trkpt><trkpt lat="43.2373247" lon="12.0577553"><ele>567.6666666666666</ele><time>2026-05-03T08:10:02.289Z</time></trkpt><trkpt lat="43.2373566" lon="12.0578454"><ele>567.0</ele><time>2026-05-03T08:10:03.283Z</time></trkpt><trkpt lat="43.237389" lon="12.0579397"><ele>566.3333333333334</ele><time>2026-05-03T08:10:04.298Z</time></trkpt><trkpt lat="43.237419" lon="12.0580252"><ele>565.6666666666667</ele><time>2026-05-03T08:10:05.277Z</time></trkpt><trkpt lat="43.2374692" lon="12.0581707"><ele>565.0</ele><time>2026-05-03T08:10:07.288Z</time></trkpt><trkpt lat="43.2374493" lon="12.0583337"><ele>563.6</ele><time>2026-05-03T08:10:09.284Z</time></trkpt><trkpt lat="43.2373922" lon="12.0584476"><ele>562.2</ele><time>2026-05-03T08:10:11.298Z</time></trkpt><trkpt lat="43.2373314" lon="12.0585564"><ele>560.8</ele><time>2026-05-03T08:10:13.286Z</time></trkpt><trkpt lat="43.2373409" lon="12.0586956"><ele>559.4</ele><time>2026-05-03T08:10:15.281Z</time></trkpt><trkpt lat="43.2373625" lon="12.0588556"><ele>558.0</ele><time>2026-05-03T08:10:17.292Z</time></trkpt><trkpt lat="43.2373853" lon="12.0589494"><ele>558.0</ele><time>2026-05-03T08:10:18.283Z</time></trkpt><trkpt lat="43.237398" lon="12.0590452"><ele>558.0</ele><time>2026-05-03T08:10:19.285Z</time></trkpt><trkpt lat="43.2374193" lon="12.0591462"><ele>558.0</ele><time>2026-05-03T08:10:20.282Z</time></trkpt><trkpt lat="43.2374414" lon="12.0592437"><ele>558.0</ele><time>2026-05-03T08:10:21.289Z</time></trkpt><trkpt lat="43.2374757" lon="12.059322"><ele>558.0</ele><time>2026-05-03T08:10:22.283Z</time></trkpt><trkpt lat="43.2375056" lon="12.0593994"><ele>558.0</ele><time>2026-05-03T08:10:23.285Z</time></trkpt><trkpt lat="43.2376049" lon="12.0595823"><ele>556.3333333333334</ele><time>2026-05-03T08:10:26.289Z</time></trkpt><trkpt lat="43.2376647" lon="12.0597424"><ele>554.6666666666666</ele><time>2026-05-03T08:10:28.288Z</time></trkpt><trkpt lat="43.2376735" lon="12.059843"><ele>553.0</ele><time>2026-05-03T08:10:29.29Z</time></trkpt><trkpt lat="43.2376644" lon="12.0599418"><ele>551.3333333333333</ele><time>2026-05-03T08:10:30.274Z</time></trkpt><trkpt lat="43.237653" lon="12.0600328"><ele>549.6666666666666</ele><time>2026-05-03T08:10:31.292Z</time></trkpt><trkpt lat="43.237637" lon="12.0601333"><ele>548.0</ele><time>2026-05-03T08:10:32.28Z</time></trkpt><trkpt lat="43.2376366" lon="12.0602246"><ele>547.0</ele><time>2026-05-03T08:10:33.29Z</time></trkpt><trkpt lat="43.2376258" lon="12.0603957"><ele>546.0</ele><time>2026-05-03T08:10:35.288Z</time></trkpt><trkpt lat="43.2376218" lon="12.0604878"><ele>545.0</ele><time>2026-05-03T08:10:36.284Z</time></trkpt><trkpt lat="43.2376302" lon="12.0606359"><ele>544.0</ele><time>2026-05-03T08:10:38.279Z</time></trkpt><trkpt lat="43.2376361" lon="12.060756"><ele>543.0</ele><time>2026-05-03T08:10:40.276Z</time></trkpt><trkpt lat="43.2376239" lon="12.0608625"><ele>542.5</ele><time>2026-05-03T08:10:42.288Z</time></trkpt><trkpt lat="43.2376363" lon="12.0609594"><ele>542.0</ele><time>2026-05-03T08:10:44.284Z</time></trkpt><trkpt lat="43.2376637" lon="12.0610453"><ele>541.5</ele><time>2026-05-03T08:10:46.29Z</time></trkpt><trkpt lat="43.2376864" lon="12.0611292"><ele>541.0</ele><time>2026-05-03T08:10:48.285Z</time></trkpt><trkpt lat="43.2377212" lon="12.0612499"><ele>540.5</ele><time>2026-05-03T08:10:51.289Z</time></trkpt><trkpt lat="43.2377302" lon="12.0613605"><ele>540.0</ele><time>2026-05-03T08:10:54.286Z</time></trkpt><trkpt lat="43.2377366" lon="12.061468"><ele>540.0</ele><time>2026-05-03T08:10:57.276Z</time></trkpt><trkpt lat="43.2377438" lon="12.0615762"><ele>540.0</ele><time>2026-05-03T08:11:00.284Z</time></trkpt><trkpt lat="43.2377722" lon="12.0616721"><ele>540.0</ele><time>2026-05-03T08:11:03.286Z</time></trkpt><trkpt lat="43.2377915" lon="12.0617751"><ele>540.0</ele><time>2026-05-03T08:11:06.274Z</time></trkpt><trkpt lat="43.2378133" lon="12.0618742"><ele>540.0</ele><time>2026-05-03T08:11:09.279Z</time></trkpt><trkpt lat="43.237826" lon="12.0619751"><ele>540.0</ele><time>2026-05-03T08:11:12.27Z</time></trkpt><trkpt lat="43.2378371" lon="12.0620814"><ele>541.1666666666666</ele><time>2026-05-03T08:11:15.276Z</time></trkpt><trkpt lat="43.2378372" lon="12.0621872"><ele>542.3333333333334</ele><time>2026-05-03T08:11:18.267Z</time></trkpt><trkpt lat="43.237824" lon="12.0623009"><ele>543.5</ele><time>2026-05-03T08:11:21.271Z</time></trkpt><trkpt lat="43.2378568" lon="12.0624076"><ele>544.6666666666667</ele><time>2026-05-03T08:11:24.285Z</time></trkpt><trkpt lat="43.2379056" lon="12.0624996"><ele>545.8333333333334</ele><time>2026-05-03T08:11:27.28Z</time></trkpt><trkpt lat="43.2379446" lon="12.0625976"><ele>547.0</ele><time>2026-05-03T08:11:30.29Z</time></trkpt><trkpt lat="43.2379662" lon="12.0626947"><ele>547.5714285714286</ele><time>2026-05-03T08:11:33.284Z</time></trkpt><trkpt lat="43.2379735" lon="12.0627832"><ele>548.1428571428571</ele><time>2026-05-03T08:11:36.3Z</time></trkpt><trkpt lat="43.2379966" lon="12.0628688"><ele>548.7142857142857</ele><time>2026-05-03T08:11:39.29Z</time></trkpt><trkpt lat="43.2380483" lon="12.0629545"><ele>549.2857142857142</ele><time>2026-05-03T08:11:42.29Z</time></trkpt><trkpt lat="43.2381091" lon="12.063033"><ele>549.8571428571429</ele><time>2026-05-03T08:11:45.29Z</time></trkpt><trkpt lat="43.2381128" lon="12.0631337"><ele>550.4285714285713</ele><time>2026-05-03T08:11:49.293Z</time></trkpt><trkpt lat="43.2380887" lon="12.0632159"><ele>551.0</ele><time>2026-05-03T08:11:56.29Z</time></trkpt><trkpt lat="43.2380858" lon="12.0633116"><ele>551.6666666666666</ele><time>2026-05-03T08:17:51.289Z</time></trkpt><trkpt lat="43.2380679" lon="12.0633971"><ele>552.3333333333333</ele><time>2026-05-03T08:17:55.289Z</time></trkpt><trkpt lat="43.2380388" lon="12.0634986"><ele>553.0</ele><time>2026-05-03T08:17:58.292Z</time></trkpt><trkpt lat="43.2380146" lon="12.0635967"><ele>553.6666666666666</ele><time>2026-05-03T08:18:01.284Z</time></trkpt><trkpt lat="43.2380426" lon="12.0636962"><ele>554.3333333333334</ele><time>2026-05-03T08:18:03.287Z</time></trkpt><trkpt lat="43.2381066" lon="12.0637852"><ele>555.0</ele><time>2026-05-03T08:18:05.292Z</time></trkpt><trkpt lat="43.2381776" lon="12.0638971"><ele>555.3333333333334</ele><time>2026-05-03T08:18:07.289Z</time></trkpt><trkpt lat="43.2382251" lon="12.063999"><ele>555.6666666666666</ele><time>2026-05-03T08:18:09.287Z</time></trkpt><trkpt lat="43.2382451" lon="12.064115"><ele>556.0</ele><time>2026-05-03T08:18:11.292Z</time></trkpt><trkpt lat="43.2382247" lon="12.0642274"><ele>556.3333333333333</ele><time>2026-05-03T08:18:13.29Z</time></trkpt><trkpt lat="43.2381772" lon="12.0643234"><ele>556.6666666666666</ele><time>2026-05-03T08:18:15.288Z</time></trkpt><trkpt lat="43.2381244" lon="12.0644001"><ele>557.0</ele><time>2026-05-03T08:18:17.293Z</time></trkpt><trkpt lat="43.2380646" lon="12.0644754"><ele>557.0</ele><time>2026-05-03T08:18:19.284Z</time></trkpt><trkpt lat="43.2380248" lon="12.0645528"><ele>557.0</ele><time>2026-05-03T08:18:21.289Z</time></trkpt><trkpt lat="43.2379933" lon="12.0646312"><ele>557.0</ele><time>2026-05-03T08:18:23.275Z</time></trkpt><trkpt lat="43.2379492" lon="12.0647029"><ele>557.0</ele><time>2026-05-03T08:18:25.285Z</time></trkpt><trkpt lat="43.2379025" lon="12.0647696"><ele>557.0</ele><time>2026-05-03T08:18:27.288Z</time></trkpt><trkpt lat="43.2378207" lon="12.0647936"><ele>557.0</ele><time>2026-05-03T08:18:30.284Z</time></trkpt><trkpt lat="43.2377676" lon="12.0648781"><ele>557.0</ele><time>2026-05-03T08:18:33.281Z</time></trkpt><trkpt lat="43.2377184" lon="12.0649621"><ele>559.5</ele><time>2026-05-03T08:18:36.264Z</time></trkpt><trkpt lat="43.2376638" lon="12.0650534"><ele>562.0</ele><time>2026-05-03T08:18:39.311Z</time></trkpt><trkpt lat="43.237601" lon="12.0651305"><ele>564.5</ele><time>2026-05-03T08:18:42.285Z</time></trkpt><trkpt lat="43.2375447" lon="12.0652229"><ele>567.0</ele><time>2026-05-03T08:18:45.282Z</time></trkpt><trkpt lat="43.2374894" lon="12.0653066"><ele>569.5</ele><time>2026-05-03T08:18:48.291Z</time></trkpt><trkpt lat="43.2374352" lon="12.0654071"><ele>572.0</ele><time>2026-05-03T08:18:51.277Z</time></trkpt><trkpt lat="43.2373861" lon="12.0655059"><ele>572.0</ele><time>2026-05-03T08:18:54.28Z</time></trkpt><trkpt lat="43.2373313" lon="12.0655945"><ele>572.0</ele><time>2026-05-03T08:18:57.281Z</time></trkpt><trkpt lat="43.2372856" lon="12.0656547"><ele>572.0</ele><time>2026-05-03T08:18:59.291Z</time></trkpt><trkpt lat="43.2372333" lon="12.0657554"><ele>572.0</ele><time>2026-05-03T08:19:02.274Z</time></trkpt><trkpt lat="43.2371923" lon="12.0658793"><ele>572.0</ele><time>2026-05-03T08:19:04.289Z</time></trkpt><trkpt lat="43.23716" lon="12.0659542"><ele>572.0</ele><time>2026-05-03T08:19:06.277Z</time></trkpt><trkpt lat="43.2371382" lon="12.066052"><ele>571.5</ele><time>2026-05-03T08:19:09.283Z</time></trkpt><trkpt lat="43.2371136" lon="12.0661727"><ele>571.0</ele><time>2026-05-03T08:19:12.285Z</time></trkpt><trkpt lat="43.2370813" lon="12.066287"><ele>570.5</ele><time>2026-05-03T08:19:15.288Z</time></trkpt><trkpt lat="43.237077" lon="12.0664009"><ele>570.0</ele><time>2026-05-03T08:19:18.292Z</time></trkpt><trkpt lat="43.237107" lon="12.0665013"><ele>569.5</ele><time>2026-05-03T08:19:21.37Z</time></trkpt><trkpt lat="43.237146" lon="12.0665744"><ele>569.0</ele><time>2026-05-03T08:19:24.301Z</time></trkpt><trkpt lat="43.2372118" lon="12.066672"><ele>569.0</ele><time>2026-05-03T08:19:27.289Z</time></trkpt><trkpt lat="43.2372762" lon="12.0667463"><ele>569.0</ele><time>2026-05-03T08:19:29.293Z</time></trkpt><trkpt lat="43.2373344" lon="12.0668065"><ele>569.0</ele><time>2026-05-03T08:19:31.289Z</time></trkpt><trkpt lat="43.23739" lon="12.0668879"><ele>569.0</ele><time>2026-05-03T08:19:34.288Z</time></trkpt><trkpt lat="43.2374216" lon="12.0669732"><ele>569.0</ele><time>2026-05-03T08:19:36.281Z</time></trkpt><trkpt lat="43.237459" lon="12.0670628"><ele>569.0</ele><time>2026-05-03T08:19:38.289Z</time></trkpt><trkpt lat="43.2374922" lon="12.0671443"><ele>572.1666666666666</ele><time>2026-05-03T08:19:40.284Z</time></trkpt><trkpt lat="43.2374953" lon="12.0672586"><ele>575.3333333333333</ele><time>2026-05-03T08:19:43.292Z</time></trkpt><trkpt lat="43.2374661" lon="12.067344"><ele>578.5</ele><time>2026-05-03T08:19:47.284Z</time></trkpt><trkpt lat="43.2374539" lon="12.0674466"><ele>581.6666666666666</ele><time>2026-05-03T08:19:51.297Z</time></trkpt><trkpt lat="43.2374138" lon="12.0675483"><ele>584.8333333333334</ele><time>2026-05-03T08:19:55.29Z</time></trkpt><trkpt lat="43.2373786" lon="12.0676455"><ele>588.0</ele><time>2026-05-03T08:19:58.294Z</time></trkpt><trkpt lat="43.2373489" lon="12.0677604"><ele>588.0</ele><time>2026-05-03T08:20:01.289Z</time></trkpt><trkpt lat="43.2374141" lon="12.0679547"><ele>588.0</ele><time>2026-05-03T08:20:04.29Z</time></trkpt><trkpt lat="43.237456" lon="12.0680816"><ele>588.0</ele><time>2026-05-03T08:20:06.283Z</time></trkpt><trkpt lat="43.2374773" lon="12.0681909"><ele>588.0</ele><time>2026-05-03T08:20:08.284Z</time></trkpt><trkpt lat="43.2375017" lon="12.0683083"><ele>588.0</ele><time>2026-05-03T08:20:10.286Z</time></trkpt><trkpt lat="43.2375281" lon="12.0684141"><ele>587.5</ele><time>2026-05-03T08:20:12.294Z</time></trkpt><trkpt lat="43.237605" lon="12.0684964"><ele>587.0</ele><time>2026-05-03T08:20:14.284Z</time></trkpt><trkpt lat="43.2376723" lon="12.0685404"><ele>586.5</ele><time>2026-05-03T08:20:16.288Z</time></trkpt><trkpt lat="43.2377479" lon="12.0685849"><ele>586.0</ele><time>2026-05-03T08:20:18.283Z</time></trkpt><trkpt lat="43.2378168" lon="12.0686311"><ele>585.5</ele><time>2026-05-03T08:20:20.278Z</time></trkpt><trkpt lat="43.23789" lon="12.0686609"><ele>585.0</ele><time>2026-05-03T08:20:22.288Z</time></trkpt><trkpt lat="43.2379664" lon="12.0686806"><ele>585.0</ele><time>2026-05-03T08:20:24.291Z</time></trkpt><trkpt lat="43.2380455" lon="12.0687189"><ele>585.0</ele><time>2026-05-03T08:20:26.389Z</time></trkpt><trkpt lat="43.2381162" lon="12.0687719"><ele>585.0</ele><time>2026-05-03T08:20:28.297Z</time></trkpt><trkpt lat="43.238174" lon="12.0688353"><ele>585.0</ele><time>2026-05-03T08:20:30.287Z</time></trkpt><trkpt lat="43.2382258" lon="12.0688924"><ele>585.0</ele><time>2026-05-03T08:20:32.384Z</time></trkpt><trkpt lat="43.2382739" lon="12.0689855"><ele>585.0</ele><time>2026-05-03T08:20:34.284Z</time></trkpt><trkpt lat="43.2383582" lon="12.0690533"><ele>586.0</ele><time>2026-05-03T08:20:36.282Z</time></trkpt><trkpt lat="43.238453" lon="12.0691234"><ele>587.0</ele><time>2026-05-03T08:20:38.392Z</time></trkpt><trkpt lat="43.2384905" lon="12.0692289"><ele>588.0</ele><time>2026-05-03T08:20:40.283Z</time></trkpt><trkpt lat="43.2384501" lon="12.0693598"><ele>589.0</ele><time>2026-05-03T08:20:42.287Z</time></trkpt><trkpt lat="43.2384026" lon="12.0694718"><ele>590.0</ele><time>2026-05-03T08:20:44.281Z</time></trkpt><trkpt lat="43.2383615" lon="12.0695973"><ele>590.0</ele><time>2026-05-03T08:20:46.272Z</time></trkpt><trkpt lat="43.2383146" lon="12.069708"><ele>590.0</ele><time>2026-05-03T08:20:48.295Z</time></trkpt><trkpt lat="43.2382652" lon="12.0698218"><ele>590.0</ele><time>2026-05-03T08:20:50.271Z</time></trkpt><trkpt lat="43.238224" lon="12.0699175"><ele>590.0</ele><time>2026-05-03T08:20:52.282Z</time></trkpt><trkpt lat="43.2381777" lon="12.0700112"><ele>590.0</ele><time>2026-05-03T08:20:54.268Z</time></trkpt><trkpt lat="43.2381048" lon="12.0700777"><ele>590.0</ele><time>2026-05-03T08:20:56.388Z</time></trkpt><trkpt lat="43.2380369" lon="12.0701565"><ele>588.2857142857143</ele><time>2026-05-03T08:20:58.283Z</time></trkpt><trkpt lat="43.2379697" lon="12.0702153"><ele>586.5714285714286</ele><time>2026-05-03T08:21:00.294Z</time></trkpt><trkpt lat="43.2379169" lon="12.0702768"><ele>584.8571428571429</ele><time>2026-05-03T08:21:02.275Z</time></trkpt><trkpt lat="43.2378624" lon="12.0703545"><ele>583.1428571428571</ele><time>2026-05-03T08:21:05.283Z</time></trkpt><trkpt lat="43.2377992" lon="12.0703938"><ele>581.4285714285714</ele><time>2026-05-03T08:21:09.272Z</time></trkpt><trkpt lat="43.2377331" lon="12.0704488"><ele>579.7142857142858</ele><time>2026-05-03T08:21:13.27Z</time></trkpt><trkpt lat="43.2376789" lon="12.0705045"><ele>578.0</ele><time>2026-05-03T08:21:16.27Z</time></trkpt><trkpt lat="43.2376025" lon="12.0705588"><ele>578.0</ele><time>2026-05-03T08:21:19.268Z</time></trkpt><trkpt lat="43.2375449" lon="12.0706056"><ele>578.0</ele><time>2026-05-03T08:21:21.266Z</time></trkpt><trkpt lat="43.2374856" lon="12.0706428"><ele>578.0</ele><time>2026-05-03T08:21:23.273Z</time></trkpt><trkpt lat="43.2373958" lon="12.0706747"><ele>578.0</ele><time>2026-05-03T08:21:26.269Z</time></trkpt><trkpt lat="43.2373111" lon="12.0707147"><ele>578.0</ele><time>2026-05-03T08:21:29.274Z</time></trkpt><trkpt lat="43.2372142" lon="12.0707399"><ele>578.0</ele><time>2026-05-03T08:21:32.288Z</time></trkpt><trkpt lat="43.2371468" lon="12.070783"><ele>579.5714285714286</ele><time>2026-05-03T08:21:34.281Z</time></trkpt><trkpt lat="43.2370759" lon="12.0708169"><ele>581.1428571428571</ele><time>2026-05-03T08:21:36.29Z</time></trkpt><trkpt lat="43.237005" lon="12.0708396"><ele>582.7142857142857</ele><time>2026-05-03T08:21:38.286Z</time></trkpt><trkpt lat="43.2369177" lon="12.0708692"><ele>584.2857142857142</ele><time>2026-05-03T08:21:41.29Z</time></trkpt><trkpt lat="43.2368499" lon="12.0709012"><ele>585.8571428571428</ele><time>2026-05-03T08:21:43.28Z</time></trkpt><trkpt lat="43.2367805" lon="12.0709177"><ele>587.4285714285714</ele><time>2026-05-03T08:21:45.264Z</time></trkpt><trkpt lat="43.2367143" lon="12.0709419"><ele>589.0</ele><time>2026-05-03T08:21:47.272Z</time></trkpt><trkpt lat="43.2366397" lon="12.0709605"><ele>589.0</ele><time>2026-05-03T08:21:49.273Z</time></trkpt><trkpt lat="43.2365576" lon="12.0709806"><ele>589.0</ele><time>2026-05-03T08:21:51.269Z</time></trkpt><trkpt lat="43.2364901" lon="12.0709919"><ele>589.0</ele><time>2026-05-03T08:21:53.266Z</time></trkpt><trkpt lat="43.2364268" lon="12.0709935"><ele>589.0</ele><time>2026-05-03T08:21:55.288Z</time></trkpt><trkpt lat="43.2363584" lon="12.071008"><ele>589.0</ele><time>2026-05-03T08:21:57.28Z</time></trkpt><trkpt lat="43.2362661" lon="12.071012"><ele>589.0</ele><time>2026-05-03T08:22:00.376Z</time></trkpt><trkpt lat="43.2362024" lon="12.0710289"><ele>589.0</ele><time>2026-05-03T08:22:02.279Z</time></trkpt><trkpt lat="43.2361199" lon="12.071043"><ele>588.5714285714286</ele><time>2026-05-03T08:22:05.274Z</time></trkpt><trkpt lat="43.2360342" lon="12.071074"><ele>588.1428571428571</ele><time>2026-05-03T08:22:08.29Z</time></trkpt><trkpt lat="43.2359472" lon="12.071123"><ele>587.7142857142857</ele><time>2026-05-03T08:22:11.279Z</time></trkpt><trkpt lat="43.235887" lon="12.0711536"><ele>587.2857142857142</ele><time>2026-05-03T08:22:13.289Z</time></trkpt><trkpt lat="43.2358229" lon="12.0711854"><ele>586.8571428571429</ele><time>2026-05-03T08:22:15.284Z</time></trkpt><trkpt lat="43.2357618" lon="12.0712286"><ele>586.4285714285713</ele><time>2026-05-03T08:22:17.289Z</time></trkpt><trkpt lat="43.2357064" lon="12.0712704"><ele>586.0</ele><time>2026-05-03T08:22:19.289Z</time></trkpt><trkpt lat="43.2356304" lon="12.0713009"><ele>584.2</ele><time>2026-05-03T08:22:21.282Z</time></trkpt><trkpt lat="43.2355555" lon="12.0713439"><ele>582.4000000000001</ele><time>2026-05-03T08:22:23.292Z</time></trkpt><trkpt lat="43.235479" lon="12.0713934"><ele>580.6</ele><time>2026-05-03T08:22:25.289Z</time></trkpt><trkpt lat="43.2353994" lon="12.0714493"><ele>578.8000000000001</ele><time>2026-05-03T08:22:27.273Z</time></trkpt><trkpt lat="43.2353233" lon="12.071506"><ele>577.0</ele><time>2026-05-03T08:22:29.289Z</time></trkpt><trkpt lat="43.2352377" lon="12.0715965"><ele>579.6</ele><time>2026-05-03T08:22:31.282Z</time></trkpt><trkpt lat="43.2351631" lon="12.0716561"><ele>582.2</ele><time>2026-05-03T08:22:33.286Z</time></trkpt><trkpt lat="43.2350941" lon="12.0717297"><ele>584.8</ele><time>2026-05-03T08:22:35.286Z</time></trkpt><trkpt lat="43.2350213" lon="12.0718235"><ele>587.4</ele><time>2026-05-03T08:22:37.292Z</time></trkpt><trkpt lat="43.2349598" lon="12.0719381"><ele>590.0</ele><time>2026-05-03T08:22:39.292Z</time></trkpt><trkpt lat="43.2348936" lon="12.0720571"><ele>590.0</ele><time>2026-05-03T08:22:41.279Z</time></trkpt><trkpt lat="43.2348546" lon="12.072131"><ele>590.0</ele><time>2026-05-03T08:22:42.287Z</time></trkpt><trkpt lat="43.2347895" lon="12.0722778"><ele>590.0</ele><time>2026-05-03T08:22:44.277Z</time></trkpt><trkpt lat="43.2347311" lon="12.0724244"><ele>590.0</ele><time>2026-05-03T08:22:46.28Z</time></trkpt><trkpt lat="43.2347027" lon="12.0725741"><ele>590.0</ele><time>2026-05-03T08:22:48.293Z</time></trkpt><trkpt lat="43.2346634" lon="12.0727186"><ele>591.1666666666666</ele><time>2026-05-03T08:22:50.266Z</time></trkpt><trkpt lat="43.2346312" lon="12.0728573"><ele>592.3333333333333</ele><time>2026-05-03T08:22:52.282Z</time></trkpt><trkpt lat="43.2346476" lon="12.0729928"><ele>593.5</ele><time>2026-05-03T08:22:54.281Z</time></trkpt><trkpt lat="43.2346881" lon="12.0731101"><ele>594.6666666666666</ele><time>2026-05-03T08:22:56.281Z</time></trkpt><trkpt lat="43.234724" lon="12.0731899"><ele>595.8333333333334</ele><time>2026-05-03T08:22:57.285Z</time></trkpt><trkpt lat="43.234772" lon="12.0732646"><ele>597.0</ele><time>2026-05-03T08:22:58.289Z</time></trkpt><trkpt lat="43.2348172" lon="12.0734129"><ele>597.0</ele><time>2026-05-03T08:23:00.285Z</time></trkpt><trkpt lat="43.2348048" lon="12.0735679"><ele>597.0</ele><time>2026-05-03T08:23:02.279Z</time></trkpt><trkpt lat="43.2347236" lon="12.0736371"><ele>597.0</ele><time>2026-05-03T08:23:04.279Z</time></trkpt><trkpt lat="43.23461" lon="12.0736495"><ele>597.0</ele><time>2026-05-03T08:23:06.286Z</time></trkpt><trkpt lat="43.2345012" lon="12.0736699"><ele>597.0</ele><time>2026-05-03T08:23:08.285Z</time></trkpt><trkpt lat="43.2344377" lon="12.0736854"><ele>594.2857142857143</ele><time>2026-05-03T08:23:09.285Z</time></trkpt><trkpt lat="43.2343627" lon="12.0736913"><ele>591.5714285714286</ele><time>2026-05-03T08:23:10.277Z</time></trkpt><trkpt lat="43.2343082" lon="12.0737483"><ele>588.8571428571429</ele><time>2026-05-03T08:23:11.279Z</time></trkpt><trkpt lat="43.2342466" lon="12.073787"><ele>586.1428571428571</ele><time>2026-05-03T08:23:12.285Z</time></trkpt><trkpt lat="43.2341721" lon="12.0738317"><ele>583.4285714285714</ele><time>2026-05-03T08:23:13.283Z</time></trkpt><trkpt lat="43.2341051" lon="12.0738649"><ele>580.7142857142858</ele><time>2026-05-03T08:23:14.278Z</time></trkpt><trkpt lat="43.2340395" lon="12.0739169"><ele>578.0</ele><time>2026-05-03T08:23:15.28Z</time></trkpt><trkpt lat="43.2339546" lon="12.0739724"><ele>578.6666666666666</ele><time>2026-05-03T08:23:16.277Z</time></trkpt><trkpt lat="43.2338756" lon="12.0740153"><ele>579.3333333333333</ele><time>2026-05-03T08:23:17.277Z</time></trkpt><trkpt lat="43.2337942" lon="12.0740517"><ele>580.0</ele><time>2026-05-03T08:23:18.288Z</time></trkpt><trkpt lat="43.2337069" lon="12.0740783"><ele>580.6666666666666</ele><time>2026-05-03T08:23:19.286Z</time></trkpt><trkpt lat="43.2336133" lon="12.0741055"><ele>581.3333333333334</ele><time>2026-05-03T08:23:20.284Z</time></trkpt><trkpt lat="43.2335321" lon="12.0741259"><ele>582.0</ele><time>2026-05-03T08:23:21.281Z</time></trkpt><trkpt lat="43.2334493" lon="12.0741427"><ele>582.0</ele><time>2026-05-03T08:23:22.284Z</time></trkpt><trkpt lat="43.2333757" lon="12.0741763"><ele>582.0</ele><time>2026-05-03T08:23:23.275Z</time></trkpt><trkpt lat="43.2332985" lon="12.0742236"><ele>582.0</ele><time>2026-05-03T08:23:24.29Z</time></trkpt><trkpt lat="43.2332161" lon="12.0742722"><ele>582.0</ele><time>2026-05-03T08:23:25.28Z</time></trkpt><trkpt lat="43.2331502" lon="12.0743226"><ele>582.0</ele><time>2026-05-03T08:23:26.277Z</time></trkpt><trkpt lat="43.2330736" lon="12.0743981"><ele>582.0</ele><time>2026-05-03T08:23:27.274Z</time></trkpt><trkpt lat="43.2330115" lon="12.0744251"><ele>581.0</ele><time>2026-05-03T08:23:28.282Z</time></trkpt><trkpt lat="43.2329056" lon="12.0743814"><ele>580.0</ele><time>2026-05-03T08:23:30.288Z</time></trkpt><trkpt lat="43.232843" lon="12.0743424"><ele>579.0</ele><time>2026-05-03T08:23:32.283Z</time></trkpt><trkpt lat="43.232783" lon="12.0742842"><ele>578.0</ele><time>2026-05-03T08:23:34.285Z</time></trkpt><trkpt lat="43.2327096" lon="12.0741306"><ele>577.0</ele><time>2026-05-03T08:23:37.279Z</time></trkpt><trkpt lat="43.2326661" lon="12.0740492"><ele>577.0</ele><time>2026-05-03T08:23:39.288Z</time></trkpt><trkpt lat="43.2326177" lon="12.0739831"><ele>577.0</ele><time>2026-05-03T08:23:41.261Z</time></trkpt><trkpt lat="43.232552" lon="12.0739464"><ele>577.0</ele><time>2026-05-03T08:23:44.282Z</time></trkpt><trkpt lat="43.2324726" lon="12.0739603"><ele>577.0</ele><time>2026-05-03T08:23:47.283Z</time></trkpt><trkpt lat="43.2323868" lon="12.074029"><ele>577.0</ele><time>2026-05-03T08:23:50.285Z</time></trkpt><trkpt lat="43.2323245" lon="12.0740775"><ele>577.0</ele><time>2026-05-03T08:23:52.287Z</time></trkpt><trkpt lat="43.232263" lon="12.0741078"><ele>578.5714285714286</ele><time>2026-05-03T08:23:54.282Z</time></trkpt><trkpt lat="43.2322107" lon="12.074163"><ele>580.1428571428571</ele><time>2026-05-03T08:23:56.28Z</time></trkpt><trkpt lat="43.2321524" lon="12.0742076"><ele>581.7142857142858</ele><time>2026-05-03T08:23:58.273Z</time></trkpt><trkpt lat="43.2320744" lon="12.0742384"><ele>583.2857142857142</ele><time>2026-05-03T08:24:00.289Z</time></trkpt><trkpt lat="43.231999" lon="12.074284"><ele>584.8571428571429</ele><time>2026-05-03T08:24:02.292Z</time></trkpt><trkpt lat="43.2319272" lon="12.0743212"><ele>586.4285714285714</ele><time>2026-05-03T08:24:04.281Z</time></trkpt><trkpt lat="43.2318649" lon="12.0743602"><ele>588.0</ele><time>2026-05-03T08:24:06.288Z</time></trkpt><trkpt lat="43.231778" lon="12.0744243"><ele>588.0</ele><time>2026-05-03T08:24:09.281Z</time></trkpt><trkpt lat="43.2316951" lon="12.0744515"><ele>588.0</ele><time>2026-05-03T08:24:11.282Z</time></trkpt><trkpt lat="43.2316082" lon="12.074476"><ele>588.0</ele><time>2026-05-03T08:24:13.282Z</time></trkpt><trkpt lat="43.2315228" lon="12.074505"><ele>588.0</ele><time>2026-05-03T08:24:15.286Z</time></trkpt><trkpt lat="43.2314434" lon="12.0745496"><ele>588.0</ele><time>2026-05-03T08:24:17.284Z</time></trkpt><trkpt lat="43.2313729" lon="12.0746152"><ele>588.0</ele><time>2026-05-03T08:24:19.283Z</time></trkpt><trkpt lat="43.2313066" lon="12.0746995"><ele>587.6666666666666</ele><time>2026-05-03T08:24:21.285Z</time></trkpt><trkpt lat="43.2312366" lon="12.0747868"><ele>587.3333333333334</ele><time>2026-05-03T08:24:23.283Z</time></trkpt><trkpt lat="43.2311601" lon="12.0748601"><ele>587.0</ele><time>2026-05-03T08:24:25.283Z</time></trkpt><trkpt lat="43.2310946" lon="12.0749433"><ele>586.6666666666667</ele><time>2026-05-03T08:24:27.282Z</time></trkpt><trkpt lat="43.2310328" lon="12.0750178"><ele>586.3333333333334</ele><time>2026-05-03T08:24:29.288Z</time></trkpt><trkpt lat="43.2309656" lon="12.0750721"><ele>586.0</ele><time>2026-05-03T08:24:31.289Z</time></trkpt><trkpt lat="43.2308953" lon="12.0751292"><ele>586.25</ele><time>2026-05-03T08:24:33.28Z</time></trkpt><trkpt lat="43.230847" lon="12.075267"><ele>586.5</ele><time>2026-05-03T08:24:35.281Z</time></trkpt><trkpt lat="43.2308308" lon="12.0754095"><ele>586.75</ele><time>2026-05-03T08:24:37.29Z</time></trkpt><trkpt lat="43.23083" lon="12.0755511"><ele>587.0</ele><time>2026-05-03T08:24:39.28Z</time></trkpt><trkpt lat="43.230831" lon="12.0758106"><ele>587.0</ele><time>2026-05-03T08:24:41.289Z</time></trkpt><trkpt lat="43.2307792" lon="12.0758666"><ele>587.0</ele><time>2026-05-03T08:24:42.282Z</time></trkpt><trkpt lat="43.2307185" lon="12.0759143"><ele>587.0</ele><time>2026-05-03T08:24:43.288Z</time></trkpt><trkpt lat="43.230612" lon="12.0759786"><ele>587.0</ele><time>2026-05-03T08:24:45.281Z</time></trkpt><trkpt lat="43.2305533" lon="12.0760202"><ele>587.0</ele><time>2026-05-03T08:24:46.287Z</time></trkpt><trkpt lat="43.2304504" lon="12.0760927"><ele>587.0</ele><time>2026-05-03T08:24:48.291Z</time></trkpt><trkpt lat="43.230392" lon="12.0761414"><ele>585.2857142857143</ele><time>2026-05-03T08:24:49.291Z</time></trkpt><trkpt lat="43.2303339" lon="12.0761861"><ele>583.5714285714287</ele><time>2026-05-03T08:24:50.282Z</time></trkpt><trkpt lat="43.2302714" lon="12.0762172"><ele>581.8571428571429</ele><time>2026-05-03T08:24:51.389Z</time></trkpt><trkpt lat="43.2302115" lon="12.0762551"><ele>580.1428571428571</ele><time>2026-05-03T08:24:52.291Z</time></trkpt><trkpt lat="43.2301522" lon="12.0762935"><ele>578.4285714285713</ele><time>2026-05-03T08:24:53.278Z</time></trkpt><trkpt lat="43.2300908" lon="12.0763379"><ele>576.7142857142857</ele><time>2026-05-03T08:24:54.274Z</time></trkpt><trkpt lat="43.2300299" lon="12.0763883"><ele>575.0</ele><time>2026-05-03T08:24:55.289Z</time></trkpt><trkpt lat="43.2299301" lon="12.0764843"><ele>575.0</ele><time>2026-05-03T08:24:57.281Z</time></trkpt><trkpt lat="43.2298688" lon="12.0765839"><ele>575.0</ele><time>2026-05-03T08:24:58.28Z</time></trkpt><trkpt lat="43.2298372" lon="12.076721"><ele>575.0</ele><time>2026-05-03T08:25:00.288Z</time></trkpt><trkpt lat="43.2298029" lon="12.0768867"><ele>575.0</ele><time>2026-05-03T08:25:02.382Z</time></trkpt><trkpt lat="43.2298019" lon="12.0770094"><ele>575.0</ele><time>2026-05-03T08:25:03.296Z</time></trkpt><trkpt lat="43.2297739" lon="12.0771436"><ele>574.8333333333333</ele><time>2026-05-03T08:25:05.278Z</time></trkpt><trkpt lat="43.2297517" lon="12.0772259"><ele>574.6666666666666</ele><time>2026-05-03T08:25:06.285Z</time></trkpt><trkpt lat="43.229706" lon="12.0773707"><ele>574.5</ele><time>2026-05-03T08:25:08.386Z</time></trkpt><trkpt lat="43.2296393" lon="12.077464"><ele>574.3333333333334</ele><time>2026-05-03T08:25:10.273Z</time></trkpt><trkpt lat="43.2295555" lon="12.0774545"><ele>574.1666666666667</ele><time>2026-05-03T08:25:12.287Z</time></trkpt><trkpt lat="43.2294874" lon="12.0774353"><ele>574.0</ele><time>2026-05-03T08:25:14.291Z</time></trkpt><trkpt lat="43.2294048" lon="12.077433"><ele>574.0</ele><time>2026-05-03T08:25:16.276Z</time></trkpt><trkpt lat="43.2293213" lon="12.0774243"><ele>574.0</ele><time>2026-05-03T08:25:18.28Z</time></trkpt><trkpt lat="43.229239" lon="12.0774252"><ele>574.0</ele><time>2026-05-03T08:25:20.279Z</time></trkpt><trkpt lat="43.2291552" lon="12.0774188"><ele>574.0</ele><time>2026-05-03T08:25:22.282Z</time></trkpt><trkpt lat="43.2290667" lon="12.0774147"><ele>574.0</ele><time>2026-05-03T08:25:24.284Z</time></trkpt><trkpt lat="43.2289982" lon="12.0773966"><ele>574.0</ele><time>2026-05-03T08:25:26.264Z</time></trkpt><trkpt lat="43.2289271" lon="12.0773931"><ele>574.6666666666667</ele><time>2026-05-03T08:25:28.289Z</time></trkpt><trkpt lat="43.2288533" lon="12.0774094"><ele>575.3333333333334</ele><time>2026-05-03T08:25:30.283Z</time></trkpt><trkpt lat="43.2287777" lon="12.0774284"><ele>576.0</ele><time>2026-05-03T08:25:32.283Z</time></trkpt><trkpt lat="43.2287038" lon="12.0774503"><ele>576.6666666666666</ele><time>2026-05-03T08:25:34.29Z</time></trkpt><trkpt lat="43.2286296" lon="12.0774817"><ele>577.3333333333333</ele><time>2026-05-03T08:25:36.283Z</time></trkpt><trkpt lat="43.2285469" lon="12.0775265"><ele>578.0</ele><time>2026-05-03T08:25:38.295Z</time></trkpt><trkpt lat="43.2284638" lon="12.0775682"><ele>578.0</ele><time>2026-05-03T08:25:40.289Z</time></trkpt><trkpt lat="43.2283806" lon="12.077608"><ele>578.0</ele><time>2026-05-03T08:25:42.27Z</time></trkpt><trkpt lat="43.2283038" lon="12.0776503"><ele>578.0</ele><time>2026-05-03T08:25:44.289Z</time></trkpt><trkpt lat="43.2282377" lon="12.0776842"><ele>578.0</ele><time>2026-05-03T08:25:46.278Z</time></trkpt><trkpt lat="43.2281715" lon="12.0777248"><ele>578.0</ele><time>2026-05-03T08:25:48.297Z</time></trkpt><trkpt lat="43.2281095" lon="12.0777818"><ele>578.0</ele><time>2026-05-03T08:25:50.29Z</time></trkpt><trkpt lat="43.2280377" lon="12.0778316"><ele>577.3333333333333</ele><time>2026-05-03T08:25:52.29Z</time></trkpt><trkpt lat="43.2279777" lon="12.0779018"><ele>576.6666666666666</ele><time>2026-05-03T08:25:54.289Z</time></trkpt><trkpt lat="43.227918" lon="12.0779915"><ele>576.0</ele><time>2026-05-03T08:25:56.265Z</time></trkpt><trkpt lat="43.2278646" lon="12.0780891"><ele>575.3333333333334</ele><time>2026-05-03T08:25:58.273Z</time></trkpt><trkpt lat="43.2277959" lon="12.0781777"><ele>574.6666666666667</ele><time>2026-05-03T08:26:00.266Z</time></trkpt><trkpt lat="43.2277365" lon="12.078258"><ele>574.0</ele><time>2026-05-03T08:26:02.297Z</time></trkpt><trkpt lat="43.2276673" lon="12.0783659"><ele>574.0</ele><time>2026-05-03T08:26:04.27Z</time></trkpt><trkpt lat="43.2276368" lon="12.0784872"><ele>574.0</ele><time>2026-05-03T08:26:06.37Z</time></trkpt><trkpt lat="43.2275893" lon="12.0786283"><ele>574.0</ele><time>2026-05-03T08:26:08.271Z</time></trkpt><trkpt lat="43.227513" lon="12.0786952"><ele>574.0</ele><time>2026-05-03T08:26:10.273Z</time></trkpt><trkpt lat="43.2274299" lon="12.0787831"><ele>574.0</ele><time>2026-05-03T08:26:12.271Z</time></trkpt><trkpt lat="43.2273468" lon="12.0788333"><ele>573.0</ele><time>2026-05-03T08:26:14.268Z</time></trkpt><trkpt lat="43.2272582" lon="12.0789299"><ele>572.0</ele><time>2026-05-03T08:26:15.269Z</time></trkpt><trkpt lat="43.2271578" lon="12.0789728"><ele>571.0</ele><time>2026-05-03T08:26:17.37Z</time></trkpt><trkpt lat="43.2270566" lon="12.0790294"><ele>570.0</ele><time>2026-05-03T08:26:19.269Z</time></trkpt><trkpt lat="43.2269525" lon="12.0790831"><ele>569.0</ele><time>2026-05-03T08:26:21.269Z</time></trkpt><trkpt lat="43.2268581" lon="12.0791324"><ele>569.0</ele><time>2026-05-03T08:26:23.267Z</time></trkpt><trkpt lat="43.2267736" lon="12.0791862"><ele>569.0</ele><time>2026-05-03T08:26:25.276Z</time></trkpt><trkpt lat="43.2266928" lon="12.079259"><ele>569.0</ele><time>2026-05-03T08:26:27.283Z</time></trkpt><trkpt lat="43.2266348" lon="12.0793571"><ele>569.0</ele><time>2026-05-03T08:26:29.274Z</time></trkpt><trkpt lat="43.2265648" lon="12.0794563"><ele>569.0</ele><time>2026-05-03T08:26:31.297Z</time></trkpt><trkpt lat="43.2265105" lon="12.0795549"><ele>569.0</ele><time>2026-05-03T08:26:33.281Z</time></trkpt><trkpt lat="43.2264964" lon="12.0796411"><ele>569.0</ele><time>2026-05-03T08:26:34.289Z</time></trkpt><trkpt lat="43.226481" lon="12.0797272"><ele>569.0</ele><time>2026-05-03T08:26:35.281Z</time></trkpt><trkpt lat="43.226462" lon="12.0799083"><ele>569.0</ele><time>2026-05-03T08:26:37.278Z</time></trkpt><trkpt lat="43.2264667" lon="12.0800023"><ele>569.0</ele><time>2026-05-03T08:26:38.287Z</time></trkpt><trkpt lat="43.2264783" lon="12.0800913"><ele>569.0</ele><time>2026-05-03T08:26:39.281Z</time></trkpt><trkpt lat="43.2264947" lon="12.0802106"><ele>569.5714285714287</ele><time>2026-05-03T08:26:41.278Z</time></trkpt><trkpt lat="43.2265231" lon="12.0802879"><ele>570.1428571428571</ele><time>2026-05-03T08:26:42.286Z</time></trkpt><trkpt lat="43.2265536" lon="12.0803738"><ele>570.7142857142858</ele><time>2026-05-03T08:26:44.284Z</time></trkpt><trkpt lat="43.2265825" lon="12.0804631"><ele>571.2857142857143</ele><time>2026-05-03T08:26:46.276Z</time></trkpt><trkpt lat="43.2266124" lon="12.0805433"><ele>571.8571428571429</ele><time>2026-05-03T08:26:48.289Z</time></trkpt><trkpt lat="43.2266455" lon="12.080641"><ele>572.4285714285714</ele><time>2026-05-03T08:26:50.286Z</time></trkpt><trkpt lat="43.22668" lon="12.0807262"><ele>573.0</ele><time>2026-05-03T08:26:52.285Z</time></trkpt><trkpt lat="43.2267059" lon="12.0808099"><ele>573.8333333333334</ele><time>2026-05-03T08:26:54.281Z</time></trkpt><trkpt lat="43.2267329" lon="12.0809072"><ele>574.6666666666666</ele><time>2026-05-03T08:26:57.278Z</time></trkpt><trkpt lat="43.2267124" lon="12.0810217"><ele>575.5</ele><time>2026-05-03T08:27:00.288Z</time></trkpt><trkpt lat="43.226681" lon="12.0811023"><ele>576.3333333333333</ele><time>2026-05-03T08:27:02.289Z</time></trkpt><trkpt lat="43.2266428" lon="12.0811804"><ele>577.1666666666666</ele><time>2026-05-03T08:27:04.286Z</time></trkpt><trkpt lat="43.2265952" lon="12.0812935"><ele>578.0</ele><time>2026-05-03T08:27:07.29Z</time></trkpt><trkpt lat="43.2265467" lon="12.0813991"><ele>578.0</ele><time>2026-05-03T08:27:10.286Z</time></trkpt><trkpt lat="43.2264975" lon="12.0814846"><ele>578.0</ele><time>2026-05-03T08:27:12.286Z</time></trkpt><trkpt lat="43.2264554" lon="12.0815563"><ele>578.0</ele><time>2026-05-03T08:27:14.281Z</time></trkpt><trkpt lat="43.2264088" lon="12.0816442"><ele>578.0</ele><time>2026-05-03T08:27:16.279Z</time></trkpt><trkpt lat="43.2263248" lon="12.0816897"><ele>578.0</ele><time>2026-05-03T08:27:19.293Z</time></trkpt><trkpt lat="43.2262381" lon="12.0816969"><ele>578.0</ele><time>2026-05-03T08:27:22.279Z</time></trkpt><trkpt lat="43.2261575" lon="12.0817498"><ele>577.5714285714286</ele><time>2026-05-03T08:27:25.291Z</time></trkpt><trkpt lat="43.2260794" lon="12.0818039"><ele>577.1428571428571</ele><time>2026-05-03T08:27:28.276Z</time></trkpt><trkpt lat="43.2260249" lon="12.0818524"><ele>576.7142857142857</ele><time>2026-05-03T08:27:31.287Z</time></trkpt><trkpt lat="43.2259901" lon="12.0819335"><ele>576.2857142857142</ele><time>2026-05-03T08:27:34.282Z</time></trkpt><trkpt lat="43.2260219" lon="12.0820136"><ele>575.8571428571428</ele><time>2026-05-03T08:27:38.282Z</time></trkpt><trkpt lat="43.2260569" lon="12.0820889"><ele>575.4285714285714</ele><time>2026-05-03T08:27:43.283Z</time></trkpt><trkpt lat="43.2261024" lon="12.0821702"><ele>575.0</ele><time>2026-05-03T08:27:46.282Z</time></trkpt><trkpt lat="43.2261326" lon="12.0822591"><ele>575.0</ele><time>2026-05-03T08:27:49.284Z</time></trkpt><trkpt lat="43.2261378" lon="12.0823657"><ele>575.0</ele><time>2026-05-03T08:27:52.288Z</time></trkpt><trkpt lat="43.2261384" lon="12.08247"><ele>575.0</ele><time>2026-05-03T08:27:55.287Z</time></trkpt><trkpt lat="43.2260909" lon="12.082554"><ele>575.0</ele><time>2026-05-03T08:28:01.266Z</time></trkpt><trkpt lat="43.2260509" lon="12.0826552"><ele>575.0</ele><time>2026-05-03T08:28:04.281Z</time></trkpt><trkpt lat="43.2260392" lon="12.0827529"><ele>575.0</ele><time>2026-05-03T08:28:07.284Z</time></trkpt><trkpt lat="43.2260739" lon="12.0828727"><ele>577.1666666666666</ele><time>2026-05-03T08:28:10.282Z</time></trkpt><trkpt lat="43.2261187" lon="12.0830128"><ele>579.3333333333333</ele><time>2026-05-03T08:28:13.292Z</time></trkpt><trkpt lat="43.2261446" lon="12.0830924"><ele>581.5</ele><time>2026-05-03T08:28:15.284Z</time></trkpt><trkpt lat="43.2261816" lon="12.0831964"><ele>583.6666666666666</ele><time>2026-05-03T08:28:18.289Z</time></trkpt><trkpt lat="43.2262263" lon="12.0832821"><ele>585.8333333333334</ele><time>2026-05-03T08:28:21.288Z</time></trkpt><trkpt lat="43.22626" lon="12.0833697"><ele>588.0</ele><time>2026-05-03T08:28:24.274Z</time></trkpt><trkpt lat="43.2262845" lon="12.0834536"><ele>588.2857142857143</ele><time>2026-05-03T08:28:27.284Z</time></trkpt><trkpt lat="43.2263354" lon="12.0835394"><ele>588.5714285714286</ele><time>2026-05-03T08:28:31.292Z</time></trkpt><trkpt lat="43.2264008" lon="12.0836091"><ele>588.8571428571429</ele><time>2026-05-03T08:28:35.282Z</time></trkpt><trkpt lat="43.2264613" lon="12.0836442"><ele>589.1428571428571</ele><time>2026-05-03T08:28:38.265Z</time></trkpt><trkpt lat="43.2265155" lon="12.0836923"><ele>589.4285714285714</ele><time>2026-05-03T08:28:41.383Z</time></trkpt><trkpt lat="43.2265582" lon="12.0837581"><ele>589.7142857142858</ele><time>2026-05-03T08:28:44.289Z</time></trkpt><trkpt lat="43.2265995" lon="12.0838514"><ele>590.0</ele><time>2026-05-03T08:28:48.288Z</time></trkpt><trkpt lat="43.2266366" lon="12.0839361"><ele>593.3333333333333</ele><time>2026-05-03T08:28:52.284Z</time></trkpt><trkpt lat="43.2266648" lon="12.0838388"><ele>596.6666666666666</ele><time>2026-05-03T08:28:57.286Z</time></trkpt><trkpt lat="43.226702" lon="12.0837431"><ele>600.0</ele><time>2026-05-03T08:29:01.283Z</time></trkpt><trkpt lat="43.2267682" lon="12.0836826"><ele>603.3333333333334</ele><time>2026-05-03T08:29:05.29Z</time></trkpt><trkpt lat="43.2268379" lon="12.0836463"><ele>606.6666666666667</ele><time>2026-05-03T08:29:09.282Z</time></trkpt><trkpt lat="43.2269" lon="12.0836266"><ele>610.0</ele><time>2026-05-03T08:29:12.29Z</time></trkpt><trkpt lat="43.2269799" lon="12.0836028"><ele>610.0</ele><time>2026-05-03T08:29:16.388Z</time></trkpt><trkpt lat="43.2270552" lon="12.0835926"><ele>610.0</ele><time>2026-05-03T08:29:20.293Z</time></trkpt><trkpt lat="43.2271252" lon="12.0835856"><ele>610.0</ele><time>2026-05-03T08:29:24.282Z</time></trkpt><trkpt lat="43.22719" lon="12.0835658"><ele>610.0</ele><time>2026-05-03T08:29:28.303Z</time></trkpt><trkpt lat="43.2272519" lon="12.0835888"><ele>610.0</ele><time>2026-05-03T08:29:32.281Z</time></trkpt><trkpt lat="43.2273226" lon="12.0835876"><ele>610.0</ele><time>2026-05-03T08:29:35.288Z</time></trkpt><trkpt lat="43.2273939" lon="12.0835979"><ele>610.0</ele><time>2026-05-03T08:29:38.291Z</time></trkpt><trkpt lat="43.227459" lon="12.0836237"><ele>611.8571428571429</ele><time>2026-05-03T08:29:41.284Z</time></trkpt><trkpt lat="43.2275218" lon="12.0836511"><ele>613.7142857142857</ele><time>2026-05-03T08:29:44.28Z</time></trkpt><trkpt lat="43.2275764" lon="12.0836993"><ele>615.5714285714286</ele><time>2026-05-03T08:29:47.281Z</time></trkpt><trkpt lat="43.2276354" lon="12.0837504"><ele>617.4285714285714</ele><time>2026-05-03T08:29:51.281Z</time></trkpt><trkpt lat="43.2277189" lon="12.0837667"><ele>619.2857142857142</ele><time>2026-05-03T08:29:54.385Z</time></trkpt><trkpt lat="43.2277843" lon="12.0837875"><ele>621.1428571428571</ele><time>2026-05-03T08:29:57.287Z</time></trkpt><trkpt lat="43.227838" lon="12.0838497"><ele>623.0</ele><time>2026-05-03T08:30:00.269Z</time></trkpt><trkpt lat="43.227887" lon="12.0839128"><ele>623.0</ele><time>2026-05-03T08:30:03.288Z</time></trkpt><trkpt lat="43.2279402" lon="12.0839619"><ele>623.0</ele><time>2026-05-03T08:30:06.268Z</time></trkpt><trkpt lat="43.2279951" lon="12.0840193"><ele>623.0</ele><time>2026-05-03T08:30:09.274Z</time></trkpt><trkpt lat="43.2280549" lon="12.0840597"><ele>623.0</ele><time>2026-05-03T08:30:12.278Z</time></trkpt><trkpt lat="43.2281228" lon="12.084115"><ele>623.0</ele><time>2026-05-03T08:30:16.286Z</time></trkpt><trkpt lat="43.2281861" lon="12.0841868"><ele>623.0</ele><time>2026-05-03T08:30:20.282Z</time></trkpt><trkpt lat="43.2282438" lon="12.0842482"><ele>623.0</ele><time>2026-05-03T08:30:23.29Z</time></trkpt><trkpt lat="43.2282995" lon="12.0842966"><ele>625.8333333333333</ele><time>2026-05-03T08:30:26.29Z</time></trkpt><trkpt lat="43.2283666" lon="12.0843524"><ele>628.6666666666666</ele><time>2026-05-03T08:30:29.366Z</time></trkpt><trkpt lat="43.2284131" lon="12.084426"><ele>631.5</ele><time>2026-05-03T08:30:32.29Z</time></trkpt><trkpt lat="43.2284761" lon="12.0844762"><ele>634.3333333333334</ele><time>2026-05-03T08:30:35.29Z</time></trkpt><trkpt lat="43.2285438" lon="12.0845333"><ele>637.1666666666667</ele><time>2026-05-03T08:30:38.287Z</time></trkpt><trkpt lat="43.2286046" lon="12.0845971"><ele>640.0</ele><time>2026-05-03T08:30:41.281Z</time></trkpt><trkpt lat="43.2286664" lon="12.0846603"><ele>640.0</ele><time>2026-05-03T08:30:44.287Z</time></trkpt><trkpt lat="43.2287355" lon="12.0847207"><ele>640.0</ele><time>2026-05-03T08:30:47.288Z</time></trkpt><trkpt lat="43.2288032" lon="12.0847851"><ele>640.0</ele><time>2026-05-03T08:30:50.281Z</time></trkpt><trkpt lat="43.2288704" lon="12.0848529"><ele>640.0</ele><time>2026-05-03T08:30:53.29Z</time></trkpt><trkpt lat="43.228948" lon="12.0849174"><ele>640.0</ele><time>2026-05-03T08:30:56.27Z</time></trkpt><trkpt lat="43.2290599" lon="12.0849656"><ele>641.1666666666667</ele><time>2026-05-03T08:31:00.28Z</time></trkpt><trkpt lat="43.2291484" lon="12.0849766"><ele>642.3333333333334</ele><time>2026-05-03T08:31:03.265Z</time></trkpt><trkpt lat="43.2292365" lon="12.0849982"><ele>643.5</ele><time>2026-05-03T08:31:06.291Z</time></trkpt><trkpt lat="43.229318" lon="12.085018"><ele>644.6666666666666</ele><time>2026-05-03T08:31:09.272Z</time></trkpt><trkpt lat="43.2293903" lon="12.0850336"><ele>645.8333333333333</ele><time>2026-05-03T08:31:12.267Z</time></trkpt><trkpt lat="43.2294615" lon="12.0850465"><ele>647.0</ele><time>2026-05-03T08:31:15.28Z</time></trkpt><trkpt lat="43.2295306" lon="12.0850734"><ele>647.0</ele><time>2026-05-03T08:31:18.267Z</time></trkpt><trkpt lat="43.2296038" lon="12.0850922"><ele>647.0</ele><time>2026-05-03T08:31:21.266Z</time></trkpt><trkpt lat="43.2296796" lon="12.0851096"><ele>647.0</ele><time>2026-05-03T08:31:24.266Z</time></trkpt><trkpt lat="43.2297598" lon="12.085135"><ele>647.0</ele><time>2026-05-03T08:31:27.265Z</time></trkpt><trkpt lat="43.2298398" lon="12.0851571"><ele>647.0</ele><time>2026-05-03T08:31:30.273Z</time></trkpt><trkpt lat="43.2299191" lon="12.0851718"><ele>647.0</ele><time>2026-05-03T08:31:33.274Z</time></trkpt><trkpt lat="43.2300005" lon="12.0851788"><ele>648.5</ele><time>2026-05-03T08:31:36.292Z</time></trkpt><trkpt lat="43.2300901" lon="12.0851734"><ele>650.0</ele><time>2026-05-03T08:31:39.273Z</time></trkpt><trkpt lat="43.2301767" lon="12.0851577"><ele>651.5</ele><time>2026-05-03T08:31:42.265Z</time></trkpt><trkpt lat="43.2302557" lon="12.0851566"><ele>653.0</ele><time>2026-05-03T08:31:45.262Z</time></trkpt><trkpt lat="43.2303278" lon="12.0851602"><ele>654.5</ele><time>2026-05-03T08:31:48.264Z</time></trkpt><trkpt lat="43.2304026" lon="12.0851594"><ele>656.0</ele><time>2026-05-03T08:31:51.269Z</time></trkpt><trkpt lat="43.2304832" lon="12.0851342"><ele>656.0</ele><time>2026-05-03T08:31:54.274Z</time></trkpt><trkpt lat="43.230563" lon="12.0851047"><ele>656.0</ele><time>2026-05-03T08:31:57.283Z</time></trkpt><trkpt lat="43.2306432" lon="12.0850633"><ele>656.0</ele><time>2026-05-03T08:31:59.268Z</time></trkpt><trkpt lat="43.230715" lon="12.0850432"><ele>656.0</ele><time>2026-05-03T08:32:02.278Z</time></trkpt><trkpt lat="43.2307864" lon="12.0850208"><ele>656.0</ele><time>2026-05-03T08:32:05.281Z</time></trkpt><trkpt lat="43.2308564" lon="12.0849972"><ele>656.0</ele><time>2026-05-03T08:32:08.277Z</time></trkpt><trkpt lat="43.2309349" lon="12.0849807"><ele>657.7142857142857</ele><time>2026-05-03T08:32:12.269Z</time></trkpt><trkpt lat="43.2310003" lon="12.0850206"><ele>659.4285714285714</ele><time>2026-05-03T08:32:16.285Z</time></trkpt><trkpt lat="43.2310659" lon="12.0850264"><ele>661.1428571428571</ele><time>2026-05-03T08:32:30.288Z</time></trkpt><trkpt lat="43.2311193" lon="12.0850748"><ele>662.8571428571429</ele><time>2026-05-03T08:32:33.301Z</time></trkpt><trkpt lat="43.23117" lon="12.0851633"><ele>664.5714285714286</ele><time>2026-05-03T08:32:36.273Z</time></trkpt><trkpt lat="43.2312192" lon="12.0852499"><ele>666.2857142857142</ele><time>2026-05-03T08:32:39.267Z</time></trkpt><trkpt lat="43.2312674" lon="12.0853406"><ele>668.0</ele><time>2026-05-03T08:32:42.281Z</time></trkpt><trkpt lat="43.2313096" lon="12.085435"><ele>668.0</ele><time>2026-05-03T08:32:45.289Z</time></trkpt><trkpt lat="43.2313409" lon="12.0855305"><ele>668.0</ele><time>2026-05-03T08:32:48.288Z</time></trkpt><trkpt lat="43.2313873" lon="12.085618"><ele>668.0</ele><time>2026-05-03T08:32:51.29Z</time></trkpt><trkpt lat="43.2314271" lon="12.0856945"><ele>668.0</ele><time>2026-05-03T08:32:54.281Z</time></trkpt><trkpt lat="43.231482" lon="12.0857647"><ele>668.0</ele><time>2026-05-03T08:32:57.275Z</time></trkpt><trkpt lat="43.2315515" lon="12.0858313"><ele>668.0</ele><time>2026-05-03T08:33:00.285Z</time></trkpt><trkpt lat="43.2316126" lon="12.0858866"><ele>669.6666666666666</ele><time>2026-05-03T08:33:03.283Z</time></trkpt><trkpt lat="43.2316649" lon="12.085963"><ele>671.3333333333333</ele><time>2026-05-03T08:33:06.283Z</time></trkpt><trkpt lat="43.2317116" lon="12.0860601"><ele>673.0</ele><time>2026-05-03T08:33:09.279Z</time></trkpt><trkpt lat="43.2317573" lon="12.0861577"><ele>674.6666666666666</ele><time>2026-05-03T08:33:12.289Z</time></trkpt><trkpt lat="43.231801" lon="12.0862316"><ele>676.3333333333334</ele><time>2026-05-03T08:33:15.281Z</time></trkpt><trkpt lat="43.2318746" lon="12.0862766"><ele>678.0</ele><time>2026-05-03T08:33:18.276Z</time></trkpt><trkpt lat="43.2319265" lon="12.086333"><ele>678.0</ele><time>2026-05-03T08:33:21.283Z</time></trkpt><trkpt lat="43.2319711" lon="12.0864238"><ele>678.0</ele><time>2026-05-03T08:33:24.277Z</time></trkpt><trkpt lat="43.2320079" lon="12.0865092"><ele>678.0</ele><time>2026-05-03T08:33:27.278Z</time></trkpt><trkpt lat="43.2320765" lon="12.086617"><ele>678.0</ele><time>2026-05-03T08:33:31.282Z</time></trkpt><trkpt lat="43.2321109" lon="12.086721"><ele>678.0</ele><time>2026-05-03T08:33:34.281Z</time></trkpt><trkpt lat="43.2321179" lon="12.0868359"><ele>678.0</ele><time>2026-05-03T08:33:37.28Z</time></trkpt><trkpt lat="43.2321399" lon="12.0869414"><ele>676.6666666666666</ele><time>2026-05-03T08:33:40.282Z</time></trkpt><trkpt lat="43.2321533" lon="12.0870383"><ele>675.3333333333334</ele><time>2026-05-03T08:33:42.286Z</time></trkpt><trkpt lat="43.2321747" lon="12.0871266"><ele>674.0</ele><time>2026-05-03T08:33:44.266Z</time></trkpt><trkpt lat="43.2321711" lon="12.0872194"><ele>672.6666666666667</ele><time>2026-05-03T08:33:46.272Z</time></trkpt><trkpt lat="43.2322003" lon="12.0873303"><ele>671.3333333333334</ele><time>2026-05-03T08:33:48.281Z</time></trkpt><trkpt lat="43.2322206" lon="12.0874342"><ele>670.0</ele><time>2026-05-03T08:33:50.282Z</time></trkpt><trkpt lat="43.2322428" lon="12.0875488"><ele>669.0</ele><time>2026-05-03T08:33:52.281Z</time></trkpt><trkpt lat="43.2322516" lon="12.0877279"><ele>668.0</ele><time>2026-05-03T08:33:54.289Z</time></trkpt><trkpt lat="43.2322508" lon="12.0878265"><ele>667.0</ele><time>2026-05-03T08:33:55.28Z</time></trkpt><trkpt lat="43.2322547" lon="12.0879253"><ele>666.0</ele><time>2026-05-03T08:33:56.27Z</time></trkpt><trkpt lat="43.2322823" lon="12.088088"><ele>665.0</ele><time>2026-05-03T08:33:57.284Z</time></trkpt><trkpt lat="43.2322957" lon="12.0881788"><ele>664.7142857142857</ele><time>2026-05-03T08:33:58.277Z</time></trkpt><trkpt lat="43.2322976" lon="12.0882738"><ele>664.4285714285714</ele><time>2026-05-03T08:33:59.288Z</time></trkpt><trkpt lat="43.2323017" lon="12.0883667"><ele>664.1428571428571</ele><time>2026-05-03T08:34:00.28Z</time></trkpt><trkpt lat="43.2323101" lon="12.0884624"><ele>663.8571428571429</ele><time>2026-05-03T08:34:01.28Z</time></trkpt><trkpt lat="43.2323267" lon="12.0885549"><ele>663.5714285714286</ele><time>2026-05-03T08:34:02.283Z</time></trkpt><trkpt lat="43.2323421" lon="12.0886456"><ele>663.2857142857142</ele><time>2026-05-03T08:34:03.289Z</time></trkpt><trkpt lat="43.2323607" lon="12.0887386"><ele>663.0</ele><time>2026-05-03T08:34:04.29Z</time></trkpt><trkpt lat="43.2323829" lon="12.088826"><ele>665.0</ele><time>2026-05-03T08:34:05.291Z</time></trkpt><trkpt lat="43.2323962" lon="12.0889168"><ele>667.0</ele><time>2026-05-03T08:34:06.289Z</time></trkpt><trkpt lat="43.2323917" lon="12.0890781"><ele>669.0</ele><time>2026-05-03T08:34:08.285Z</time></trkpt><trkpt lat="43.2323837" lon="12.0891645"><ele>671.0</ele><time>2026-05-03T08:34:09.286Z</time></trkpt><trkpt lat="43.2323845" lon="12.0892529"><ele>673.0</ele><time>2026-05-03T08:34:10.278Z</time></trkpt><trkpt lat="43.2324147" lon="12.0894185"><ele>675.0</ele><time>2026-05-03T08:34:12.291Z</time></trkpt><trkpt lat="43.2324291" lon="12.0895157"><ele>675.0</ele><time>2026-05-03T08:34:13.278Z</time></trkpt><trkpt lat="43.2324311" lon="12.0896793"><ele>675.0</ele><time>2026-05-03T08:34:15.29Z</time></trkpt><trkpt lat="43.2324325" lon="12.089815"><ele>675.0</ele><time>2026-05-03T08:34:17.279Z</time></trkpt><trkpt lat="43.2324187" lon="12.0899595"><ele>675.0</ele><time>2026-05-03T08:34:19.285Z</time></trkpt><trkpt lat="43.2323948" lon="12.0900916"><ele>675.0</ele><time>2026-05-03T08:34:21.276Z</time></trkpt><trkpt lat="43.2323806" lon="12.0902075"><ele>674.2</ele><time>2026-05-03T08:34:23.29Z</time></trkpt><trkpt lat="43.232393" lon="12.0903321"><ele>673.4</ele><time>2026-05-03T08:34:25.277Z</time></trkpt><trkpt lat="43.2324316" lon="12.0904599"><ele>672.5999999999999</ele><time>2026-05-03T08:34:27.29Z</time></trkpt><trkpt lat="43.2324586" lon="12.0905427"><ele>671.8</ele><time>2026-05-03T08:34:28.378Z</time></trkpt><trkpt lat="43.2324863" lon="12.0907087"><ele>671.0</ele><time>2026-05-03T08:34:30.277Z</time></trkpt><trkpt lat="43.2326047" lon="12.0907705"><ele>669.1999999999999</ele><time>2026-05-03T08:34:32.277Z</time></trkpt><trkpt lat="43.232717" lon="12.0908348"><ele>667.4</ele><time>2026-05-03T08:34:34.275Z</time></trkpt><trkpt lat="43.2328073" lon="12.0908758"><ele>665.6</ele><time>2026-05-03T08:34:36.278Z</time></trkpt><trkpt lat="43.232875" lon="12.0909216"><ele>663.8</ele><time>2026-05-03T08:34:38.28Z</time></trkpt><trkpt lat="43.2329619" lon="12.0909906"><ele>662.0</ele><time>2026-05-03T08:34:40.372Z</time></trkpt><trkpt lat="43.2330737" lon="12.0910631"><ele>664.4000000000001</ele><time>2026-05-03T08:34:42.278Z</time></trkpt><trkpt lat="43.2331827" lon="12.0910578"><ele>666.8000000000001</ele><time>2026-05-03T08:34:44.276Z</time></trkpt><trkpt lat="43.2332461" lon="12.0910643"><ele>669.2</ele><time>2026-05-03T08:34:46.278Z</time></trkpt><trkpt lat="43.2333148" lon="12.0910589"><ele>671.6</ele><time>2026-05-03T08:34:48.278Z</time></trkpt><trkpt lat="43.2333969" lon="12.0910439"><ele>674.0</ele><time>2026-05-03T08:34:50.288Z</time></trkpt><trkpt lat="43.2335289" lon="12.091036"><ele>674.0000000000001</ele><time>2026-05-03T08:34:54.28Z</time></trkpt><trkpt lat="43.2335921" lon="12.0910444"><ele>674.0</ele><time>2026-05-03T08:34:56.286Z</time></trkpt><trkpt lat="43.2336547" lon="12.0910787"><ele>674.0</ele><time>2026-05-03T08:34:58.279Z</time></trkpt><trkpt lat="43.2337162" lon="12.0911278"><ele>674.0</ele><time>2026-05-03T08:35:00.277Z</time></trkpt><trkpt lat="43.2337838" lon="12.0911644"><ele>674.0</ele><time>2026-05-03T08:35:02.28Z</time></trkpt><trkpt lat="43.2338507" lon="12.091202"><ele>674.0000000000001</ele><time>2026-05-03T08:35:04.277Z</time></trkpt><trkpt lat="43.23392" lon="12.0912485"><ele>674.0</ele><time>2026-05-03T08:35:06.286Z</time></trkpt><trkpt lat="43.2339901" lon="12.0912731"><ele>674.5</ele><time>2026-05-03T08:35:08.279Z</time></trkpt><trkpt lat="43.2340586" lon="12.0912752"><ele>675.0</ele><time>2026-05-03T08:35:10.278Z</time></trkpt><trkpt lat="43.2341201" lon="12.0913025"><ele>675.5</ele><time>2026-05-03T08:35:12.264Z</time></trkpt><trkpt lat="43.2341868" lon="12.0913343"><ele>676.0</ele><time>2026-05-03T08:35:14.27Z</time></trkpt><trkpt lat="43.2342692" lon="12.0913669"><ele>676.5</ele><time>2026-05-03T08:35:16.278Z</time></trkpt><trkpt lat="43.2343526" lon="12.0913864"><ele>677.0</ele><time>2026-05-03T08:35:18.29Z</time></trkpt><trkpt lat="43.2344374" lon="12.0914589"><ele>677.0</ele><time>2026-05-03T08:35:20.272Z</time></trkpt><trkpt lat="43.2344806" lon="12.0915233"><ele>677.0</ele><time>2026-05-03T08:35:21.289Z</time></trkpt><trkpt lat="43.2346189" lon="12.0916516"><ele>677.0</ele><time>2026-05-03T08:35:24.277Z</time></trkpt><trkpt lat="43.2347085" lon="12.0916823"><ele>677.0</ele><time>2026-05-03T08:35:26.295Z</time></trkpt><trkpt lat="43.2348" lon="12.0917376"><ele>677.0</ele><time>2026-05-03T08:35:28.373Z</time></trkpt><trkpt lat="43.2348795" lon="12.0917966"><ele>675.0</ele><time>2026-05-03T08:35:30.275Z</time></trkpt><trkpt lat="43.2349465" lon="12.0918576"><ele>673.0</ele><time>2026-05-03T08:35:32.267Z</time></trkpt><trkpt lat="43.2350258" lon="12.0919082"><ele>671.0</ele><time>2026-05-03T08:35:34.276Z</time></trkpt><trkpt lat="43.2351039" lon="12.0919561"><ele>669.0</ele><time>2026-05-03T08:35:36.28Z</time></trkpt><trkpt lat="43.2351852" lon="12.0919752"><ele>667.0</ele><time>2026-05-03T08:35:38.289Z</time></trkpt><trkpt lat="43.2352608" lon="12.091995"><ele>665.0</ele><time>2026-05-03T08:35:40.267Z</time></trkpt><trkpt lat="43.2353293" lon="12.0920105"><ele>665.0</ele><time>2026-05-03T08:35:42.28Z</time></trkpt><trkpt lat="43.2353948" lon="12.0920307"><ele>665.0</ele><time>2026-05-03T08:35:44.272Z</time></trkpt><trkpt lat="43.2354641" lon="12.0920586"><ele>665.0</ele><time>2026-05-03T08:35:46.288Z</time></trkpt><trkpt lat="43.2355302" lon="12.0920848"><ele>665.0</ele><time>2026-05-03T08:35:48.293Z</time></trkpt><trkpt lat="43.2355934" lon="12.0921257"><ele>665.0</ele><time>2026-05-03T08:35:50.272Z</time></trkpt><trkpt lat="43.2356507" lon="12.0921886"><ele>665.0</ele><time>2026-05-03T08:35:52.369Z</time></trkpt><trkpt lat="43.2357008" lon="12.0922637"><ele>665.0</ele><time>2026-05-03T08:35:54.267Z</time></trkpt><trkpt lat="43.2357516" lon="12.0923374"><ele>665.5</ele><time>2026-05-03T08:35:56.266Z</time></trkpt><trkpt lat="43.2358118" lon="12.0924042"><ele>666.0</ele><time>2026-05-03T08:35:58.266Z</time></trkpt><trkpt lat="43.235879" lon="12.0924535"><ele>666.5</ele><time>2026-05-03T08:36:00.285Z</time></trkpt><trkpt lat="43.2359508" lon="12.0924759"><ele>667.0</ele><time>2026-05-03T08:36:02.264Z</time></trkpt><trkpt lat="43.2360414" lon="12.0925031"><ele>667.5</ele><time>2026-05-03T08:36:04.268Z</time></trkpt><trkpt lat="43.2361108" lon="12.0925622"><ele>668.0</ele><time>2026-05-03T08:36:06.275Z</time></trkpt><trkpt lat="43.2361604" lon="12.0926526"><ele>667.0</ele><time>2026-05-03T08:36:08.268Z</time></trkpt><trkpt lat="43.2362153" lon="12.0927404"><ele>666.0</ele><time>2026-05-03T08:36:10.373Z</time></trkpt><trkpt lat="43.2362669" lon="12.0928358"><ele>665.0</ele><time>2026-05-03T08:36:12.276Z</time></trkpt><trkpt lat="43.2363163" lon="12.0929225"><ele>664.0</ele><time>2026-05-03T08:36:14.274Z</time></trkpt><trkpt lat="43.2363632" lon="12.0930107"><ele>663.0</ele><time>2026-05-03T08:36:16.282Z</time></trkpt><trkpt lat="43.2364132" lon="12.0930921"><ele>662.0</ele><time>2026-05-03T08:36:18.286Z</time></trkpt><trkpt lat="43.2364617" lon="12.0931647"><ele>661.1666666666666</ele><time>2026-05-03T08:36:20.281Z</time></trkpt><trkpt lat="43.2365057" lon="12.093242"><ele>660.3333333333333</ele><time>2026-05-03T08:36:22.28Z</time></trkpt><trkpt lat="43.2365283" lon="12.0933485"><ele>659.5</ele><time>2026-05-03T08:36:24.285Z</time></trkpt><trkpt lat="43.2365465" lon="12.0934648"><ele>658.6666666666666</ele><time>2026-05-03T08:36:26.271Z</time></trkpt><trkpt lat="43.2365713" lon="12.0935608"><ele>657.8333333333334</ele><time>2026-05-03T08:36:28.281Z</time></trkpt><trkpt lat="43.2365935" lon="12.0936529"><ele>657.0</ele><time>2026-05-03T08:36:30.282Z</time></trkpt><trkpt lat="43.2366122" lon="12.09375"><ele>657.0</ele><time>2026-05-03T08:36:32.282Z</time></trkpt><trkpt lat="43.2366197" lon="12.0938445"><ele>657.0</ele><time>2026-05-03T08:36:34.281Z</time></trkpt><trkpt lat="43.2366167" lon="12.0939608"><ele>657.0</ele><time>2026-05-03T08:36:37.279Z</time></trkpt><trkpt lat="43.2366145" lon="12.0940646"><ele>657.0</ele><time>2026-05-03T08:36:39.271Z</time></trkpt><trkpt lat="43.2366311" lon="12.0941814"><ele>657.0</ele><time>2026-05-03T08:36:41.272Z</time></trkpt><trkpt lat="43.2366632" lon="12.0942967"><ele>657.0</ele><time>2026-05-03T08:36:43.293Z</time></trkpt><trkpt lat="43.2367019" lon="12.094402"><ele>657.6666666666666</ele><time>2026-05-03T08:36:45.276Z</time></trkpt><trkpt lat="43.2367586" lon="12.0944992"><ele>658.3333333333334</ele><time>2026-05-03T08:36:47.273Z</time></trkpt><trkpt lat="43.2368201" lon="12.0945984"><ele>659.0</ele><time>2026-05-03T08:36:49.279Z</time></trkpt><trkpt lat="43.2368577" lon="12.0947"><ele>659.6666666666667</ele><time>2026-05-03T08:36:51.285Z</time></trkpt><trkpt lat="43.2368836" lon="12.0948043"><ele>660.3333333333334</ele><time>2026-05-03T08:36:53.385Z</time></trkpt><trkpt lat="43.2369144" lon="12.0949058"><ele>661.0</ele><time>2026-05-03T08:36:55.285Z</time></trkpt><trkpt lat="43.2369453" lon="12.0950084"><ele>661.0</ele><time>2026-05-03T08:36:57.276Z</time></trkpt><trkpt lat="43.2369954" lon="12.0950948"><ele>661.0</ele><time>2026-05-03T08:36:59.384Z</time></trkpt><trkpt lat="43.2370479" lon="12.0951627"><ele>661.0</ele><time>2026-05-03T08:37:01.29Z</time></trkpt><trkpt lat="43.2371042" lon="12.0952303"><ele>661.0</ele><time>2026-05-03T08:37:03.266Z</time></trkpt><trkpt lat="43.2371474" lon="12.0953168"><ele>661.0</ele><time>2026-05-03T08:37:05.288Z</time></trkpt><trkpt lat="43.2371682" lon="12.0954219"><ele>661.0</ele><time>2026-05-03T08:37:07.289Z</time></trkpt><trkpt lat="43.2371941" lon="12.0955264"><ele>661.0</ele><time>2026-05-03T08:37:09.281Z</time></trkpt><trkpt lat="43.2372201" lon="12.0956275"><ele>661.0</ele><time>2026-05-03T08:37:11.282Z</time></trkpt><trkpt lat="43.2372406" lon="12.095723"><ele>661.0</ele><time>2026-05-03T08:37:13.289Z</time></trkpt><trkpt lat="43.2372581" lon="12.0958154"><ele>661.0</ele><time>2026-05-03T08:37:15.289Z</time></trkpt><trkpt lat="43.2372646" lon="12.0959144"><ele>661.0</ele><time>2026-05-03T08:37:17.378Z</time></trkpt><trkpt lat="43.2372659" lon="12.0960119"><ele>661.0</ele><time>2026-05-03T08:37:19.285Z</time></trkpt><trkpt lat="43.237268" lon="12.0961073"><ele>661.0</ele><time>2026-05-03T08:37:21.281Z</time></trkpt><trkpt lat="43.2372689" lon="12.0962111"><ele>660.6666666666667</ele><time>2026-05-03T08:37:23.278Z</time></trkpt><trkpt lat="43.2372599" lon="12.096319"><ele>660.3333333333334</ele><time>2026-05-03T08:37:25.287Z</time></trkpt><trkpt lat="43.237229" lon="12.0964435"><ele>660.0</ele><time>2026-05-03T08:37:27.281Z</time></trkpt><trkpt lat="43.2371717" lon="12.0965993"><ele>659.6666666666666</ele><time>2026-05-03T08:37:29.28Z</time></trkpt><trkpt lat="43.2371488" lon="12.0966864"><ele>659.3333333333333</ele><time>2026-05-03T08:37:30.292Z</time></trkpt><trkpt lat="43.2371356" lon="12.0967743"><ele>659.0</ele><time>2026-05-03T08:37:31.276Z</time></trkpt><trkpt lat="43.2371337" lon="12.0968657"><ele>658.8000000000001</ele><time>2026-05-03T08:37:32.28Z</time></trkpt><trkpt lat="43.2371271" lon="12.0969571"><ele>658.6</ele><time>2026-05-03T08:37:33.291Z</time></trkpt><trkpt lat="43.2371205" lon="12.0970471"><ele>658.4</ele><time>2026-05-03T08:37:34.288Z</time></trkpt><trkpt lat="43.2371379" lon="12.0972062"><ele>658.2</ele><time>2026-05-03T08:37:36.285Z</time></trkpt><trkpt lat="43.2371774" lon="12.0973392"><ele>658.0</ele><time>2026-05-03T08:37:38.296Z</time></trkpt><trkpt lat="43.237177" lon="12.0974902"><ele>657.6666666666667</ele><time>2026-05-03T08:37:40.279Z</time></trkpt><trkpt lat="43.2371716" lon="12.0976027"><ele>657.3333333333334</ele><time>2026-05-03T08:37:42.279Z</time></trkpt><trkpt lat="43.2371766" lon="12.0977165"><ele>657.0</ele><time>2026-05-03T08:37:44.281Z</time></trkpt><trkpt lat="43.2371823" lon="12.09783"><ele>656.6666666666666</ele><time>2026-05-03T08:37:46.283Z</time></trkpt><trkpt lat="43.2371933" lon="12.0979399"><ele>656.3333333333333</ele><time>2026-05-03T08:37:48.287Z</time></trkpt><trkpt lat="43.2372122" lon="12.0980513"><ele>656.0</ele><time>2026-05-03T08:37:50.278Z</time></trkpt><trkpt lat="43.2372269" lon="12.0981453"><ele>656.0</ele><time>2026-05-03T08:37:52.274Z</time></trkpt><trkpt lat="43.2371586" lon="12.0982095"><ele>656.0</ele><time>2026-05-03T08:37:55.276Z</time></trkpt><trkpt lat="43.2370648" lon="12.0982014"><ele>656.0</ele><time>2026-05-03T08:37:58.28Z</time></trkpt><trkpt lat="43.2370003" lon="12.0981827"><ele>656.0</ele><time>2026-05-03T08:38:00.269Z</time></trkpt><trkpt lat="43.236925" lon="12.0981647"><ele>656.0</ele><time>2026-05-03T08:38:02.28Z</time></trkpt><trkpt lat="43.236841" lon="12.0981385"><ele>656.0</ele><time>2026-05-03T08:38:04.378Z</time></trkpt><trkpt lat="43.2367536" lon="12.0980963"><ele>656.0</ele><time>2026-05-03T08:38:06.274Z</time></trkpt><trkpt lat="43.2366702" lon="12.0980844"><ele>656.0</ele><time>2026-05-03T08:38:08.29Z</time></trkpt><trkpt lat="43.2366049" lon="12.0980806"><ele>656.0</ele><time>2026-05-03T08:38:11.287Z</time></trkpt><trkpt lat="43.2365234" lon="12.0981118"><ele>656.0</ele><time>2026-05-03T08:39:57.276Z</time></trkpt><trkpt lat="43.2364373" lon="12.0981663"><ele>656.0</ele><time>2026-05-03T08:40:00.264Z</time></trkpt><trkpt lat="43.2363677" lon="12.0982142"><ele>656.0</ele><time>2026-05-03T08:40:02.266Z</time></trkpt><trkpt lat="43.2362908" lon="12.0982603"><ele>653.8</ele><time>2026-05-03T08:40:04.279Z</time></trkpt><trkpt lat="43.236206" lon="12.0982859"><ele>651.5999999999999</ele><time>2026-05-03T08:40:06.278Z</time></trkpt><trkpt lat="43.236104" lon="12.0982829"><ele>649.4</ele><time>2026-05-03T08:40:08.287Z</time></trkpt><trkpt lat="43.2360033" lon="12.0982764"><ele>647.2</ele><time>2026-05-03T08:40:10.28Z</time></trkpt><trkpt lat="43.2359158" lon="12.0983367"><ele>645.0</ele><time>2026-05-03T08:40:12.374Z</time></trkpt><trkpt lat="43.2358421" lon="12.0984427"><ele>645.0</ele><time>2026-05-03T08:40:14.276Z</time></trkpt><trkpt lat="43.2357901" lon="12.0985702"><ele>645.0</ele><time>2026-05-03T08:40:16.275Z</time></trkpt><trkpt lat="43.2357392" lon="12.0987115"><ele>645.0</ele><time>2026-05-03T08:40:18.273Z</time></trkpt><trkpt lat="43.2356935" lon="12.0988531"><ele>645.0</ele><time>2026-05-03T08:40:20.264Z</time></trkpt><trkpt lat="43.2356482" lon="12.0989958"><ele>645.0</ele><time>2026-05-03T08:40:22.263Z</time></trkpt><trkpt lat="43.235617" lon="12.0991132"><ele>643.1666666666666</ele><time>2026-05-03T08:40:24.281Z</time></trkpt><trkpt lat="43.2355852" lon="12.0992348"><ele>641.3333333333334</ele><time>2026-05-03T08:40:26.266Z</time></trkpt><trkpt lat="43.235549" lon="12.0993376"><ele>639.5</ele><time>2026-05-03T08:40:28.277Z</time></trkpt><trkpt lat="43.2355021" lon="12.0994195"><ele>637.6666666666667</ele><time>2026-05-03T08:40:30.263Z</time></trkpt><trkpt lat="43.2354618" lon="12.0995118"><ele>635.8333333333334</ele><time>2026-05-03T08:40:32.267Z</time></trkpt><trkpt lat="43.2354313" lon="12.0996428"><ele>634.0</ele><time>2026-05-03T08:40:34.272Z</time></trkpt><trkpt lat="43.2353871" lon="12.0998327"><ele>634.8</ele><time>2026-05-03T08:40:37.266Z</time></trkpt><trkpt lat="43.2353673" lon="12.0999533"><ele>635.5999999999999</ele><time>2026-05-03T08:40:39.279Z</time></trkpt><trkpt lat="43.2353345" lon="12.1000969"><ele>636.4</ele><time>2026-05-03T08:40:41.369Z</time></trkpt><trkpt lat="43.2353199" lon="12.1002288"><ele>637.1999999999999</ele><time>2026-05-03T08:40:43.289Z</time></trkpt><trkpt lat="43.235289" lon="12.1003636"><ele>638.0</ele><time>2026-05-03T08:40:45.294Z</time></trkpt><trkpt lat="43.2352644" lon="12.1004977"><ele>638.0</ele><time>2026-05-03T08:40:47.292Z</time></trkpt><trkpt lat="43.2352525" lon="12.1006478"><ele>638.0</ele><time>2026-05-03T08:40:49.288Z</time></trkpt><trkpt lat="43.235235" lon="12.1007823"><ele>638.0</ele><time>2026-05-03T08:40:51.289Z</time></trkpt><trkpt lat="43.235246" lon="12.1009331"><ele>638.0</ele><time>2026-05-03T08:40:53.277Z</time></trkpt><trkpt lat="43.2352668" lon="12.1010747"><ele>638.0</ele><time>2026-05-03T08:40:55.281Z</time></trkpt><trkpt lat="43.2352752" lon="12.1012132"><ele>637.8</ele><time>2026-05-03T08:40:57.277Z</time></trkpt><trkpt lat="43.2352569" lon="12.1013486"><ele>637.5999999999999</ele><time>2026-05-03T08:40:59.277Z</time></trkpt><trkpt lat="43.2352251" lon="12.1014787"><ele>637.4000000000001</ele><time>2026-05-03T08:41:01.291Z</time></trkpt><trkpt lat="43.2351907" lon="12.1016054"><ele>637.2</ele><time>2026-05-03T08:41:03.289Z</time></trkpt><trkpt lat="43.2351505" lon="12.1017222"><ele>637.0</ele><time>2026-05-03T08:41:05.279Z</time></trkpt><trkpt lat="43.2351244" lon="12.1018447"><ele>636.6666666666667</ele><time>2026-05-03T08:41:07.291Z</time></trkpt><trkpt lat="43.2350871" lon="12.1019565"><ele>636.3333333333334</ele><time>2026-05-03T08:41:09.28Z</time></trkpt><trkpt lat="43.235061" lon="12.1020764"><ele>636.0</ele><time>2026-05-03T08:41:11.288Z</time></trkpt><trkpt lat="43.2350236" lon="12.1021974"><ele>635.6666666666666</ele><time>2026-05-03T08:41:13.291Z</time></trkpt><trkpt lat="43.2350075" lon="12.102309"><ele>635.3333333333333</ele><time>2026-05-03T08:41:15.28Z</time></trkpt><trkpt lat="43.2349813" lon="12.102423"><ele>635.0</ele><time>2026-05-03T08:41:17.282Z</time></trkpt><trkpt lat="43.234956" lon="12.1025329"><ele>634.8333333333333</ele><time>2026-05-03T08:41:19.278Z</time></trkpt><trkpt lat="43.2349481" lon="12.1026382"><ele>634.6666666666666</ele><time>2026-05-03T08:41:21.291Z</time></trkpt><trkpt lat="43.2349394" lon="12.1027441"><ele>634.5</ele><time>2026-05-03T08:41:23.375Z</time></trkpt><trkpt lat="43.2349074" lon="12.1028481"><ele>634.3333333333334</ele><time>2026-05-03T08:41:25.286Z</time></trkpt><trkpt lat="43.2348884" lon="12.1029625"><ele>634.1666666666667</ele><time>2026-05-03T08:41:27.288Z</time></trkpt><trkpt lat="43.2349068" lon="12.1030628"><ele>634.0</ele><time>2026-05-03T08:41:29.272Z</time></trkpt><trkpt lat="43.2349317" lon="12.1031924"><ele>633.2</ele><time>2026-05-03T08:41:31.286Z</time></trkpt><trkpt lat="43.2349666" lon="12.1033492"><ele>632.4</ele><time>2026-05-03T08:41:33.277Z</time></trkpt><trkpt lat="43.2349882" lon="12.1034443"><ele>631.6</ele><time>2026-05-03T08:41:34.278Z</time></trkpt><trkpt lat="43.235032" lon="12.1036087"><ele>630.8</ele><time>2026-05-03T08:41:36.281Z</time></trkpt><trkpt lat="43.2350455" lon="12.1036934"><ele>630.0</ele><time>2026-05-03T08:41:37.286Z</time></trkpt><trkpt lat="43.2350415" lon="12.1038562"><ele>630.0</ele><time>2026-05-03T08:41:39.281Z</time></trkpt><trkpt lat="43.2350198" lon="12.104004"><ele>630.0</ele><time>2026-05-03T08:41:41.275Z</time></trkpt><trkpt lat="43.2350144" lon="12.1041635"><ele>630.0</ele><time>2026-05-03T08:41:43.276Z</time></trkpt><trkpt lat="43.2350603" lon="12.1042966"><ele>630.0</ele><time>2026-05-03T08:41:45.277Z</time></trkpt><trkpt lat="43.2351342" lon="12.104412"><ele>630.0</ele><time>2026-05-03T08:41:47.379Z</time></trkpt><trkpt lat="43.2352422" lon="12.1044862"><ele>628.6</ele><time>2026-05-03T08:41:49.275Z</time></trkpt><trkpt lat="43.2353452" lon="12.1045516"><ele>627.2</ele><time>2026-05-03T08:41:51.284Z</time></trkpt><trkpt lat="43.2354413" lon="12.1046042"><ele>625.8</ele><time>2026-05-03T08:41:53.277Z</time></trkpt><trkpt lat="43.2354795" lon="12.1046995"><ele>624.4</ele><time>2026-05-03T08:41:55.291Z</time></trkpt><trkpt lat="43.2354695" lon="12.1048269"><ele>623.0</ele><time>2026-05-03T08:41:57.275Z</time></trkpt><trkpt lat="43.235483" lon="12.1049698"><ele>621.4</ele><time>2026-05-03T08:41:59.39Z</time></trkpt><trkpt lat="43.235493" lon="12.1051001"><ele>619.8</ele><time>2026-05-03T08:42:01.282Z</time></trkpt><trkpt lat="43.2355047" lon="12.1052359"><ele>618.2</ele><time>2026-05-03T08:42:03.28Z</time></trkpt><trkpt lat="43.2354723" lon="12.1053363"><ele>616.6</ele><time>2026-05-03T08:42:05.274Z</time></trkpt><trkpt lat="43.2354037" lon="12.1054231"><ele>615.0</ele><time>2026-05-03T08:42:07.279Z</time></trkpt><trkpt lat="43.2353274" lon="12.10554"><ele>615.0</ele><time>2026-05-03T08:42:09.281Z</time></trkpt><trkpt lat="43.2352917" lon="12.1056968"><ele>615.0</ele><time>2026-05-03T08:42:11.289Z</time></trkpt><trkpt lat="43.2352918" lon="12.1057868"><ele>615.0</ele><time>2026-05-03T08:42:12.28Z</time></trkpt><trkpt lat="43.2352402" lon="12.1059439"><ele>615.0</ele><time>2026-05-03T08:42:14.284Z</time></trkpt><trkpt lat="43.2351765" lon="12.1060733"><ele>615.0</ele><time>2026-05-03T08:42:16.282Z</time></trkpt><trkpt lat="43.2351244" lon="12.1061509"><ele>614.0</ele><time>2026-05-03T08:42:17.378Z</time></trkpt><trkpt lat="43.2350581" lon="12.1062922"><ele>613.0</ele><time>2026-05-03T08:42:19.281Z</time></trkpt><trkpt lat="43.2350035" lon="12.1064435"><ele>612.0</ele><time>2026-05-03T08:42:21.284Z</time></trkpt><trkpt lat="43.2349592" lon="12.106552"><ele>611.0</ele><time>2026-05-03T08:42:22.274Z</time></trkpt><trkpt lat="43.2349125" lon="12.1066215"><ele>610.0</ele><time>2026-05-03T08:42:23.272Z</time></trkpt><trkpt lat="43.234832" lon="12.1066815"><ele>607.8333333333334</ele><time>2026-05-03T08:42:25.288Z</time></trkpt><trkpt lat="43.2347465" lon="12.1067036"><ele>605.6666666666667</ele><time>2026-05-03T08:42:27.278Z</time></trkpt><trkpt lat="43.2346585" lon="12.1066831"><ele>603.5</ele><time>2026-05-03T08:42:29.276Z</time></trkpt><trkpt lat="43.2345974" lon="12.1067068"><ele>601.3333333333334</ele><time>2026-05-03T08:42:32.274Z</time></trkpt><trkpt lat="43.2345045" lon="12.1067066"><ele>599.1666666666666</ele><time>2026-05-03T08:42:35.381Z</time></trkpt><trkpt lat="43.2344423" lon="12.106675"><ele>597.0</ele><time>2026-05-03T08:42:37.277Z</time></trkpt><trkpt lat="43.2343711" lon="12.1066239"><ele>597.0000000000001</ele><time>2026-05-03T08:42:40.276Z</time></trkpt><trkpt lat="43.234355" lon="12.1067077"><ele>597.0</ele><time>2026-05-03T08:44:25.289Z</time></trkpt><trkpt lat="43.2343941" lon="12.1067762"><ele>597.0</ele><time>2026-05-03T08:44:28.277Z</time></trkpt><trkpt lat="43.2344191" lon="12.1068856"><ele>597.0</ele><time>2026-05-03T08:44:31.292Z</time></trkpt><trkpt lat="43.2344092" lon="12.1069806"><ele>597.0</ele><time>2026-05-03T08:44:33.279Z</time></trkpt><trkpt lat="43.23439" lon="12.1070704"><ele>597.0000000000001</ele><time>2026-05-03T08:44:35.277Z</time></trkpt><trkpt lat="43.2343583" lon="12.1071577"><ele>597.0</ele><time>2026-05-03T08:44:37.282Z</time></trkpt><trkpt lat="43.23433" lon="12.1072362"><ele>597.0</ele><time>2026-05-03T08:44:39.292Z</time></trkpt><trkpt lat="43.2343107" lon="12.1073544"><ele>597.0</ele><time>2026-05-03T08:44:42.278Z</time></trkpt><trkpt lat="43.2342885" lon="12.1074807"><ele>597.0</ele><time>2026-05-03T08:44:45.287Z</time></trkpt><trkpt lat="43.2342694" lon="12.1075681"><ele>597.0</ele><time>2026-05-03T08:44:47.285Z</time></trkpt><trkpt lat="43.2342532" lon="12.1076573"><ele>597.0</ele><time>2026-05-03T08:44:49.278Z</time></trkpt><trkpt lat="43.2342436" lon="12.1077569"><ele>597.0</ele><time>2026-05-03T08:44:51.282Z</time></trkpt><trkpt lat="43.234231" lon="12.1078503"><ele>597.8333333333334</ele><time>2026-05-03T08:44:53.278Z</time></trkpt><trkpt lat="43.2342236" lon="12.1079757"><ele>598.6666666666666</ele><time>2026-05-03T08:44:56.276Z</time></trkpt><trkpt lat="43.2342305" lon="12.1080734"><ele>599.5</ele><time>2026-05-03T08:44:58.28Z</time></trkpt><trkpt lat="43.2342355" lon="12.1081917"><ele>600.3333333333333</ele><time>2026-05-03T08:45:01.281Z</time></trkpt><trkpt lat="43.2342439" lon="12.1082805"><ele>601.1666666666666</ele><time>2026-05-03T08:45:03.268Z</time></trkpt><trkpt lat="43.234263" lon="12.1083668"><ele>602.0</ele><time>2026-05-03T08:45:05.265Z</time></trkpt><trkpt lat="43.2342677" lon="12.108503"><ele>602.5</ele><time>2026-05-03T08:45:08.279Z</time></trkpt><trkpt lat="43.2342525" lon="12.1085912"><ele>603.0</ele><time>2026-05-03T08:45:10.268Z</time></trkpt><trkpt lat="43.2342279" lon="12.1087059"><ele>603.5</ele><time>2026-05-03T08:45:13.288Z</time></trkpt><trkpt lat="43.2342046" lon="12.1088158"><ele>604.0</ele><time>2026-05-03T08:45:16.277Z</time></trkpt><trkpt lat="43.2341794" lon="12.1089224"><ele>604.5</ele><time>2026-05-03T08:45:19.276Z</time></trkpt><trkpt lat="43.2341463" lon="12.1090073"><ele>605.0</ele><time>2026-05-03T08:45:22.28Z</time></trkpt><trkpt lat="43.2341095" lon="12.1091202"><ele>606.3333333333333</ele><time>2026-05-03T08:45:25.264Z</time></trkpt><trkpt lat="43.2340892" lon="12.109225"><ele>607.6666666666666</ele><time>2026-05-03T08:45:27.276Z</time></trkpt><trkpt lat="43.2340602" lon="12.1093443"><ele>609.0</ele><time>2026-05-03T08:45:30.359Z</time></trkpt><trkpt lat="43.234044" lon="12.1094691"><ele>610.3333333333334</ele><time>2026-05-03T08:45:33.264Z</time></trkpt><trkpt lat="43.2340309" lon="12.109557"><ele>611.6666666666667</ele><time>2026-05-03T08:45:35.269Z</time></trkpt><trkpt lat="43.2340087" lon="12.109638"><ele>613.0</ele><time>2026-05-03T08:45:37.27Z</time></trkpt><trkpt lat="43.2339855" lon="12.1097234"><ele>613.8333333333334</ele><time>2026-05-03T08:45:39.277Z</time></trkpt><trkpt lat="43.2339663" lon="12.1098423"><ele>614.6666666666667</ele><time>2026-05-03T08:45:42.27Z</time></trkpt><trkpt lat="43.2339559" lon="12.1099588"><ele>615.5</ele><time>2026-05-03T08:45:45.289Z</time></trkpt><trkpt lat="43.2339465" lon="12.1100725"><ele>616.3333333333334</ele><time>2026-05-03T08:45:48.293Z</time></trkpt><trkpt lat="43.2339602" lon="12.1101965"><ele>617.1666666666666</ele><time>2026-05-03T08:45:51.277Z</time></trkpt><trkpt lat="43.2339859" lon="12.110316"><ele>618.0</ele><time>2026-05-03T08:45:54.286Z</time></trkpt><trkpt lat="43.2340325" lon="12.1104117"><ele>618.0</ele><time>2026-05-03T08:45:57.277Z</time></trkpt><trkpt lat="43.2340783" lon="12.1104842"><ele>618.0</ele><time>2026-05-03T08:45:59.273Z</time></trkpt><trkpt lat="43.2341369" lon="12.1105266"><ele>618.0</ele><time>2026-05-03T08:46:01.281Z</time></trkpt><trkpt lat="43.2342116" lon="12.1105496"><ele>618.0</ele><time>2026-05-03T08:46:03.278Z</time></trkpt><trkpt lat="43.2342896" lon="12.1105589"><ele>618.0</ele><time>2026-05-03T08:46:05.277Z</time></trkpt><trkpt lat="43.234379" lon="12.1105812"><ele>618.0</ele><time>2026-05-03T08:46:08.277Z</time></trkpt><trkpt lat="43.2344719" lon="12.1105914"><ele>618.0</ele><time>2026-05-03T08:46:11.374Z</time></trkpt><trkpt lat="43.2345572" lon="12.1106004"><ele>618.0</ele><time>2026-05-03T08:46:14.275Z</time></trkpt><trkpt lat="43.234651" lon="12.110612"><ele>618.0</ele><time>2026-05-03T08:46:17.272Z</time></trkpt><trkpt lat="43.2347394" lon="12.1106258"><ele>618.0</ele><time>2026-05-03T08:46:20.276Z</time></trkpt><trkpt lat="43.2348208" lon="12.1106344"><ele>618.0</ele><time>2026-05-03T08:46:23.278Z</time></trkpt><trkpt lat="43.2348977" lon="12.1106499"><ele>618.0</ele><time>2026-05-03T08:46:26.281Z</time></trkpt><trkpt lat="43.2349734" lon="12.1106748"><ele>618.1666666666666</ele><time>2026-05-03T08:46:29.377Z</time></trkpt><trkpt lat="43.2350553" lon="12.1107084"><ele>618.3333333333334</ele><time>2026-05-03T08:46:32.279Z</time></trkpt><trkpt lat="43.2351156" lon="12.1107336"><ele>618.5</ele><time>2026-05-03T08:46:34.275Z</time></trkpt><trkpt lat="43.2351953" lon="12.1107743"><ele>618.6666666666667</ele><time>2026-05-03T08:46:37.284Z</time></trkpt><trkpt lat="43.2352711" lon="12.1108371"><ele>618.8333333333334</ele><time>2026-05-03T08:46:40.267Z</time></trkpt><trkpt lat="43.2353297" lon="12.110929"><ele>619.0</ele><time>2026-05-03T08:46:43.296Z</time></trkpt><trkpt lat="43.2353866" lon="12.1110148"><ele>621.3333333333334</ele><time>2026-05-03T08:46:46.278Z</time></trkpt><trkpt lat="43.235451" lon="12.1111127"><ele>623.6666666666667</ele><time>2026-05-03T08:46:49.276Z</time></trkpt><trkpt lat="43.2355162" lon="12.1111883"><ele>626.0</ele><time>2026-05-03T08:46:52.255Z</time></trkpt><trkpt lat="43.2355847" lon="12.1112347"><ele>628.3333333333334</ele><time>2026-05-03T08:46:55.267Z</time></trkpt><trkpt lat="43.2356557" lon="12.1112966"><ele>630.6666666666666</ele><time>2026-05-03T08:46:58.284Z</time></trkpt><trkpt lat="43.2357086" lon="12.1113845"><ele>633.0</ele><time>2026-05-03T08:47:01.275Z</time></trkpt><trkpt lat="43.2356939" lon="12.111494"><ele>633.0</ele><time>2026-05-03T08:47:04.289Z</time></trkpt><trkpt lat="43.2356355" lon="12.1115399"><ele>633.0</ele><time>2026-05-03T08:47:06.279Z</time></trkpt><trkpt lat="43.2355703" lon="12.1115281"><ele>633.0</ele><time>2026-05-03T08:47:09.278Z</time></trkpt><trkpt lat="43.2355023" lon="12.1114981"><ele>633.0</ele><time>2026-05-03T08:47:12.28Z</time></trkpt><trkpt lat="43.2354436" lon="12.111453"><ele>633.0</ele><time>2026-05-03T08:47:14.283Z</time></trkpt><trkpt lat="43.2353588" lon="12.1114586"><ele>633.0</ele><time>2026-05-03T08:47:17.29Z</time></trkpt><trkpt lat="43.2352978" lon="12.1114984"><ele>633.0</ele><time>2026-05-03T08:47:19.271Z</time></trkpt><trkpt lat="43.2352219" lon="12.1115624"><ele>634.6666666666666</ele><time>2026-05-03T08:47:22.269Z</time></trkpt><trkpt lat="43.2351731" lon="12.1116436"><ele>636.3333333333334</ele><time>2026-05-03T08:47:25.274Z</time></trkpt><trkpt lat="43.2351178" lon="12.1117425"><ele>638.0</ele><time>2026-05-03T08:47:28.274Z</time></trkpt><trkpt lat="43.2350723" lon="12.1118451"><ele>639.6666666666667</ele><time>2026-05-03T08:47:31.265Z</time></trkpt><trkpt lat="43.2350464" lon="12.1119332"><ele>641.3333333333334</ele><time>2026-05-03T08:47:34.283Z</time></trkpt><trkpt lat="43.2350361" lon="12.1120269"><ele>643.0</ele><time>2026-05-03T08:47:37.275Z</time></trkpt><trkpt lat="43.235043" lon="12.1121415"><ele>643.0</ele><time>2026-05-03T08:47:40.278Z</time></trkpt><trkpt lat="43.2350699" lon="12.1122447"><ele>643.0</ele><time>2026-05-03T08:47:43.276Z</time></trkpt><trkpt lat="43.2351025" lon="12.1123218"><ele>643.0</ele><time>2026-05-03T08:47:45.279Z</time></trkpt><trkpt lat="43.2351525" lon="12.1124046"><ele>643.0</ele><time>2026-05-03T08:47:48.275Z</time></trkpt><trkpt lat="43.2351842" lon="12.1124825"><ele>643.0</ele><time>2026-05-03T08:47:51.395Z</time></trkpt><trkpt lat="43.2352159" lon="12.1125752"><ele>643.0</ele><time>2026-05-03T08:47:54.278Z</time></trkpt><trkpt lat="43.2352526" lon="12.1126645"><ele>643.0</ele><time>2026-05-03T08:47:57.275Z</time></trkpt><trkpt lat="43.2352926" lon="12.1127411"><ele>643.0</ele><time>2026-05-03T08:48:00.254Z</time></trkpt><trkpt lat="43.2353282" lon="12.1128557"><ele>643.0</ele><time>2026-05-03T08:48:03.278Z</time></trkpt><trkpt lat="43.2353778" lon="12.1129622"><ele>643.0</ele><time>2026-05-03T08:48:06.279Z</time></trkpt><trkpt lat="43.235426" lon="12.1130546"><ele>643.0</ele><time>2026-05-03T08:48:09.277Z</time></trkpt><trkpt lat="43.2354601" lon="12.1131504"><ele>643.0</ele><time>2026-05-03T08:48:12.277Z</time></trkpt><trkpt lat="43.235492" lon="12.1132346"><ele>643.0</ele><time>2026-05-03T08:48:15.384Z</time></trkpt><trkpt lat="43.2355246" lon="12.1133529"><ele>643.1666666666667</ele><time>2026-05-03T08:48:18.286Z</time></trkpt><trkpt lat="43.2355739" lon="12.1134377"><ele>643.3333333333334</ele><time>2026-05-03T08:48:22.274Z</time></trkpt><trkpt lat="43.2356399" lon="12.1135016"><ele>643.5</ele><time>2026-05-03T08:48:25.282Z</time></trkpt><trkpt lat="43.2356866" lon="12.1135923"><ele>643.6666666666666</ele><time>2026-05-03T08:48:28.279Z</time></trkpt><trkpt lat="43.2357216" lon="12.1136925"><ele>643.8333333333333</ele><time>2026-05-03T08:48:31.289Z</time></trkpt><trkpt lat="43.2357344" lon="12.113805"><ele>644.0</ele><time>2026-05-03T08:48:34.278Z</time></trkpt><trkpt lat="43.2357305" lon="12.1139144"><ele>648.8333333333333</ele><time>2026-05-03T08:48:37.285Z</time></trkpt><trkpt lat="43.2357167" lon="12.1140162"><ele>653.6666666666666</ele><time>2026-05-03T08:48:40.28Z</time></trkpt><trkpt lat="43.2356919" lon="12.1141226"><ele>658.5</ele><time>2026-05-03T08:48:43.276Z</time></trkpt><trkpt lat="43.2356722" lon="12.1142358"><ele>663.3333333333334</ele><time>2026-05-03T08:48:46.285Z</time></trkpt><trkpt lat="43.2356605" lon="12.1143628"><ele>668.1666666666667</ele><time>2026-05-03T08:48:49.279Z</time></trkpt><trkpt lat="43.2356596" lon="12.1144648"><ele>673.0</ele><time>2026-05-03T08:48:51.281Z</time></trkpt><trkpt lat="43.2356667" lon="12.1145587"><ele>673.3333333333334</ele><time>2026-05-03T08:48:53.282Z</time></trkpt><trkpt lat="43.2356666" lon="12.1146822"><ele>673.6666666666667</ele><time>2026-05-03T08:48:56.28Z</time></trkpt><trkpt lat="43.2356295" lon="12.1147679"><ele>674.0</ele><time>2026-05-03T08:48:59.275Z</time></trkpt><trkpt lat="43.2355782" lon="12.1148644"><ele>674.3333333333334</ele><time>2026-05-03T08:49:02.284Z</time></trkpt><trkpt lat="43.2355543" lon="12.1149465"><ele>674.6666666666666</ele><time>2026-05-03T08:49:04.273Z</time></trkpt><trkpt lat="43.2355265" lon="12.1150301"><ele>675.0</ele><time>2026-05-03T08:49:06.276Z</time></trkpt><trkpt lat="43.2354903" lon="12.1151226"><ele>673.1666666666666</ele><time>2026-05-03T08:49:08.291Z</time></trkpt><trkpt lat="43.2354551" lon="12.1152062"><ele>671.3333333333334</ele><time>2026-05-03T08:49:10.277Z</time></trkpt><trkpt lat="43.2354138" lon="12.1152835"><ele>669.5</ele><time>2026-05-03T08:49:12.274Z</time></trkpt><trkpt lat="43.2353839" lon="12.1153646"><ele>667.6666666666667</ele><time>2026-05-03T08:49:14.276Z</time></trkpt><trkpt lat="43.2353104" lon="12.1154349"><ele>665.8333333333334</ele><time>2026-05-03T08:49:17.277Z</time></trkpt><trkpt lat="43.2352459" lon="12.1154671"><ele>664.0</ele><time>2026-05-03T08:49:19.273Z</time></trkpt><trkpt lat="43.2351578" lon="12.1154792"><ele>664.0</ele><time>2026-05-03T08:49:22.287Z</time></trkpt><trkpt lat="43.2350656" lon="12.1154774"><ele>664.0</ele><time>2026-05-03T08:49:25.283Z</time></trkpt><trkpt lat="43.2349732" lon="12.1154845"><ele>664.0</ele><time>2026-05-03T08:49:28.268Z</time></trkpt><trkpt lat="43.2348886" lon="12.115488"><ele>664.0</ele><time>2026-05-03T08:49:31.284Z</time></trkpt><trkpt lat="43.2348025" lon="12.1154833"><ele>664.0</ele><time>2026-05-03T08:49:34.278Z</time></trkpt><trkpt lat="43.2347351" lon="12.1154997"><ele>664.0</ele><time>2026-05-03T08:49:37.284Z</time></trkpt><trkpt lat="43.2346719" lon="12.1155107"><ele>663.8333333333334</ele><time>2026-05-03T08:49:39.282Z</time></trkpt><trkpt lat="43.2346029" lon="12.1155258"><ele>663.6666666666667</ele><time>2026-05-03T08:49:41.279Z</time></trkpt><trkpt lat="43.2345137" lon="12.1155363"><ele>663.5</ele><time>2026-05-03T08:49:43.294Z</time></trkpt><trkpt lat="43.2344374" lon="12.1155644"><ele>663.3333333333334</ele><time>2026-05-03T08:49:45.28Z</time></trkpt><trkpt lat="43.2343629" lon="12.1156187"><ele>663.1666666666666</ele><time>2026-05-03T08:49:47.276Z</time></trkpt><trkpt lat="43.2342854" lon="12.1157065"><ele>663.0</ele><time>2026-05-03T08:49:49.275Z</time></trkpt><trkpt lat="43.2342156" lon="12.1158277"><ele>666.0</ele><time>2026-05-03T08:49:51.277Z</time></trkpt><trkpt lat="43.2341138" lon="12.1160709"><ele>669.0</ele><time>2026-05-03T08:49:54.274Z</time></trkpt><trkpt lat="43.2340763" lon="12.116155"><ele>672.0</ele><time>2026-05-03T08:49:55.277Z</time></trkpt><trkpt lat="43.2340479" lon="12.1162353"><ele>675.0</ele><time>2026-05-03T08:49:56.288Z</time></trkpt><trkpt lat="43.2339841" lon="12.1163878"><ele>674.0</ele><time>2026-05-03T08:49:58.279Z</time></trkpt><trkpt lat="43.2339538" lon="12.1164743"><ele>673.0</ele><time>2026-05-03T08:49:59.282Z</time></trkpt><trkpt lat="43.2339257" lon="12.1165531"><ele>672.0</ele><time>2026-05-03T08:50:00.289Z</time></trkpt><trkpt lat="43.2338776" lon="12.1167064"><ele>671.0</ele><time>2026-05-03T08:50:02.285Z</time></trkpt><trkpt lat="43.2338538" lon="12.1167883"><ele>670.0</ele><time>2026-05-03T08:50:03.289Z</time></trkpt><trkpt lat="43.2337689" lon="12.1168741"><ele>669.0</ele><time>2026-05-03T08:50:05.268Z</time></trkpt><trkpt lat="43.2336866" lon="12.1169018"><ele>669.0</ele><time>2026-05-03T08:50:07.279Z</time></trkpt><trkpt lat="43.2336102" lon="12.1169172"><ele>669.0</ele><time>2026-05-03T08:50:09.272Z</time></trkpt><trkpt lat="43.2335375" lon="12.1169393"><ele>669.0</ele><time>2026-05-03T08:50:11.283Z</time></trkpt><trkpt lat="43.2334609" lon="12.11697"><ele>669.0</ele><time>2026-05-03T08:50:13.268Z</time></trkpt><trkpt lat="43.233384" lon="12.117008"><ele>669.0</ele><time>2026-05-03T08:50:15.265Z</time></trkpt><trkpt lat="43.2333087" lon="12.1170615"><ele>669.0</ele><time>2026-05-03T08:50:17.254Z</time></trkpt><trkpt lat="43.2332407" lon="12.1171378"><ele>669.0</ele><time>2026-05-03T08:50:19.262Z</time></trkpt><trkpt lat="43.2331693" lon="12.11721"><ele>669.0</ele><time>2026-05-03T08:50:21.264Z</time></trkpt><trkpt lat="43.2330964" lon="12.1172737"><ele>669.0</ele><time>2026-05-03T08:50:23.294Z</time></trkpt><trkpt lat="43.233026" lon="12.1173301"><ele>669.0</ele><time>2026-05-03T08:50:25.269Z</time></trkpt><trkpt lat="43.2329543" lon="12.1173917"><ele>669.0</ele><time>2026-05-03T08:50:27.288Z</time></trkpt><trkpt lat="43.2328709" lon="12.1174311"><ele>669.0</ele><time>2026-05-03T08:50:29.267Z</time></trkpt><trkpt lat="43.2327927" lon="12.1174603"><ele>670.1428571428571</ele><time>2026-05-03T08:50:31.276Z</time></trkpt><trkpt lat="43.2327249" lon="12.1174773"><ele>671.2857142857142</ele><time>2026-05-03T08:50:33.356Z</time></trkpt><trkpt lat="43.2326591" lon="12.1174921"><ele>672.4285714285713</ele><time>2026-05-03T08:50:35.273Z</time></trkpt><trkpt lat="43.232597" lon="12.1175109"><ele>673.5714285714286</ele><time>2026-05-03T08:50:37.272Z</time></trkpt><trkpt lat="43.2325365" lon="12.1175452"><ele>674.7142857142857</ele><time>2026-05-03T08:50:39.281Z</time></trkpt><trkpt lat="43.2324855" lon="12.1176047"><ele>675.8571428571428</ele><time>2026-05-03T08:50:41.293Z</time></trkpt><trkpt lat="43.2324466" lon="12.1176817"><ele>677.0</ele><time>2026-05-03T08:50:43.279Z</time></trkpt><trkpt lat="43.2324074" lon="12.117756"><ele>677.0</ele><time>2026-05-03T08:50:45.279Z</time></trkpt><trkpt lat="43.2323678" lon="12.1178304"><ele>677.0</ele><time>2026-05-03T08:50:47.285Z</time></trkpt><trkpt lat="43.2323286" lon="12.1179039"><ele>677.0</ele><time>2026-05-03T08:50:49.28Z</time></trkpt><trkpt lat="43.232277" lon="12.1180055"><ele>677.0</ele><time>2026-05-03T08:50:52.289Z</time></trkpt><trkpt lat="43.2322183" lon="12.1181043"><ele>677.0</ele><time>2026-05-03T08:50:55.285Z</time></trkpt><trkpt lat="43.2321555" lon="12.1181813"><ele>677.0</ele><time>2026-05-03T08:50:58.279Z</time></trkpt><trkpt lat="43.2320872" lon="12.1182421"><ele>677.6666666666666</ele><time>2026-05-03T08:51:01.289Z</time></trkpt><trkpt lat="43.2320295" lon="12.1183114"><ele>678.3333333333333</ele><time>2026-05-03T08:51:04.286Z</time></trkpt><trkpt lat="43.2320102" lon="12.1184038"><ele>679.0</ele><time>2026-05-03T08:51:07.284Z</time></trkpt><trkpt lat="43.2320185" lon="12.1185086"><ele>679.6666666666666</ele><time>2026-05-03T08:51:10.283Z</time></trkpt><trkpt lat="43.2320347" lon="12.1186135"><ele>680.3333333333334</ele><time>2026-05-03T08:51:13.294Z</time></trkpt><trkpt lat="43.2320632" lon="12.1187453"><ele>681.0</ele><time>2026-05-03T08:51:17.289Z</time></trkpt><trkpt lat="43.2320808" lon="12.1188338"><ele>681.0000000000001</ele><time>2026-05-03T08:51:20.29Z</time></trkpt><trkpt lat="43.2320826" lon="12.1189255"><ele>681.0</ele><time>2026-05-03T08:51:23.286Z</time></trkpt><trkpt lat="43.2320773" lon="12.1190227"><ele>681.0</ele><time>2026-05-03T08:51:26.281Z</time></trkpt><trkpt lat="43.2320661" lon="12.1191224"><ele>681.0</ele><time>2026-05-03T08:51:29.282Z</time></trkpt><trkpt lat="43.2320637" lon="12.1192213"><ele>681.0</ele><time>2026-05-03T08:51:32.283Z</time></trkpt><trkpt lat="43.2320766" lon="12.1193144"><ele>681.0000000000001</ele><time>2026-05-03T08:51:35.287Z</time></trkpt><trkpt lat="43.2320841" lon="12.1194272"><ele>681.0</ele><time>2026-05-03T08:51:38.286Z</time></trkpt><trkpt lat="43.2320745" lon="12.1195258"><ele>682.8333333333334</ele><time>2026-05-03T08:51:41.272Z</time></trkpt><trkpt lat="43.232082" lon="12.1196384"><ele>684.6666666666666</ele><time>2026-05-03T08:51:44.28Z</time></trkpt><trkpt lat="43.2320849" lon="12.1197431"><ele>686.5</ele><time>2026-05-03T08:51:47.29Z</time></trkpt><trkpt lat="43.2320549" lon="12.1198368"><ele>688.3333333333333</ele><time>2026-05-03T08:51:50.274Z</time></trkpt><trkpt lat="43.2319896" lon="12.1198934"><ele>690.1666666666666</ele><time>2026-05-03T08:51:54.265Z</time></trkpt><trkpt lat="43.2319006" lon="12.1198895"><ele>692.0</ele><time>2026-05-03T08:51:57.389Z</time></trkpt><trkpt lat="43.2318266" lon="12.1198744"><ele>692.0</ele><time>2026-05-03T08:51:59.274Z</time></trkpt><trkpt lat="43.2317502" lon="12.1198659"><ele>692.0</ele><time>2026-05-03T08:52:01.276Z</time></trkpt><trkpt lat="43.2316774" lon="12.1198684"><ele>692.0</ele><time>2026-05-03T08:52:03.37Z</time></trkpt><trkpt lat="43.2316065" lon="12.1198956"><ele>692.0</ele><time>2026-05-03T08:52:05.289Z</time></trkpt><trkpt lat="43.2315366" lon="12.119933"><ele>692.0</ele><time>2026-05-03T08:52:07.282Z</time></trkpt><trkpt lat="43.2314714" lon="12.119967"><ele>692.0</ele><time>2026-05-03T08:52:21.28Z</time></trkpt><trkpt lat="43.231424" lon="12.1200622"><ele>691.6666666666666</ele><time>2026-05-03T08:53:31.28Z</time></trkpt><trkpt lat="43.2313783" lon="12.120133"><ele>691.3333333333333</ele><time>2026-05-03T08:53:33.266Z</time></trkpt><trkpt lat="43.2313149" lon="12.1202152"><ele>691.0</ele><time>2026-05-03T08:53:36.388Z</time></trkpt><trkpt lat="43.2312585" lon="12.1202864"><ele>690.6666666666666</ele><time>2026-05-03T08:53:39.286Z</time></trkpt><trkpt lat="43.2312163" lon="12.1203701"><ele>690.3333333333334</ele><time>2026-05-03T08:53:42.278Z</time></trkpt><trkpt lat="43.2311894" lon="12.1204593"><ele>690.0</ele><time>2026-05-03T08:53:45.284Z</time></trkpt><trkpt lat="43.2311548" lon="12.1205474"><ele>690.0</ele><time>2026-05-03T08:53:48.385Z</time></trkpt><trkpt lat="43.2311325" lon="12.1206537"><ele>690.0</ele><time>2026-05-03T08:53:51.289Z</time></trkpt><trkpt lat="43.2311258" lon="12.1207673"><ele>690.0</ele><time>2026-05-03T08:53:54.374Z</time></trkpt><trkpt lat="43.231116" lon="12.120879"><ele>690.0</ele><time>2026-05-03T08:53:57.278Z</time></trkpt><trkpt lat="43.2311181" lon="12.120985"><ele>690.0</ele><time>2026-05-03T08:54:00.289Z</time></trkpt><trkpt lat="43.2311099" lon="12.1210991"><ele>690.0</ele><time>2026-05-03T08:54:03.286Z</time></trkpt><trkpt lat="43.2311025" lon="12.1211864"><ele>691.4</ele><time>2026-05-03T08:54:05.278Z</time></trkpt><trkpt lat="43.2310994" lon="12.1212955"><ele>692.8</ele><time>2026-05-03T08:54:07.285Z</time></trkpt><trkpt lat="43.231089" lon="12.1214102"><ele>694.2</ele><time>2026-05-03T08:54:09.282Z</time></trkpt><trkpt lat="43.2310966" lon="12.1215375"><ele>695.6</ele><time>2026-05-03T08:54:11.278Z</time></trkpt><trkpt lat="43.2310982" lon="12.121677"><ele>697.0</ele><time>2026-05-03T08:54:13.287Z</time></trkpt><trkpt lat="43.2310843" lon="12.1218191"><ele>697.0</ele><time>2026-05-03T08:54:15.277Z</time></trkpt><trkpt lat="43.2310722" lon="12.1219663"><ele>697.0</ele><time>2026-05-03T08:54:17.291Z</time></trkpt><trkpt lat="43.2310815" lon="12.1221128"><ele>697.0</ele><time>2026-05-03T08:54:19.276Z</time></trkpt><trkpt lat="43.2310926" lon="12.1222653"><ele>697.0</ele><time>2026-05-03T08:54:21.277Z</time></trkpt><trkpt lat="43.2311104" lon="12.1224077"><ele>697.0</ele><time>2026-05-03T08:54:23.275Z</time></trkpt><trkpt lat="43.2311344" lon="12.1225315"><ele>696.5714285714286</ele><time>2026-05-03T08:54:25.282Z</time></trkpt><trkpt lat="43.2311682" lon="12.1226386"><ele>696.1428571428571</ele><time>2026-05-03T08:54:27.285Z</time></trkpt><trkpt lat="43.2311933" lon="12.1227339"><ele>695.7142857142858</ele><time>2026-05-03T08:54:29.281Z</time></trkpt><trkpt lat="43.2312176" lon="12.1228198"><ele>695.2857142857142</ele><time>2026-05-03T08:54:31.28Z</time></trkpt><trkpt lat="43.2312426" lon="12.122905"><ele>694.8571428571428</ele><time>2026-05-03T08:54:33.285Z</time></trkpt><trkpt lat="43.2312661" lon="12.1229911"><ele>694.4285714285714</ele><time>2026-05-03T08:54:35.281Z</time></trkpt><trkpt lat="43.2313021" lon="12.1230814"><ele>694.0</ele><time>2026-05-03T08:54:37.278Z</time></trkpt><trkpt lat="43.2313728" lon="12.1231756"><ele>696.6666666666667</ele><time>2026-05-03T08:54:39.279Z</time></trkpt><trkpt lat="43.2314778" lon="12.1232532"><ele>699.3333333333334</ele><time>2026-05-03T08:54:41.288Z</time></trkpt><trkpt lat="43.2315403" lon="12.123281"><ele>702.0</ele><time>2026-05-03T08:54:42.29Z</time></trkpt><trkpt lat="43.2316017" lon="12.1233055"><ele>704.6666666666666</ele><time>2026-05-03T08:54:43.286Z</time></trkpt><trkpt lat="43.2317137" lon="12.1233606"><ele>707.3333333333333</ele><time>2026-05-03T08:54:45.268Z</time></trkpt><trkpt lat="43.2317699" lon="12.1234249"><ele>710.0</ele><time>2026-05-03T08:54:46.27Z</time></trkpt><trkpt lat="43.2317932" lon="12.1236028"><ele>710.0</ele><time>2026-05-03T08:54:48.28Z</time></trkpt><trkpt lat="43.2317899" lon="12.1237101"><ele>710.0</ele><time>2026-05-03T08:54:49.273Z</time></trkpt><trkpt lat="43.2317806" lon="12.1238032"><ele>710.0</ele><time>2026-05-03T08:54:50.282Z</time></trkpt><trkpt lat="43.2317883" lon="12.1239009"><ele>710.0</ele><time>2026-05-03T08:54:51.272Z</time></trkpt><trkpt lat="43.2317774" lon="12.1240106"><ele>710.0</ele><time>2026-05-03T08:54:52.276Z</time></trkpt><trkpt lat="43.2317684" lon="12.1241175"><ele>710.0</ele><time>2026-05-03T08:54:53.267Z</time></trkpt><trkpt lat="43.2317571" lon="12.1242215"><ele>708.1666666666666</ele><time>2026-05-03T08:54:54.286Z</time></trkpt><trkpt lat="43.2317356" lon="12.1243241"><ele>706.3333333333333</ele><time>2026-05-03T08:54:55.265Z</time></trkpt><trkpt lat="43.2317214" lon="12.1244303"><ele>704.5</ele><time>2026-05-03T08:54:56.285Z</time></trkpt><trkpt lat="43.2317099" lon="12.1245339"><ele>702.6666666666666</ele><time>2026-05-03T08:54:57.286Z</time></trkpt><trkpt lat="43.2317002" lon="12.1246463"><ele>700.8333333333334</ele><time>2026-05-03T08:54:58.263Z</time></trkpt><trkpt lat="43.2316722" lon="12.1247489"><ele>699.0</ele><time>2026-05-03T08:54:59.274Z</time></trkpt><trkpt lat="43.231637" lon="12.1248426"><ele>699.8333333333334</ele><time>2026-05-03T08:55:00.263Z</time></trkpt><trkpt lat="43.2316044" lon="12.1249313"><ele>700.6666666666666</ele><time>2026-05-03T08:55:01.264Z</time></trkpt><trkpt lat="43.231575" lon="12.1250223"><ele>701.5</ele><time>2026-05-03T08:55:02.261Z</time></trkpt><trkpt lat="43.2315445" lon="12.125106"><ele>702.3333333333333</ele><time>2026-05-03T08:55:03.26Z</time></trkpt><trkpt lat="43.2315161" lon="12.1251939"><ele>703.1666666666666</ele><time>2026-05-03T08:55:04.351Z</time></trkpt><trkpt lat="43.2314907" lon="12.1252739"><ele>704.0</ele><time>2026-05-03T08:55:05.268Z</time></trkpt><trkpt lat="43.2314586" lon="12.1254161"><ele>698.8333333333333</ele><time>2026-05-03T08:55:07.265Z</time></trkpt><trkpt lat="43.2314313" lon="12.1255227"><ele>693.6666666666666</ele><time>2026-05-03T08:55:09.271Z</time></trkpt><trkpt lat="43.2313983" lon="12.1256552"><ele>688.5</ele><time>2026-05-03T08:55:12.273Z</time></trkpt><trkpt lat="43.231382" lon="12.1257554"><ele>683.3333333333334</ele><time>2026-05-03T08:55:14.281Z</time></trkpt><trkpt lat="43.2313797" lon="12.1258663"><ele>678.1666666666667</ele><time>2026-05-03T08:55:16.268Z</time></trkpt><trkpt lat="43.2313942" lon="12.1259837"><ele>673.0</ele><time>2026-05-03T08:55:18.28Z</time></trkpt><trkpt lat="43.2314177" lon="12.1261033"><ele>673.0</ele><time>2026-05-03T08:55:20.281Z</time></trkpt><trkpt lat="43.2314341" lon="12.1262201"><ele>673.0</ele><time>2026-05-03T08:55:22.256Z</time></trkpt><trkpt lat="43.2314277" lon="12.1263313"><ele>673.0</ele><time>2026-05-03T08:55:24.289Z</time></trkpt><trkpt lat="43.2313804" lon="12.1264284"><ele>673.0</ele><time>2026-05-03T08:55:26.279Z</time></trkpt><trkpt lat="43.2313168" lon="12.1265019"><ele>673.0</ele><time>2026-05-03T08:55:28.284Z</time></trkpt><trkpt lat="43.2312579" lon="12.1265821"><ele>673.0</ele><time>2026-05-03T08:55:30.283Z</time></trkpt><trkpt lat="43.2312134" lon="12.1266826"><ele>674.8333333333334</ele><time>2026-05-03T08:55:32.285Z</time></trkpt><trkpt lat="43.2312014" lon="12.1268013"><ele>676.6666666666667</ele><time>2026-05-03T08:55:34.37Z</time></trkpt><trkpt lat="43.2312007" lon="12.1269185"><ele>678.5</ele><time>2026-05-03T08:55:36.278Z</time></trkpt><trkpt lat="43.2311962" lon="12.1270273"><ele>680.3333333333334</ele><time>2026-05-03T08:55:38.28Z</time></trkpt><trkpt lat="43.2311932" lon="12.1271361"><ele>682.1666666666666</ele><time>2026-05-03T08:55:40.278Z</time></trkpt><trkpt lat="43.231199" lon="12.1272517"><ele>684.0</ele><time>2026-05-03T08:55:42.284Z</time></trkpt><trkpt lat="43.2312207" lon="12.1273713"><ele>685.2857142857142</ele><time>2026-05-03T08:55:44.289Z</time></trkpt><trkpt lat="43.2312598" lon="12.1274728"><ele>686.5714285714286</ele><time>2026-05-03T08:55:46.386Z</time></trkpt><trkpt lat="43.231295" lon="12.1275612"><ele>687.8571428571429</ele><time>2026-05-03T08:55:48.287Z</time></trkpt><trkpt lat="43.231325" lon="12.1276459"><ele>689.1428571428571</ele><time>2026-05-03T08:55:50.271Z</time></trkpt><trkpt lat="43.2313595" lon="12.12773"><ele>690.4285714285714</ele><time>2026-05-03T08:55:52.268Z</time></trkpt><trkpt lat="43.231397" lon="12.1278228"><ele>691.7142857142857</ele><time>2026-05-03T08:55:54.279Z</time></trkpt><trkpt lat="43.2314384" lon="12.1279066"><ele>693.0</ele><time>2026-05-03T08:55:56.279Z</time></trkpt><trkpt lat="43.2314779" lon="12.1279886"><ele>696.7142857142857</ele><time>2026-05-03T08:55:58.277Z</time></trkpt><trkpt lat="43.2315221" lon="12.1280713"><ele>700.4285714285714</ele><time>2026-05-03T08:56:00.287Z</time></trkpt><trkpt lat="43.2315666" lon="12.1281552"><ele>704.1428571428571</ele><time>2026-05-03T08:56:02.291Z</time></trkpt><trkpt lat="43.2316079" lon="12.128232"><ele>707.8571428571429</ele><time>2026-05-03T08:56:04.279Z</time></trkpt><trkpt lat="43.2316273" lon="12.1283213"><ele>711.5714285714286</ele><time>2026-05-03T08:56:06.293Z</time></trkpt><trkpt lat="43.2316217" lon="12.1284304"><ele>715.2857142857142</ele><time>2026-05-03T08:56:08.288Z</time></trkpt><trkpt lat="43.2315902" lon="12.1285306"><ele>719.0</ele><time>2026-05-03T08:56:10.384Z</time></trkpt><trkpt lat="43.2315547" lon="12.1286257"><ele>719.0</ele><time>2026-05-03T08:56:12.285Z</time></trkpt><trkpt lat="43.2314965" lon="12.128704"><ele>719.0</ele><time>2026-05-03T08:56:14.282Z</time></trkpt><trkpt lat="43.2314337" lon="12.1287711"><ele>719.0</ele><time>2026-05-03T08:56:16.279Z</time></trkpt><trkpt lat="43.2313737" lon="12.1288401"><ele>719.0</ele><time>2026-05-03T08:56:18.265Z</time></trkpt><trkpt lat="43.2313141" lon="12.1289094"><ele>719.0</ele><time>2026-05-03T08:56:20.289Z</time></trkpt><trkpt lat="43.231253" lon="12.1289799"><ele>719.0</ele><time>2026-05-03T08:56:22.277Z</time></trkpt><trkpt lat="43.231196" lon="12.1290582"><ele>717.7142857142857</ele><time>2026-05-03T08:56:24.281Z</time></trkpt><trkpt lat="43.2311469" lon="12.1291312"><ele>716.4285714285714</ele><time>2026-05-03T08:56:26.288Z</time></trkpt><trkpt lat="43.2311122" lon="12.1292262"><ele>715.1428571428571</ele><time>2026-05-03T08:56:28.285Z</time></trkpt><trkpt lat="43.231078" lon="12.1293105"><ele>713.8571428571429</ele><time>2026-05-03T08:56:30.289Z</time></trkpt><trkpt lat="43.2310368" lon="12.1293904"><ele>712.5714285714286</ele><time>2026-05-03T08:56:33.268Z</time></trkpt><trkpt lat="43.2309874" lon="12.1294496"><ele>711.2857142857142</ele><time>2026-05-03T08:56:36.283Z</time></trkpt><trkpt lat="43.2309432" lon="12.1295293"><ele>710.0</ele><time>2026-05-03T08:56:39.28Z</time></trkpt><trkpt lat="43.2309111" lon="12.1296211"><ele>710.0</ele><time>2026-05-03T08:56:42.274Z</time></trkpt><trkpt lat="43.2308777" lon="12.1297009"><ele>710.0</ele><time>2026-05-03T08:56:45.28Z</time></trkpt><trkpt lat="43.2308322" lon="12.1297996"><ele>710.0</ele><time>2026-05-03T08:56:49.284Z</time></trkpt><trkpt lat="43.2307936" lon="12.1298703"><ele>710.0</ele><time>2026-05-03T08:56:52.285Z</time></trkpt><trkpt lat="43.2307683" lon="12.1299501"><ele>710.0</ele><time>2026-05-03T08:56:55.282Z</time></trkpt><trkpt lat="43.2307297" lon="12.1300259"><ele>710.0</ele><time>2026-05-03T08:56:58.284Z</time></trkpt><trkpt lat="43.230705" lon="12.1301205"><ele>710.0</ele><time>2026-05-03T08:57:01.278Z</time></trkpt><trkpt lat="43.2306901" lon="12.1302359"><ele>713.0</ele><time>2026-05-03T08:57:04.284Z</time></trkpt><trkpt lat="43.2307043" lon="12.1303567"><ele>716.0</ele><time>2026-05-03T08:57:07.28Z</time></trkpt><trkpt lat="43.2307343" lon="12.1304684"><ele>719.0</ele><time>2026-05-03T08:57:10.286Z</time></trkpt><trkpt lat="43.2307705" lon="12.1305783"><ele>722.0</ele><time>2026-05-03T08:57:13.293Z</time></trkpt><trkpt lat="43.2308003" lon="12.1306947"><ele>725.0</ele><time>2026-05-03T08:57:16.273Z</time></trkpt><trkpt lat="43.2308372" lon="12.1307991"><ele>728.0</ele><time>2026-05-03T08:57:19.284Z</time></trkpt><trkpt lat="43.2308605" lon="12.13091"><ele>728.0</ele><time>2026-05-03T08:57:22.282Z</time></trkpt><trkpt lat="43.2308877" lon="12.1309906"><ele>728.0</ele><time>2026-05-03T08:57:24.273Z</time></trkpt><trkpt lat="43.2309158" lon="12.1310833"><ele>728.0</ele><time>2026-05-03T08:57:26.288Z</time></trkpt><trkpt lat="43.2309454" lon="12.1312078"><ele>728.0</ele><time>2026-05-03T08:57:29.283Z</time></trkpt><trkpt lat="43.2309673" lon="12.1313314"><ele>728.0</ele><time>2026-05-03T08:57:32.291Z</time></trkpt><trkpt lat="43.2311421" lon="12.131686"><ele>726.4</ele><time>2026-05-03T08:57:33.289Z</time></trkpt><trkpt lat="43.2311764" lon="12.1318268"><ele>724.8</ele><time>2026-05-03T08:57:35.289Z</time></trkpt><trkpt lat="43.2312208" lon="12.1319705"><ele>723.2</ele><time>2026-05-03T08:57:37.28Z</time></trkpt><trkpt lat="43.2312306" lon="12.1320582"><ele>721.6</ele><time>2026-05-03T08:57:38.293Z</time></trkpt><trkpt lat="43.2312426" lon="12.1322136"><ele>720.0</ele><time>2026-05-03T08:57:40.281Z</time></trkpt><trkpt lat="43.2312124" lon="12.1322945"><ele>720.6666666666666</ele><time>2026-05-03T08:57:41.284Z</time></trkpt><trkpt lat="43.2311484" lon="12.132425"><ele>721.3333333333334</ele><time>2026-05-03T08:57:43.284Z</time></trkpt><trkpt lat="43.2310622" lon="12.132506"><ele>722.0</ele><time>2026-05-03T08:57:45.281Z</time></trkpt><trkpt lat="43.2309797" lon="12.1325357"><ele>722.6666666666667</ele><time>2026-05-03T08:57:47.29Z</time></trkpt><trkpt lat="43.2309112" lon="12.132558"><ele>723.3333333333334</ele><time>2026-05-03T08:57:49.264Z</time></trkpt><trkpt lat="43.2308432" lon="12.1325849"><ele>724.0</ele><time>2026-05-03T08:57:51.276Z</time></trkpt><trkpt lat="43.2307719" lon="12.13258"><ele>724.0</ele><time>2026-05-03T08:57:53.276Z</time></trkpt><trkpt lat="43.230706" lon="12.1325896"><ele>724.0</ele><time>2026-05-03T08:57:55.276Z</time></trkpt><trkpt lat="43.2306423" lon="12.1326254"><ele>724.0</ele><time>2026-05-03T08:57:57.289Z</time></trkpt><trkpt lat="43.2305679" lon="12.1326631"><ele>724.0</ele><time>2026-05-03T08:57:59.29Z</time></trkpt><trkpt lat="43.2304849" lon="12.1326733"><ele>724.0</ele><time>2026-05-03T08:58:01.273Z</time></trkpt><trkpt lat="43.230408" lon="12.1326581"><ele>724.0</ele><time>2026-05-03T08:58:03.289Z</time></trkpt><trkpt lat="43.2303344" lon="12.132673"><ele>724.3333333333334</ele><time>2026-05-03T08:58:05.281Z</time></trkpt><trkpt lat="43.2302511" lon="12.1326923"><ele>724.6666666666667</ele><time>2026-05-03T08:58:08.29Z</time></trkpt><trkpt lat="43.230179" lon="12.1327131"><ele>725.0</ele><time>2026-05-03T08:58:10.28Z</time></trkpt><trkpt lat="43.2301187" lon="12.1327483"><ele>725.3333333333334</ele><time>2026-05-03T08:58:12.283Z</time></trkpt><trkpt lat="43.2300389" lon="12.132771"><ele>725.6666666666666</ele><time>2026-05-03T08:58:15.264Z</time></trkpt><trkpt lat="43.2299588" lon="12.132792"><ele>726.0</ele><time>2026-05-03T08:58:19.289Z</time></trkpt><trkpt lat="43.2298766" lon="12.1328288"><ele>722.5999999999999</ele><time>2026-05-03T08:58:22.282Z</time></trkpt><trkpt lat="43.2297653" lon="12.1329185"><ele>719.2</ele><time>2026-05-03T08:58:24.282Z</time></trkpt><trkpt lat="43.2297012" lon="12.1329442"><ele>715.8</ele><time>2026-05-03T08:58:25.29Z</time></trkpt><trkpt lat="43.2295896" lon="12.1329748"><ele>712.4000000000001</ele><time>2026-05-03T08:58:27.266Z</time></trkpt><trkpt lat="43.2294725" lon="12.1330034"><ele>709.0</ele><time>2026-05-03T08:58:29.27Z</time></trkpt><trkpt lat="43.2294042" lon="12.1330137"><ele>709.0</ele><time>2026-05-03T08:58:30.262Z</time></trkpt><trkpt lat="43.2292855" lon="12.133057"><ele>709.0</ele><time>2026-05-03T08:58:32.276Z</time></trkpt><trkpt lat="43.2292171" lon="12.1330964"><ele>709.0</ele><time>2026-05-03T08:58:33.263Z</time></trkpt><trkpt lat="43.2291543" lon="12.1331343"><ele>709.0</ele><time>2026-05-03T08:58:34.288Z</time></trkpt><trkpt lat="43.2290068" lon="12.1332761"><ele>709.0</ele><time>2026-05-03T08:58:35.262Z</time></trkpt><trkpt lat="43.2289352" lon="12.1333271"><ele>708.1666666666667</ele><time>2026-05-03T08:58:36.274Z</time></trkpt><trkpt lat="43.2288685" lon="12.1333993"><ele>707.3333333333334</ele><time>2026-05-03T08:58:37.291Z</time></trkpt><trkpt lat="43.2287894" lon="12.1334639"><ele>706.5</ele><time>2026-05-03T08:58:38.289Z</time></trkpt><trkpt lat="43.2287288" lon="12.1335202"><ele>705.6666666666666</ele><time>2026-05-03T08:58:39.286Z</time></trkpt><trkpt lat="43.2286744" lon="12.1335812"><ele>704.8333333333333</ele><time>2026-05-03T08:58:40.262Z</time></trkpt><trkpt lat="43.228619" lon="12.133635"><ele>704.0</ele><time>2026-05-03T08:58:41.267Z</time></trkpt><trkpt lat="43.2285444" lon="12.1336535"><ele>704.0</ele><time>2026-05-03T08:58:42.28Z</time></trkpt><trkpt lat="43.2285183" lon="12.1337338"><ele>704.0</ele><time>2026-05-03T08:58:43.281Z</time></trkpt><trkpt lat="43.2284431" lon="12.1338424"><ele>704.0</ele><time>2026-05-03T08:58:45.284Z</time></trkpt><trkpt lat="43.2283837" lon="12.1338882"><ele>704.0</ele><time>2026-05-03T08:58:46.287Z</time></trkpt><trkpt lat="43.2282877" lon="12.1339733"><ele>704.0</ele><time>2026-05-03T08:58:48.279Z</time></trkpt><trkpt lat="43.2282439" lon="12.1340465"><ele>704.0</ele><time>2026-05-03T08:58:49.299Z</time></trkpt><trkpt lat="43.2282051" lon="12.1341245"><ele>701.3333333333333</ele><time>2026-05-03T08:58:50.287Z</time></trkpt><trkpt lat="43.2280977" lon="12.134231"><ele>698.6666666666666</ele><time>2026-05-03T08:58:52.291Z</time></trkpt><trkpt lat="43.2280311" lon="12.1342816"><ele>696.0</ele><time>2026-05-03T08:58:53.286Z</time></trkpt><trkpt lat="43.2279846" lon="12.1343658"><ele>693.3333333333334</ele><time>2026-05-03T08:58:54.273Z</time></trkpt><trkpt lat="43.2279324" lon="12.134439"><ele>690.6666666666667</ele><time>2026-05-03T08:58:55.28Z</time></trkpt><trkpt lat="43.2278779" lon="12.1345228"><ele>688.0</ele><time>2026-05-03T08:58:56.278Z</time></trkpt><trkpt lat="43.2278323" lon="12.1346285"><ele>688.0</ele><time>2026-05-03T08:58:57.274Z</time></trkpt><trkpt lat="43.2278013" lon="12.1347253"><ele>688.0</ele><time>2026-05-03T08:58:58.277Z</time></trkpt><trkpt lat="43.227776" lon="12.1348464"><ele>688.0</ele><time>2026-05-03T08:58:59.382Z</time></trkpt><trkpt lat="43.2277113" lon="12.1350891"><ele>688.0</ele><time>2026-05-03T08:59:01.279Z</time></trkpt><trkpt lat="43.2276733" lon="12.135182"><ele>688.0</ele><time>2026-05-03T08:59:02.287Z</time></trkpt><trkpt lat="43.2276418" lon="12.1352634"><ele>691.0</ele><time>2026-05-03T08:59:03.284Z</time></trkpt><trkpt lat="43.2275563" lon="12.1353847"><ele>694.0</ele><time>2026-05-03T08:59:04.281Z</time></trkpt><trkpt lat="43.2275317" lon="12.1354712"><ele>697.0</ele><time>2026-05-03T08:59:05.274Z</time></trkpt><trkpt lat="43.2275174" lon="12.1355909"><ele>700.0</ele><time>2026-05-03T08:59:06.277Z</time></trkpt><trkpt lat="43.2275361" lon="12.1357473"><ele>703.0</ele><time>2026-05-03T08:59:08.289Z</time></trkpt><trkpt lat="43.2275539" lon="12.1358642"><ele>704.3333333333334</ele><time>2026-05-03T08:59:10.274Z</time></trkpt><trkpt lat="43.2275564" lon="12.1359644"><ele>705.6666666666667</ele><time>2026-05-03T08:59:12.282Z</time></trkpt><trkpt lat="43.2275237" lon="12.1360452"><ele>707.0</ele><time>2026-05-03T08:59:15.279Z</time></trkpt><trkpt lat="43.2274568" lon="12.1360729"><ele>708.3333333333334</ele><time>2026-05-03T08:59:53.274Z</time></trkpt><trkpt lat="43.2273718" lon="12.1360239"><ele>709.6666666666666</ele><time>2026-05-03T08:59:55.273Z</time></trkpt><trkpt lat="43.2272473" lon="12.1359829"><ele>711.0</ele><time>2026-05-03T08:59:57.353Z</time></trkpt><trkpt lat="43.2271803" lon="12.1359803"><ele>707.6666666666666</ele><time>2026-05-03T08:59:58.266Z</time></trkpt><trkpt lat="43.2271126" lon="12.1359732"><ele>704.3333333333334</ele><time>2026-05-03T08:59:59.262Z</time></trkpt><trkpt lat="43.2270433" lon="12.1359472"><ele>701.0</ele><time>2026-05-03T09:00:00.266Z</time></trkpt><trkpt lat="43.2269188" lon="12.1359286"><ele>697.6666666666667</ele><time>2026-05-03T09:00:02.26Z</time></trkpt><trkpt lat="43.2268569" lon="12.1359121"><ele>694.3333333333334</ele><time>2026-05-03T09:00:03.273Z</time></trkpt><trkpt lat="43.2267399" lon="12.1358843"><ele>691.0</ele><time>2026-05-03T09:00:05.264Z</time></trkpt><trkpt lat="43.2266324" lon="12.1359093"><ele>691.0</ele><time>2026-05-03T09:00:07.268Z</time></trkpt><trkpt lat="43.2265258" lon="12.1358678"><ele>691.0</ele><time>2026-05-03T09:00:09.271Z</time></trkpt><trkpt lat="43.2264294" lon="12.1357931"><ele>691.0</ele><time>2026-05-03T09:00:11.274Z</time></trkpt><trkpt lat="43.226333" lon="12.1357422"><ele>691.0</ele><time>2026-05-03T09:00:13.269Z</time></trkpt><trkpt lat="43.2262451" lon="12.1356849"><ele>691.0</ele><time>2026-05-03T09:00:15.274Z</time></trkpt><trkpt lat="43.2261623" lon="12.1356324"><ele>685.5999999999999</ele><time>2026-05-03T09:00:17.278Z</time></trkpt><trkpt lat="43.2260504" lon="12.1355618"><ele>680.2</ele><time>2026-05-03T09:00:19.28Z</time></trkpt><trkpt lat="43.2259489" lon="12.1355649"><ele>674.8</ele><time>2026-05-03T09:00:21.271Z</time></trkpt><trkpt lat="43.2258338" lon="12.1356071"><ele>669.4000000000001</ele><time>2026-05-03T09:00:23.267Z</time></trkpt><trkpt lat="43.2257738" lon="12.1355806"><ele>664.0</ele><time>2026-05-03T09:00:24.264Z</time></trkpt><trkpt lat="43.2256745" lon="12.1356225"><ele>663.8000000000001</ele><time>2026-05-03T09:00:26.391Z</time></trkpt><trkpt lat="43.2255835" lon="12.1357482"><ele>663.6</ele><time>2026-05-03T09:00:28.273Z</time></trkpt><trkpt lat="43.2255371" lon="12.1358322"><ele>663.4</ele><time>2026-05-03T09:00:29.27Z</time></trkpt><trkpt lat="43.2255116" lon="12.1359125"><ele>663.2</ele><time>2026-05-03T09:00:30.276Z</time></trkpt><trkpt lat="43.225485" lon="12.135992"><ele>663.0</ele><time>2026-05-03T09:00:31.289Z</time></trkpt><trkpt lat="43.2253733" lon="12.1360775"><ele>663.0</ele><time>2026-05-03T09:00:33.291Z</time></trkpt><trkpt lat="43.2252732" lon="12.1361835"><ele>663.0</ele><time>2026-05-03T09:00:35.278Z</time></trkpt><trkpt lat="43.2251943" lon="12.1363193"><ele>663.0</ele><time>2026-05-03T09:00:37.279Z</time></trkpt><trkpt lat="43.225151" lon="12.1363916"><ele>663.0</ele><time>2026-05-03T09:00:38.273Z</time></trkpt><trkpt lat="43.2250933" lon="12.1364608"><ele>663.0</ele><time>2026-05-03T09:00:39.279Z</time></trkpt><trkpt lat="43.2250291" lon="12.1365211"><ele>663.5</ele><time>2026-05-03T09:00:40.277Z</time></trkpt><trkpt lat="43.2249677" lon="12.1365894"><ele>664.0</ele><time>2026-05-03T09:00:41.274Z</time></trkpt><trkpt lat="43.2249168" lon="12.1366691"><ele>664.5</ele><time>2026-05-03T09:00:42.289Z</time></trkpt><trkpt lat="43.2248932" lon="12.136763"><ele>665.0</ele><time>2026-05-03T09:00:43.272Z</time></trkpt><trkpt lat="43.2248699" lon="12.1368586"><ele>665.5</ele><time>2026-05-03T09:00:44.273Z</time></trkpt><trkpt lat="43.2248377" lon="12.1369486"><ele>666.0</ele><time>2026-05-03T09:00:45.278Z</time></trkpt><trkpt lat="43.2247892" lon="12.1370366"><ele>664.1666666666666</ele><time>2026-05-03T09:00:46.278Z</time></trkpt><trkpt lat="43.2247326" lon="12.137108"><ele>662.3333333333334</ele><time>2026-05-03T09:00:47.277Z</time></trkpt><trkpt lat="43.2246669" lon="12.1371592"><ele>660.5</ele><time>2026-05-03T09:00:48.288Z</time></trkpt><trkpt lat="43.2245879" lon="12.1371883"><ele>658.6666666666667</ele><time>2026-05-03T09:00:49.282Z</time></trkpt><trkpt lat="43.2245018" lon="12.1372159"><ele>656.8333333333334</ele><time>2026-05-03T09:00:50.273Z</time></trkpt><trkpt lat="43.2244186" lon="12.1372241"><ele>655.0</ele><time>2026-05-03T09:00:51.278Z</time></trkpt><trkpt lat="43.2243409" lon="12.1372471"><ele>655.0</ele><time>2026-05-03T09:00:52.282Z</time></trkpt><trkpt lat="43.224266" lon="12.1372608"><ele>655.0</ele><time>2026-05-03T09:00:53.28Z</time></trkpt><trkpt lat="43.2241856" lon="12.1372681"><ele>655.0</ele><time>2026-05-03T09:00:54.28Z</time></trkpt><trkpt lat="43.2241027" lon="12.1372649"><ele>655.0</ele><time>2026-05-03T09:00:55.276Z</time></trkpt><trkpt lat="43.2240279" lon="12.1372509"><ele>655.0</ele><time>2026-05-03T09:00:56.273Z</time></trkpt><trkpt lat="43.2239561" lon="12.1372529"><ele>655.0</ele><time>2026-05-03T09:00:57.289Z</time></trkpt><trkpt lat="43.2238915" lon="12.1372678"><ele>653.3333333333334</ele><time>2026-05-03T09:00:58.288Z</time></trkpt><trkpt lat="43.2238214" lon="12.137266"><ele>651.6666666666667</ele><time>2026-05-03T09:00:59.275Z</time></trkpt><trkpt lat="43.2237542" lon="12.1372648"><ele>650.0</ele><time>2026-05-03T09:01:00.28Z</time></trkpt><trkpt lat="43.2236809" lon="12.1372739"><ele>648.3333333333334</ele><time>2026-05-03T09:01:01.286Z</time></trkpt><trkpt lat="43.2236204" lon="12.1373114"><ele>646.6666666666666</ele><time>2026-05-03T09:01:02.274Z</time></trkpt><trkpt lat="43.2235463" lon="12.1374173"><ele>645.0</ele><time>2026-05-03T09:01:04.27Z</time></trkpt><trkpt lat="43.2234749" lon="12.1375456"><ele>645.0</ele><time>2026-05-03T09:01:06.277Z</time></trkpt><trkpt lat="43.2234028" lon="12.1376726"><ele>645.0</ele><time>2026-05-03T09:01:08.281Z</time></trkpt><trkpt lat="43.2233397" lon="12.1378108"><ele>645.0</ele><time>2026-05-03T09:01:10.278Z</time></trkpt><trkpt lat="43.2233186" lon="12.1378926"><ele>645.0</ele><time>2026-05-03T09:01:11.277Z</time></trkpt><trkpt lat="43.2232974" lon="12.1379767"><ele>645.0</ele><time>2026-05-03T09:01:12.279Z</time></trkpt><trkpt lat="43.2232805" lon="12.138071"><ele>645.0</ele><time>2026-05-03T09:01:13.28Z</time></trkpt><trkpt lat="43.2232661" lon="12.1381771"><ele>644.2857142857143</ele><time>2026-05-03T09:01:14.274Z</time></trkpt><trkpt lat="43.2232409" lon="12.138277"><ele>643.5714285714286</ele><time>2026-05-03T09:01:15.279Z</time></trkpt><trkpt lat="43.2232239" lon="12.1383684"><ele>642.8571428571429</ele><time>2026-05-03T09:01:16.263Z</time></trkpt><trkpt lat="43.2232116" lon="12.1384696"><ele>642.1428571428571</ele><time>2026-05-03T09:01:17.278Z</time></trkpt><trkpt lat="43.2231918" lon="12.138568"><ele>641.4285714285714</ele><time>2026-05-03T09:01:18.291Z</time></trkpt><trkpt lat="43.2231754" lon="12.138662"><ele>640.7142857142857</ele><time>2026-05-03T09:01:19.272Z</time></trkpt><trkpt lat="43.2231539" lon="12.138752"><ele>640.0</ele><time>2026-05-03T09:01:20.273Z</time></trkpt><trkpt lat="43.2231287" lon="12.1388369"><ele>638.6666666666667</ele><time>2026-05-03T09:01:21.285Z</time></trkpt><trkpt lat="43.2230946" lon="12.1389114"><ele>637.3333333333334</ele><time>2026-05-03T09:01:22.282Z</time></trkpt><trkpt lat="43.2230496" lon="12.1389805"><ele>636.0</ele><time>2026-05-03T09:01:23.275Z</time></trkpt><trkpt lat="43.2230101" lon="12.1390538"><ele>634.6666666666666</ele><time>2026-05-03T09:01:24.288Z</time></trkpt><trkpt lat="43.222936" lon="12.1391578"><ele>633.3333333333333</ele><time>2026-05-03T09:01:26.282Z</time></trkpt><trkpt lat="43.2228634" lon="12.1392631"><ele>632.0</ele><time>2026-05-03T09:01:28.278Z</time></trkpt><trkpt lat="43.222787" lon="12.1393582"><ele>632.0</ele><time>2026-05-03T09:01:30.281Z</time></trkpt><trkpt lat="43.2227073" lon="12.139468"><ele>632.0</ele><time>2026-05-03T09:01:32.367Z</time></trkpt><trkpt lat="43.2226166" lon="12.1395643"><ele>632.0</ele><time>2026-05-03T09:01:34.292Z</time></trkpt><trkpt lat="43.2225617" lon="12.1396112"><ele>632.0</ele><time>2026-05-03T09:01:35.279Z</time></trkpt><trkpt lat="43.2224767" lon="12.1397314"><ele>632.0</ele><time>2026-05-03T09:01:37.287Z</time></trkpt><trkpt lat="43.2223977" lon="12.1398583"><ele>632.0</ele><time>2026-05-03T09:01:39.281Z</time></trkpt><trkpt lat="43.2223679" lon="12.1399783"><ele>632.0</ele><time>2026-05-03T09:01:41.285Z</time></trkpt><trkpt lat="43.2223779" lon="12.1400681"><ele>632.0</ele><time>2026-05-03T09:01:42.284Z</time></trkpt><trkpt lat="43.222368" lon="12.1401572"><ele>632.0</ele><time>2026-05-03T09:01:43.288Z</time></trkpt><trkpt lat="43.222369" lon="12.1402501"><ele>632.0</ele><time>2026-05-03T09:01:44.277Z</time></trkpt><trkpt lat="43.2223503" lon="12.1403967"><ele>632.0</ele><time>2026-05-03T09:01:46.278Z</time></trkpt><trkpt lat="43.2223187" lon="12.140544"><ele>630.8000000000001</ele><time>2026-05-03T09:01:48.281Z</time></trkpt><trkpt lat="43.222303" lon="12.1406302"><ele>629.6</ele><time>2026-05-03T09:01:49.276Z</time></trkpt><trkpt lat="43.2222928" lon="12.1407716"><ele>628.4000000000001</ele><time>2026-05-03T09:01:51.279Z</time></trkpt><trkpt lat="43.2222431" lon="12.1409246"><ele>627.2</ele><time>2026-05-03T09:01:53.289Z</time></trkpt><trkpt lat="43.2221633" lon="12.1410517"><ele>626.0</ele><time>2026-05-03T09:01:55.277Z</time></trkpt><trkpt lat="43.2221018" lon="12.1411745"><ele>626.0</ele><time>2026-05-03T09:01:57.279Z</time></trkpt><trkpt lat="43.2220413" lon="12.1412813"><ele>626.0</ele><time>2026-05-03T09:01:59.276Z</time></trkpt><trkpt lat="43.2219776" lon="12.1413915"><ele>626.0</ele><time>2026-05-03T09:02:01.277Z</time></trkpt><trkpt lat="43.2218992" lon="12.1414674"><ele>626.0</ele><time>2026-05-03T09:02:04.281Z</time></trkpt><trkpt lat="43.2218285" lon="12.1415057"><ele>626.0</ele><time>2026-05-03T09:02:06.274Z</time></trkpt><trkpt lat="43.2217734" lon="12.1415823"><ele>626.3333333333333</ele><time>2026-05-03T09:02:08.289Z</time></trkpt><trkpt lat="43.2217176" lon="12.1416601"><ele>626.6666666666666</ele><time>2026-05-03T09:02:10.274Z</time></trkpt><trkpt lat="43.2216658" lon="12.1417103"><ele>627.0</ele><time>2026-05-03T09:02:12.276Z</time></trkpt><trkpt lat="43.2215987" lon="12.1417677"><ele>627.3333333333334</ele><time>2026-05-03T09:02:14.283Z</time></trkpt><trkpt lat="43.2215262" lon="12.1418239"><ele>627.6666666666667</ele><time>2026-05-03T09:02:16.285Z</time></trkpt><trkpt lat="43.2214603" lon="12.1418772"><ele>628.0</ele><time>2026-05-03T09:02:18.276Z</time></trkpt><trkpt lat="43.2213796" lon="12.1419176"><ele>627.1999999999999</ele><time>2026-05-03T09:02:20.271Z</time></trkpt><trkpt lat="43.2213173" lon="12.1419902"><ele>626.4</ele><time>2026-05-03T09:02:22.275Z</time></trkpt><trkpt lat="43.2212612" lon="12.1420526"><ele>625.5999999999999</ele><time>2026-05-03T09:02:24.276Z</time></trkpt><trkpt lat="43.2211934" lon="12.1421128"><ele>624.8</ele><time>2026-05-03T09:02:26.279Z</time></trkpt><trkpt lat="43.2210926" lon="12.1421617"><ele>624.0</ele><time>2026-05-03T09:02:28.281Z</time></trkpt><trkpt lat="43.2209798" lon="12.1421895"><ele>624.0</ele><time>2026-05-03T09:02:30.282Z</time></trkpt><trkpt lat="43.2209171" lon="12.1422016"><ele>624.0</ele><time>2026-05-03T09:02:31.274Z</time></trkpt><trkpt lat="43.220856" lon="12.1422297"><ele>624.0</ele><time>2026-05-03T09:02:32.274Z</time></trkpt><trkpt lat="43.2207925" lon="12.1422624"><ele>624.0</ele><time>2026-05-03T09:02:33.265Z</time></trkpt><trkpt lat="43.2207262" lon="12.142305"><ele>624.0</ele><time>2026-05-03T09:02:34.285Z</time></trkpt><trkpt lat="43.2206687" lon="12.1423474"><ele>624.0</ele><time>2026-05-03T09:02:35.271Z</time></trkpt><trkpt lat="43.220614" lon="12.142405"><ele>624.0</ele><time>2026-05-03T09:02:36.274Z</time></trkpt><trkpt lat="43.2205594" lon="12.142472"><ele>621.8333333333334</ele><time>2026-05-03T09:02:37.274Z</time></trkpt><trkpt lat="43.2204916" lon="12.1425294"><ele>619.6666666666666</ele><time>2026-05-03T09:02:38.284Z</time></trkpt><trkpt lat="43.2204186" lon="12.1425847"><ele>617.5</ele><time>2026-05-03T09:02:39.281Z</time></trkpt><trkpt lat="43.2203384" lon="12.1426379"><ele>615.3333333333333</ele><time>2026-05-03T09:02:40.278Z</time></trkpt><trkpt lat="43.2202577" lon="12.1426797"><ele>613.1666666666666</ele><time>2026-05-03T09:02:41.271Z</time></trkpt><trkpt lat="43.2201722" lon="12.1427111"><ele>611.0</ele><time>2026-05-03T09:02:42.287Z</time></trkpt><trkpt lat="43.2200861" lon="12.1427185"><ele>611.0</ele><time>2026-05-03T09:02:43.274Z</time></trkpt><trkpt lat="43.2200031" lon="12.1427185"><ele>611.0</ele><time>2026-05-03T09:02:44.277Z</time></trkpt><trkpt lat="43.2199262" lon="12.1427046"><ele>611.0</ele><time>2026-05-03T09:02:45.278Z</time></trkpt><trkpt lat="43.219848" lon="12.1426786"><ele>611.0</ele><time>2026-05-03T09:02:46.288Z</time></trkpt><trkpt lat="43.2197877" lon="12.1426534"><ele>611.0</ele><time>2026-05-03T09:02:47.389Z</time></trkpt><trkpt lat="43.2196648" lon="12.1426106"><ele>611.0</ele><time>2026-05-03T09:02:49.279Z</time></trkpt><trkpt lat="43.219554" lon="12.1425762"><ele>611.4</ele><time>2026-05-03T09:02:51.291Z</time></trkpt><trkpt lat="43.2194531" lon="12.1425313"><ele>611.8</ele><time>2026-05-03T09:02:53.273Z</time></trkpt><trkpt lat="43.2193495" lon="12.1424982"><ele>612.1999999999999</ele><time>2026-05-03T09:02:55.284Z</time></trkpt><trkpt lat="43.2192565" lon="12.1424717"><ele>612.6</ele><time>2026-05-03T09:02:57.29Z</time></trkpt><trkpt lat="43.2191662" lon="12.1424481"><ele>613.0</ele><time>2026-05-03T09:02:59.282Z</time></trkpt><trkpt lat="43.2190703" lon="12.1424155"><ele>613.8</ele><time>2026-05-03T09:03:01.266Z</time></trkpt><trkpt lat="43.2189724" lon="12.1423936"><ele>614.5999999999999</ele><time>2026-05-03T09:03:03.289Z</time></trkpt><trkpt lat="43.2188752" lon="12.1423731"><ele>615.4000000000001</ele><time>2026-05-03T09:03:05.28Z</time></trkpt><trkpt lat="43.2187874" lon="12.142351"><ele>616.2</ele><time>2026-05-03T09:03:07.283Z</time></trkpt><trkpt lat="43.2186917" lon="12.1423334"><ele>617.0</ele><time>2026-05-03T09:03:09.278Z</time></trkpt><trkpt lat="43.2185849" lon="12.1423259"><ele>614.0</ele><time>2026-05-03T09:03:11.28Z</time></trkpt><trkpt lat="43.2184817" lon="12.1422934"><ele>611.0</ele><time>2026-05-03T09:03:13.281Z</time></trkpt><trkpt lat="43.2183926" lon="12.1422744"><ele>608.0</ele><time>2026-05-03T09:03:15.285Z</time></trkpt><trkpt lat="43.2182955" lon="12.1422541"><ele>605.0</ele><time>2026-05-03T09:03:17.277Z</time></trkpt><trkpt lat="43.2182028" lon="12.142257"><ele>602.0</ele><time>2026-05-03T09:03:19.279Z</time></trkpt><trkpt lat="43.2180961" lon="12.1422328"><ele>602.0</ele><time>2026-05-03T09:03:21.277Z</time></trkpt><trkpt lat="43.2180006" lon="12.1422223"><ele>602.0</ele><time>2026-05-03T09:03:23.276Z</time></trkpt><trkpt lat="43.2178954" lon="12.1422041"><ele>602.0</ele><time>2026-05-03T09:03:25.286Z</time></trkpt><trkpt lat="43.2177986" lon="12.1421812"><ele>602.0</ele><time>2026-05-03T09:03:27.29Z</time></trkpt><trkpt lat="43.2177024" lon="12.1421536"><ele>602.0</ele><time>2026-05-03T09:03:29.272Z</time></trkpt><trkpt lat="43.2176072" lon="12.1421417"><ele>602.0</ele><time>2026-05-03T09:03:31.286Z</time></trkpt><trkpt lat="43.2175054" lon="12.1421168"><ele>602.0</ele><time>2026-05-03T09:03:33.366Z</time></trkpt><trkpt lat="43.217411" lon="12.1421025"><ele>602.0</ele><time>2026-05-03T09:03:35.28Z</time></trkpt><trkpt lat="43.217308" lon="12.1420769"><ele>602.0</ele><time>2026-05-03T09:03:37.28Z</time></trkpt><trkpt lat="43.217198" lon="12.1420755"><ele>602.0</ele><time>2026-05-03T09:03:39.272Z</time></trkpt><trkpt lat="43.2170848" lon="12.1420733"><ele>602.0</ele><time>2026-05-03T09:03:41.281Z</time></trkpt><trkpt lat="43.216964" lon="12.1420901"><ele>602.0</ele><time>2026-05-03T09:03:43.29Z</time></trkpt><trkpt lat="43.2168577" lon="12.1421005"><ele>602.0</ele><time>2026-05-03T09:03:45.273Z</time></trkpt><trkpt lat="43.2167465" lon="12.1421138"><ele>602.0</ele><time>2026-05-03T09:03:47.272Z</time></trkpt><trkpt lat="43.2166376" lon="12.1421366"><ele>602.0</ele><time>2026-05-03T09:03:49.278Z</time></trkpt><trkpt lat="43.2165287" lon="12.1421736"><ele>602.0</ele><time>2026-05-03T09:03:51.275Z</time></trkpt><trkpt lat="43.2164283" lon="12.1422232"><ele>602.0</ele><time>2026-05-03T09:03:53.279Z</time></trkpt><trkpt lat="43.2163347" lon="12.1422698"><ele>602.0</ele><time>2026-05-03T09:03:55.279Z</time></trkpt><trkpt lat="43.2162527" lon="12.1423267"><ele>602.0</ele><time>2026-05-03T09:03:57.274Z</time></trkpt><trkpt lat="43.2161574" lon="12.1424133"><ele>603.0</ele><time>2026-05-03T09:03:59.269Z</time></trkpt><trkpt lat="43.2160859" lon="12.1424959"><ele>604.0</ele><time>2026-05-03T09:04:01.273Z</time></trkpt><trkpt lat="43.2160188" lon="12.1426105"><ele>605.0</ele><time>2026-05-03T09:04:03.39Z</time></trkpt><trkpt lat="43.2159421" lon="12.1427182"><ele>606.0</ele><time>2026-05-03T09:04:05.274Z</time></trkpt><trkpt lat="43.2158681" lon="12.1428365"><ele>607.0</ele><time>2026-05-03T09:04:07.281Z</time></trkpt><trkpt lat="43.2158066" lon="12.1429626"><ele>607.0</ele><time>2026-05-03T09:04:09.278Z</time></trkpt><trkpt lat="43.2157454" lon="12.1430694"><ele>607.0</ele><time>2026-05-03T09:04:11.281Z</time></trkpt><trkpt lat="43.215682" lon="12.1431754"><ele>607.0</ele><time>2026-05-03T09:04:13.288Z</time></trkpt><trkpt lat="43.2156229" lon="12.1432945"><ele>607.0</ele><time>2026-05-03T09:04:15.278Z</time></trkpt><trkpt lat="43.2155533" lon="12.1434218"><ele>607.0</ele><time>2026-05-03T09:04:17.264Z</time></trkpt><trkpt lat="43.215478" lon="12.1435546"><ele>606.0</ele><time>2026-05-03T09:04:19.275Z</time></trkpt><trkpt lat="43.2154412" lon="12.1436283"><ele>605.0</ele><time>2026-05-03T09:04:20.269Z</time></trkpt><trkpt lat="43.2154145" lon="12.1437099"><ele>604.0</ele><time>2026-05-03T09:04:21.368Z</time></trkpt><trkpt lat="43.2153432" lon="12.1438568"><ele>603.0</ele><time>2026-05-03T09:04:23.271Z</time></trkpt><trkpt lat="43.2153065" lon="12.1439371"><ele>602.0</ele><time>2026-05-03T09:04:24.277Z</time></trkpt><trkpt lat="43.2152737" lon="12.144025"><ele>601.0</ele><time>2026-05-03T09:04:25.288Z</time></trkpt><trkpt lat="43.2152435" lon="12.1441083"><ele>601.0</ele><time>2026-05-03T09:04:26.278Z</time></trkpt><trkpt lat="43.2152112" lon="12.1441943"><ele>601.0</ele><time>2026-05-03T09:04:27.274Z</time></trkpt><trkpt lat="43.2151806" lon="12.1442808"><ele>601.0</ele><time>2026-05-03T09:04:28.285Z</time></trkpt><trkpt lat="43.2151477" lon="12.1443738"><ele>601.0</ele><time>2026-05-03T09:04:29.266Z</time></trkpt><trkpt lat="43.2151149" lon="12.1444778"><ele>601.0</ele><time>2026-05-03T09:04:30.26Z</time></trkpt><trkpt lat="43.215082" lon="12.1445684"><ele>601.0</ele><time>2026-05-03T09:04:31.289Z</time></trkpt><trkpt lat="43.2150497" lon="12.1446601"><ele>601.0</ele><time>2026-05-03T09:04:32.268Z</time></trkpt><trkpt lat="43.215018" lon="12.1447452"><ele>601.0</ele><time>2026-05-03T09:04:33.274Z</time></trkpt><trkpt lat="43.2149836" lon="12.1448247"><ele>601.0</ele><time>2026-05-03T09:04:34.261Z</time></trkpt><trkpt lat="43.214946" lon="12.1449078"><ele>601.0</ele><time>2026-05-03T09:04:35.263Z</time></trkpt><trkpt lat="43.2149084" lon="12.1449844"><ele>601.0</ele><time>2026-05-03T09:04:36.264Z</time></trkpt><trkpt lat="43.2148849" lon="12.1450679"><ele>601.0</ele><time>2026-05-03T09:04:37.26Z</time></trkpt><trkpt lat="43.2148449" lon="12.1451521"><ele>601.0</ele><time>2026-05-03T09:04:38.26Z</time></trkpt><trkpt lat="43.2147944" lon="12.1452985"><ele>599.6</ele><time>2026-05-03T09:04:40.263Z</time></trkpt><trkpt lat="43.2147356" lon="12.1454401"><ele>598.2</ele><time>2026-05-03T09:04:42.269Z</time></trkpt><trkpt lat="43.214667" lon="12.145544"><ele>596.8</ele><time>2026-05-03T09:04:44.263Z</time></trkpt><trkpt lat="43.214597" lon="12.1456068"><ele>595.4</ele><time>2026-05-03T09:04:46.273Z</time></trkpt><trkpt lat="43.2145183" lon="12.1456588"><ele>594.0</ele><time>2026-05-03T09:04:48.276Z</time></trkpt><trkpt lat="43.2144201" lon="12.1456968"><ele>595.0</ele><time>2026-05-03T09:04:50.375Z</time></trkpt><trkpt lat="43.2143211" lon="12.1457368"><ele>596.0</ele><time>2026-05-03T09:04:52.286Z</time></trkpt><trkpt lat="43.2142168" lon="12.1457462"><ele>597.0</ele><time>2026-05-03T09:04:54.276Z</time></trkpt><trkpt lat="43.2141138" lon="12.1457656"><ele>598.0</ele><time>2026-05-03T09:04:56.275Z</time></trkpt><trkpt lat="43.2140152" lon="12.1457761"><ele>599.0</ele><time>2026-05-03T09:04:58.279Z</time></trkpt><trkpt lat="43.2139245" lon="12.1457999"><ele>599.0</ele><time>2026-05-03T09:05:00.28Z</time></trkpt><trkpt lat="43.2138265" lon="12.1458129"><ele>599.0</ele><time>2026-05-03T09:05:02.276Z</time></trkpt><trkpt lat="43.2137253" lon="12.145836"><ele>599.0</ele><time>2026-05-03T09:05:04.278Z</time></trkpt><trkpt lat="43.2136333" lon="12.1458586"><ele>599.0</ele><time>2026-05-03T09:05:06.275Z</time></trkpt><trkpt lat="43.2135481" lon="12.1458744"><ele>599.0</ele><time>2026-05-03T09:05:08.282Z</time></trkpt><trkpt lat="43.2134627" lon="12.1458914"><ele>599.0</ele><time>2026-05-03T09:05:10.274Z</time></trkpt><trkpt lat="43.2133808" lon="12.1459227"><ele>599.0</ele><time>2026-05-03T09:05:12.289Z</time></trkpt><trkpt lat="43.2132891" lon="12.1459535"><ele>599.0</ele><time>2026-05-03T09:05:14.28Z</time></trkpt><trkpt lat="43.2132001" lon="12.1459822"><ele>599.0</ele><time>2026-05-03T09:05:16.277Z</time></trkpt><trkpt lat="43.2130964" lon="12.1459939"><ele>599.0</ele><time>2026-05-03T09:05:18.272Z</time></trkpt><trkpt lat="43.2130334" lon="12.1459947"><ele>599.0</ele><time>2026-05-03T09:05:19.282Z</time></trkpt><trkpt lat="43.2129186" lon="12.1460269"><ele>598.5714285714286</ele><time>2026-05-03T09:05:21.278Z</time></trkpt><trkpt lat="43.2128532" lon="12.1460505"><ele>598.1428571428571</ele><time>2026-05-03T09:05:22.267Z</time></trkpt><trkpt lat="43.2127849" lon="12.146075"><ele>597.7142857142857</ele><time>2026-05-03T09:05:23.292Z</time></trkpt><trkpt lat="43.212717" lon="12.1461054"><ele>597.2857142857142</ele><time>2026-05-03T09:05:24.276Z</time></trkpt><trkpt lat="43.2126412" lon="12.1461259"><ele>596.8571428571428</ele><time>2026-05-03T09:05:25.275Z</time></trkpt><trkpt lat="43.2125575" lon="12.146148"><ele>596.4285714285714</ele><time>2026-05-03T09:05:26.28Z</time></trkpt><trkpt lat="43.2124822" lon="12.1461511"><ele>596.0</ele><time>2026-05-03T09:05:27.278Z</time></trkpt><trkpt lat="43.2123967" lon="12.1461535"><ele>596.0</ele><time>2026-05-03T09:05:28.281Z</time></trkpt><trkpt lat="43.2123271" lon="12.1461599"><ele>596.0</ele><time>2026-05-03T09:05:29.279Z</time></trkpt><trkpt lat="43.2122628" lon="12.1461842"><ele>596.0</ele><time>2026-05-03T09:05:30.267Z</time></trkpt><trkpt lat="43.2121962" lon="12.1462364"><ele>596.0</ele><time>2026-05-03T09:05:31.389Z</time></trkpt><trkpt lat="43.2120477" lon="12.14636"><ele>596.0</ele><time>2026-05-03T09:05:33.273Z</time></trkpt><trkpt lat="43.2119657" lon="12.1463975"><ele>594.4</ele><time>2026-05-03T09:05:34.276Z</time></trkpt><trkpt lat="43.2118779" lon="12.1464203"><ele>592.8</ele><time>2026-05-03T09:05:35.275Z</time></trkpt><trkpt lat="43.2118043" lon="12.1464187"><ele>591.1999999999999</ele><time>2026-05-03T09:05:36.279Z</time></trkpt><trkpt lat="43.2116613" lon="12.146421"><ele>589.6</ele><time>2026-05-03T09:05:39.274Z</time></trkpt><trkpt lat="43.2115678" lon="12.1464348"><ele>588.0</ele><time>2026-05-03T09:05:41.284Z</time></trkpt><trkpt lat="43.2114672" lon="12.1464575"><ele>587.0</ele><time>2026-05-03T09:05:43.276Z</time></trkpt><trkpt lat="43.2113494" lon="12.1464738"><ele>586.0</ele><time>2026-05-03T09:05:45.279Z</time></trkpt><trkpt lat="43.2112842" lon="12.1464819"><ele>585.0</ele><time>2026-05-03T09:05:46.28Z</time></trkpt><trkpt lat="43.211214" lon="12.1464953"><ele>584.0</ele><time>2026-05-03T09:05:47.286Z</time></trkpt><trkpt lat="43.2111445" lon="12.146511"><ele>583.0</ele><time>2026-05-03T09:05:48.281Z</time></trkpt><trkpt lat="43.2110642" lon="12.1465182"><ele>582.0</ele><time>2026-05-03T09:05:49.278Z</time></trkpt><trkpt lat="43.2109907" lon="12.1465205"><ele>582.0</ele><time>2026-05-03T09:05:50.287Z</time></trkpt><trkpt lat="43.2109241" lon="12.1465219"><ele>582.0</ele><time>2026-05-03T09:05:51.285Z</time></trkpt><trkpt lat="43.210856" lon="12.146502"><ele>582.0</ele><time>2026-05-03T09:05:52.279Z</time></trkpt><trkpt lat="43.2107822" lon="12.146501"><ele>582.0</ele><time>2026-05-03T09:05:53.276Z</time></trkpt><trkpt lat="43.2107094" lon="12.1464947"><ele>582.0</ele><time>2026-05-03T09:05:54.283Z</time></trkpt><trkpt lat="43.2106309" lon="12.1464755"><ele>582.0</ele><time>2026-05-03T09:05:55.276Z</time></trkpt><trkpt lat="43.2105555" lon="12.1464694"><ele>582.0</ele><time>2026-05-03T09:05:56.277Z</time></trkpt><trkpt lat="43.2104276" lon="12.1464487"><ele>581.2</ele><time>2026-05-03T09:05:58.274Z</time></trkpt><trkpt lat="43.2103612" lon="12.1464451"><ele>580.4000000000001</ele><time>2026-05-03T09:05:59.283Z</time></trkpt><trkpt lat="43.210298" lon="12.1464405"><ele>579.5999999999999</ele><time>2026-05-03T09:06:00.285Z</time></trkpt><trkpt lat="43.2101862" lon="12.1464229"><ele>578.8</ele><time>2026-05-03T09:06:02.284Z</time></trkpt><trkpt lat="43.2100797" lon="12.1464145"><ele>578.0</ele><time>2026-05-03T09:06:04.274Z</time></trkpt><trkpt lat="43.2099695" lon="12.1463903"><ele>578.0</ele><time>2026-05-03T09:06:06.281Z</time></trkpt><trkpt lat="43.2098574" lon="12.1463847"><ele>578.0</ele><time>2026-05-03T09:06:08.287Z</time></trkpt><trkpt lat="43.2097376" lon="12.146393"><ele>578.0</ele><time>2026-05-03T09:06:10.286Z</time></trkpt><trkpt lat="43.209667" lon="12.1464084"><ele>578.0</ele><time>2026-05-03T09:06:11.289Z</time></trkpt><trkpt lat="43.2095405" lon="12.1464268"><ele>578.0</ele><time>2026-05-03T09:06:13.383Z</time></trkpt><trkpt lat="43.2094338" lon="12.1464515"><ele>577.0</ele><time>2026-05-03T09:06:15.287Z</time></trkpt><trkpt lat="43.2093197" lon="12.1464877"><ele>576.0</ele><time>2026-05-03T09:06:17.282Z</time></trkpt><trkpt lat="43.2092319" lon="12.146517"><ele>575.0</ele><time>2026-05-03T09:06:19.384Z</time></trkpt><trkpt lat="43.2091564" lon="12.14653"><ele>574.0</ele><time>2026-05-03T09:06:22.273Z</time></trkpt><trkpt lat="43.20904" lon="12.1465495"><ele>573.0</ele><time>2026-05-03T09:06:50.294Z</time></trkpt><trkpt lat="43.2089408" lon="12.1465906"><ele>571.0</ele><time>2026-05-03T09:06:52.29Z</time></trkpt><trkpt lat="43.2088285" lon="12.1466266"><ele>569.0</ele><time>2026-05-03T09:06:54.274Z</time></trkpt><trkpt lat="43.2087601" lon="12.1466505"><ele>567.0</ele><time>2026-05-03T09:06:55.282Z</time></trkpt><trkpt lat="43.2086804" lon="12.146673"><ele>565.0</ele><time>2026-05-03T09:06:56.279Z</time></trkpt><trkpt lat="43.2085994" lon="12.1466974"><ele>563.0</ele><time>2026-05-03T09:06:57.28Z</time></trkpt><trkpt lat="43.2085109" lon="12.1467205"><ele>561.0</ele><time>2026-05-03T09:06:58.274Z</time></trkpt><trkpt lat="43.2084237" lon="12.146779"><ele>561.0</ele><time>2026-05-03T09:06:59.38Z</time></trkpt><trkpt lat="43.2083284" lon="12.1467936"><ele>561.0</ele><time>2026-05-03T09:07:00.289Z</time></trkpt><trkpt lat="43.208234" lon="12.1468128"><ele>561.0</ele><time>2026-05-03T09:07:01.275Z</time></trkpt><trkpt lat="43.2081451" lon="12.1468082"><ele>561.0</ele><time>2026-05-03T09:07:02.28Z</time></trkpt><trkpt lat="43.2080434" lon="12.1467805"><ele>561.0</ele><time>2026-05-03T09:07:03.279Z</time></trkpt><trkpt lat="43.2079424" lon="12.1467266"><ele>558.25</ele><time>2026-05-03T09:07:04.26Z</time></trkpt><trkpt lat="43.2078339" lon="12.1466771"><ele>555.5</ele><time>2026-05-03T09:07:05.273Z</time></trkpt><trkpt lat="43.2077228" lon="12.146624"><ele>552.75</ele><time>2026-05-03T09:07:06.28Z</time></trkpt><trkpt lat="43.2076049" lon="12.1465677"><ele>550.0</ele><time>2026-05-03T09:07:07.278Z</time></trkpt><trkpt lat="43.2074886" lon="12.146509"><ele>550.0</ele><time>2026-05-03T09:07:08.274Z</time></trkpt><trkpt lat="43.2073719" lon="12.1464453"><ele>550.0</ele><time>2026-05-03T09:07:09.287Z</time></trkpt><trkpt lat="43.2072549" lon="12.1463847"><ele>550.0</ele><time>2026-05-03T09:07:10.274Z</time></trkpt><trkpt lat="43.2071281" lon="12.1463112"><ele>550.0</ele><time>2026-05-03T09:07:11.38Z</time></trkpt><trkpt lat="43.2070099" lon="12.1462439"><ele>545.75</ele><time>2026-05-03T09:07:12.288Z</time></trkpt><trkpt lat="43.2068973" lon="12.1461747"><ele>541.5</ele><time>2026-05-03T09:07:13.281Z</time></trkpt><trkpt lat="43.2067877" lon="12.1460952"><ele>537.25</ele><time>2026-05-03T09:07:14.276Z</time></trkpt><trkpt lat="43.2066822" lon="12.1459916"><ele>533.0</ele><time>2026-05-03T09:07:15.281Z</time></trkpt><trkpt lat="43.206586" lon="12.1459077"><ele>527.6666666666666</ele><time>2026-05-03T09:07:16.272Z</time></trkpt><trkpt lat="43.206489" lon="12.1458053"><ele>522.3333333333334</ele><time>2026-05-03T09:07:17.384Z</time></trkpt><trkpt lat="43.2062642" lon="12.1456711"><ele>517.0</ele><time>2026-05-03T09:07:19.292Z</time></trkpt><trkpt lat="43.2061334" lon="12.1456387"><ele>516.0</ele><time>2026-05-03T09:07:20.277Z</time></trkpt><trkpt lat="43.2059934" lon="12.1456109"><ele>515.0</ele><time>2026-05-03T09:07:21.264Z</time></trkpt><trkpt lat="43.2058565" lon="12.1455975"><ele>514.0</ele><time>2026-05-03T09:07:22.284Z</time></trkpt><trkpt lat="43.2057192" lon="12.1455833"><ele>513.0</ele><time>2026-05-03T09:07:23.275Z</time></trkpt><trkpt lat="43.2055829" lon="12.1455725"><ele>511.5</ele><time>2026-05-03T09:07:24.272Z</time></trkpt><trkpt lat="43.2054439" lon="12.1455589"><ele>510.0</ele><time>2026-05-03T09:07:25.277Z</time></trkpt><trkpt lat="43.2053077" lon="12.1455609"><ele>508.5</ele><time>2026-05-03T09:07:26.274Z</time></trkpt><trkpt lat="43.2051812" lon="12.1455532"><ele>507.0</ele><time>2026-05-03T09:07:27.28Z</time></trkpt><trkpt lat="43.2050589" lon="12.1455694"><ele>507.0</ele><time>2026-05-03T09:07:28.274Z</time></trkpt><trkpt lat="43.2049318" lon="12.1455832"><ele>507.0</ele><time>2026-05-03T09:07:29.27Z</time></trkpt><trkpt lat="43.2048196" lon="12.1455995"><ele>507.0</ele><time>2026-05-03T09:07:30.284Z</time></trkpt><trkpt lat="43.2047095" lon="12.1456139"><ele>507.0</ele><time>2026-05-03T09:07:31.279Z</time></trkpt><trkpt lat="43.2046089" lon="12.1456273"><ele>507.0</ele><time>2026-05-03T09:07:32.269Z</time></trkpt><trkpt lat="43.2045082" lon="12.14562"><ele>507.00000000000006</ele><time>2026-05-03T09:07:33.289Z</time></trkpt><trkpt lat="43.20441" lon="12.1456043"><ele>507.00000000000006</ele><time>2026-05-03T09:07:34.274Z</time></trkpt><trkpt lat="43.2043143" lon="12.1455903"><ele>507.0</ele><time>2026-05-03T09:07:35.274Z</time></trkpt><trkpt lat="43.2042247" lon="12.1455946"><ele>507.0</ele><time>2026-05-03T09:07:36.286Z</time></trkpt><trkpt lat="43.2041463" lon="12.1456239"><ele>507.0</ele><time>2026-05-03T09:07:37.277Z</time></trkpt><trkpt lat="43.2040749" lon="12.1456777"><ele>507.00000000000006</ele><time>2026-05-03T09:07:38.285Z</time></trkpt><trkpt lat="43.2040145" lon="12.145748"><ele>507.00000000000006</ele><time>2026-05-03T09:07:39.285Z</time></trkpt><trkpt lat="43.2039346" lon="12.1458659"><ele>507.0</ele><time>2026-05-03T09:07:41.275Z</time></trkpt><trkpt lat="43.2038757" lon="12.1459681"><ele>507.0</ele><time>2026-05-03T09:07:43.293Z</time></trkpt><trkpt lat="43.2038309" lon="12.146059"><ele>509.42857142857144</ele><time>2026-05-03T09:07:45.282Z</time></trkpt><trkpt lat="43.2037882" lon="12.1461457"><ele>511.8571428571429</ele><time>2026-05-03T09:07:47.385Z</time></trkpt><trkpt lat="43.2037458" lon="12.146229"><ele>514.2857142857143</ele><time>2026-05-03T09:07:49.283Z</time></trkpt><trkpt lat="43.2037159" lon="12.1463145"><ele>516.7142857142858</ele><time>2026-05-03T09:07:51.276Z</time></trkpt><trkpt lat="43.2036846" lon="12.1464073"><ele>519.1428571428572</ele><time>2026-05-03T09:07:53.287Z</time></trkpt><trkpt lat="43.2036582" lon="12.1465045"><ele>521.5714285714286</ele><time>2026-05-03T09:07:55.276Z</time></trkpt><trkpt lat="43.2036414" lon="12.146607"><ele>524.0</ele><time>2026-05-03T09:07:57.282Z</time></trkpt><trkpt lat="43.2036154" lon="12.1467033"><ele>524.1666666666666</ele><time>2026-05-03T09:07:59.253Z</time></trkpt><trkpt lat="43.2035874" lon="12.1468028"><ele>524.3333333333333</ele><time>2026-05-03T09:08:01.266Z</time></trkpt><trkpt lat="43.2035416" lon="12.1468878"><ele>524.5</ele><time>2026-05-03T09:08:03.29Z</time></trkpt><trkpt lat="43.2034961" lon="12.1469738"><ele>524.6666666666666</ele><time>2026-05-03T09:08:05.378Z</time></trkpt><trkpt lat="43.2034377" lon="12.1470424"><ele>524.8333333333334</ele><time>2026-05-03T09:08:07.279Z</time></trkpt><trkpt lat="43.2033673" lon="12.1470856"><ele>525.0</ele><time>2026-05-03T09:08:09.27Z</time></trkpt><trkpt lat="43.2032891" lon="12.1471114"><ele>525.0</ele><time>2026-05-03T09:08:11.37Z</time></trkpt><trkpt lat="43.2032164" lon="12.1471401"><ele>525.0</ele><time>2026-05-03T09:08:13.272Z</time></trkpt><trkpt lat="43.2031456" lon="12.1471834"><ele>525.0</ele><time>2026-05-03T09:08:15.28Z</time></trkpt><trkpt lat="43.203076" lon="12.1472223"><ele>525.0</ele><time>2026-05-03T09:08:17.269Z</time></trkpt><trkpt lat="43.2030172" lon="12.147255"><ele>525.0</ele><time>2026-05-03T09:08:19.272Z</time></trkpt><trkpt lat="43.2029525" lon="12.147312"><ele>525.0</ele><time>2026-05-03T09:08:21.28Z</time></trkpt><trkpt lat="43.2028928" lon="12.1473811"><ele>525.0</ele><time>2026-05-03T09:08:23.277Z</time></trkpt><trkpt lat="43.2028427" lon="12.1474448"><ele>525.2857142857143</ele><time>2026-05-03T09:08:25.275Z</time></trkpt><trkpt lat="43.202795" lon="12.1475135"><ele>525.5714285714286</ele><time>2026-05-03T09:08:27.272Z</time></trkpt><trkpt lat="43.2027541" lon="12.1475865"><ele>525.8571428571429</ele><time>2026-05-03T09:08:29.273Z</time></trkpt><trkpt lat="43.2027104" lon="12.1476539"><ele>526.1428571428571</ele><time>2026-05-03T09:08:31.273Z</time></trkpt><trkpt lat="43.2026444" lon="12.1477389"><ele>526.4285714285714</ele><time>2026-05-03T09:08:34.261Z</time></trkpt><trkpt lat="43.2025947" lon="12.147801"><ele>526.7142857142858</ele><time>2026-05-03T09:08:36.26Z</time></trkpt><trkpt lat="43.2025476" lon="12.1478746"><ele>527.0</ele><time>2026-05-03T09:08:38.256Z</time></trkpt><trkpt lat="43.2024985" lon="12.1479657"><ele>527.0</ele><time>2026-05-03T09:08:41.262Z</time></trkpt><trkpt lat="43.2024397" lon="12.1480635"><ele>527.0</ele><time>2026-05-03T09:08:44.282Z</time></trkpt><trkpt lat="43.2023892" lon="12.148174"><ele>527.0</ele><time>2026-05-03T09:08:47.277Z</time></trkpt><trkpt lat="43.2023506" lon="12.1482473"><ele>527.0</ele><time>2026-05-03T09:08:49.273Z</time></trkpt><trkpt lat="43.202304" lon="12.1483135"><ele>527.0</ele><time>2026-05-03T09:08:51.275Z</time></trkpt><trkpt lat="43.2022605" lon="12.1483808"><ele>527.0</ele><time>2026-05-03T09:08:53.272Z</time></trkpt><trkpt lat="43.2022216" lon="12.1484524"><ele>527.4285714285714</ele><time>2026-05-03T09:08:55.285Z</time></trkpt><trkpt lat="43.202178" lon="12.1485208"><ele>527.8571428571429</ele><time>2026-05-03T09:08:57.276Z</time></trkpt><trkpt lat="43.2021371" lon="12.1485928"><ele>528.2857142857142</ele><time>2026-05-03T09:08:59.281Z</time></trkpt><trkpt lat="43.2020918" lon="12.1486621"><ele>528.7142857142858</ele><time>2026-05-03T09:09:01.293Z</time></trkpt><trkpt lat="43.2020429" lon="12.1487323"><ele>529.1428571428571</ele><time>2026-05-03T09:09:03.284Z</time></trkpt><trkpt lat="43.2019993" lon="12.1488034"><ele>529.5714285714286</ele><time>2026-05-03T09:09:05.264Z</time></trkpt><trkpt lat="43.2019535" lon="12.1488713"><ele>530.0</ele><time>2026-05-03T09:09:07.28Z</time></trkpt><trkpt lat="43.2019035" lon="12.1489314"><ele>529.9999999999999</ele><time>2026-05-03T09:09:09.272Z</time></trkpt><trkpt lat="43.2018581" lon="12.1489943"><ele>530.0</ele><time>2026-05-03T09:09:11.28Z</time></trkpt><trkpt lat="43.2018108" lon="12.1490516"><ele>530.0</ele><time>2026-05-03T09:09:13.277Z</time></trkpt><trkpt lat="43.2017466" lon="12.1491464"><ele>530.0</ele><time>2026-05-03T09:09:16.272Z</time></trkpt><trkpt lat="43.2017142" lon="12.1492288"><ele>530.0</ele><time>2026-05-03T09:09:18.27Z</time></trkpt><trkpt lat="43.2016874" lon="12.1493175"><ele>529.9999999999999</ele><time>2026-05-03T09:09:20.275Z</time></trkpt><trkpt lat="43.2016604" lon="12.1494093"><ele>530.0</ele><time>2026-05-03T09:09:22.267Z</time></trkpt><trkpt lat="43.201631" lon="12.1494932"><ele>531.7142857142857</ele><time>2026-05-03T09:09:24.278Z</time></trkpt><trkpt lat="43.2016093" lon="12.1495846"><ele>533.4285714285714</ele><time>2026-05-03T09:09:26.27Z</time></trkpt><trkpt lat="43.2015906" lon="12.1496736"><ele>535.1428571428571</ele><time>2026-05-03T09:09:28.264Z</time></trkpt><trkpt lat="43.2015753" lon="12.1497696"><ele>536.8571428571429</ele><time>2026-05-03T09:09:30.261Z</time></trkpt><trkpt lat="43.2015607" lon="12.1498668"><ele>538.5714285714286</ele><time>2026-05-03T09:09:32.262Z</time></trkpt><trkpt lat="43.2015453" lon="12.1499692"><ele>540.2857142857142</ele><time>2026-05-03T09:09:34.26Z</time></trkpt><trkpt lat="43.201536" lon="12.1500734"><ele>542.0</ele><time>2026-05-03T09:09:36.262Z</time></trkpt><trkpt lat="43.2015289" lon="12.1501826"><ele>542.5</ele><time>2026-05-03T09:09:38.261Z</time></trkpt><trkpt lat="43.2015158" lon="12.1502938"><ele>543.0</ele><time>2026-05-03T09:09:40.348Z</time></trkpt><trkpt lat="43.2015022" lon="12.1504035"><ele>543.5</ele><time>2026-05-03T09:09:42.271Z</time></trkpt><trkpt lat="43.2014886" lon="12.150513"><ele>544.0</ele><time>2026-05-03T09:09:44.271Z</time></trkpt><trkpt lat="43.2014737" lon="12.150621"><ele>544.5</ele><time>2026-05-03T09:09:46.28Z</time></trkpt><trkpt lat="43.201453" lon="12.150728"><ele>545.0</ele><time>2026-05-03T09:09:48.28Z</time></trkpt><trkpt lat="43.2014281" lon="12.150834"><ele>543.0</ele><time>2026-05-03T09:09:50.27Z</time></trkpt><trkpt lat="43.2013976" lon="12.1509387"><ele>541.0</ele><time>2026-05-03T09:09:52.266Z</time></trkpt><trkpt lat="43.2013652" lon="12.1510414"><ele>539.0</ele><time>2026-05-03T09:09:54.271Z</time></trkpt><trkpt lat="43.2013365" lon="12.1511352"><ele>537.0</ele><time>2026-05-03T09:09:56.283Z</time></trkpt><trkpt lat="43.2013096" lon="12.151226"><ele>535.0</ele><time>2026-05-03T09:09:58.276Z</time></trkpt><trkpt lat="43.2012855" lon="12.1513145"><ele>533.0</ele><time>2026-05-03T09:10:00.273Z</time></trkpt><trkpt lat="43.2012424" lon="12.15142"><ele>533.0</ele><time>2026-05-03T09:10:03.281Z</time></trkpt><trkpt lat="43.2011997" lon="12.1515201"><ele>533.0</ele><time>2026-05-03T09:10:06.279Z</time></trkpt><trkpt lat="43.2011493" lon="12.1516194"><ele>533.0</ele><time>2026-05-03T09:10:09.274Z</time></trkpt><trkpt lat="43.2010989" lon="12.1517275"><ele>533.0</ele><time>2026-05-03T09:10:12.278Z</time></trkpt><trkpt lat="43.2010471" lon="12.15183"><ele>533.0</ele><time>2026-05-03T09:10:15.272Z</time></trkpt><trkpt lat="43.201002" lon="12.1519279"><ele>533.0</ele><time>2026-05-03T09:10:18.274Z</time></trkpt><trkpt lat="43.2009522" lon="12.1520272"><ele>535.5</ele><time>2026-05-03T09:10:21.288Z</time></trkpt><trkpt lat="43.2009083" lon="12.1521318"><ele>538.0</ele><time>2026-05-03T09:10:24.281Z</time></trkpt><trkpt lat="43.2008644" lon="12.152242"><ele>540.5</ele><time>2026-05-03T09:10:27.28Z</time></trkpt><trkpt lat="43.2008388" lon="12.1523561"><ele>543.0</ele><time>2026-05-03T09:10:30.273Z</time></trkpt><trkpt lat="43.200828" lon="12.1524712"><ele>545.5</ele><time>2026-05-03T09:10:33.272Z</time></trkpt><trkpt lat="43.2008334" lon="12.1525585"><ele>548.0</ele><time>2026-05-03T09:10:35.274Z</time></trkpt><trkpt lat="43.2008483" lon="12.1526516"><ele>549.8571428571429</ele><time>2026-05-03T09:10:37.271Z</time></trkpt><trkpt lat="43.2008715" lon="12.1527387"><ele>551.7142857142858</ele><time>2026-05-03T09:10:39.278Z</time></trkpt><trkpt lat="43.200901" lon="12.1528248"><ele>553.5714285714286</ele><time>2026-05-03T09:10:41.275Z</time></trkpt><trkpt lat="43.2009284" lon="12.1529062"><ele>555.4285714285714</ele><time>2026-05-03T09:10:43.271Z</time></trkpt><trkpt lat="43.2009542" lon="12.152989"><ele>557.2857142857142</ele><time>2026-05-03T09:10:45.275Z</time></trkpt><trkpt lat="43.2009763" lon="12.153071"><ele>559.1428571428571</ele><time>2026-05-03T09:10:47.287Z</time></trkpt><trkpt lat="43.2009997" lon="12.1531549"><ele>561.0</ele><time>2026-05-03T09:10:49.274Z</time></trkpt><trkpt lat="43.2010205" lon="12.1532405"><ele>562.0</ele><time>2026-05-03T09:10:51.271Z</time></trkpt><trkpt lat="43.2010319" lon="12.1533261"><ele>563.0</ele><time>2026-05-03T09:10:53.275Z</time></trkpt><trkpt lat="43.2010469" lon="12.1534536"><ele>564.0</ele><time>2026-05-03T09:10:56.266Z</time></trkpt><trkpt lat="43.2010574" lon="12.1535499"><ele>565.0</ele><time>2026-05-03T09:10:58.276Z</time></trkpt><trkpt lat="43.2010602" lon="12.1536771"><ele>566.0</ele><time>2026-05-03T09:11:01.262Z</time></trkpt><trkpt lat="43.2010615" lon="12.1538046"><ele>567.0</ele><time>2026-05-03T09:11:04.269Z</time></trkpt><trkpt lat="43.2010634" lon="12.1539045"><ele>567.0</ele><time>2026-05-03T09:11:07.278Z</time></trkpt><trkpt lat="43.2010682" lon="12.154014"><ele>567.0</ele><time>2026-05-03T09:11:11.264Z</time></trkpt><trkpt lat="43.2010635" lon="12.1541088"><ele>567.0</ele><time>2026-05-03T09:11:14.271Z</time></trkpt><trkpt lat="43.2010759" lon="12.1542187"><ele>567.0</ele><time>2026-05-03T09:11:17.384Z</time></trkpt><trkpt lat="43.2010977" lon="12.154333"><ele>567.0</ele><time>2026-05-03T09:11:20.288Z</time></trkpt><trkpt lat="43.2011202" lon="12.1544418"><ele>567.0</ele><time>2026-05-03T09:11:23.274Z</time></trkpt><trkpt lat="43.2011447" lon="12.1545522"><ele>567.0</ele><time>2026-05-03T09:11:26.259Z</time></trkpt><trkpt lat="43.20119" lon="12.1546618"><ele>567.0</ele><time>2026-05-03T09:11:29.377Z</time></trkpt><trkpt lat="43.2012331" lon="12.1547269"><ele>567.0</ele><time>2026-05-03T09:11:31.27Z</time></trkpt><trkpt lat="43.2012832" lon="12.1547837"><ele>567.0</ele><time>2026-05-03T09:11:33.283Z</time></trkpt><trkpt lat="43.2013406" lon="12.1548441"><ele>567.0</ele><time>2026-05-03T09:11:35.393Z</time></trkpt><trkpt lat="43.2014041" lon="12.1549117"><ele>567.0</ele><time>2026-05-03T09:11:37.272Z</time></trkpt><trkpt lat="43.2014806" lon="12.15499"><ele>566.0</ele><time>2026-05-03T09:11:39.288Z</time></trkpt><trkpt lat="43.2015503" lon="12.1550845"><ele>565.0</ele><time>2026-05-03T09:11:41.271Z</time></trkpt><trkpt lat="43.2016201" lon="12.1552102"><ele>564.0</ele><time>2026-05-03T09:11:43.288Z</time></trkpt><trkpt lat="43.2016792" lon="12.155348"><ele>563.0</ele><time>2026-05-03T09:11:45.281Z</time></trkpt><trkpt lat="43.2017465" lon="12.1554858"><ele>563.0</ele><time>2026-05-03T09:11:47.276Z</time></trkpt><trkpt lat="43.2017904" lon="12.1556077"><ele>563.0</ele><time>2026-05-03T09:11:49.279Z</time></trkpt><trkpt lat="43.2018352" lon="12.1557318"><ele>563.0</ele><time>2026-05-03T09:11:51.273Z</time></trkpt><trkpt lat="43.2018851" lon="12.1558384"><ele>563.0</ele><time>2026-05-03T09:11:53.381Z</time></trkpt><trkpt lat="43.2019497" lon="12.15594"><ele>563.0</ele><time>2026-05-03T09:11:55.29Z</time></trkpt><trkpt lat="43.2020493" lon="12.1560286"><ele>563.0</ele><time>2026-05-03T09:11:57.289Z</time></trkpt><trkpt lat="43.20211" lon="12.1560702"><ele>563.0</ele><time>2026-05-03T09:11:58.289Z</time></trkpt><trkpt lat="43.2022154" lon="12.1561356"><ele>563.0</ele><time>2026-05-03T09:12:00.288Z</time></trkpt><trkpt lat="43.2023076" lon="12.156203"><ele>563.0</ele><time>2026-05-03T09:12:02.281Z</time></trkpt><trkpt lat="43.2024077" lon="12.1562841"><ele>563.0</ele><time>2026-05-03T09:12:04.285Z</time></trkpt><trkpt lat="43.2025596" lon="12.1563872"><ele>562.0</ele><time>2026-05-03T09:12:07.277Z</time></trkpt><trkpt lat="43.2026379" lon="12.1564861"><ele>561.0</ele><time>2026-05-03T09:12:09.29Z</time></trkpt><trkpt lat="43.2026731" lon="12.156615"><ele>560.0</ele><time>2026-05-03T09:12:11.274Z</time></trkpt><trkpt lat="43.2026323" lon="12.1567627"><ele>559.0</ele><time>2026-05-03T09:12:13.289Z</time></trkpt><trkpt lat="43.202587" lon="12.1568493"><ele>558.0</ele><time>2026-05-03T09:12:14.286Z</time></trkpt><trkpt lat="43.2025153" lon="12.1568978"><ele>556.6</ele><time>2026-05-03T09:12:15.274Z</time></trkpt><trkpt lat="43.2024436" lon="12.1569341"><ele>555.1999999999999</ele><time>2026-05-03T09:12:16.277Z</time></trkpt><trkpt lat="43.2023777" lon="12.1569811"><ele>553.8</ele><time>2026-05-03T09:12:17.273Z</time></trkpt><trkpt lat="43.2022853" lon="12.1570976"><ele>552.4</ele><time>2026-05-03T09:12:19.281Z</time></trkpt><trkpt lat="43.2022625" lon="12.1572536"><ele>551.0</ele><time>2026-05-03T09:12:21.285Z</time></trkpt><trkpt lat="43.2022868" lon="12.1573351"><ele>549.3333333333333</ele><time>2026-05-03T09:12:22.268Z</time></trkpt><trkpt lat="43.2023154" lon="12.157427"><ele>547.6666666666666</ele><time>2026-05-03T09:12:23.274Z</time></trkpt><trkpt lat="43.2023476" lon="12.1575217"><ele>546.0</ele><time>2026-05-03T09:12:24.276Z</time></trkpt><trkpt lat="43.2023785" lon="12.15762"><ele>544.3333333333334</ele><time>2026-05-03T09:12:25.276Z</time></trkpt><trkpt lat="43.2024147" lon="12.1577219"><ele>542.6666666666667</ele><time>2026-05-03T09:12:26.273Z</time></trkpt><trkpt lat="43.2024487" lon="12.1578215"><ele>541.0</ele><time>2026-05-03T09:12:27.281Z</time></trkpt><trkpt lat="43.2024786" lon="12.157911"><ele>541.0</ele><time>2026-05-03T09:12:28.289Z</time></trkpt><trkpt lat="43.2025157" lon="12.1580219"><ele>541.0</ele><time>2026-05-03T09:12:29.367Z</time></trkpt><trkpt lat="43.2025494" lon="12.1581188"><ele>541.0</ele><time>2026-05-03T09:12:30.277Z</time></trkpt><trkpt lat="43.2025927" lon="12.1581998"><ele>541.0</ele><time>2026-05-03T09:12:31.281Z</time></trkpt><trkpt lat="43.2026302" lon="12.1582948"><ele>541.0</ele><time>2026-05-03T09:12:32.274Z</time></trkpt><trkpt lat="43.2026704" lon="12.1584047"><ele>541.0</ele><time>2026-05-03T09:12:33.27Z</time></trkpt><trkpt lat="43.2027085" lon="12.1584991"><ele>540.1666666666667</ele><time>2026-05-03T09:12:34.274Z</time></trkpt><trkpt lat="43.2027445" lon="12.1586014"><ele>539.3333333333334</ele><time>2026-05-03T09:12:35.272Z</time></trkpt><trkpt lat="43.2027794" lon="12.1587076"><ele>538.5</ele><time>2026-05-03T09:12:36.28Z</time></trkpt><trkpt lat="43.2027926" lon="12.1588153"><ele>537.6666666666666</ele><time>2026-05-03T09:12:37.276Z</time></trkpt><trkpt lat="43.202819" lon="12.1589413"><ele>536.8333333333333</ele><time>2026-05-03T09:12:38.274Z</time></trkpt><trkpt lat="43.2028183" lon="12.159063"><ele>536.0</ele><time>2026-05-03T09:12:39.282Z</time></trkpt><trkpt lat="43.2028022" lon="12.1591855"><ele>534.8333333333333</ele><time>2026-05-03T09:12:40.276Z</time></trkpt><trkpt lat="43.2027854" lon="12.1593047"><ele>533.6666666666666</ele><time>2026-05-03T09:12:41.272Z</time></trkpt><trkpt lat="43.2027711" lon="12.159424"><ele>532.5</ele><time>2026-05-03T09:12:42.284Z</time></trkpt><trkpt lat="43.202738" lon="12.1595426"><ele>531.3333333333334</ele><time>2026-05-03T09:12:43.275Z</time></trkpt><trkpt lat="43.2027132" lon="12.1596549"><ele>530.1666666666667</ele><time>2026-05-03T09:12:44.289Z</time></trkpt><trkpt lat="43.2026869" lon="12.1597636"><ele>529.0</ele><time>2026-05-03T09:12:45.274Z</time></trkpt><trkpt lat="43.2026599" lon="12.1598668"><ele>528.8333333333334</ele><time>2026-05-03T09:12:46.277Z</time></trkpt><trkpt lat="43.2026315" lon="12.1599658"><ele>528.6666666666667</ele><time>2026-05-03T09:12:47.271Z</time></trkpt><trkpt lat="43.2026041" lon="12.1600655"><ele>528.5</ele><time>2026-05-03T09:12:48.279Z</time></trkpt><trkpt lat="43.2025644" lon="12.1601575"><ele>528.3333333333334</ele><time>2026-05-03T09:12:49.266Z</time></trkpt><trkpt lat="43.2025198" lon="12.1602492"><ele>528.1666666666666</ele><time>2026-05-03T09:12:50.283Z</time></trkpt><trkpt lat="43.2024716" lon="12.1603307"><ele>528.0</ele><time>2026-05-03T09:12:51.281Z</time></trkpt><trkpt lat="43.2024276" lon="12.1604085"><ele>528.0</ele><time>2026-05-03T09:12:52.28Z</time></trkpt><trkpt lat="43.2023894" lon="12.1604805"><ele>528.0</ele><time>2026-05-03T09:12:53.273Z</time></trkpt><trkpt lat="43.202341" lon="12.1605487"><ele>528.0</ele><time>2026-05-03T09:12:54.285Z</time></trkpt><trkpt lat="43.2022764" lon="12.1606536"><ele>528.0</ele><time>2026-05-03T09:12:56.272Z</time></trkpt><trkpt lat="43.2022152" lon="12.1607446"><ele>528.0</ele><time>2026-05-03T09:12:58.278Z</time></trkpt><trkpt lat="43.2021448" lon="12.1608531"><ele>528.0</ele><time>2026-05-03T09:13:00.271Z</time></trkpt><trkpt lat="43.2020736" lon="12.1609373"><ele>528.5</ele><time>2026-05-03T09:13:02.273Z</time></trkpt><trkpt lat="43.2020145" lon="12.1610193"><ele>529.0</ele><time>2026-05-03T09:13:04.276Z</time></trkpt><trkpt lat="43.2019155" lon="12.1611167"><ele>529.5</ele><time>2026-05-03T09:13:07.277Z</time></trkpt><trkpt lat="43.2018469" lon="12.1611694"><ele>530.0</ele><time>2026-05-03T09:13:09.279Z</time></trkpt><trkpt lat="43.2017829" lon="12.1612191"><ele>530.5</ele><time>2026-05-03T09:13:11.285Z</time></trkpt><trkpt lat="43.2017205" lon="12.1612695"><ele>531.0</ele><time>2026-05-03T09:13:13.252Z</time></trkpt><trkpt lat="43.2016675" lon="12.1613363"><ele>531.0</ele><time>2026-05-03T09:13:15.275Z</time></trkpt><trkpt lat="43.2016071" lon="12.1613963"><ele>531.0</ele><time>2026-05-03T09:13:17.28Z</time></trkpt><trkpt lat="43.2015437" lon="12.1614513"><ele>531.0</ele><time>2026-05-03T09:13:19.275Z</time></trkpt><trkpt lat="43.2014827" lon="12.1615157"><ele>531.0</ele><time>2026-05-03T09:13:21.272Z</time></trkpt><trkpt lat="43.2014282" lon="12.1615786"><ele>531.0</ele><time>2026-05-03T09:13:23.282Z</time></trkpt><trkpt lat="43.2013751" lon="12.1616521"><ele>531.0</ele><time>2026-05-03T09:13:25.285Z</time></trkpt><trkpt lat="43.2013221" lon="12.1617255"><ele>531.0</ele><time>2026-05-03T09:13:27.287Z</time></trkpt><trkpt lat="43.2012726" lon="12.1617981"><ele>531.1428571428571</ele><time>2026-05-03T09:13:29.282Z</time></trkpt><trkpt lat="43.2012218" lon="12.1618631"><ele>531.2857142857143</ele><time>2026-05-03T09:13:31.278Z</time></trkpt><trkpt lat="43.2011678" lon="12.1619302"><ele>531.4285714285714</ele><time>2026-05-03T09:13:33.277Z</time></trkpt><trkpt lat="43.2011142" lon="12.1619986"><ele>531.5714285714286</ele><time>2026-05-03T09:13:35.288Z</time></trkpt><trkpt lat="43.2010663" lon="12.1620787"><ele>531.7142857142858</ele><time>2026-05-03T09:13:37.288Z</time></trkpt><trkpt lat="43.2010155" lon="12.1621599"><ele>531.8571428571429</ele><time>2026-05-03T09:13:39.377Z</time></trkpt><trkpt lat="43.2009603" lon="12.1622347"><ele>532.0</ele><time>2026-05-03T09:13:41.28Z</time></trkpt><trkpt lat="43.2009069" lon="12.1623056"><ele>532.0</ele><time>2026-05-03T09:13:43.283Z</time></trkpt><trkpt lat="43.2008536" lon="12.1623774"><ele>532.0</ele><time>2026-05-03T09:13:45.271Z</time></trkpt><trkpt lat="43.2008041" lon="12.1624471"><ele>532.0</ele><time>2026-05-03T09:13:47.276Z</time></trkpt><trkpt lat="43.2007518" lon="12.1625158"><ele>532.0</ele><time>2026-05-03T09:13:49.284Z</time></trkpt><trkpt lat="43.2006981" lon="12.1625798"><ele>532.0</ele><time>2026-05-03T09:13:51.276Z</time></trkpt><trkpt lat="43.2006453" lon="12.1626453"><ele>532.0</ele><time>2026-05-03T09:13:53.276Z</time></trkpt><trkpt lat="43.2005905" lon="12.1627097"><ele>532.0</ele><time>2026-05-03T09:13:55.275Z</time></trkpt><trkpt lat="43.2005339" lon="12.1627749"><ele>532.0</ele><time>2026-05-03T09:13:57.271Z</time></trkpt><trkpt lat="43.2004756" lon="12.1628392"><ele>532.0</ele><time>2026-05-03T09:13:59.282Z</time></trkpt><trkpt lat="43.2004201" lon="12.1629088"><ele>532.0</ele><time>2026-05-03T09:14:01.272Z</time></trkpt><trkpt lat="43.2003696" lon="12.1629768"><ele>532.0</ele><time>2026-05-03T09:14:03.278Z</time></trkpt><trkpt lat="43.2003262" lon="12.1630614"><ele>532.0</ele><time>2026-05-03T09:14:05.276Z</time></trkpt><trkpt lat="43.2002925" lon="12.1631527"><ele>532.0</ele><time>2026-05-03T09:14:07.263Z</time></trkpt><trkpt lat="43.2002772" lon="12.1632572"><ele>532.0</ele><time>2026-05-03T09:14:09.27Z</time></trkpt><trkpt lat="43.2002677" lon="12.1633618"><ele>533.8571428571429</ele><time>2026-05-03T09:14:11.281Z</time></trkpt><trkpt lat="43.2002653" lon="12.1634593"><ele>535.7142857142858</ele><time>2026-05-03T09:14:13.265Z</time></trkpt><trkpt lat="43.2002632" lon="12.1635606"><ele>537.5714285714286</ele><time>2026-05-03T09:14:15.258Z</time></trkpt><trkpt lat="43.20026" lon="12.1636662"><ele>539.4285714285714</ele><time>2026-05-03T09:14:17.263Z</time></trkpt><trkpt lat="43.2002629" lon="12.1637636"><ele>541.2857142857143</ele><time>2026-05-03T09:14:19.262Z</time></trkpt><trkpt lat="43.2002733" lon="12.1638537"><ele>543.1428571428571</ele><time>2026-05-03T09:14:21.261Z</time></trkpt><trkpt lat="43.2002778" lon="12.1639457"><ele>545.0</ele><time>2026-05-03T09:14:24.262Z</time></trkpt><trkpt lat="43.2002938" lon="12.1640478"><ele>545.3333333333333</ele><time>2026-05-03T09:14:30.272Z</time></trkpt><trkpt lat="43.2003106" lon="12.1641717"><ele>545.6666666666666</ele><time>2026-05-03T09:14:34.282Z</time></trkpt><trkpt lat="43.2003353" lon="12.1642847"><ele>546.0</ele><time>2026-05-03T09:14:37.281Z</time></trkpt><trkpt lat="43.2003613" lon="12.1644082"><ele>546.3333333333334</ele><time>2026-05-03T09:14:40.27Z</time></trkpt><trkpt lat="43.2003872" lon="12.1644969"><ele>546.6666666666667</ele><time>2026-05-03T09:14:42.277Z</time></trkpt><trkpt lat="43.2004156" lon="12.1645821"><ele>547.0</ele><time>2026-05-03T09:14:44.274Z</time></trkpt><trkpt lat="43.2004408" lon="12.1646743"><ele>547.0</ele><time>2026-05-03T09:14:46.271Z</time></trkpt><trkpt lat="43.2004636" lon="12.1647711"><ele>547.0</ele><time>2026-05-03T09:14:48.271Z</time></trkpt><trkpt lat="43.2004807" lon="12.1648687"><ele>547.0</ele><time>2026-05-03T09:14:50.273Z</time></trkpt><trkpt lat="43.200499" lon="12.1649694"><ele>547.0</ele><time>2026-05-03T09:14:52.282Z</time></trkpt><trkpt lat="43.2005113" lon="12.1650682"><ele>547.0</ele><time>2026-05-03T09:14:54.278Z</time></trkpt><trkpt lat="43.2005116" lon="12.1651684"><ele>547.0</ele><time>2026-05-03T09:14:56.271Z</time></trkpt><trkpt lat="43.2004985" lon="12.1652712"><ele>547.0</ele><time>2026-05-03T09:14:58.283Z</time></trkpt><trkpt lat="43.2004749" lon="12.1653646"><ele>547.8571428571429</ele><time>2026-05-03T09:15:00.28Z</time></trkpt><trkpt lat="43.2004489" lon="12.1654593"><ele>548.7142857142857</ele><time>2026-05-03T09:15:02.274Z</time></trkpt><trkpt lat="43.2004188" lon="12.165549"><ele>549.5714285714286</ele><time>2026-05-03T09:15:04.285Z</time></trkpt><trkpt lat="43.2003841" lon="12.165633"><ele>550.4285714285714</ele><time>2026-05-03T09:15:06.272Z</time></trkpt><trkpt lat="43.2003532" lon="12.1657203"><ele>551.2857142857142</ele><time>2026-05-03T09:15:08.284Z</time></trkpt><trkpt lat="43.2003189" lon="12.1658089"><ele>552.1428571428571</ele><time>2026-05-03T09:15:10.282Z</time></trkpt><trkpt lat="43.2002901" lon="12.1659038"><ele>553.0</ele><time>2026-05-03T09:15:12.273Z</time></trkpt><trkpt lat="43.2002655" lon="12.1659986"><ele>554.1666666666667</ele><time>2026-05-03T09:15:14.272Z</time></trkpt><trkpt lat="43.2002449" lon="12.1660931"><ele>555.3333333333334</ele><time>2026-05-03T09:15:16.272Z</time></trkpt><trkpt lat="43.2002313" lon="12.1661855"><ele>556.5</ele><time>2026-05-03T09:15:18.273Z</time></trkpt><trkpt lat="43.2002298" lon="12.1663133"><ele>557.6666666666666</ele><time>2026-05-03T09:15:21.272Z</time></trkpt><trkpt lat="43.2002235" lon="12.1664253"><ele>558.8333333333333</ele><time>2026-05-03T09:15:24.276Z</time></trkpt><trkpt lat="43.2001998" lon="12.1665128"><ele>560.0</ele><time>2026-05-03T09:15:28.278Z</time></trkpt><trkpt lat="43.2001807" lon="12.1666222"><ele>560.0</ele><time>2026-05-03T09:15:33.27Z</time></trkpt><trkpt lat="43.2001063" lon="12.1666367"><ele>560.0</ele><time>2026-05-03T09:15:37.271Z</time></trkpt><trkpt lat="43.2001765" lon="12.1666293"><ele>560.0</ele><time>2026-05-03T09:15:46.272Z</time></trkpt><trkpt lat="43.2002036" lon="12.1665268"><ele>560.0</ele><time>2026-05-03T09:15:49.276Z</time></trkpt><trkpt lat="43.2001916" lon="12.1664238"><ele>560.0</ele><time>2026-05-03T09:15:53.279Z</time></trkpt><trkpt lat="43.2001709" lon="12.1663311"><ele>560.0</ele><time>2026-05-03T09:15:59.259Z</time></trkpt><trkpt lat="43.2001354" lon="12.1662318"><ele>560.0</ele><time>2026-05-03T09:16:03.262Z</time></trkpt><trkpt lat="43.2001108" lon="12.1661314"><ele>560.0</ele><time>2026-05-03T09:16:06.262Z</time></trkpt><trkpt lat="43.2000666" lon="12.1660212"><ele>560.0</ele><time>2026-05-03T09:16:09.261Z</time></trkpt><trkpt lat="43.2000065" lon="12.1659528"><ele>560.0</ele><time>2026-05-03T09:16:11.25Z</time></trkpt><trkpt lat="43.1999844" lon="12.1658651"><ele>560.0</ele><time>2026-05-03T09:16:13.261Z</time></trkpt><trkpt lat="43.1999686" lon="12.1657614"><ele>560.0</ele><time>2026-05-03T09:16:16.263Z</time></trkpt><trkpt lat="43.1999569" lon="12.1656279"><ele>558.8333333333333</ele><time>2026-05-03T09:16:19.262Z</time></trkpt><trkpt lat="43.1999626" lon="12.1655417"><ele>557.6666666666666</ele><time>2026-05-03T09:16:21.26Z</time></trkpt><trkpt lat="43.2000102" lon="12.1654805"><ele>556.5</ele><time>2026-05-03T09:16:23.366Z</time></trkpt><trkpt lat="43.2000623" lon="12.1654099"><ele>555.3333333333334</ele><time>2026-05-03T09:16:25.256Z</time></trkpt><trkpt lat="43.200022" lon="12.1653038"><ele>554.1666666666667</ele><time>2026-05-03T09:16:28.261Z</time></trkpt><trkpt lat="43.1999639" lon="12.1652431"><ele>553.0</ele><time>2026-05-03T09:16:30.267Z</time></trkpt><trkpt lat="43.1999598" lon="12.1650896"><ele>553.0</ele><time>2026-05-03T09:16:33.255Z</time></trkpt><trkpt lat="43.1999255" lon="12.1650168"><ele>553.0</ele><time>2026-05-03T09:16:35.263Z</time></trkpt><trkpt lat="43.1999494" lon="12.1649055"><ele>553.0</ele><time>2026-05-03T09:16:38.259Z</time></trkpt><trkpt lat="43.1999343" lon="12.1647867"><ele>553.0</ele><time>2026-05-03T09:16:41.26Z</time></trkpt><trkpt lat="43.1999147" lon="12.1646868"><ele>553.0</ele><time>2026-05-03T09:16:44.264Z</time></trkpt><trkpt lat="43.1998569" lon="12.1646487"><ele>553.0</ele><time>2026-05-03T09:16:46.265Z</time></trkpt><trkpt lat="43.1997831" lon="12.1646816"><ele>551.3333333333334</ele><time>2026-05-03T09:16:48.262Z</time></trkpt><trkpt lat="43.1996891" lon="12.1647007"><ele>549.6666666666667</ele><time>2026-05-03T09:16:50.26Z</time></trkpt><trkpt lat="43.1995999" lon="12.1647245"><ele>548.0</ele><time>2026-05-03T09:16:52.264Z</time></trkpt><trkpt lat="43.199527" lon="12.1647688"><ele>546.3333333333334</ele><time>2026-05-03T09:16:54.257Z</time></trkpt><trkpt lat="43.1994554" lon="12.1647999"><ele>544.6666666666666</ele><time>2026-05-03T09:16:56.289Z</time></trkpt><trkpt lat="43.1993594" lon="12.1648415"><ele>543.0</ele><time>2026-05-03T09:16:58.255Z</time></trkpt><trkpt lat="43.1992801" lon="12.1648774"><ele>543.0</ele><time>2026-05-03T09:17:00.258Z</time></trkpt><trkpt lat="43.1991964" lon="12.1648987"><ele>543.0</ele><time>2026-05-03T09:17:03.276Z</time></trkpt><trkpt lat="43.1991321" lon="12.1649378"><ele>543.0</ele><time>2026-05-03T09:17:05.269Z</time></trkpt><trkpt lat="43.1990566" lon="12.1649615"><ele>543.0</ele><time>2026-05-03T09:17:08.283Z</time></trkpt><trkpt lat="43.198993" lon="12.1649579"><ele>543.0</ele><time>2026-05-03T09:17:10.276Z</time></trkpt><trkpt lat="43.1989223" lon="12.1649526"><ele>543.0</ele><time>2026-05-03T09:17:12.258Z</time></trkpt><trkpt lat="43.1988548" lon="12.1649541"><ele>543.0</ele><time>2026-05-03T09:17:14.274Z</time></trkpt><trkpt lat="43.1987569" lon="12.1649888"><ele>540.1666666666666</ele><time>2026-05-03T09:17:16.286Z</time></trkpt><trkpt lat="43.1986699" lon="12.1650289"><ele>537.3333333333334</ele><time>2026-05-03T09:17:18.284Z</time></trkpt><trkpt lat="43.1985958" lon="12.1650663"><ele>534.5</ele><time>2026-05-03T09:17:20.283Z</time></trkpt><trkpt lat="43.1985268" lon="12.1651109"><ele>531.6666666666667</ele><time>2026-05-03T09:17:22.28Z</time></trkpt><trkpt lat="43.1984532" lon="12.1651654"><ele>528.8333333333334</ele><time>2026-05-03T09:17:24.275Z</time></trkpt><trkpt lat="43.1983674" lon="12.1652314"><ele>526.0</ele><time>2026-05-03T09:17:26.272Z</time></trkpt><trkpt lat="43.1983028" lon="12.1652935"><ele>526.0</ele><time>2026-05-03T09:17:28.279Z</time></trkpt><trkpt lat="43.1982508" lon="12.1653912"><ele>526.0</ele><time>2026-05-03T09:17:30.271Z</time></trkpt><trkpt lat="43.1982458" lon="12.1655363"><ele>526.0</ele><time>2026-05-03T09:17:33.261Z</time></trkpt><trkpt lat="43.1982196" lon="12.165635"><ele>526.0</ele><time>2026-05-03T09:17:35.279Z</time></trkpt><trkpt lat="43.198126" lon="12.1656692"><ele>526.0</ele><time>2026-05-03T09:17:38.266Z</time></trkpt><trkpt lat="43.1980617" lon="12.1656774"><ele>526.0</ele><time>2026-05-03T09:17:40.298Z</time></trkpt><trkpt lat="43.197971" lon="12.1656644"><ele>521.6666666666667</ele><time>2026-05-03T09:17:42.273Z</time></trkpt><trkpt lat="43.1979081" lon="12.1656558"><ele>517.3333333333334</ele><time>2026-05-03T09:17:45.26Z</time></trkpt><trkpt lat="43.1978289" lon="12.1656283"><ele>513.0</ele><time>2026-05-03T09:17:49.273Z</time></trkpt><trkpt lat="43.1977232" lon="12.1656084"><ele>508.66666666666663</ele><time>2026-05-03T09:17:51.274Z</time></trkpt><trkpt lat="43.1976381" lon="12.1656228"><ele>504.3333333333333</ele><time>2026-05-03T09:17:53.27Z</time></trkpt><trkpt lat="43.1975544" lon="12.1656415"><ele>500.0</ele><time>2026-05-03T09:17:55.295Z</time></trkpt><trkpt lat="43.197493" lon="12.1656697"><ele>499.99999999999994</ele><time>2026-05-03T09:17:57.275Z</time></trkpt><trkpt lat="43.1973946" lon="12.1656843"><ele>500.0</ele><time>2026-05-03T09:17:59.367Z</time></trkpt><trkpt lat="43.1973287" lon="12.1656748"><ele>500.0</ele><time>2026-05-03T09:18:00.283Z</time></trkpt><trkpt lat="43.1972349" lon="12.1656869"><ele>500.0</ele><time>2026-05-03T09:18:02.283Z</time></trkpt><trkpt lat="43.1971436" lon="12.1657052"><ele>499.99999999999994</ele><time>2026-05-03T09:18:04.27Z</time></trkpt><trkpt lat="43.1970526" lon="12.1657355"><ele>500.0</ele><time>2026-05-03T09:18:06.269Z</time></trkpt><trkpt lat="43.1969811" lon="12.1657636"><ele>500.49999999999994</ele><time>2026-05-03T09:18:09.271Z</time></trkpt><trkpt lat="43.196922" lon="12.1658211"><ele>501.0</ele><time>2026-05-03T09:18:15.271Z</time></trkpt><trkpt lat="43.1968616" lon="12.1658547"><ele>501.5</ele><time>2026-05-03T09:18:17.373Z</time></trkpt><trkpt lat="43.196779" lon="12.1659244"><ele>502.0</ele><time>2026-05-03T09:18:20.268Z</time></trkpt><trkpt lat="43.1967184" lon="12.1659754"><ele>502.49999999999994</ele><time>2026-05-03T09:18:22.275Z</time></trkpt><trkpt lat="43.196641" lon="12.1660056"><ele>503.0</ele><time>2026-05-03T09:18:25.278Z</time></trkpt><trkpt lat="43.1965637" lon="12.1660847"><ele>502.99999999999994</ele><time>2026-05-03T09:18:28.275Z</time></trkpt><trkpt lat="43.1965252" lon="12.1661567"><ele>503.0</ele><time>2026-05-03T09:18:29.275Z</time></trkpt><trkpt lat="43.1964673" lon="12.1662468"><ele>503.0</ele><time>2026-05-03T09:18:31.273Z</time></trkpt><trkpt lat="43.1964732" lon="12.1663497"><ele>503.0</ele><time>2026-05-03T09:18:33.285Z</time></trkpt><trkpt lat="43.1964806" lon="12.1664547"><ele>502.99999999999994</ele><time>2026-05-03T09:18:35.27Z</time></trkpt><trkpt lat="43.1965084" lon="12.166561"><ele>503.0</ele><time>2026-05-03T09:18:37.276Z</time></trkpt><trkpt lat="43.1965361" lon="12.1666425"><ele>503.49999999999994</ele><time>2026-05-03T09:18:39.273Z</time></trkpt><trkpt lat="43.1965704" lon="12.1667301"><ele>504.0</ele><time>2026-05-03T09:18:41.277Z</time></trkpt><trkpt lat="43.1966179" lon="12.1668377"><ele>504.5</ele><time>2026-05-03T09:18:43.284Z</time></trkpt><trkpt lat="43.1966842" lon="12.1669099"><ele>505.0</ele><time>2026-05-03T09:18:45.276Z</time></trkpt><trkpt lat="43.1967428" lon="12.1669572"><ele>505.49999999999994</ele><time>2026-05-03T09:18:47.275Z</time></trkpt><trkpt lat="43.1968047" lon="12.1669999"><ele>506.0</ele><time>2026-05-03T09:18:49.276Z</time></trkpt><trkpt lat="43.1967869" lon="12.1670939"><ele>506.00000000000006</ele><time>2026-05-03T09:18:52.271Z</time></trkpt><trkpt lat="43.1967243" lon="12.1670692"><ele>506.0</ele><time>2026-05-03T09:18:54.275Z</time></trkpt><trkpt lat="43.1966777" lon="12.1670109"><ele>506.00000000000006</ele><time>2026-05-03T09:18:57.272Z</time></trkpt><trkpt lat="43.1966065" lon="12.1669807"><ele>506.00000000000006</ele><time>2026-05-03T09:18:59.251Z</time></trkpt><trkpt lat="43.1965435" lon="12.1669425"><ele>506.0</ele><time>2026-05-03T09:19:01.285Z</time></trkpt><trkpt lat="43.1964596" lon="12.1669102"><ele>506.00000000000006</ele><time>2026-05-03T09:19:04.271Z</time></trkpt><trkpt lat="43.1964082" lon="12.1668572"><ele>506.00000000000006</ele><time>2026-05-03T09:19:06.253Z</time></trkpt><trkpt lat="43.1963774" lon="12.1667773"><ele>500.3333333333333</ele><time>2026-05-03T09:19:12.272Z</time></trkpt><trkpt lat="43.1963003" lon="12.1667024"><ele>494.66666666666663</ele><time>2026-05-03T09:19:17.26Z</time></trkpt><trkpt lat="43.1962395" lon="12.1666703"><ele>489.0</ele><time>2026-05-03T09:19:19.27Z</time></trkpt><trkpt lat="43.1961712" lon="12.1666006"><ele>483.33333333333337</ele><time>2026-05-03T09:19:21.271Z</time></trkpt><trkpt lat="43.1960982" lon="12.1665238"><ele>477.6666666666667</ele><time>2026-05-03T09:19:23.279Z</time></trkpt><trkpt lat="43.1960519" lon="12.1664226"><ele>472.0</ele><time>2026-05-03T09:19:25.275Z</time></trkpt><trkpt lat="43.1960101" lon="12.1663333"><ele>472.00000000000006</ele><time>2026-05-03T09:19:27.279Z</time></trkpt><trkpt lat="43.1959835" lon="12.1662539"><ele>472.0</ele><time>2026-05-03T09:19:29.273Z</time></trkpt><trkpt lat="43.1959655" lon="12.1661635"><ele>472.0</ele><time>2026-05-03T09:19:31.268Z</time></trkpt><trkpt lat="43.1959491" lon="12.1660646"><ele>472.0</ele><time>2026-05-03T09:19:33.275Z</time></trkpt><trkpt lat="43.1959486" lon="12.1659611"><ele>472.00000000000006</ele><time>2026-05-03T09:19:35.26Z</time></trkpt><trkpt lat="43.195964" lon="12.1658524"><ele>472.0</ele><time>2026-05-03T09:19:37.281Z</time></trkpt><trkpt lat="43.1959913" lon="12.1657298"><ele>468.40000000000003</ele><time>2026-05-03T09:19:39.274Z</time></trkpt><trkpt lat="43.1960545" lon="12.165566"><ele>464.80000000000007</ele><time>2026-05-03T09:19:42.294Z</time></trkpt><trkpt lat="43.1961145" lon="12.1654588"><ele>461.2</ele><time>2026-05-03T09:19:44.266Z</time></trkpt><trkpt lat="43.1961669" lon="12.1653615"><ele>457.6</ele><time>2026-05-03T09:19:46.257Z</time></trkpt><trkpt lat="43.1962429" lon="12.1652752"><ele>454.0</ele><time>2026-05-03T09:19:48.26Z</time></trkpt><trkpt lat="43.1963016" lon="12.1651483"><ele>454.0</ele><time>2026-05-03T09:19:50.262Z</time></trkpt><trkpt lat="43.1963586" lon="12.1650412"><ele>454.0</ele><time>2026-05-03T09:19:52.261Z</time></trkpt><trkpt lat="43.1964028" lon="12.1649192"><ele>454.0</ele><time>2026-05-03T09:19:54.262Z</time></trkpt><trkpt lat="43.1964639" lon="12.1648381"><ele>454.0</ele><time>2026-05-03T09:19:56.261Z</time></trkpt><trkpt lat="43.1965459" lon="12.164768"><ele>454.0</ele><time>2026-05-03T09:19:58.269Z</time></trkpt><trkpt lat="43.1966397" lon="12.1646958"><ele>453.79999999999995</ele><time>2026-05-03T09:20:00.278Z</time></trkpt><trkpt lat="43.1967328" lon="12.1646225"><ele>453.59999999999997</ele><time>2026-05-03T09:20:02.28Z</time></trkpt><trkpt lat="43.1968117" lon="12.1645585"><ele>453.4</ele><time>2026-05-03T09:20:04.276Z</time></trkpt><trkpt lat="43.1968914" lon="12.1644991"><ele>453.2</ele><time>2026-05-03T09:20:06.273Z</time></trkpt><trkpt lat="43.1970099" lon="12.1644244"><ele>453.0</ele><time>2026-05-03T09:20:08.262Z</time></trkpt><trkpt lat="43.1970844" lon="12.1644014"><ele>453.0</ele><time>2026-05-03T09:20:10.284Z</time></trkpt><trkpt lat="43.1971648" lon="12.1643769"><ele>453.0</ele><time>2026-05-03T09:20:13.272Z</time></trkpt><trkpt lat="43.19723" lon="12.1643479"><ele>453.0</ele><time>2026-05-03T09:20:15.271Z</time></trkpt><trkpt lat="43.197255" lon="12.1642635"><ele>453.0</ele><time>2026-05-03T09:20:17.279Z</time></trkpt><trkpt lat="43.1972513" lon="12.1641513"><ele>453.0</ele><time>2026-05-03T09:20:19.269Z</time></trkpt><trkpt lat="43.1972701" lon="12.1640374"><ele>453.0</ele><time>2026-05-03T09:20:21.28Z</time></trkpt><trkpt lat="43.197282" lon="12.1639441"><ele>450.3333333333333</ele><time>2026-05-03T09:20:23.27Z</time></trkpt><trkpt lat="43.1972514" lon="12.1638514"><ele>447.66666666666663</ele><time>2026-05-03T09:20:25.273Z</time></trkpt><trkpt lat="43.1971945" lon="12.1637863"><ele>445.0</ele><time>2026-05-03T09:20:28.287Z</time></trkpt><trkpt lat="43.1971214" lon="12.1637729"><ele>442.3333333333333</ele><time>2026-05-03T09:20:34.265Z</time></trkpt><trkpt lat="43.197048" lon="12.1636879"><ele>439.66666666666663</ele><time>2026-05-03T09:20:37.27Z</time></trkpt><trkpt lat="43.1970087" lon="12.1635848"><ele>437.0</ele><time>2026-05-03T09:20:40.27Z</time></trkpt><trkpt lat="43.1969932" lon="12.1634913"><ele>436.99999999999994</ele><time>2026-05-03T09:20:42.271Z</time></trkpt><trkpt lat="43.1969933" lon="12.1633799"><ele>437.0</ele><time>2026-05-03T09:20:44.264Z</time></trkpt><trkpt lat="43.197007" lon="12.163274"><ele>437.0</ele><time>2026-05-03T09:20:46.271Z</time></trkpt><trkpt lat="43.197033" lon="12.1631908"><ele>437.0</ele><time>2026-05-03T09:20:48.272Z</time></trkpt><trkpt lat="43.1970748" lon="12.1631173"><ele>436.99999999999994</ele><time>2026-05-03T09:20:50.268Z</time></trkpt><trkpt lat="43.1971477" lon="12.1630847"><ele>437.0</ele><time>2026-05-03T09:20:52.287Z</time></trkpt><trkpt lat="43.1972295" lon="12.1630987"><ele>434.8</ele><time>2026-05-03T09:20:54.27Z</time></trkpt><trkpt lat="43.1973005" lon="12.163098"><ele>432.6</ele><time>2026-05-03T09:20:56.272Z</time></trkpt><trkpt lat="43.1973501" lon="12.162987"><ele>430.40000000000003</ele><time>2026-05-03T09:20:59.271Z</time></trkpt><trkpt lat="43.197366" lon="12.1628755"><ele>428.20000000000005</ele><time>2026-05-03T09:21:01.274Z</time></trkpt><trkpt lat="43.1973683" lon="12.1626734"><ele>426.0</ele><time>2026-05-03T09:21:04.288Z</time></trkpt><trkpt lat="43.1973402" lon="12.1625165"><ele>426.5</ele><time>2026-05-03T09:21:06.272Z</time></trkpt><trkpt lat="43.1973642" lon="12.1623969"><ele>427.0</ele><time>2026-05-03T09:21:08.274Z</time></trkpt><trkpt lat="43.1974152" lon="12.1623174"><ele>427.5</ele><time>2026-05-03T09:21:10.277Z</time></trkpt><trkpt lat="43.1975009" lon="12.1622904"><ele>428.0</ele><time>2026-05-03T09:21:12.262Z</time></trkpt><trkpt lat="43.1975873" lon="12.1623022"><ele>428.5</ele><time>2026-05-03T09:21:14.254Z</time></trkpt><trkpt lat="43.1976639" lon="12.1623071"><ele>429.0</ele><time>2026-05-03T09:21:16.271Z</time></trkpt><trkpt lat="43.1977205" lon="12.162241"><ele>429.0</ele><time>2026-05-03T09:21:18.274Z</time></trkpt><trkpt lat="43.1977476" lon="12.162144"><ele>429.0</ele><time>2026-05-03T09:21:20.382Z</time></trkpt><trkpt lat="43.1977801" lon="12.162046"><ele>429.0</ele><time>2026-05-03T09:21:22.279Z</time></trkpt><trkpt lat="43.1978197" lon="12.1619629"><ele>429.0</ele><time>2026-05-03T09:21:24.284Z</time></trkpt><trkpt lat="43.1978345" lon="12.161877"><ele>429.0</ele><time>2026-05-03T09:21:26.274Z</time></trkpt><trkpt lat="43.197768" lon="12.1618797"><ele>429.0</ele><time>2026-05-03T09:26:18.271Z</time></trkpt><trkpt lat="43.1977231" lon="12.1619644"><ele>429.0</ele><time>2026-05-03T09:26:21.278Z</time></trkpt><trkpt lat="43.1976749" lon="12.1620724"><ele>429.0</ele><time>2026-05-03T09:26:24.372Z</time></trkpt><trkpt lat="43.1976159" lon="12.1621074"><ele>429.0</ele><time>2026-05-03T09:26:26.258Z</time></trkpt><trkpt lat="43.1975377" lon="12.1620923"><ele>429.0</ele><time>2026-05-03T09:26:28.271Z</time></trkpt><trkpt lat="43.1974409" lon="12.1620434"><ele>429.0</ele><time>2026-05-03T09:26:30.389Z</time></trkpt><trkpt lat="43.197365" lon="12.1620332"><ele>429.0</ele><time>2026-05-03T09:26:32.274Z</time></trkpt><trkpt lat="43.1972877" lon="12.1620718"><ele>429.0</ele><time>2026-05-03T09:26:34.279Z</time></trkpt><trkpt lat="43.1972228" lon="12.1621462"><ele>426.2857142857143</ele><time>2026-05-03T09:26:36.27Z</time></trkpt><trkpt lat="43.1971624" lon="12.162202"><ele>423.57142857142856</ele><time>2026-05-03T09:26:38.274Z</time></trkpt><trkpt lat="43.1970776" lon="12.1621907"><ele>420.8571428571429</ele><time>2026-05-03T09:26:40.273Z</time></trkpt><trkpt lat="43.1970227" lon="12.1621398"><ele>418.1428571428571</ele><time>2026-05-03T09:26:42.378Z</time></trkpt><trkpt lat="43.1969607" lon="12.1620725"><ele>415.4285714285714</ele><time>2026-05-03T09:26:45.27Z</time></trkpt><trkpt lat="43.1968979" lon="12.1621044"><ele>412.7142857142857</ele><time>2026-05-03T09:27:01.269Z</time></trkpt><trkpt lat="43.1968343" lon="12.162148"><ele>410.0</ele><time>2026-05-03T09:27:03.278Z</time></trkpt><trkpt lat="43.196772" lon="12.162258"><ele>408.6</ele><time>2026-05-03T09:27:05.392Z</time></trkpt><trkpt lat="43.1967091" lon="12.1623863"><ele>407.2</ele><time>2026-05-03T09:27:07.283Z</time></trkpt><trkpt lat="43.1966298" lon="12.1624923"><ele>405.79999999999995</ele><time>2026-05-03T09:27:09.27Z</time></trkpt><trkpt lat="43.1965763" lon="12.1625908"><ele>404.4</ele><time>2026-05-03T09:27:11.278Z</time></trkpt><trkpt lat="43.1965153" lon="12.1626653"><ele>403.0</ele><time>2026-05-03T09:27:13.268Z</time></trkpt><trkpt lat="43.1964438" lon="12.1626809"><ele>403.00000000000006</ele><time>2026-05-03T09:27:16.269Z</time></trkpt><trkpt lat="43.1963653" lon="12.1626595"><ele>403.0</ele><time>2026-05-03T09:27:20.27Z</time></trkpt><trkpt lat="43.1962814" lon="12.1626035"><ele>403.0</ele><time>2026-05-03T09:27:23.273Z</time></trkpt><trkpt lat="43.1962165" lon="12.1625596"><ele>403.0</ele><time>2026-05-03T09:27:25.273Z</time></trkpt><trkpt lat="43.1961491" lon="12.1625121"><ele>403.00000000000006</ele><time>2026-05-03T09:27:27.271Z</time></trkpt><trkpt lat="43.1960735" lon="12.1624634"><ele>403.0</ele><time>2026-05-03T09:27:29.276Z</time></trkpt><trkpt lat="43.19598" lon="12.1624386"><ele>403.0</ele><time>2026-05-03T09:27:31.289Z</time></trkpt><trkpt lat="43.1958831" lon="12.1623989"><ele>403.0</ele><time>2026-05-03T09:27:33.259Z</time></trkpt><trkpt lat="43.1957448" lon="12.1623175"><ele>403.0</ele><time>2026-05-03T09:27:36.279Z</time></trkpt><trkpt lat="43.1956869" lon="12.1622439"><ele>403.0</ele><time>2026-05-03T09:27:38.274Z</time></trkpt><trkpt lat="43.1956594" lon="12.1621433"><ele>403.0</ele><time>2026-05-03T09:27:52.27Z</time></trkpt><trkpt lat="43.1956522" lon="12.1620238"><ele>401.83333333333337</ele><time>2026-05-03T09:27:55.274Z</time></trkpt><trkpt lat="43.1956782" lon="12.1619397"><ele>400.6666666666667</ele><time>2026-05-03T09:27:57.273Z</time></trkpt><trkpt lat="43.1957316" lon="12.1618628"><ele>399.5</ele><time>2026-05-03T09:27:59.274Z</time></trkpt><trkpt lat="43.1957992" lon="12.161808"><ele>398.33333333333337</ele><time>2026-05-03T09:28:01.297Z</time></trkpt><trkpt lat="43.1958205" lon="12.1617236"><ele>397.1666666666667</ele><time>2026-05-03T09:28:03.368Z</time></trkpt><trkpt lat="43.1957233" lon="12.1616891"><ele>396.0</ele><time>2026-05-03T09:28:06.281Z</time></trkpt><trkpt lat="43.1956278" lon="12.1617481"><ele>392.8</ele><time>2026-05-03T09:28:08.275Z</time></trkpt><trkpt lat="43.1955154" lon="12.1617847"><ele>389.6</ele><time>2026-05-03T09:28:10.285Z</time></trkpt><trkpt lat="43.1954027" lon="12.1618431"><ele>386.4</ele><time>2026-05-03T09:28:12.279Z</time></trkpt><trkpt lat="43.1952929" lon="12.1618846"><ele>383.2</ele><time>2026-05-03T09:28:14.267Z</time></trkpt><trkpt lat="43.195201" lon="12.1619114"><ele>380.0</ele><time>2026-05-03T09:28:16.277Z</time></trkpt><trkpt lat="43.1951076" lon="12.1619478"><ele>380.0</ele><time>2026-05-03T09:28:18.274Z</time></trkpt><trkpt lat="43.1950463" lon="12.1620557"><ele>380.0</ele><time>2026-05-03T09:28:20.276Z</time></trkpt><trkpt lat="43.1950531" lon="12.1622666"><ele>380.0</ele><time>2026-05-03T09:28:23.29Z</time></trkpt><trkpt lat="43.1951196" lon="12.1623953"><ele>380.0</ele><time>2026-05-03T09:28:25.28Z</time></trkpt><trkpt lat="43.1951836" lon="12.162517"><ele>380.5</ele><time>2026-05-03T09:28:27.389Z</time></trkpt><trkpt lat="43.195272" lon="12.1626229"><ele>381.0</ele><time>2026-05-03T09:28:29.277Z</time></trkpt><trkpt lat="43.1953684" lon="12.1627238"><ele>381.5</ele><time>2026-05-03T09:28:31.277Z</time></trkpt><trkpt lat="43.1954532" lon="12.1628276"><ele>382.0</ele><time>2026-05-03T09:28:33.269Z</time></trkpt><trkpt lat="43.1955283" lon="12.1629486"><ele>382.0</ele><time>2026-05-03T09:28:35.275Z</time></trkpt><trkpt lat="43.1955925" lon="12.1630691"><ele>382.0</ele><time>2026-05-03T09:28:37.272Z</time></trkpt><trkpt lat="43.1955858" lon="12.1631816"><ele>382.0</ele><time>2026-05-03T09:28:39.382Z</time></trkpt><trkpt lat="43.1955206" lon="12.1631842"><ele>382.0</ele><time>2026-05-03T09:28:41.29Z</time></trkpt><trkpt lat="43.1953979" lon="12.1630999"><ele>382.0</ele><time>2026-05-03T09:28:43.287Z</time></trkpt><trkpt lat="43.195325" lon="12.1629621"><ele>382.0</ele><time>2026-05-03T09:28:45.282Z</time></trkpt><trkpt lat="43.1952717" lon="12.1629009"><ele>382.0</ele><time>2026-05-03T09:28:46.271Z</time></trkpt><trkpt lat="43.195213" lon="12.1628448"><ele>382.0</ele><time>2026-05-03T09:28:47.269Z</time></trkpt><trkpt lat="43.195141" lon="12.1627924"><ele>382.0</ele><time>2026-05-03T09:28:48.261Z</time></trkpt><trkpt lat="43.195079" lon="12.1627378"><ele>382.0</ele><time>2026-05-03T09:28:49.288Z</time></trkpt><trkpt lat="43.1950091" lon="12.1626828"><ele>382.0</ele><time>2026-05-03T09:28:50.281Z</time></trkpt><trkpt lat="43.194933" lon="12.1626302"><ele>382.0</ele><time>2026-05-03T09:28:51.281Z</time></trkpt><trkpt lat="43.1948663" lon="12.162572"><ele>382.0</ele><time>2026-05-03T09:28:52.27Z</time></trkpt><trkpt lat="43.1947946" lon="12.1625257"><ele>382.0</ele><time>2026-05-03T09:28:53.279Z</time></trkpt><trkpt lat="43.1947382" lon="12.1624606"><ele>382.0</ele><time>2026-05-03T09:28:54.276Z</time></trkpt><trkpt lat="43.1946692" lon="12.162394"><ele>382.0</ele><time>2026-05-03T09:28:55.279Z</time></trkpt><trkpt lat="43.1945974" lon="12.1623363"><ele>382.0</ele><time>2026-05-03T09:28:56.263Z</time></trkpt><trkpt lat="43.1945071" lon="12.1622882"><ele>378.0</ele><time>2026-05-03T09:28:57.288Z</time></trkpt><trkpt lat="43.1944287" lon="12.162226"><ele>374.0</ele><time>2026-05-03T09:28:58.278Z</time></trkpt><trkpt lat="43.1943706" lon="12.1621792"><ele>370.0</ele><time>2026-05-03T09:28:59.273Z</time></trkpt><trkpt lat="43.194283" lon="12.1620987"><ele>366.0</ele><time>2026-05-03T09:29:01.26Z</time></trkpt><trkpt lat="43.1942562" lon="12.1619969"><ele>362.0</ele><time>2026-05-03T09:29:58.374Z</time></trkpt><trkpt lat="43.1942653" lon="12.1618881"><ele>358.0</ele><time>2026-05-03T09:30:00.273Z</time></trkpt><trkpt lat="43.1942968" lon="12.161778"><ele>358.0</ele><time>2026-05-03T09:30:02.26Z</time></trkpt><trkpt lat="43.1943484" lon="12.1616798"><ele>358.0</ele><time>2026-05-03T09:30:04.372Z</time></trkpt><trkpt lat="43.1944142" lon="12.1615679"><ele>358.0</ele><time>2026-05-03T09:30:06.276Z</time></trkpt><trkpt lat="43.1944782" lon="12.1614586"><ele>358.0</ele><time>2026-05-03T09:30:08.29Z</time></trkpt><trkpt lat="43.1944884" lon="12.1613558"><ele>358.0</ele><time>2026-05-03T09:30:10.277Z</time></trkpt><trkpt lat="43.1944113" lon="12.1612807"><ele>357.8333333333333</ele><time>2026-05-03T09:30:12.269Z</time></trkpt><trkpt lat="43.1943473" lon="12.161239"><ele>357.66666666666663</ele><time>2026-05-03T09:30:14.269Z</time></trkpt><trkpt lat="43.194279" lon="12.1611947"><ele>357.5</ele><time>2026-05-03T09:30:17.271Z</time></trkpt><trkpt lat="43.1942097" lon="12.1611655"><ele>357.3333333333333</ele><time>2026-05-03T09:30:21.262Z</time></trkpt><trkpt lat="43.1941431" lon="12.161276"><ele>357.1666666666667</ele><time>2026-05-03T09:30:24.258Z</time></trkpt><trkpt lat="43.1940913" lon="12.1613384"><ele>357.0</ele><time>2026-05-03T09:30:25.292Z</time></trkpt><trkpt lat="43.1940354" lon="12.1614025"><ele>355.3333333333333</ele><time>2026-05-03T09:30:26.271Z</time></trkpt><trkpt lat="43.1939693" lon="12.1614697"><ele>353.6666666666667</ele><time>2026-05-03T09:30:27.379Z</time></trkpt><trkpt lat="43.1939164" lon="12.1615478"><ele>352.0</ele><time>2026-05-03T09:30:28.294Z</time></trkpt><trkpt lat="43.1938546" lon="12.1615884"><ele>350.33333333333337</ele><time>2026-05-03T09:30:29.283Z</time></trkpt><trkpt lat="43.1937577" lon="12.1616078"><ele>348.6666666666667</ele><time>2026-05-03T09:30:31.285Z</time></trkpt><trkpt lat="43.1936669" lon="12.1615803"><ele>347.0</ele><time>2026-05-03T09:30:33.269Z</time></trkpt><trkpt lat="43.1935901" lon="12.1615128"><ele>347.0</ele><time>2026-05-03T09:30:35.286Z</time></trkpt><trkpt lat="43.1935283" lon="12.1614848"><ele>347.0</ele><time>2026-05-03T09:30:36.282Z</time></trkpt><trkpt lat="43.1934252" lon="12.1614449"><ele>347.0</ele><time>2026-05-03T09:30:38.27Z</time></trkpt><trkpt lat="43.1933645" lon="12.1614149"><ele>347.0</ele><time>2026-05-03T09:30:39.383Z</time></trkpt><trkpt lat="43.1932992" lon="12.161381"><ele>347.0</ele><time>2026-05-03T09:30:40.289Z</time></trkpt><trkpt lat="43.1931867" lon="12.1613296"><ele>347.0</ele><time>2026-05-03T09:30:42.281Z</time></trkpt><trkpt lat="43.1931244" lon="12.1612929"><ele>346.6666666666667</ele><time>2026-05-03T09:30:43.283Z</time></trkpt><trkpt lat="43.193077" lon="12.1612214"><ele>346.33333333333337</ele><time>2026-05-03T09:30:44.272Z</time></trkpt><trkpt lat="43.1930397" lon="12.1611461"><ele>346.0</ele><time>2026-05-03T09:30:45.271Z</time></trkpt><trkpt lat="43.1930578" lon="12.1609859"><ele>345.6666666666667</ele><time>2026-05-03T09:30:47.279Z</time></trkpt><trkpt lat="43.1930873" lon="12.1608574"><ele>345.3333333333333</ele><time>2026-05-03T09:30:49.275Z</time></trkpt><trkpt lat="43.1930979" lon="12.1607477"><ele>345.0</ele><time>2026-05-03T09:30:51.389Z</time></trkpt><trkpt lat="43.1930931" lon="12.1606354"><ele>345.0</ele><time>2026-05-03T09:30:54.274Z</time></trkpt><trkpt lat="43.1930084" lon="12.1605748"><ele>345.0</ele><time>2026-05-03T09:30:57.268Z</time></trkpt><trkpt lat="43.1929178" lon="12.1605305"><ele>345.0</ele><time>2026-05-03T09:30:59.271Z</time></trkpt><trkpt lat="43.1928285" lon="12.1604921"><ele>345.0</ele><time>2026-05-03T09:31:01.276Z</time></trkpt><trkpt lat="43.1927422" lon="12.1604561"><ele>345.0</ele><time>2026-05-03T09:31:03.292Z</time></trkpt><trkpt lat="43.1926622" lon="12.1604074"><ele>345.0</ele><time>2026-05-03T09:31:05.27Z</time></trkpt><trkpt lat="43.1925717" lon="12.1603618"><ele>345.0</ele><time>2026-05-03T09:31:07.282Z</time></trkpt><trkpt lat="43.1924814" lon="12.160312"><ele>345.0</ele><time>2026-05-03T09:31:09.282Z</time></trkpt><trkpt lat="43.1923959" lon="12.1602669"><ele>345.0</ele><time>2026-05-03T09:31:11.282Z</time></trkpt><trkpt lat="43.1923118" lon="12.160218"><ele>345.0</ele><time>2026-05-03T09:31:13.272Z</time></trkpt><trkpt lat="43.1922271" lon="12.1601663"><ele>345.0</ele><time>2026-05-03T09:31:15.274Z</time></trkpt><trkpt lat="43.1921495" lon="12.1601122"><ele>345.0</ele><time>2026-05-03T09:31:17.271Z</time></trkpt><trkpt lat="43.1920792" lon="12.160064"><ele>345.0</ele><time>2026-05-03T09:31:19.276Z</time></trkpt><trkpt lat="43.1919984" lon="12.1600159"><ele>345.0</ele><time>2026-05-03T09:31:21.274Z</time></trkpt><trkpt lat="43.1919185" lon="12.1599716"><ele>345.0</ele><time>2026-05-03T09:31:23.264Z</time></trkpt><trkpt lat="43.1918441" lon="12.1599298"><ele>345.0</ele><time>2026-05-03T09:31:25.287Z</time></trkpt><trkpt lat="43.1917723" lon="12.1598925"><ele>346.42857142857144</ele><time>2026-05-03T09:31:27.277Z</time></trkpt><trkpt lat="43.1917027" lon="12.1598641"><ele>347.85714285714283</ele><time>2026-05-03T09:31:29.269Z</time></trkpt><trkpt lat="43.1916321" lon="12.1598474"><ele>349.2857142857143</ele><time>2026-05-03T09:31:31.278Z</time></trkpt><trkpt lat="43.1915618" lon="12.1598289"><ele>350.7142857142857</ele><time>2026-05-03T09:31:33.276Z</time></trkpt><trkpt lat="43.1915024" lon="12.1597989"><ele>352.14285714285717</ele><time>2026-05-03T09:31:35.273Z</time></trkpt><trkpt lat="43.191439" lon="12.1597669"><ele>353.57142857142856</ele><time>2026-05-03T09:31:37.279Z</time></trkpt><trkpt lat="43.1913602" lon="12.1597091"><ele>355.0</ele><time>2026-05-03T09:31:40.278Z</time></trkpt><trkpt lat="43.1912991" lon="12.1596716"><ele>355.0</ele><time>2026-05-03T09:31:42.259Z</time></trkpt><trkpt lat="43.1912353" lon="12.1596433"><ele>355.0</ele><time>2026-05-03T09:31:44.259Z</time></trkpt><trkpt lat="43.1911738" lon="12.1596058"><ele>355.0</ele><time>2026-05-03T09:31:46.261Z</time></trkpt><trkpt lat="43.1911116" lon="12.1595722"><ele>355.0</ele><time>2026-05-03T09:31:48.263Z</time></trkpt><trkpt lat="43.1910494" lon="12.1595371"><ele>355.0</ele><time>2026-05-03T09:31:50.272Z</time></trkpt><trkpt lat="43.1909842" lon="12.1595014"><ele>355.0</ele><time>2026-05-03T09:31:52.36Z</time></trkpt><trkpt lat="43.1909162" lon="12.1594557"><ele>355.0</ele><time>2026-05-03T09:31:54.289Z</time></trkpt><trkpt lat="43.1908449" lon="12.1594058"><ele>355.0</ele><time>2026-05-03T09:31:56.27Z</time></trkpt><trkpt lat="43.1907812" lon="12.1593531"><ele>355.0</ele><time>2026-05-03T09:31:58.267Z</time></trkpt><trkpt lat="43.19073" lon="12.1592854"><ele>355.0</ele><time>2026-05-03T09:32:00.278Z</time></trkpt><trkpt lat="43.1906926" lon="12.1592019"><ele>355.0</ele><time>2026-05-03T09:32:02.269Z</time></trkpt><trkpt lat="43.190665" lon="12.1591114"><ele>355.0</ele><time>2026-05-03T09:32:04.27Z</time></trkpt><trkpt lat="43.1906488" lon="12.1590198"><ele>355.0</ele><time>2026-05-03T09:32:06.289Z</time></trkpt><trkpt lat="43.1906306" lon="12.1589358"><ele>355.0</ele><time>2026-05-03T09:32:08.281Z</time></trkpt><trkpt lat="43.190609" lon="12.1588538"><ele>354.0</ele><time>2026-05-03T09:32:10.272Z</time></trkpt><trkpt lat="43.1905823" lon="12.1587475"><ele>353.0</ele><time>2026-05-03T09:32:13.276Z</time></trkpt><trkpt lat="43.1905573" lon="12.158635"><ele>352.0</ele><time>2026-05-03T09:32:16.272Z</time></trkpt><trkpt lat="43.1905463" lon="12.1585108"><ele>351.0</ele><time>2026-05-03T09:32:19.27Z</time></trkpt><trkpt lat="43.1905471" lon="12.1583738"><ele>350.0</ele><time>2026-05-03T09:32:22.271Z</time></trkpt><trkpt lat="43.1905589" lon="12.1582806"><ele>349.0</ele><time>2026-05-03T09:32:24.287Z</time></trkpt><trkpt lat="43.1905961" lon="12.1581617"><ele>349.8333333333333</ele><time>2026-05-03T09:32:27.278Z</time></trkpt><trkpt lat="43.1906372" lon="12.1580817"><ele>350.66666666666663</ele><time>2026-05-03T09:32:29.278Z</time></trkpt><trkpt lat="43.1906908" lon="12.157999"><ele>351.5</ele><time>2026-05-03T09:32:31.284Z</time></trkpt><trkpt lat="43.1907474" lon="12.1579195"><ele>352.3333333333333</ele><time>2026-05-03T09:32:33.27Z</time></trkpt><trkpt lat="43.1908153" lon="12.1578533"><ele>353.1666666666667</ele><time>2026-05-03T09:32:35.283Z</time></trkpt><trkpt lat="43.1908857" lon="12.1577801"><ele>354.0</ele><time>2026-05-03T09:32:37.274Z</time></trkpt><trkpt lat="43.1909696" lon="12.1576947"><ele>354.0</ele><time>2026-05-03T09:32:39.292Z</time></trkpt><trkpt lat="43.1910377" lon="12.1575919"><ele>354.0</ele><time>2026-05-03T09:32:41.276Z</time></trkpt><trkpt lat="43.1911031" lon="12.1574961"><ele>354.0</ele><time>2026-05-03T09:32:43.274Z</time></trkpt><trkpt lat="43.1911324" lon="12.1573781"><ele>354.0</ele><time>2026-05-03T09:32:45.282Z</time></trkpt><trkpt lat="43.1911208" lon="12.1572918"><ele>354.0</ele><time>2026-05-03T09:32:47.267Z</time></trkpt><trkpt lat="43.1910724" lon="12.1571785"><ele>354.0</ele><time>2026-05-03T09:32:49.281Z</time></trkpt><trkpt lat="43.1910082" lon="12.1570594"><ele>354.0</ele><time>2026-05-03T09:32:51.279Z</time></trkpt><trkpt lat="43.1909704" lon="12.1569872"><ele>354.0</ele><time>2026-05-03T09:32:52.278Z</time></trkpt><trkpt lat="43.1909302" lon="12.156911"><ele>354.0</ele><time>2026-05-03T09:32:53.268Z</time></trkpt><trkpt lat="43.1908929" lon="12.1568344"><ele>354.0</ele><time>2026-05-03T09:32:54.275Z</time></trkpt><trkpt lat="43.1908488" lon="12.1567687"><ele>354.0</ele><time>2026-05-03T09:32:55.285Z</time></trkpt><trkpt lat="43.1908024" lon="12.1566979"><ele>354.0</ele><time>2026-05-03T09:32:56.274Z</time></trkpt><trkpt lat="43.1907558" lon="12.1566202"><ele>354.0</ele><time>2026-05-03T09:32:57.29Z</time></trkpt><trkpt lat="43.1907005" lon="12.1565571"><ele>351.0</ele><time>2026-05-03T09:32:58.291Z</time></trkpt><trkpt lat="43.19064" lon="12.1564874"><ele>348.0</ele><time>2026-05-03T09:32:59.271Z</time></trkpt><trkpt lat="43.1905922" lon="12.1564237"><ele>345.0</ele><time>2026-05-03T09:33:00.273Z</time></trkpt><trkpt lat="43.1905447" lon="12.1563352"><ele>342.0</ele><time>2026-05-03T09:33:01.269Z</time></trkpt><trkpt lat="43.1904954" lon="12.1562553"><ele>339.0</ele><time>2026-05-03T09:33:02.27Z</time></trkpt><trkpt lat="43.1904429" lon="12.1561832"><ele>336.0</ele><time>2026-05-03T09:33:03.27Z</time></trkpt><trkpt lat="43.1904061" lon="12.1560981"><ele>333.0</ele><time>2026-05-03T09:33:04.284Z</time></trkpt><trkpt lat="43.1903512" lon="12.1560228"><ele>333.0</ele><time>2026-05-03T09:33:05.273Z</time></trkpt><trkpt lat="43.1902833" lon="12.1559506"><ele>333.0</ele><time>2026-05-03T09:33:06.273Z</time></trkpt><trkpt lat="43.1902371" lon="12.1558776"><ele>333.0</ele><time>2026-05-03T09:33:07.292Z</time></trkpt><trkpt lat="43.1901864" lon="12.1558006"><ele>333.0</ele><time>2026-05-03T09:33:08.365Z</time></trkpt><trkpt lat="43.190114" lon="12.1557318"><ele>333.0</ele><time>2026-05-03T09:33:09.27Z</time></trkpt><trkpt lat="43.1900628" lon="12.1556559"><ele>333.0</ele><time>2026-05-03T09:33:10.277Z</time></trkpt><trkpt lat="43.1900116" lon="12.1555757"><ele>334.6666666666667</ele><time>2026-05-03T09:33:11.271Z</time></trkpt><trkpt lat="43.1899677" lon="12.1555011"><ele>336.3333333333333</ele><time>2026-05-03T09:33:12.268Z</time></trkpt><trkpt lat="43.1899227" lon="12.1554141"><ele>338.0</ele><time>2026-05-03T09:33:13.274Z</time></trkpt><trkpt lat="43.1898691" lon="12.1553318"><ele>339.66666666666663</ele><time>2026-05-03T09:33:14.271Z</time></trkpt><trkpt lat="43.189835" lon="12.155248"><ele>341.3333333333333</ele><time>2026-05-03T09:33:15.292Z</time></trkpt><trkpt lat="43.1897694" lon="12.1550958"><ele>343.0</ele><time>2026-05-03T09:33:17.275Z</time></trkpt><trkpt lat="43.1897309" lon="12.1550201"><ele>339.66666666666663</ele><time>2026-05-03T09:33:18.274Z</time></trkpt><trkpt lat="43.1896871" lon="12.1549558"><ele>336.3333333333333</ele><time>2026-05-03T09:33:19.279Z</time></trkpt><trkpt lat="43.1896492" lon="12.1548783"><ele>333.0</ele><time>2026-05-03T09:33:20.388Z</time></trkpt><trkpt lat="43.1895478" lon="12.1547464"><ele>329.6666666666667</ele><time>2026-05-03T09:33:22.278Z</time></trkpt><trkpt lat="43.1895032" lon="12.1546811"><ele>326.33333333333337</ele><time>2026-05-03T09:33:23.271Z</time></trkpt><trkpt lat="43.1894484" lon="12.1546102"><ele>323.0</ele><time>2026-05-03T09:33:24.276Z</time></trkpt><trkpt lat="43.1894009" lon="12.1545477"><ele>323.0</ele><time>2026-05-03T09:33:25.271Z</time></trkpt><trkpt lat="43.1893604" lon="12.1544787"><ele>323.0</ele><time>2026-05-03T09:33:26.262Z</time></trkpt><trkpt lat="43.1893272" lon="12.1543541"><ele>323.0</ele><time>2026-05-03T09:33:28.271Z</time></trkpt><trkpt lat="43.189309" lon="12.1542261"><ele>323.0</ele><time>2026-05-03T09:33:30.284Z</time></trkpt><trkpt lat="43.1893914" lon="12.154148"><ele>323.0</ele><time>2026-05-03T09:33:32.381Z</time></trkpt><trkpt lat="43.1894615" lon="12.1540513"><ele>322.0</ele><time>2026-05-03T09:33:34.272Z</time></trkpt><trkpt lat="43.1895711" lon="12.153994"><ele>321.0</ele><time>2026-05-03T09:33:36.277Z</time></trkpt><trkpt lat="43.18968" lon="12.1538885"><ele>320.0</ele><time>2026-05-03T09:33:38.27Z</time></trkpt><trkpt lat="43.1897867" lon="12.1538159"><ele>319.0</ele><time>2026-05-03T09:33:40.276Z</time></trkpt><trkpt lat="43.1898435" lon="12.1537766"><ele>318.0</ele><time>2026-05-03T09:33:41.281Z</time></trkpt><trkpt lat="43.189885" lon="12.1537076"><ele>318.0</ele><time>2026-05-03T09:33:42.27Z</time></trkpt><trkpt lat="43.189939" lon="12.1536506"><ele>318.0</ele><time>2026-05-03T09:33:43.278Z</time></trkpt><trkpt lat="43.1899904" lon="12.1535885"><ele>318.0</ele><time>2026-05-03T09:33:44.27Z</time></trkpt><trkpt lat="43.19004" lon="12.1535276"><ele>318.0</ele><time>2026-05-03T09:33:45.274Z</time></trkpt><trkpt lat="43.1901032" lon="12.1534683"><ele>318.0</ele><time>2026-05-03T09:33:46.27Z</time></trkpt><trkpt lat="43.1901983" lon="12.1533813"><ele>318.0</ele><time>2026-05-03T09:33:48.3Z</time></trkpt><trkpt lat="43.1902547" lon="12.1533346"><ele>315.5</ele><time>2026-05-03T09:33:49.277Z</time></trkpt><trkpt lat="43.1903833" lon="12.153158"><ele>313.0</ele><time>2026-05-03T09:33:52.274Z</time></trkpt><trkpt lat="43.1904673" lon="12.1530605"><ele>310.5</ele><time>2026-05-03T09:33:54.271Z</time></trkpt><trkpt lat="43.1905121" lon="12.152936"><ele>308.0</ele><time>2026-05-03T09:33:56.372Z</time></trkpt><trkpt lat="43.1904525" lon="12.1528312"><ele>308.0</ele><time>2026-05-03T09:33:58.256Z</time></trkpt><trkpt lat="43.190406" lon="12.1527537"><ele>308.0</ele><time>2026-05-03T09:34:01.259Z</time></trkpt><trkpt lat="43.1903255" lon="12.1526634"><ele>308.0</ele><time>2026-05-03T09:34:03.271Z</time></trkpt><trkpt lat="43.1902736" lon="12.1525351"><ele>308.0</ele><time>2026-05-03T09:34:05.277Z</time></trkpt><trkpt lat="43.1902173" lon="12.1523508"><ele>308.0</ele><time>2026-05-03T09:34:08.257Z</time></trkpt><trkpt lat="43.1901561" lon="12.1522112"><ele>307.0</ele><time>2026-05-03T09:34:10.255Z</time></trkpt><trkpt lat="43.1900883" lon="12.15208"><ele>306.0</ele><time>2026-05-03T09:34:12.256Z</time></trkpt><trkpt lat="43.189992" lon="12.1519427"><ele>305.0</ele><time>2026-05-03T09:34:14.261Z</time></trkpt><trkpt lat="43.1899733" lon="12.1518514"><ele>304.0</ele><time>2026-05-03T09:34:15.259Z</time></trkpt><trkpt lat="43.1899499" lon="12.1517681"><ele>303.0</ele><time>2026-05-03T09:34:16.262Z</time></trkpt><trkpt lat="43.1899305" lon="12.1516653"><ele>303.0</ele><time>2026-05-03T09:34:17.262Z</time></trkpt><trkpt lat="43.1899387" lon="12.1515725"><ele>303.0</ele><time>2026-05-03T09:34:18.259Z</time></trkpt><trkpt lat="43.1899619" lon="12.1514915"><ele>303.0</ele><time>2026-05-03T09:34:19.256Z</time></trkpt><trkpt lat="43.1899598" lon="12.151366"><ele>303.0</ele><time>2026-05-03T09:34:21.264Z</time></trkpt><trkpt lat="43.1898919" lon="12.1513347"><ele>303.0</ele><time>2026-05-03T09:34:23.284Z</time></trkpt><trkpt lat="43.1898113" lon="12.151398"><ele>303.0</ele><time>2026-05-03T09:34:25.272Z</time></trkpt><trkpt lat="43.1897018" lon="12.1514384"><ele>301.0</ele><time>2026-05-03T09:34:27.269Z</time></trkpt><trkpt lat="43.1896385" lon="12.1514517"><ele>299.0</ele><time>2026-05-03T09:34:28.282Z</time></trkpt><trkpt lat="43.1895662" lon="12.1514617"><ele>297.0</ele><time>2026-05-03T09:34:29.291Z</time></trkpt><trkpt lat="43.1894828" lon="12.1515362"><ele>295.0</ele><time>2026-05-03T09:34:31.274Z</time></trkpt><trkpt lat="43.1894209" lon="12.1515571"><ele>293.0</ele><time>2026-05-03T09:34:32.269Z</time></trkpt><trkpt lat="43.1893557" lon="12.1515553"><ele>291.0</ele><time>2026-05-03T09:34:33.269Z</time></trkpt><trkpt lat="43.1892839" lon="12.1515468"><ele>289.0</ele><time>2026-05-03T09:34:34.278Z</time></trkpt><trkpt lat="43.189181" lon="12.1515464"><ele>289.0</ele><time>2026-05-03T09:34:36.359Z</time></trkpt><trkpt lat="43.1891053" lon="12.151653"><ele>289.0</ele><time>2026-05-03T09:34:38.271Z</time></trkpt><trkpt lat="43.1890389" lon="12.1517873"><ele>289.0</ele><time>2026-05-03T09:34:40.284Z</time></trkpt><trkpt lat="43.1889414" lon="12.1519151"><ele>289.0</ele><time>2026-05-03T09:34:42.272Z</time></trkpt><trkpt lat="43.1888517" lon="12.1519814"><ele>287.0</ele><time>2026-05-03T09:34:44.283Z</time></trkpt><trkpt lat="43.1887599" lon="12.1519538"><ele>285.0</ele><time>2026-05-03T09:34:46.272Z</time></trkpt><trkpt lat="43.1887157" lon="12.1518702"><ele>283.0</ele><time>2026-05-03T09:34:48.268Z</time></trkpt><trkpt lat="43.1887046" lon="12.1517447"><ele>281.0</ele><time>2026-05-03T09:34:50.278Z</time></trkpt><trkpt lat="43.1886179" lon="12.1516439"><ele>279.0</ele><time>2026-05-03T09:34:52.269Z</time></trkpt><trkpt lat="43.1885033" lon="12.1516511"><ele>279.0</ele><time>2026-05-03T09:34:54.27Z</time></trkpt><trkpt lat="43.1884452" lon="12.1517023"><ele>279.0</ele><time>2026-05-03T09:34:55.274Z</time></trkpt><trkpt lat="43.1883901" lon="12.1517742"><ele>279.0</ele><time>2026-05-03T09:34:56.273Z</time></trkpt><trkpt lat="43.1883435" lon="12.1518546"><ele>279.0</ele><time>2026-05-03T09:34:57.28Z</time></trkpt><trkpt lat="43.1882863" lon="12.1519465"><ele>279.0</ele><time>2026-05-03T09:34:58.273Z</time></trkpt><trkpt lat="43.1882132" lon="12.1520189"><ele>279.0</ele><time>2026-05-03T09:34:59.273Z</time></trkpt><trkpt lat="43.188132" lon="12.1520404"><ele>277.8</ele><time>2026-05-03T09:35:00.383Z</time></trkpt><trkpt lat="43.1879856" lon="12.1520068"><ele>276.59999999999997</ele><time>2026-05-03T09:35:02.265Z</time></trkpt><trkpt lat="43.1879141" lon="12.1519834"><ele>275.4</ele><time>2026-05-03T09:35:03.25Z</time></trkpt><trkpt lat="43.1878434" lon="12.1519336"><ele>274.2</ele><time>2026-05-03T09:35:04.276Z</time></trkpt><trkpt lat="43.187775" lon="12.1518909"><ele>273.0</ele><time>2026-05-03T09:35:05.271Z</time></trkpt><trkpt lat="43.1877179" lon="12.1518014"><ele>273.0</ele><time>2026-05-03T09:35:06.268Z</time></trkpt><trkpt lat="43.1876626" lon="12.1517499"><ele>273.0</ele><time>2026-05-03T09:35:07.278Z</time></trkpt><trkpt lat="43.1876053" lon="12.1516805"><ele>273.0</ele><time>2026-05-03T09:35:08.271Z</time></trkpt><trkpt lat="43.1875469" lon="12.1516246"><ele>273.0</ele><time>2026-05-03T09:35:09.282Z</time></trkpt><trkpt lat="43.187487" lon="12.1515621"><ele>273.0</ele><time>2026-05-03T09:35:10.281Z</time></trkpt><trkpt lat="43.187424" lon="12.1515069"><ele>273.0</ele><time>2026-05-03T09:35:11.277Z</time></trkpt><trkpt lat="43.1873542" lon="12.151462"><ele>273.0</ele><time>2026-05-03T09:35:12.277Z</time></trkpt><trkpt lat="43.1872901" lon="12.1514332"><ele>272.57142857142856</ele><time>2026-05-03T09:35:13.287Z</time></trkpt><trkpt lat="43.1872246" lon="12.1514093"><ele>272.1428571428571</ele><time>2026-05-03T09:35:14.271Z</time></trkpt><trkpt lat="43.1871587" lon="12.1513808"><ele>271.7142857142857</ele><time>2026-05-03T09:35:15.274Z</time></trkpt><trkpt lat="43.1870922" lon="12.1513681"><ele>271.2857142857143</ele><time>2026-05-03T09:35:16.279Z</time></trkpt><trkpt lat="43.1870213" lon="12.1513523"><ele>270.85714285714283</ele><time>2026-05-03T09:35:17.275Z</time></trkpt><trkpt lat="43.1869468" lon="12.1513389"><ele>270.42857142857144</ele><time>2026-05-03T09:35:18.259Z</time></trkpt><trkpt lat="43.1868764" lon="12.1513313"><ele>270.0</ele><time>2026-05-03T09:35:19.273Z</time></trkpt><trkpt lat="43.1868068" lon="12.151323"><ele>270.0</ele><time>2026-05-03T09:35:20.275Z</time></trkpt><trkpt lat="43.186736" lon="12.151313"><ele>270.0</ele><time>2026-05-03T09:35:21.277Z</time></trkpt><trkpt lat="43.1866662" lon="12.1512934"><ele>270.0</ele><time>2026-05-03T09:35:22.27Z</time></trkpt><trkpt lat="43.1865901" lon="12.1512857"><ele>270.0</ele><time>2026-05-03T09:35:23.368Z</time></trkpt><trkpt lat="43.1865197" lon="12.1512779"><ele>270.0</ele><time>2026-05-03T09:35:24.273Z</time></trkpt><trkpt lat="43.1864469" lon="12.1512659"><ele>270.0</ele><time>2026-05-03T09:35:25.274Z</time></trkpt><trkpt lat="43.1863748" lon="12.1512618"><ele>270.0</ele><time>2026-05-03T09:35:26.274Z</time></trkpt><trkpt lat="43.1863024" lon="12.151251"><ele>269.6666666666667</ele><time>2026-05-03T09:35:27.273Z</time></trkpt><trkpt lat="43.1862254" lon="12.1512446"><ele>269.3333333333333</ele><time>2026-05-03T09:35:28.274Z</time></trkpt><trkpt lat="43.1861515" lon="12.1512322"><ele>269.0</ele><time>2026-05-03T09:35:29.271Z</time></trkpt><trkpt lat="43.186082" lon="12.1512259"><ele>268.66666666666663</ele><time>2026-05-03T09:35:30.278Z</time></trkpt><trkpt lat="43.1860159" lon="12.1512236"><ele>268.3333333333333</ele><time>2026-05-03T09:35:31.27Z</time></trkpt><trkpt lat="43.1858961" lon="12.151221"><ele>268.0</ele><time>2026-05-03T09:35:33.269Z</time></trkpt><trkpt lat="43.185829" lon="12.1512233"><ele>268.0</ele><time>2026-05-03T09:35:34.268Z</time></trkpt><trkpt lat="43.1857154" lon="12.1511816"><ele>268.0</ele><time>2026-05-03T09:35:36.273Z</time></trkpt><trkpt lat="43.1856308" lon="12.1510839"><ele>268.0</ele><time>2026-05-03T09:35:38.282Z</time></trkpt><trkpt lat="43.1855717" lon="12.1509407"><ele>268.0</ele><time>2026-05-03T09:35:40.272Z</time></trkpt><trkpt lat="43.1855367" lon="12.1507848"><ele>267.2</ele><time>2026-05-03T09:35:42.281Z</time></trkpt><trkpt lat="43.1854806" lon="12.1506391"><ele>266.4</ele><time>2026-05-03T09:35:44.27Z</time></trkpt><trkpt lat="43.1854489" lon="12.1505033"><ele>265.59999999999997</ele><time>2026-05-03T09:35:46.274Z</time></trkpt><trkpt lat="43.1854117" lon="12.1503803"><ele>264.8</ele><time>2026-05-03T09:35:48.292Z</time></trkpt><trkpt lat="43.1854037" lon="12.1502621"><ele>264.0</ele><time>2026-05-03T09:35:50.266Z</time></trkpt><trkpt lat="43.1853949" lon="12.1501264"><ele>264.0</ele><time>2026-05-03T09:35:52.28Z</time></trkpt><trkpt lat="43.1853845" lon="12.1499884"><ele>264.0</ele><time>2026-05-03T09:35:54.27Z</time></trkpt><trkpt lat="43.1853669" lon="12.1498647"><ele>264.0</ele><time>2026-05-03T09:35:56.274Z</time></trkpt><trkpt lat="43.1853575" lon="12.1497477"><ele>264.0</ele><time>2026-05-03T09:35:58.281Z</time></trkpt><trkpt lat="43.18535" lon="12.1496339"><ele>264.0</ele><time>2026-05-03T09:36:00.276Z</time></trkpt><trkpt lat="43.1853421" lon="12.149541"><ele>264.0</ele><time>2026-05-03T09:36:02.277Z</time></trkpt><trkpt lat="43.1853217" lon="12.1494327"><ele>264.8</ele><time>2026-05-03T09:36:04.282Z</time></trkpt><trkpt lat="43.1852741" lon="12.1493224"><ele>265.59999999999997</ele><time>2026-05-03T09:36:06.273Z</time></trkpt><trkpt lat="43.1852377" lon="12.1492067"><ele>266.4</ele><time>2026-05-03T09:36:08.281Z</time></trkpt><trkpt lat="43.185202" lon="12.1490836"><ele>267.2</ele><time>2026-05-03T09:36:10.28Z</time></trkpt><trkpt lat="43.1851604" lon="12.1489583"><ele>268.0</ele><time>2026-05-03T09:36:12.278Z</time></trkpt><trkpt lat="43.1851114" lon="12.1488489"><ele>269.25</ele><time>2026-05-03T09:36:14.283Z</time></trkpt><trkpt lat="43.1850559" lon="12.1487166"><ele>270.5</ele><time>2026-05-03T09:36:16.291Z</time></trkpt><trkpt lat="43.185015" lon="12.148573"><ele>271.75</ele><time>2026-05-03T09:36:18.276Z</time></trkpt><trkpt lat="43.1849866" lon="12.1484195"><ele>273.0</ele><time>2026-05-03T09:36:20.27Z</time></trkpt><trkpt lat="43.1849627" lon="12.1482602"><ele>274.0</ele><time>2026-05-03T09:36:22.271Z</time></trkpt><trkpt lat="43.1849111" lon="12.1481035"><ele>275.0</ele><time>2026-05-03T09:36:24.272Z</time></trkpt><trkpt lat="43.1848838" lon="12.1480238"><ele>276.0</ele><time>2026-05-03T09:36:25.27Z</time></trkpt><trkpt lat="43.184831" lon="12.1478957"><ele>277.0</ele><time>2026-05-03T09:36:27.271Z</time></trkpt><trkpt lat="43.1847644" lon="12.1478004"><ele>278.0</ele><time>2026-05-03T09:36:29.266Z</time></trkpt><trkpt lat="43.1846819" lon="12.1477284"><ele>274.83333333333337</ele><time>2026-05-03T09:36:31.272Z</time></trkpt><trkpt lat="43.1846313" lon="12.1476298"><ele>271.6666666666667</ele><time>2026-05-03T09:36:33.266Z</time></trkpt><trkpt lat="43.1845818" lon="12.1475649"><ele>268.5</ele><time>2026-05-03T09:36:35.271Z</time></trkpt><trkpt lat="43.1845161" lon="12.1475249"><ele>265.3333333333333</ele><time>2026-05-03T09:36:47.266Z</time></trkpt><trkpt lat="43.1845142" lon="12.147435"><ele>262.16666666666663</ele><time>2026-05-03T09:36:51.279Z</time></trkpt><trkpt lat="43.1845414" lon="12.1473245"><ele>259.0</ele><time>2026-05-03T09:36:54.271Z</time></trkpt><trkpt lat="43.1845632" lon="12.1472236"><ele>259.0</ele><time>2026-05-03T09:36:56.272Z</time></trkpt><trkpt lat="43.1845849" lon="12.1471092"><ele>259.0</ele><time>2026-05-03T09:36:58.271Z</time></trkpt><trkpt lat="43.1846077" lon="12.1470026"><ele>259.0</ele><time>2026-05-03T09:37:00.275Z</time></trkpt><trkpt lat="43.1846346" lon="12.1468971"><ele>259.0</ele><time>2026-05-03T09:37:02.286Z</time></trkpt><trkpt lat="43.1846796" lon="12.1467937"><ele>259.0</ele><time>2026-05-03T09:37:04.273Z</time></trkpt><trkpt lat="43.1847016" lon="12.146676"><ele>259.0</ele><time>2026-05-03T09:37:06.272Z</time></trkpt><trkpt lat="43.1847291" lon="12.1465424"><ele>258.8</ele><time>2026-05-03T09:37:08.274Z</time></trkpt><trkpt lat="43.1847533" lon="12.1464092"><ele>258.59999999999997</ele><time>2026-05-03T09:37:10.27Z</time></trkpt><trkpt lat="43.1848035" lon="12.1462093"><ele>258.4</ele><time>2026-05-03T09:37:13.272Z</time></trkpt><trkpt lat="43.184838" lon="12.1460858"><ele>258.2</ele><time>2026-05-03T09:37:15.269Z</time></trkpt><trkpt lat="43.1848496" lon="12.1459698"><ele>258.0</ele><time>2026-05-03T09:37:17.381Z</time></trkpt><trkpt lat="43.1848467" lon="12.1458359"><ele>258.8333333333333</ele><time>2026-05-03T09:37:19.281Z</time></trkpt><trkpt lat="43.1848562" lon="12.1457133"><ele>259.6666666666667</ele><time>2026-05-03T09:37:21.275Z</time></trkpt><trkpt lat="43.1848802" lon="12.1456037"><ele>260.5</ele><time>2026-05-03T09:37:23.287Z</time></trkpt><trkpt lat="43.184893" lon="12.145471"><ele>261.33333333333337</ele><time>2026-05-03T09:37:25.27Z</time></trkpt><trkpt lat="43.1849196" lon="12.1453624"><ele>262.1666666666667</ele><time>2026-05-03T09:37:27.268Z</time></trkpt><trkpt lat="43.1849429" lon="12.1452417"><ele>263.0</ele><time>2026-05-03T09:37:30.265Z</time></trkpt><trkpt lat="43.1849606" lon="12.1451428"><ele>263.0</ele><time>2026-05-03T09:37:35.379Z</time></trkpt><trkpt lat="43.1849798" lon="12.1450299"><ele>263.0</ele><time>2026-05-03T09:37:39.269Z</time></trkpt><trkpt lat="43.1849894" lon="12.1449248"><ele>263.0</ele><time>2026-05-03T09:37:42.261Z</time></trkpt><trkpt lat="43.184997" lon="12.1448111"><ele>263.0</ele><time>2026-05-03T09:37:45.275Z</time></trkpt><trkpt lat="43.1850153" lon="12.1446925"><ele>263.0</ele><time>2026-05-03T09:37:48.273Z</time></trkpt><trkpt lat="43.1850242" lon="12.144598"><ele>263.0</ele><time>2026-05-03T09:37:50.255Z</time></trkpt><trkpt lat="43.1850273" lon="12.1445056"><ele>262.85714285714283</ele><time>2026-05-03T09:37:52.269Z</time></trkpt><trkpt lat="43.1850263" lon="12.1444086"><ele>262.71428571428567</ele><time>2026-05-03T09:37:54.254Z</time></trkpt><trkpt lat="43.1850111" lon="12.1443188"><ele>262.57142857142856</ele><time>2026-05-03T09:37:56.272Z</time></trkpt><trkpt lat="43.1849605" lon="12.1442644"><ele>262.42857142857144</ele><time>2026-05-03T09:37:59.271Z</time></trkpt><trkpt lat="43.1848831" lon="12.144241"><ele>262.28571428571433</ele><time>2026-05-03T09:38:02.278Z</time></trkpt><trkpt lat="43.1847995" lon="12.1442096"><ele>262.14285714285717</ele><time>2026-05-03T09:38:05.281Z</time></trkpt><trkpt lat="43.184725" lon="12.1442226"><ele>262.0</ele><time>2026-05-03T09:38:08.26Z</time></trkpt><trkpt lat="43.1846583" lon="12.1442629"><ele>260.66666666666663</ele><time>2026-05-03T09:38:11.271Z</time></trkpt><trkpt lat="43.1846095" lon="12.1443192"><ele>259.3333333333333</ele><time>2026-05-03T09:38:14.269Z</time></trkpt><trkpt lat="43.1845702" lon="12.1443996"><ele>258.0</ele><time>2026-05-03T09:38:17.256Z</time></trkpt><trkpt lat="43.1845133" lon="12.1444961"><ele>256.6666666666667</ele><time>2026-05-03T09:38:20.29Z</time></trkpt><trkpt lat="43.1844566" lon="12.1445881"><ele>255.33333333333334</ele><time>2026-05-03T09:38:23.279Z</time></trkpt><trkpt lat="43.1844031" lon="12.1446673"><ele>254.0</ele><time>2026-05-03T09:38:26.27Z</time></trkpt><trkpt lat="43.1843631" lon="12.1447516"><ele>254.00000000000003</ele><time>2026-05-03T09:38:29.254Z</time></trkpt><trkpt lat="43.1843705" lon="12.1448529"><ele>254.0</ele><time>2026-05-03T09:40:37.267Z</time></trkpt><trkpt lat="43.1843743" lon="12.1449636"><ele>254.0</ele><time>2026-05-03T09:40:41.358Z</time></trkpt><trkpt lat="43.1843548" lon="12.1450692"><ele>254.0</ele><time>2026-05-03T09:40:45.274Z</time></trkpt><trkpt lat="43.1843312" lon="12.1451815"><ele>254.00000000000003</ele><time>2026-05-03T09:40:48.266Z</time></trkpt><trkpt lat="43.184312" lon="12.1452685"><ele>254.0</ele><time>2026-05-03T09:40:50.27Z</time></trkpt><trkpt lat="43.1842912" lon="12.1453914"><ele>254.33333333333334</ele><time>2026-05-03T09:40:53.27Z</time></trkpt><trkpt lat="43.1842754" lon="12.1455002"><ele>254.66666666666669</ele><time>2026-05-03T09:40:56.27Z</time></trkpt><trkpt lat="43.1842554" lon="12.1456083"><ele>255.0</ele><time>2026-05-03T09:40:59.274Z</time></trkpt><trkpt lat="43.1842345" lon="12.1457177"><ele>255.33333333333331</ele><time>2026-05-03T09:41:02.268Z</time></trkpt><trkpt lat="43.184212" lon="12.1458276"><ele>255.66666666666666</ele><time>2026-05-03T09:41:05.273Z</time></trkpt><trkpt lat="43.1841842" lon="12.1459206"><ele>256.0</ele><time>2026-05-03T09:41:08.271Z</time></trkpt><trkpt lat="43.1841644" lon="12.146003"><ele>256.2857142857143</ele><time>2026-05-03T09:41:10.268Z</time></trkpt><trkpt lat="43.1841404" lon="12.1461025"><ele>256.57142857142856</ele><time>2026-05-03T09:41:13.278Z</time></trkpt><trkpt lat="43.1841159" lon="12.1462105"><ele>256.85714285714283</ele><time>2026-05-03T09:41:16.271Z</time></trkpt><trkpt lat="43.1840694" lon="12.1462729"><ele>257.1428571428571</ele><time>2026-05-03T09:41:21.276Z</time></trkpt><trkpt lat="43.1841352" lon="12.1462903"><ele>257.42857142857144</ele><time>2026-05-03T09:41:27.274Z</time></trkpt><trkpt lat="43.1842031" lon="12.1462257"><ele>257.71428571428567</ele><time>2026-05-03T09:41:31.27Z</time></trkpt><trkpt lat="43.1842367" lon="12.1461398"><ele>258.0</ele><time>2026-05-03T09:41:34.258Z</time></trkpt><trkpt lat="43.1842664" lon="12.1460608"><ele>258.0</ele><time>2026-05-03T09:41:37.272Z</time></trkpt><trkpt lat="43.1842931" lon="12.1459752"><ele>258.0</ele><time>2026-05-03T09:41:41.27Z</time></trkpt><trkpt lat="43.1842987" lon="12.1458876"><ele>258.0</ele><time>2026-05-03T09:41:45.255Z</time></trkpt><trkpt lat="43.1842372" lon="12.1458551"><ele>258.0</ele><time>2026-05-03T09:41:51.255Z</time></trkpt><trkpt lat="43.1841708" lon="12.1458642"><ele>258.0</ele><time>2026-05-03T09:42:11.268Z</time></trkpt></trkseg></trk></gpx>